<?xml version="1.0" encoding="UTF-8" standalone="no" ?>
<gpx xmlns="http://www.topografix.com/GPX/1/1" xmlns:xsi="http://www.w3.org/2001/XMLSchema-instance" xsi:schemaLocation="http://www.topografix.com/GPX/1/1 http://www.topografix.com/GPX/1/1/gpx.xsd" version="1.1" creator="VisuGPX - https://www.visugpx.com">
  <metadata>
    <name>2021-01-08-Petite Sambuy</name>
    <desc><![CDATA[Station de Seythenex
Pour conditions douteuses]]></desc>
  </metadata>
  <trk>
    <name><![CDATA[2021-01-08-Petite Sambuy_1]]></name>
    <trkseg>
      <trkpt lat="45.7143" lon="6.27538">
        <ele>1111</ele>
        <time>2021-02-08T07:52:22Z</time>
      </trkpt>
      <trkpt lat="45.7137" lon="6.27534">
        <ele>1141.1</ele>
        <time>2021-02-08T07:52:37Z</time>
      </trkpt>
      <trkpt lat="45.71368" lon="6.27533">
        <ele>1142.2</ele>
        <time>2021-02-08T07:52:40Z</time>
      </trkpt>
      <trkpt lat="45.71366" lon="6.27531">
        <ele>1143.3</ele>
        <time>2021-02-08T07:52:44Z</time>
      </trkpt>
      <trkpt lat="45.71369" lon="6.27533">
        <ele>1141.6</ele>
        <time>2021-02-08T07:52:54Z</time>
      </trkpt>
      <trkpt lat="45.7137" lon="6.27525">
        <ele>1141.3</ele>
        <time>2021-02-08T07:53:01Z</time>
      </trkpt>
      <trkpt lat="45.7137" lon="6.27524">
        <ele>1141.3</ele>
        <time>2021-02-08T07:53:03Z</time>
      </trkpt>
      <trkpt lat="45.71371" lon="6.27521">
        <ele>1140.9</ele>
        <time>2021-02-08T07:53:06Z</time>
      </trkpt>
      <trkpt lat="45.71371" lon="6.27519">
        <ele>1141</ele>
        <time>2021-02-08T07:53:08Z</time>
      </trkpt>
      <trkpt lat="45.7137" lon="6.27516">
        <ele>1141.6</ele>
        <time>2021-02-08T07:53:10Z</time>
      </trkpt>
      <trkpt lat="45.71366" lon="6.27511">
        <ele>1144</ele>
        <time>2021-02-08T07:53:17Z</time>
      </trkpt>
      <trkpt lat="45.71361" lon="6.2751">
        <ele>1146.6</ele>
        <time>2021-02-08T07:53:26Z</time>
      </trkpt>
      <trkpt lat="45.7133" lon="6.27483">
        <ele>1149.8</ele>
        <time>2021-02-08T07:53:28Z</time>
      </trkpt>
      <trkpt lat="45.71329" lon="6.27485">
        <ele>1150</ele>
        <time>2021-02-08T07:53:29Z</time>
      </trkpt>
      <trkpt lat="45.71329" lon="6.27485">
        <ele>1150</ele>
        <time>2021-02-08T07:53:30Z</time>
      </trkpt>
      <trkpt lat="45.7133" lon="6.27492">
        <ele>1149.4</ele>
        <time>2021-02-08T07:53:34Z</time>
      </trkpt>
      <trkpt lat="45.71332" lon="6.27502">
        <ele>1148.4</ele>
        <time>2021-02-08T07:53:40Z</time>
      </trkpt>
      <trkpt lat="45.71332" lon="6.27503">
        <ele>1148.5</ele>
        <time>2021-02-08T07:53:41Z</time>
      </trkpt>
      <trkpt lat="45.71335" lon="6.27513">
        <ele>1148.4</ele>
        <time>2021-02-08T07:53:49Z</time>
      </trkpt>
      <trkpt lat="45.71339" lon="6.27521">
        <ele>1148.2</ele>
        <time>2021-02-08T07:53:55Z</time>
      </trkpt>
      <trkpt lat="45.71339" lon="6.27526">
        <ele>1148.4</ele>
        <time>2021-02-08T07:53:59Z</time>
      </trkpt>
      <trkpt lat="45.7134" lon="6.27526">
        <ele>1148.2</ele>
        <time>2021-02-08T07:54:00Z</time>
      </trkpt>
      <trkpt lat="45.71339" lon="6.27527">
        <ele>1148.4</ele>
        <time>2021-02-08T07:54:03Z</time>
      </trkpt>
      <trkpt lat="45.71339" lon="6.27527">
        <ele>1148.4</ele>
        <time>2021-02-08T07:54:05Z</time>
      </trkpt>
      <trkpt lat="45.71339" lon="6.27527">
        <ele>1148.4</ele>
        <time>2021-02-08T07:54:08Z</time>
      </trkpt>
      <trkpt lat="45.71339" lon="6.27527">
        <ele>1148.4</ele>
        <time>2021-02-08T07:54:21Z</time>
      </trkpt>
      <trkpt lat="45.71339" lon="6.27527">
        <ele>1148.4</ele>
        <time>2021-02-08T07:54:25Z</time>
      </trkpt>
      <trkpt lat="45.71338" lon="6.27526">
        <ele>1148.5</ele>
        <time>2021-02-08T07:54:30Z</time>
      </trkpt>
      <trkpt lat="45.71339" lon="6.27527">
        <ele>1148.4</ele>
        <time>2021-02-08T07:54:35Z</time>
      </trkpt>
      <trkpt lat="45.7134" lon="6.27527">
        <ele>1148.3</ele>
        <time>2021-02-08T07:54:39Z</time>
      </trkpt>
      <trkpt lat="45.71341" lon="6.27528">
        <ele>1148.2</ele>
        <time>2021-02-08T07:54:46Z</time>
      </trkpt>
      <trkpt lat="45.71341" lon="6.27528">
        <ele>1148.2</ele>
        <time>2021-02-08T07:54:47Z</time>
      </trkpt>
      <trkpt lat="45.71341" lon="6.27528">
        <ele>1148.2</ele>
        <time>2021-02-08T07:54:48Z</time>
      </trkpt>
      <trkpt lat="45.71342" lon="6.27528">
        <ele>1148.1</ele>
        <time>2021-02-08T07:54:52Z</time>
      </trkpt>
      <trkpt lat="45.71344" lon="6.27529">
        <ele>1147.8</ele>
        <time>2021-02-08T07:54:55Z</time>
      </trkpt>
      <trkpt lat="45.71344" lon="6.2753">
        <ele>1147.8</ele>
        <time>2021-02-08T07:55:02Z</time>
      </trkpt>
      <trkpt lat="45.71344" lon="6.2753">
        <ele>1147.8</ele>
        <time>2021-02-08T07:55:05Z</time>
      </trkpt>
      <trkpt lat="45.71341" lon="6.2753">
        <ele>1148.2</ele>
        <time>2021-02-08T07:55:14Z</time>
      </trkpt>
      <trkpt lat="45.71341" lon="6.2753">
        <ele>1148.2</ele>
        <time>2021-02-08T07:55:16Z</time>
      </trkpt>
      <trkpt lat="45.71344" lon="6.27529">
        <ele>1147.8</ele>
        <time>2021-02-08T07:55:24Z</time>
      </trkpt>
      <trkpt lat="45.71343" lon="6.27529">
        <ele>1148</ele>
        <time>2021-02-08T07:55:26Z</time>
      </trkpt>
      <trkpt lat="45.71343" lon="6.27529">
        <ele>1148</ele>
        <time>2021-02-08T07:55:28Z</time>
      </trkpt>
      <trkpt lat="45.71344" lon="6.27528">
        <ele>1147.8</ele>
        <time>2021-02-08T07:55:29Z</time>
      </trkpt>
      <trkpt lat="45.7134" lon="6.27527">
        <ele>1148.3</ele>
        <time>2021-02-08T07:55:42Z</time>
      </trkpt>
      <trkpt lat="45.71339" lon="6.27527">
        <ele>1148.4</ele>
        <time>2021-02-08T07:55:44Z</time>
      </trkpt>
      <trkpt lat="45.71337" lon="6.27527">
        <ele>1148.6</ele>
        <time>2021-02-08T07:55:49Z</time>
      </trkpt>
      <trkpt lat="45.71338" lon="6.27528">
        <ele>1148.5</ele>
        <time>2021-02-08T07:55:58Z</time>
      </trkpt>
      <trkpt lat="45.71337" lon="6.27528">
        <ele>1148.6</ele>
        <time>2021-02-08T07:55:59Z</time>
      </trkpt>
      <trkpt lat="45.71337" lon="6.27528">
        <ele>1148.6</ele>
        <time>2021-02-08T07:56:01Z</time>
      </trkpt>
      <trkpt lat="45.71336" lon="6.27529">
        <ele>1148.7</ele>
        <time>2021-02-08T07:56:06Z</time>
      </trkpt>
      <trkpt lat="45.71337" lon="6.27527">
        <ele>1148.6</ele>
        <time>2021-02-08T07:56:15Z</time>
      </trkpt>
      <trkpt lat="45.71338" lon="6.27527">
        <ele>1148.5</ele>
        <time>2021-02-08T07:56:18Z</time>
      </trkpt>
      <trkpt lat="45.71338" lon="6.27528">
        <ele>1148.5</ele>
        <time>2021-02-08T07:56:19Z</time>
      </trkpt>
      <trkpt lat="45.71338" lon="6.27527">
        <ele>1148.5</ele>
        <time>2021-02-08T07:56:23Z</time>
      </trkpt>
      <trkpt lat="45.71338" lon="6.27527">
        <ele>1148.5</ele>
        <time>2021-02-08T07:56:26Z</time>
      </trkpt>
      <trkpt lat="45.71338" lon="6.27527">
        <ele>1148.5</ele>
        <time>2021-02-08T07:56:28Z</time>
      </trkpt>
      <trkpt lat="45.71339" lon="6.27527">
        <ele>1148.4</ele>
        <time>2021-02-08T07:56:30Z</time>
      </trkpt>
      <trkpt lat="45.71339" lon="6.27527">
        <ele>1148.4</ele>
        <time>2021-02-08T07:56:31Z</time>
      </trkpt>
      <trkpt lat="45.71338" lon="6.27528">
        <ele>1148.5</ele>
        <time>2021-02-08T07:56:33Z</time>
      </trkpt>
      <trkpt lat="45.71338" lon="6.27528">
        <ele>1148.5</ele>
        <time>2021-02-08T07:56:44Z</time>
      </trkpt>
      <trkpt lat="45.71338" lon="6.27528">
        <ele>1148.5</ele>
        <time>2021-02-08T07:56:47Z</time>
      </trkpt>
      <trkpt lat="45.71338" lon="6.27528">
        <ele>1148.5</ele>
        <time>2021-02-08T07:56:52Z</time>
      </trkpt>
      <trkpt lat="45.71337" lon="6.27528">
        <ele>1148.6</ele>
        <time>2021-02-08T07:56:53Z</time>
      </trkpt>
      <trkpt lat="45.71337" lon="6.27528">
        <ele>1148.6</ele>
        <time>2021-02-08T07:57:00Z</time>
      </trkpt>
      <trkpt lat="45.71337" lon="6.27528">
        <ele>1148.6</ele>
        <time>2021-02-08T07:57:04Z</time>
      </trkpt>
      <trkpt lat="45.71337" lon="6.27528">
        <ele>1148.6</ele>
        <time>2021-02-08T07:57:05Z</time>
      </trkpt>
      <trkpt lat="45.71337" lon="6.27529">
        <ele>1148.6</ele>
        <time>2021-02-08T07:57:08Z</time>
      </trkpt>
      <trkpt lat="45.71337" lon="6.27529">
        <ele>1148.6</ele>
        <time>2021-02-08T07:57:11Z</time>
      </trkpt>
      <trkpt lat="45.71339" lon="6.27529">
        <ele>1148.4</ele>
        <time>2021-02-08T07:57:17Z</time>
      </trkpt>
      <trkpt lat="45.71339" lon="6.27529">
        <ele>1148.4</ele>
        <time>2021-02-08T07:57:18Z</time>
      </trkpt>
      <trkpt lat="45.71339" lon="6.27529">
        <ele>1148.4</ele>
        <time>2021-02-08T07:57:20Z</time>
      </trkpt>
      <trkpt lat="45.71337" lon="6.27529">
        <ele>1148.6</ele>
        <time>2021-02-08T07:57:26Z</time>
      </trkpt>
      <trkpt lat="45.71337" lon="6.27529">
        <ele>1148.6</ele>
        <time>2021-02-08T07:57:27Z</time>
      </trkpt>
      <trkpt lat="45.71338" lon="6.27531">
        <ele>1148.5</ele>
        <time>2021-02-08T07:57:37Z</time>
      </trkpt>
      <trkpt lat="45.71339" lon="6.27531">
        <ele>1148.4</ele>
        <time>2021-02-08T07:57:47Z</time>
      </trkpt>
      <trkpt lat="45.71339" lon="6.27531">
        <ele>1148.4</ele>
        <time>2021-02-08T07:57:48Z</time>
      </trkpt>
      <trkpt lat="45.71342" lon="6.27531">
        <ele>1148.1</ele>
        <time>2021-02-08T07:57:55Z</time>
      </trkpt>
      <trkpt lat="45.71341" lon="6.27531">
        <ele>1148.2</ele>
        <time>2021-02-08T07:58:13Z</time>
      </trkpt>
      <trkpt lat="45.71341" lon="6.2753">
        <ele>1148.2</ele>
        <time>2021-02-08T07:58:18Z</time>
      </trkpt>
      <trkpt lat="45.7134" lon="6.2753">
        <ele>1148.3</ele>
        <time>2021-02-08T07:58:21Z</time>
      </trkpt>
      <trkpt lat="45.71339" lon="6.2753">
        <ele>1148.4</ele>
        <time>2021-02-08T07:58:25Z</time>
      </trkpt>
      <trkpt lat="45.71341" lon="6.2753">
        <ele>1148.2</ele>
        <time>2021-02-08T07:58:30Z</time>
      </trkpt>
      <trkpt lat="45.71342" lon="6.2753">
        <ele>1148.1</ele>
        <time>2021-02-08T07:58:37Z</time>
      </trkpt>
      <trkpt lat="45.71343" lon="6.2753">
        <ele>1148</ele>
        <time>2021-02-08T07:58:48Z</time>
      </trkpt>
      <trkpt lat="45.71344" lon="6.2753">
        <ele>1147.8</ele>
        <time>2021-02-08T07:58:52Z</time>
      </trkpt>
      <trkpt lat="45.71345" lon="6.27531">
        <ele>1147.7</ele>
        <time>2021-02-08T07:58:54Z</time>
      </trkpt>
      <trkpt lat="45.71347" lon="6.2753">
        <ele>1147.5</ele>
        <time>2021-02-08T07:59:07Z</time>
      </trkpt>
      <trkpt lat="45.71346" lon="6.27531">
        <ele>1147.6</ele>
        <time>2021-02-08T07:59:22Z</time>
      </trkpt>
      <trkpt lat="45.71348" lon="6.27532">
        <ele>1147.4</ele>
        <time>2021-02-08T07:59:27Z</time>
      </trkpt>
      <trkpt lat="45.71349" lon="6.27532">
        <ele>1147.3</ele>
        <time>2021-02-08T07:59:36Z</time>
      </trkpt>
      <trkpt lat="45.71345" lon="6.27531">
        <ele>1147.7</ele>
        <time>2021-02-08T07:59:39Z</time>
      </trkpt>
      <trkpt lat="45.71344" lon="6.27531">
        <ele>1147.8</ele>
        <time>2021-02-08T07:59:40Z</time>
      </trkpt>
      <trkpt lat="45.71338" lon="6.27528">
        <ele>1148.5</ele>
        <time>2021-02-08T07:59:50Z</time>
      </trkpt>
      <trkpt lat="45.71338" lon="6.27528">
        <ele>1148.5</ele>
        <time>2021-02-08T07:59:51Z</time>
      </trkpt>
      <trkpt lat="45.71337" lon="6.27526">
        <ele>1148.6</ele>
        <time>2021-02-08T07:59:53Z</time>
      </trkpt>
      <trkpt lat="45.71336" lon="6.27525">
        <ele>1148.6</ele>
        <time>2021-02-08T07:59:54Z</time>
      </trkpt>
      <trkpt lat="45.71335" lon="6.27524">
        <ele>1148.7</ele>
        <time>2021-02-08T07:59:55Z</time>
      </trkpt>
      <trkpt lat="45.71332" lon="6.27523">
        <ele>1149.1</ele>
        <time>2021-02-08T07:59:57Z</time>
      </trkpt>
      <trkpt lat="45.71328" lon="6.27519">
        <ele>1150</ele>
        <time>2021-02-08T08:00:01Z</time>
      </trkpt>
      <trkpt lat="45.71327" lon="6.27517">
        <ele>1150.2</ele>
        <time>2021-02-08T08:00:03Z</time>
      </trkpt>
      <trkpt lat="45.71327" lon="6.27516">
        <ele>1150.1</ele>
        <time>2021-02-08T08:00:04Z</time>
      </trkpt>
      <trkpt lat="45.71326" lon="6.27515">
        <ele>1150.4</ele>
        <time>2021-02-08T08:00:06Z</time>
      </trkpt>
      <trkpt lat="45.71326" lon="6.27513">
        <ele>1150.3</ele>
        <time>2021-02-08T08:00:08Z</time>
      </trkpt>
      <trkpt lat="45.71325" lon="6.27511">
        <ele>1150.6</ele>
        <time>2021-02-08T08:00:10Z</time>
      </trkpt>
      <trkpt lat="45.71324" lon="6.27508">
        <ele>1150.8</ele>
        <time>2021-02-08T08:00:13Z</time>
      </trkpt>
      <trkpt lat="45.71324" lon="6.27505">
        <ele>1150.7</ele>
        <time>2021-02-08T08:00:16Z</time>
      </trkpt>
      <trkpt lat="45.71324" lon="6.27504">
        <ele>1150.7</ele>
        <time>2021-02-08T08:00:17Z</time>
      </trkpt>
      <trkpt lat="45.71323" lon="6.27503">
        <ele>1151</ele>
        <time>2021-02-08T08:00:19Z</time>
      </trkpt>
      <trkpt lat="45.71322" lon="6.27501">
        <ele>1151.3</ele>
        <time>2021-02-08T08:00:21Z</time>
      </trkpt>
      <trkpt lat="45.71321" lon="6.27497">
        <ele>1151.8</ele>
        <time>2021-02-08T08:00:25Z</time>
      </trkpt>
      <trkpt lat="45.71319" lon="6.27492">
        <ele>1152.9</ele>
        <time>2021-02-08T08:00:29Z</time>
      </trkpt>
      <trkpt lat="45.71319" lon="6.27488">
        <ele>1153.2</ele>
        <time>2021-02-08T08:00:32Z</time>
      </trkpt>
      <trkpt lat="45.71318" lon="6.27484">
        <ele>1153.9</ele>
        <time>2021-02-08T08:00:35Z</time>
      </trkpt>
      <trkpt lat="45.71317" lon="6.27481">
        <ele>1154.6</ele>
        <time>2021-02-08T08:00:37Z</time>
      </trkpt>
      <trkpt lat="45.71317" lon="6.27478">
        <ele>1154.9</ele>
        <time>2021-02-08T08:00:40Z</time>
      </trkpt>
      <trkpt lat="45.71318" lon="6.27473">
        <ele>1155</ele>
        <time>2021-02-08T08:00:44Z</time>
      </trkpt>
      <trkpt lat="45.71318" lon="6.27472">
        <ele>1155.1</ele>
        <time>2021-02-08T08:00:45Z</time>
      </trkpt>
      <trkpt lat="45.71317" lon="6.27466">
        <ele>1155.9</ele>
        <time>2021-02-08T08:00:50Z</time>
      </trkpt>
      <trkpt lat="45.71318" lon="6.27465">
        <ele>1155.6</ele>
        <time>2021-02-08T08:00:51Z</time>
      </trkpt>
      <trkpt lat="45.71318" lon="6.27462">
        <ele>1155.8</ele>
        <time>2021-02-08T08:00:53Z</time>
      </trkpt>
      <trkpt lat="45.71318" lon="6.2746">
        <ele>1156</ele>
        <time>2021-02-08T08:00:56Z</time>
      </trkpt>
      <trkpt lat="45.71318" lon="6.27457">
        <ele>1156.2</ele>
        <time>2021-02-08T08:00:59Z</time>
      </trkpt>
      <trkpt lat="45.71318" lon="6.27456">
        <ele>1156.2</ele>
        <time>2021-02-08T08:01:00Z</time>
      </trkpt>
      <trkpt lat="45.71318" lon="6.27455">
        <ele>1156.3</ele>
        <time>2021-02-08T08:01:01Z</time>
      </trkpt>
      <trkpt lat="45.71317" lon="6.27445">
        <ele>1157.4</ele>
        <time>2021-02-08T08:01:09Z</time>
      </trkpt>
      <trkpt lat="45.71317" lon="6.27442">
        <ele>1157.9</ele>
        <time>2021-02-08T08:01:12Z</time>
      </trkpt>
      <trkpt lat="45.71317" lon="6.27434">
        <ele>1159.4</ele>
        <time>2021-02-08T08:01:19Z</time>
      </trkpt>
      <trkpt lat="45.71318" lon="6.27429">
        <ele>1159.9</ele>
        <time>2021-02-08T08:01:25Z</time>
      </trkpt>
      <trkpt lat="45.71317" lon="6.27427">
        <ele>1160.7</ele>
        <time>2021-02-08T08:01:28Z</time>
      </trkpt>
      <trkpt lat="45.71314" lon="6.27426">
        <ele>1162.2</ele>
        <time>2021-02-08T08:01:35Z</time>
      </trkpt>
      <trkpt lat="45.71311" lon="6.27426">
        <ele>1163.6</ele>
        <time>2021-02-08T08:01:39Z</time>
      </trkpt>
      <trkpt lat="45.71311" lon="6.27427">
        <ele>1163.4</ele>
        <time>2021-02-08T08:01:40Z</time>
      </trkpt>
      <trkpt lat="45.71309" lon="6.27429">
        <ele>1163.8</ele>
        <time>2021-02-08T08:01:43Z</time>
      </trkpt>
      <trkpt lat="45.71308" lon="6.27431">
        <ele>1163.9</ele>
        <time>2021-02-08T08:01:47Z</time>
      </trkpt>
      <trkpt lat="45.71307" lon="6.27432">
        <ele>1164.1</ele>
        <time>2021-02-08T08:01:48Z</time>
      </trkpt>
      <trkpt lat="45.71305" lon="6.27435">
        <ele>1164.3</ele>
        <time>2021-02-08T08:01:54Z</time>
      </trkpt>
      <trkpt lat="45.71305" lon="6.27436">
        <ele>1164</ele>
        <time>2021-02-08T08:01:55Z</time>
      </trkpt>
      <trkpt lat="45.71301" lon="6.27438">
        <ele>1165.2</ele>
        <time>2021-02-08T08:02:00Z</time>
      </trkpt>
      <trkpt lat="45.713" lon="6.27439">
        <ele>1165.3</ele>
        <time>2021-02-08T08:02:02Z</time>
      </trkpt>
      <trkpt lat="45.71299" lon="6.2744">
        <ele>1165.5</ele>
        <time>2021-02-08T08:02:03Z</time>
      </trkpt>
      <trkpt lat="45.71296" lon="6.27443">
        <ele>1166.1</ele>
        <time>2021-02-08T08:02:07Z</time>
      </trkpt>
      <trkpt lat="45.71295" lon="6.27445">
        <ele>1166.1</ele>
        <time>2021-02-08T08:02:10Z</time>
      </trkpt>
      <trkpt lat="45.71293" lon="6.27448">
        <ele>1166.7</ele>
        <time>2021-02-08T08:02:13Z</time>
      </trkpt>
      <trkpt lat="45.71292" lon="6.2745">
        <ele>1166.9</ele>
        <time>2021-02-08T08:02:16Z</time>
      </trkpt>
      <trkpt lat="45.71291" lon="6.2745">
        <ele>1167.3</ele>
        <time>2021-02-08T08:02:17Z</time>
      </trkpt>
      <trkpt lat="45.7129" lon="6.27451">
        <ele>1167.6</ele>
        <time>2021-02-08T08:02:20Z</time>
      </trkpt>
      <trkpt lat="45.71287" lon="6.27453">
        <ele>1168.5</ele>
        <time>2021-02-08T08:02:24Z</time>
      </trkpt>
      <trkpt lat="45.71284" lon="6.27457">
        <ele>1169.3</ele>
        <time>2021-02-08T08:02:31Z</time>
      </trkpt>
      <trkpt lat="45.7128" lon="6.27458">
        <ele>1170.7</ele>
        <time>2021-02-08T08:02:37Z</time>
      </trkpt>
      <trkpt lat="45.71278" lon="6.27459">
        <ele>1171.3</ele>
        <time>2021-02-08T08:02:39Z</time>
      </trkpt>
      <trkpt lat="45.71273" lon="6.27461">
        <ele>1173</ele>
        <time>2021-02-08T08:02:46Z</time>
      </trkpt>
      <trkpt lat="45.71269" lon="6.27463">
        <ele>1174.3</ele>
        <time>2021-02-08T08:02:52Z</time>
      </trkpt>
      <trkpt lat="45.71267" lon="6.27465">
        <ele>1174.8</ele>
        <time>2021-02-08T08:02:55Z</time>
      </trkpt>
      <trkpt lat="45.71266" lon="6.27466">
        <ele>1175</ele>
        <time>2021-02-08T08:02:57Z</time>
      </trkpt>
      <trkpt lat="45.71263" lon="6.2747">
        <ele>1175.6</ele>
        <time>2021-02-08T08:03:01Z</time>
      </trkpt>
      <trkpt lat="45.71261" lon="6.27472">
        <ele>1176.1</ele>
        <time>2021-02-08T08:03:04Z</time>
      </trkpt>
      <trkpt lat="45.7126" lon="6.27474">
        <ele>1176.1</ele>
        <time>2021-02-08T08:03:06Z</time>
      </trkpt>
      <trkpt lat="45.71256" lon="6.27477">
        <ele>1177</ele>
        <time>2021-02-08T08:03:11Z</time>
      </trkpt>
      <trkpt lat="45.71252" lon="6.2748">
        <ele>1178.1</ele>
        <time>2021-02-08T08:03:17Z</time>
      </trkpt>
      <trkpt lat="45.7125" lon="6.27481">
        <ele>1178.7</ele>
        <time>2021-02-08T08:03:19Z</time>
      </trkpt>
      <trkpt lat="45.71245" lon="6.27483">
        <ele>1180.2</ele>
        <time>2021-02-08T08:03:26Z</time>
      </trkpt>
      <trkpt lat="45.7124" lon="6.27486">
        <ele>1181.4</ele>
        <time>2021-02-08T08:03:33Z</time>
      </trkpt>
      <trkpt lat="45.71239" lon="6.27487">
        <ele>1181.6</ele>
        <time>2021-02-08T08:03:35Z</time>
      </trkpt>
      <trkpt lat="45.71236" lon="6.27489">
        <ele>1182.3</ele>
        <time>2021-02-08T08:03:40Z</time>
      </trkpt>
      <trkpt lat="45.71233" lon="6.27492">
        <ele>1182.8</ele>
        <time>2021-02-08T08:03:47Z</time>
      </trkpt>
      <trkpt lat="45.71232" lon="6.27492">
        <ele>1183.2</ele>
        <time>2021-02-08T08:03:49Z</time>
      </trkpt>
      <trkpt lat="45.71227" lon="6.27497">
        <ele>1184</ele>
        <time>2021-02-08T08:03:58Z</time>
      </trkpt>
      <trkpt lat="45.71226" lon="6.27499">
        <ele>1184</ele>
        <time>2021-02-08T08:04:01Z</time>
      </trkpt>
      <trkpt lat="45.71225" lon="6.27499">
        <ele>1184.3</ele>
        <time>2021-02-08T08:04:02Z</time>
      </trkpt>
      <trkpt lat="45.71224" lon="6.27501">
        <ele>1184.3</ele>
        <time>2021-02-08T08:04:04Z</time>
      </trkpt>
      <trkpt lat="45.71223" lon="6.27504">
        <ele>1184.5</ele>
        <time>2021-02-08T08:04:07Z</time>
      </trkpt>
      <trkpt lat="45.71221" lon="6.27505">
        <ele>1185.2</ele>
        <time>2021-02-08T08:04:09Z</time>
      </trkpt>
      <trkpt lat="45.7122" lon="6.27508">
        <ele>1185.4</ele>
        <time>2021-02-08T08:04:14Z</time>
      </trkpt>
      <trkpt lat="45.71219" lon="6.27509">
        <ele>1185.8</ele>
        <time>2021-02-08T08:04:17Z</time>
      </trkpt>
      <trkpt lat="45.71216" lon="6.27512">
        <ele>1186.9</ele>
        <time>2021-02-08T08:04:23Z</time>
      </trkpt>
      <trkpt lat="45.71214" lon="6.27514">
        <ele>1187.7</ele>
        <time>2021-02-08T08:04:27Z</time>
      </trkpt>
      <trkpt lat="45.71214" lon="6.27516">
        <ele>1187.6</ele>
        <time>2021-02-08T08:04:29Z</time>
      </trkpt>
      <trkpt lat="45.71211" lon="6.27522">
        <ele>1188.6</ele>
        <time>2021-02-08T08:04:39Z</time>
      </trkpt>
      <trkpt lat="45.7121" lon="6.27524">
        <ele>1188.9</ele>
        <time>2021-02-08T08:04:40Z</time>
      </trkpt>
      <trkpt lat="45.71208" lon="6.27527">
        <ele>1189.7</ele>
        <time>2021-02-08T08:04:46Z</time>
      </trkpt>
      <trkpt lat="45.71207" lon="6.27531">
        <ele>1190</ele>
        <time>2021-02-08T08:04:50Z</time>
      </trkpt>
      <trkpt lat="45.71206" lon="6.27532">
        <ele>1190.4</ele>
        <time>2021-02-08T08:04:51Z</time>
      </trkpt>
      <trkpt lat="45.71204" lon="6.27535">
        <ele>1191.2</ele>
        <time>2021-02-08T08:04:58Z</time>
      </trkpt>
      <trkpt lat="45.71202" lon="6.27539">
        <ele>1191.9</ele>
        <time>2021-02-08T08:05:04Z</time>
      </trkpt>
      <trkpt lat="45.71201" lon="6.27542">
        <ele>1192.1</ele>
        <time>2021-02-08T08:05:10Z</time>
      </trkpt>
      <trkpt lat="45.71198" lon="6.27548">
        <ele>1193.1</ele>
        <time>2021-02-08T08:05:18Z</time>
      </trkpt>
      <trkpt lat="45.71196" lon="6.2755">
        <ele>1193.8</ele>
        <time>2021-02-08T08:05:21Z</time>
      </trkpt>
      <trkpt lat="45.71193" lon="6.27556">
        <ele>1194.6</ele>
        <time>2021-02-08T08:05:28Z</time>
      </trkpt>
      <trkpt lat="45.71192" lon="6.27557">
        <ele>1195</ele>
        <time>2021-02-08T08:05:29Z</time>
      </trkpt>
      <trkpt lat="45.71192" lon="6.27558">
        <ele>1195</ele>
        <time>2021-02-08T08:05:31Z</time>
      </trkpt>
      <trkpt lat="45.7119" lon="6.27561">
        <ele>1195.9</ele>
        <time>2021-02-08T08:05:37Z</time>
      </trkpt>
      <trkpt lat="45.71186" lon="6.27565">
        <ele>1197.4</ele>
        <time>2021-02-08T08:05:42Z</time>
      </trkpt>
      <trkpt lat="45.71184" lon="6.27566">
        <ele>1198.2</ele>
        <time>2021-02-08T08:05:45Z</time>
      </trkpt>
      <trkpt lat="45.71183" lon="6.27569">
        <ele>1198.5</ele>
        <time>2021-02-08T08:05:49Z</time>
      </trkpt>
      <trkpt lat="45.71182" lon="6.2757">
        <ele>1198.9</ele>
        <time>2021-02-08T08:05:50Z</time>
      </trkpt>
      <trkpt lat="45.7118" lon="6.27573">
        <ele>1199.6</ele>
        <time>2021-02-08T08:05:56Z</time>
      </trkpt>
      <trkpt lat="45.71179" lon="6.27574">
        <ele>1199.9</ele>
        <time>2021-02-08T08:05:58Z</time>
      </trkpt>
      <trkpt lat="45.71178" lon="6.27575">
        <ele>1200.3</ele>
        <time>2021-02-08T08:05:59Z</time>
      </trkpt>
      <trkpt lat="45.71175" lon="6.27577">
        <ele>1201.3</ele>
        <time>2021-02-08T08:06:04Z</time>
      </trkpt>
      <trkpt lat="45.7117" lon="6.27581">
        <ele>1202.9</ele>
        <time>2021-02-08T08:06:12Z</time>
      </trkpt>
      <trkpt lat="45.71168" lon="6.27583">
        <ele>1203.5</ele>
        <time>2021-02-08T08:06:16Z</time>
      </trkpt>
      <trkpt lat="45.71167" lon="6.27584">
        <ele>1203.9</ele>
        <time>2021-02-08T08:06:18Z</time>
      </trkpt>
      <trkpt lat="45.71166" lon="6.27584">
        <ele>1204.2</ele>
        <time>2021-02-08T08:06:19Z</time>
      </trkpt>
      <trkpt lat="45.71163" lon="6.27586">
        <ele>1205.2</ele>
        <time>2021-02-08T08:06:25Z</time>
      </trkpt>
      <trkpt lat="45.71163" lon="6.27586">
        <ele>1205.2</ele>
        <time>2021-02-08T08:06:26Z</time>
      </trkpt>
      <trkpt lat="45.71162" lon="6.27586">
        <ele>1205.4</ele>
        <time>2021-02-08T08:06:27Z</time>
      </trkpt>
      <trkpt lat="45.7116" lon="6.27588">
        <ele>1206.1</ele>
        <time>2021-02-08T08:06:32Z</time>
      </trkpt>
      <trkpt lat="45.71156" lon="6.27589">
        <ele>1207.3</ele>
        <time>2021-02-08T08:06:39Z</time>
      </trkpt>
      <trkpt lat="45.71152" lon="6.27589">
        <ele>1208.4</ele>
        <time>2021-02-08T08:06:44Z</time>
      </trkpt>
      <trkpt lat="45.71151" lon="6.2759">
        <ele>1208.8</ele>
        <time>2021-02-08T08:06:45Z</time>
      </trkpt>
      <trkpt lat="45.71148" lon="6.2759">
        <ele>1209.6</ele>
        <time>2021-02-08T08:06:50Z</time>
      </trkpt>
      <trkpt lat="45.71147" lon="6.27591">
        <ele>1209.9</ele>
        <time>2021-02-08T08:06:52Z</time>
      </trkpt>
      <trkpt lat="45.71145" lon="6.27591">
        <ele>1210.5</ele>
        <time>2021-02-08T08:06:57Z</time>
      </trkpt>
      <trkpt lat="45.71145" lon="6.2759">
        <ele>1210.5</ele>
        <time>2021-02-08T08:06:58Z</time>
      </trkpt>
      <trkpt lat="45.71145" lon="6.27589">
        <ele>1210.4</ele>
        <time>2021-02-08T08:06:59Z</time>
      </trkpt>
      <trkpt lat="45.71145" lon="6.27585">
        <ele>1210.3</ele>
        <time>2021-02-08T08:07:02Z</time>
      </trkpt>
      <trkpt lat="45.71144" lon="6.27583">
        <ele>1210.6</ele>
        <time>2021-02-08T08:07:04Z</time>
      </trkpt>
      <trkpt lat="45.71144" lon="6.2758">
        <ele>1211.1</ele>
        <time>2021-02-08T08:07:08Z</time>
      </trkpt>
      <trkpt lat="45.71144" lon="6.27573">
        <ele>1212.2</ele>
        <time>2021-02-08T08:07:14Z</time>
      </trkpt>
      <trkpt lat="45.71143" lon="6.27569">
        <ele>1213.2</ele>
        <time>2021-02-08T08:07:20Z</time>
      </trkpt>
      <trkpt lat="45.71143" lon="6.27568">
        <ele>1213.3</ele>
        <time>2021-02-08T08:07:21Z</time>
      </trkpt>
      <trkpt lat="45.71142" lon="6.27564">
        <ele>1214.4</ele>
        <time>2021-02-08T08:07:25Z</time>
      </trkpt>
      <trkpt lat="45.71141" lon="6.27561">
        <ele>1215.2</ele>
        <time>2021-02-08T08:07:28Z</time>
      </trkpt>
      <trkpt lat="45.71141" lon="6.27559">
        <ele>1215.6</ele>
        <time>2021-02-08T08:07:31Z</time>
      </trkpt>
      <trkpt lat="45.7114" lon="6.27557">
        <ele>1216.3</ele>
        <time>2021-02-08T08:07:34Z</time>
      </trkpt>
      <trkpt lat="45.7114" lon="6.27556">
        <ele>1216.5</ele>
        <time>2021-02-08T08:07:35Z</time>
      </trkpt>
      <trkpt lat="45.7114" lon="6.27555">
        <ele>1216.6</ele>
        <time>2021-02-08T08:07:37Z</time>
      </trkpt>
      <trkpt lat="45.71139" lon="6.27551">
        <ele>1217.3</ele>
        <time>2021-02-08T08:07:41Z</time>
      </trkpt>
      <trkpt lat="45.71138" lon="6.27549">
        <ele>1217.8</ele>
        <time>2021-02-08T08:07:45Z</time>
      </trkpt>
      <trkpt lat="45.71138" lon="6.27549">
        <ele>1217.8</ele>
        <time>2021-02-08T08:07:47Z</time>
      </trkpt>
      <trkpt lat="45.71136" lon="6.2755">
        <ele>1218.5</ele>
        <time>2021-02-08T08:07:51Z</time>
      </trkpt>
      <trkpt lat="45.71134" lon="6.27551">
        <ele>1219.1</ele>
        <time>2021-02-08T08:07:55Z</time>
      </trkpt>
      <trkpt lat="45.71133" lon="6.27553">
        <ele>1219.3</ele>
        <time>2021-02-08T08:07:58Z</time>
      </trkpt>
      <trkpt lat="45.71132" lon="6.27555">
        <ele>1219.5</ele>
        <time>2021-02-08T08:08:00Z</time>
      </trkpt>
      <trkpt lat="45.71131" lon="6.27556">
        <ele>1219.8</ele>
        <time>2021-02-08T08:08:02Z</time>
      </trkpt>
      <trkpt lat="45.71128" lon="6.27558">
        <ele>1220.5</ele>
        <time>2021-02-08T08:08:07Z</time>
      </trkpt>
      <trkpt lat="45.71128" lon="6.27559">
        <ele>1220.4</ele>
        <time>2021-02-08T08:08:08Z</time>
      </trkpt>
      <trkpt lat="45.71127" lon="6.2756">
        <ele>1220.6</ele>
        <time>2021-02-08T08:08:10Z</time>
      </trkpt>
      <trkpt lat="45.71126" lon="6.2756">
        <ele>1221</ele>
        <time>2021-02-08T08:08:11Z</time>
      </trkpt>
      <trkpt lat="45.71125" lon="6.27561">
        <ele>1221.2</ele>
        <time>2021-02-08T08:08:13Z</time>
      </trkpt>
      <trkpt lat="45.71125" lon="6.27561">
        <ele>1221.2</ele>
        <time>2021-02-08T08:08:14Z</time>
      </trkpt>
      <trkpt lat="45.71123" lon="6.27559">
        <ele>1222.2</ele>
        <time>2021-02-08T08:08:20Z</time>
      </trkpt>
      <trkpt lat="45.71122" lon="6.27557">
        <ele>1222.9</ele>
        <time>2021-02-08T08:08:23Z</time>
      </trkpt>
      <trkpt lat="45.71121" lon="6.27551">
        <ele>1223.9</ele>
        <time>2021-02-08T08:08:30Z</time>
      </trkpt>
      <trkpt lat="45.7112" lon="6.27548">
        <ele>1224.5</ele>
        <time>2021-02-08T08:08:33Z</time>
      </trkpt>
      <trkpt lat="45.71119" lon="6.27547">
        <ele>1225</ele>
        <time>2021-02-08T08:08:35Z</time>
      </trkpt>
      <trkpt lat="45.71119" lon="6.27546">
        <ele>1225.1</ele>
        <time>2021-02-08T08:08:36Z</time>
      </trkpt>
      <trkpt lat="45.71117" lon="6.27543">
        <ele>1226.1</ele>
        <time>2021-02-08T08:08:41Z</time>
      </trkpt>
      <trkpt lat="45.71115" lon="6.27539">
        <ele>1227.3</ele>
        <time>2021-02-08T08:08:46Z</time>
      </trkpt>
      <trkpt lat="45.71114" lon="6.27535">
        <ele>1228.1</ele>
        <time>2021-02-08T08:08:51Z</time>
      </trkpt>
      <trkpt lat="45.71111" lon="6.2753">
        <ele>1229.8</ele>
        <time>2021-02-08T08:08:58Z</time>
      </trkpt>
      <trkpt lat="45.71108" lon="6.27527">
        <ele>1231.2</ele>
        <time>2021-02-08T08:09:03Z</time>
      </trkpt>
      <trkpt lat="45.71107" lon="6.27524">
        <ele>1231.9</ele>
        <time>2021-02-08T08:09:07Z</time>
      </trkpt>
      <trkpt lat="45.71107" lon="6.27523">
        <ele>1232</ele>
        <time>2021-02-08T08:09:09Z</time>
      </trkpt>
      <trkpt lat="45.71106" lon="6.27521">
        <ele>1232.5</ele>
        <time>2021-02-08T08:09:11Z</time>
      </trkpt>
      <trkpt lat="45.71106" lon="6.27521">
        <ele>1232.5</ele>
        <time>2021-02-08T08:09:12Z</time>
      </trkpt>
      <trkpt lat="45.71105" lon="6.27517">
        <ele>1233.3</ele>
        <time>2021-02-08T08:09:16Z</time>
      </trkpt>
      <trkpt lat="45.71105" lon="6.27517">
        <ele>1233.3</ele>
        <time>2021-02-08T08:09:17Z</time>
      </trkpt>
      <trkpt lat="45.71103" lon="6.27512">
        <ele>1234.5</ele>
        <time>2021-02-08T08:09:22Z</time>
      </trkpt>
      <trkpt lat="45.71102" lon="6.2751">
        <ele>1235</ele>
        <time>2021-02-08T08:09:24Z</time>
      </trkpt>
      <trkpt lat="45.71101" lon="6.27507">
        <ele>1235.6</ele>
        <time>2021-02-08T08:09:28Z</time>
      </trkpt>
      <trkpt lat="45.71101" lon="6.27506">
        <ele>1235.7</ele>
        <time>2021-02-08T08:09:29Z</time>
      </trkpt>
      <trkpt lat="45.711" lon="6.27503">
        <ele>1236.3</ele>
        <time>2021-02-08T08:09:34Z</time>
      </trkpt>
      <trkpt lat="45.71099" lon="6.27503">
        <ele>1236.6</ele>
        <time>2021-02-08T08:09:35Z</time>
      </trkpt>
      <trkpt lat="45.71099" lon="6.27502">
        <ele>1236.7</ele>
        <time>2021-02-08T08:09:36Z</time>
      </trkpt>
      <trkpt lat="45.71098" lon="6.27499">
        <ele>1237.3</ele>
        <time>2021-02-08T08:09:39Z</time>
      </trkpt>
      <trkpt lat="45.71098" lon="6.27498">
        <ele>1237.4</ele>
        <time>2021-02-08T08:09:40Z</time>
      </trkpt>
      <trkpt lat="45.71098" lon="6.27497">
        <ele>1237.5</ele>
        <time>2021-02-08T08:09:42Z</time>
      </trkpt>
      <trkpt lat="45.71098" lon="6.27496">
        <ele>1237.6</ele>
        <time>2021-02-08T08:09:44Z</time>
      </trkpt>
      <trkpt lat="45.71097" lon="6.27495">
        <ele>1238</ele>
        <time>2021-02-08T08:09:46Z</time>
      </trkpt>
      <trkpt lat="45.71097" lon="6.27494">
        <ele>1238.1</ele>
        <time>2021-02-08T08:09:47Z</time>
      </trkpt>
      <trkpt lat="45.71093" lon="6.27495">
        <ele>1239.3</ele>
        <time>2021-02-08T08:09:52Z</time>
      </trkpt>
      <trkpt lat="45.71092" lon="6.27498">
        <ele>1239.4</ele>
        <time>2021-02-08T08:09:55Z</time>
      </trkpt>
      <trkpt lat="45.7109" lon="6.27499">
        <ele>1239.9</ele>
        <time>2021-02-08T08:09:57Z</time>
      </trkpt>
      <trkpt lat="45.71088" lon="6.27502">
        <ele>1240.3</ele>
        <time>2021-02-08T08:10:00Z</time>
      </trkpt>
      <trkpt lat="45.71088" lon="6.27503">
        <ele>1240.3</ele>
        <time>2021-02-08T08:10:01Z</time>
      </trkpt>
      <trkpt lat="45.71086" lon="6.27504">
        <ele>1240.8</ele>
        <time>2021-02-08T08:10:03Z</time>
      </trkpt>
      <trkpt lat="45.71083" lon="6.27507">
        <ele>1241.6</ele>
        <time>2021-02-08T08:10:08Z</time>
      </trkpt>
      <trkpt lat="45.71083" lon="6.27508">
        <ele>1241.5</ele>
        <time>2021-02-08T08:10:09Z</time>
      </trkpt>
      <trkpt lat="45.71079" lon="6.27511">
        <ele>1242.4</ele>
        <time>2021-02-08T08:10:14Z</time>
      </trkpt>
      <trkpt lat="45.71075" lon="6.27514">
        <ele>1243.2</ele>
        <time>2021-02-08T08:10:18Z</time>
      </trkpt>
      <trkpt lat="45.71072" lon="6.27516">
        <ele>1243.9</ele>
        <time>2021-02-08T08:10:22Z</time>
      </trkpt>
      <trkpt lat="45.71068" lon="6.2752">
        <ele>1244.6</ele>
        <time>2021-02-08T08:10:28Z</time>
      </trkpt>
      <trkpt lat="45.71062" lon="6.27522">
        <ele>1246</ele>
        <time>2021-02-08T08:10:35Z</time>
      </trkpt>
      <trkpt lat="45.7106" lon="6.27522">
        <ele>1246.5</ele>
        <time>2021-02-08T08:10:38Z</time>
      </trkpt>
      <trkpt lat="45.71057" lon="6.27523">
        <ele>1247.1</ele>
        <time>2021-02-08T08:10:43Z</time>
      </trkpt>
      <trkpt lat="45.71054" lon="6.27523">
        <ele>1248</ele>
        <time>2021-02-08T08:10:48Z</time>
      </trkpt>
      <trkpt lat="45.71053" lon="6.27523">
        <ele>1248.3</ele>
        <time>2021-02-08T08:10:50Z</time>
      </trkpt>
      <trkpt lat="45.71049" lon="6.27525">
        <ele>1249.2</ele>
        <time>2021-02-08T08:10:57Z</time>
      </trkpt>
      <trkpt lat="45.71046" lon="6.27525">
        <ele>1250.1</ele>
        <time>2021-02-08T08:11:01Z</time>
      </trkpt>
      <trkpt lat="45.71045" lon="6.27526">
        <ele>1250.3</ele>
        <time>2021-02-08T08:11:03Z</time>
      </trkpt>
      <trkpt lat="45.71043" lon="6.27525">
        <ele>1251</ele>
        <time>2021-02-08T08:11:07Z</time>
      </trkpt>
      <trkpt lat="45.71042" lon="6.27525">
        <ele>1251.3</ele>
        <time>2021-02-08T08:11:08Z</time>
      </trkpt>
      <trkpt lat="45.71041" lon="6.27525">
        <ele>1251.5</ele>
        <time>2021-02-08T08:11:11Z</time>
      </trkpt>
      <trkpt lat="45.71042" lon="6.27525">
        <ele>1251.3</ele>
        <time>2021-02-08T08:11:12Z</time>
      </trkpt>
      <trkpt lat="45.71042" lon="6.27524">
        <ele>1251.4</ele>
        <time>2021-02-08T08:11:15Z</time>
      </trkpt>
      <trkpt lat="45.71041" lon="6.27524">
        <ele>1251.7</ele>
        <time>2021-02-08T08:11:18Z</time>
      </trkpt>
      <trkpt lat="45.71042" lon="6.27524">
        <ele>1251.4</ele>
        <time>2021-02-08T08:11:26Z</time>
      </trkpt>
      <trkpt lat="45.71042" lon="6.27524">
        <ele>1251.4</ele>
        <time>2021-02-08T08:11:36Z</time>
      </trkpt>
      <trkpt lat="45.71042" lon="6.27524">
        <ele>1251.4</ele>
        <time>2021-02-08T08:11:38Z</time>
      </trkpt>
      <trkpt lat="45.71042" lon="6.27524">
        <ele>1251.4</ele>
        <time>2021-02-08T08:11:49Z</time>
      </trkpt>
      <trkpt lat="45.71042" lon="6.27524">
        <ele>1251.4</ele>
        <time>2021-02-08T08:11:58Z</time>
      </trkpt>
      <trkpt lat="45.71042" lon="6.27525">
        <ele>1251.3</ele>
        <time>2021-02-08T08:12:01Z</time>
      </trkpt>
      <trkpt lat="45.71042" lon="6.27524">
        <ele>1251.4</ele>
        <time>2021-02-08T08:12:06Z</time>
      </trkpt>
      <trkpt lat="45.71041" lon="6.27524">
        <ele>1251.7</ele>
        <time>2021-02-08T08:12:08Z</time>
      </trkpt>
      <trkpt lat="45.7104" lon="6.27524">
        <ele>1252</ele>
        <time>2021-02-08T08:12:09Z</time>
      </trkpt>
      <trkpt lat="45.7104" lon="6.27524">
        <ele>1252</ele>
        <time>2021-02-08T08:12:10Z</time>
      </trkpt>
      <trkpt lat="45.71039" lon="6.27525">
        <ele>1252.1</ele>
        <time>2021-02-08T08:12:12Z</time>
      </trkpt>
      <trkpt lat="45.71037" lon="6.27526">
        <ele>1252.6</ele>
        <time>2021-02-08T08:12:15Z</time>
      </trkpt>
      <trkpt lat="45.71036" lon="6.27526">
        <ele>1252.9</ele>
        <time>2021-02-08T08:12:16Z</time>
      </trkpt>
      <trkpt lat="45.71034" lon="6.27529">
        <ele>1253.2</ele>
        <time>2021-02-08T08:12:19Z</time>
      </trkpt>
      <trkpt lat="45.71032" lon="6.27531">
        <ele>1253.7</ele>
        <time>2021-02-08T08:12:22Z</time>
      </trkpt>
      <trkpt lat="45.71031" lon="6.27532">
        <ele>1253.9</ele>
        <time>2021-02-08T08:12:23Z</time>
      </trkpt>
      <trkpt lat="45.71031" lon="6.27533">
        <ele>1253.9</ele>
        <time>2021-02-08T08:12:25Z</time>
      </trkpt>
      <trkpt lat="45.71029" lon="6.27535">
        <ele>1254.4</ele>
        <time>2021-02-08T08:12:28Z</time>
      </trkpt>
      <trkpt lat="45.71028" lon="6.27536">
        <ele>1254.6</ele>
        <time>2021-02-08T08:12:30Z</time>
      </trkpt>
      <trkpt lat="45.71026" lon="6.27538">
        <ele>1255.3</ele>
        <time>2021-02-08T08:12:34Z</time>
      </trkpt>
      <trkpt lat="45.71025" lon="6.27538">
        <ele>1255.7</ele>
        <time>2021-02-08T08:12:35Z</time>
      </trkpt>
      <trkpt lat="45.71023" lon="6.27537">
        <ele>1256.5</ele>
        <time>2021-02-08T08:12:40Z</time>
      </trkpt>
      <trkpt lat="45.71021" lon="6.27534">
        <ele>1257.4</ele>
        <time>2021-02-08T08:12:43Z</time>
      </trkpt>
      <trkpt lat="45.7102" lon="6.27533">
        <ele>1257.8</ele>
        <time>2021-02-08T08:12:45Z</time>
      </trkpt>
      <trkpt lat="45.71019" lon="6.27532">
        <ele>1258.3</ele>
        <time>2021-02-08T08:12:47Z</time>
      </trkpt>
      <trkpt lat="45.71017" lon="6.27528">
        <ele>1259.3</ele>
        <time>2021-02-08T08:12:54Z</time>
      </trkpt>
      <trkpt lat="45.71017" lon="6.27526">
        <ele>1259.5</ele>
        <time>2021-02-08T08:12:56Z</time>
      </trkpt>
      <trkpt lat="45.71017" lon="6.27525">
        <ele>1259.7</ele>
        <time>2021-02-08T08:12:57Z</time>
      </trkpt>
      <trkpt lat="45.71016" lon="6.27523">
        <ele>1260.4</ele>
        <time>2021-02-08T08:12:59Z</time>
      </trkpt>
      <trkpt lat="45.71015" lon="6.2752">
        <ele>1261.2</ele>
        <time>2021-02-08T08:13:02Z</time>
      </trkpt>
      <trkpt lat="45.71015" lon="6.27517">
        <ele>1261.6</ele>
        <time>2021-02-08T08:13:05Z</time>
      </trkpt>
      <trkpt lat="45.71014" lon="6.27516">
        <ele>1262.2</ele>
        <time>2021-02-08T08:13:10Z</time>
      </trkpt>
      <trkpt lat="45.71013" lon="6.27516">
        <ele>1262.5</ele>
        <time>2021-02-08T08:13:11Z</time>
      </trkpt>
      <trkpt lat="45.71011" lon="6.27517">
        <ele>1263.2</ele>
        <time>2021-02-08T08:13:15Z</time>
      </trkpt>
      <trkpt lat="45.71009" lon="6.27519">
        <ele>1263.7</ele>
        <time>2021-02-08T08:13:20Z</time>
      </trkpt>
      <trkpt lat="45.71006" lon="6.27521">
        <ele>1264.6</ele>
        <time>2021-02-08T08:13:24Z</time>
      </trkpt>
      <trkpt lat="45.71004" lon="6.27522">
        <ele>1265.2</ele>
        <time>2021-02-08T08:13:28Z</time>
      </trkpt>
      <trkpt lat="45.71001" lon="6.27523">
        <ele>1266.3</ele>
        <time>2021-02-08T08:13:32Z</time>
      </trkpt>
      <trkpt lat="45.71" lon="6.27524">
        <ele>1266.5</ele>
        <time>2021-02-08T08:13:33Z</time>
      </trkpt>
      <trkpt lat="45.70999" lon="6.27524">
        <ele>1266.9</ele>
        <time>2021-02-08T08:13:35Z</time>
      </trkpt>
      <trkpt lat="45.70997" lon="6.27526">
        <ele>1267.5</ele>
        <time>2021-02-08T08:13:39Z</time>
      </trkpt>
      <trkpt lat="45.70995" lon="6.27527">
        <ele>1268.1</ele>
        <time>2021-02-08T08:13:42Z</time>
      </trkpt>
      <trkpt lat="45.70992" lon="6.27529">
        <ele>1269.1</ele>
        <time>2021-02-08T08:13:47Z</time>
      </trkpt>
      <trkpt lat="45.70991" lon="6.2753">
        <ele>1269.4</ele>
        <time>2021-02-08T08:13:49Z</time>
      </trkpt>
      <trkpt lat="45.70988" lon="6.27533">
        <ele>1270.3</ele>
        <time>2021-02-08T08:13:56Z</time>
      </trkpt>
      <trkpt lat="45.70986" lon="6.27535">
        <ele>1270.9</ele>
        <time>2021-02-08T08:13:59Z</time>
      </trkpt>
      <trkpt lat="45.70985" lon="6.27537">
        <ele>1271.1</ele>
        <time>2021-02-08T08:14:01Z</time>
      </trkpt>
      <trkpt lat="45.70983" lon="6.27539">
        <ele>1271.7</ele>
        <time>2021-02-08T08:14:06Z</time>
      </trkpt>
      <trkpt lat="45.70982" lon="6.2754">
        <ele>1272</ele>
        <time>2021-02-08T08:14:08Z</time>
      </trkpt>
      <trkpt lat="45.70979" lon="6.27542">
        <ele>1272.9</ele>
        <time>2021-02-08T08:14:13Z</time>
      </trkpt>
      <trkpt lat="45.70978" lon="6.27543">
        <ele>1273.2</ele>
        <time>2021-02-08T08:14:14Z</time>
      </trkpt>
      <trkpt lat="45.70976" lon="6.27545">
        <ele>1273.7</ele>
        <time>2021-02-08T08:14:19Z</time>
      </trkpt>
      <trkpt lat="45.70975" lon="6.27546">
        <ele>1274</ele>
        <time>2021-02-08T08:14:20Z</time>
      </trkpt>
      <trkpt lat="45.70974" lon="6.27547">
        <ele>1274.3</ele>
        <time>2021-02-08T08:14:22Z</time>
      </trkpt>
      <trkpt lat="45.70973" lon="6.27548">
        <ele>1274.5</ele>
        <time>2021-02-08T08:14:23Z</time>
      </trkpt>
      <trkpt lat="45.70972" lon="6.2755">
        <ele>1274.7</ele>
        <time>2021-02-08T08:14:26Z</time>
      </trkpt>
      <trkpt lat="45.70971" lon="6.2755">
        <ele>1275.1</ele>
        <time>2021-02-08T08:14:27Z</time>
      </trkpt>
      <trkpt lat="45.70966" lon="6.27555">
        <ele>1276.5</ele>
        <time>2021-02-08T08:14:35Z</time>
      </trkpt>
      <trkpt lat="45.70964" lon="6.27557">
        <ele>1277.3</ele>
        <time>2021-02-08T08:14:38Z</time>
      </trkpt>
      <trkpt lat="45.70964" lon="6.27557">
        <ele>1277.3</ele>
        <time>2021-02-08T08:14:39Z</time>
      </trkpt>
      <trkpt lat="45.70961" lon="6.27559">
        <ele>1278.6</ele>
        <time>2021-02-08T08:14:44Z</time>
      </trkpt>
      <trkpt lat="45.70959" lon="6.2756">
        <ele>1279.4</ele>
        <time>2021-02-08T08:14:49Z</time>
      </trkpt>
      <trkpt lat="45.70957" lon="6.27561">
        <ele>1280.2</ele>
        <time>2021-02-08T08:14:51Z</time>
      </trkpt>
      <trkpt lat="45.70955" lon="6.27562">
        <ele>1281.1</ele>
        <time>2021-02-08T08:14:55Z</time>
      </trkpt>
      <trkpt lat="45.70955" lon="6.27563">
        <ele>1281.1</ele>
        <time>2021-02-08T08:14:56Z</time>
      </trkpt>
      <trkpt lat="45.70954" lon="6.27563">
        <ele>1281.5</ele>
        <time>2021-02-08T08:14:58Z</time>
      </trkpt>
      <trkpt lat="45.70951" lon="6.27565">
        <ele>1282.7</ele>
        <time>2021-02-08T08:15:02Z</time>
      </trkpt>
      <trkpt lat="45.7095" lon="6.27566">
        <ele>1283.2</ele>
        <time>2021-02-08T08:15:05Z</time>
      </trkpt>
      <trkpt lat="45.70947" lon="6.27568">
        <ele>1284.4</ele>
        <time>2021-02-08T08:15:11Z</time>
      </trkpt>
      <trkpt lat="45.70946" lon="6.27569">
        <ele>1284.9</ele>
        <time>2021-02-08T08:15:14Z</time>
      </trkpt>
      <trkpt lat="45.70944" lon="6.27571">
        <ele>1285.8</ele>
        <time>2021-02-08T08:15:17Z</time>
      </trkpt>
      <trkpt lat="45.70943" lon="6.27572">
        <ele>1286.2</ele>
        <time>2021-02-08T08:15:19Z</time>
      </trkpt>
      <trkpt lat="45.70942" lon="6.27574">
        <ele>1286.8</ele>
        <time>2021-02-08T08:15:22Z</time>
      </trkpt>
      <trkpt lat="45.70941" lon="6.27576">
        <ele>1287.2</ele>
        <time>2021-02-08T08:15:27Z</time>
      </trkpt>
      <trkpt lat="45.70941" lon="6.27577">
        <ele>1287.2</ele>
        <time>2021-02-08T08:15:28Z</time>
      </trkpt>
      <trkpt lat="45.7094" lon="6.27579">
        <ele>1287.7</ele>
        <time>2021-02-08T08:15:31Z</time>
      </trkpt>
      <trkpt lat="45.70939" lon="6.2758">
        <ele>1288.1</ele>
        <time>2021-02-08T08:15:33Z</time>
      </trkpt>
      <trkpt lat="45.70939" lon="6.27581">
        <ele>1288.1</ele>
        <time>2021-02-08T08:15:34Z</time>
      </trkpt>
      <trkpt lat="45.70938" lon="6.27584">
        <ele>1288.6</ele>
        <time>2021-02-08T08:15:39Z</time>
      </trkpt>
      <trkpt lat="45.70937" lon="6.27587">
        <ele>1289.3</ele>
        <time>2021-02-08T08:15:43Z</time>
      </trkpt>
      <trkpt lat="45.70936" lon="6.27591">
        <ele>1290.1</ele>
        <time>2021-02-08T08:15:48Z</time>
      </trkpt>
      <trkpt lat="45.70934" lon="6.27595">
        <ele>1291.2</ele>
        <time>2021-02-08T08:15:53Z</time>
      </trkpt>
      <trkpt lat="45.70934" lon="6.27597">
        <ele>1291.4</ele>
        <time>2021-02-08T08:15:55Z</time>
      </trkpt>
      <trkpt lat="45.70933" lon="6.27601">
        <ele>1292.2</ele>
        <time>2021-02-08T08:16:00Z</time>
      </trkpt>
      <trkpt lat="45.70931" lon="6.27605">
        <ele>1293.3</ele>
        <time>2021-02-08T08:16:07Z</time>
      </trkpt>
      <trkpt lat="45.70931" lon="6.27606">
        <ele>1293.4</ele>
        <time>2021-02-08T08:16:08Z</time>
      </trkpt>
      <trkpt lat="45.7093" lon="6.2761">
        <ele>1294.1</ele>
        <time>2021-02-08T08:16:13Z</time>
      </trkpt>
      <trkpt lat="45.70928" lon="6.27614">
        <ele>1295</ele>
        <time>2021-02-08T08:16:19Z</time>
      </trkpt>
      <trkpt lat="45.70928" lon="6.27615">
        <ele>1295</ele>
        <time>2021-02-08T08:16:20Z</time>
      </trkpt>
      <trkpt lat="45.70926" lon="6.27619">
        <ele>1295.8</ele>
        <time>2021-02-08T08:16:24Z</time>
      </trkpt>
      <trkpt lat="45.70926" lon="6.27621">
        <ele>1295.9</ele>
        <time>2021-02-08T08:16:26Z</time>
      </trkpt>
      <trkpt lat="45.70926" lon="6.27622">
        <ele>1295.9</ele>
        <time>2021-02-08T08:16:27Z</time>
      </trkpt>
      <trkpt lat="45.70925" lon="6.27623">
        <ele>1296.3</ele>
        <time>2021-02-08T08:16:28Z</time>
      </trkpt>
      <trkpt lat="45.70925" lon="6.27623">
        <ele>1296.3</ele>
        <time>2021-02-08T08:16:29Z</time>
      </trkpt>
      <trkpt lat="45.70924" lon="6.27626">
        <ele>1296.9</ele>
        <time>2021-02-08T08:16:32Z</time>
      </trkpt>
      <trkpt lat="45.70922" lon="6.27627">
        <ele>1297.8</ele>
        <time>2021-02-08T08:16:36Z</time>
      </trkpt>
      <trkpt lat="45.70921" lon="6.27628">
        <ele>1298.3</ele>
        <time>2021-02-08T08:16:38Z</time>
      </trkpt>
      <trkpt lat="45.70919" lon="6.27627">
        <ele>1299.1</ele>
        <time>2021-02-08T08:16:41Z</time>
      </trkpt>
      <trkpt lat="45.70918" lon="6.27627">
        <ele>1299.6</ele>
        <time>2021-02-08T08:16:42Z</time>
      </trkpt>
      <trkpt lat="45.70915" lon="6.27625">
        <ele>1300.7</ele>
        <time>2021-02-08T08:16:47Z</time>
      </trkpt>
      <trkpt lat="45.70911" lon="6.27622">
        <ele>1302.2</ele>
        <time>2021-02-08T08:16:52Z</time>
      </trkpt>
      <trkpt lat="45.70908" lon="6.2762">
        <ele>1303.4</ele>
        <time>2021-02-08T08:16:56Z</time>
      </trkpt>
      <trkpt lat="45.70906" lon="6.27622">
        <ele>1304.3</ele>
        <time>2021-02-08T08:17:00Z</time>
      </trkpt>
      <trkpt lat="45.70905" lon="6.27626">
        <ele>1304.9</ele>
        <time>2021-02-08T08:17:05Z</time>
      </trkpt>
      <trkpt lat="45.70904" lon="6.27629">
        <ele>1305.3</ele>
        <time>2021-02-08T08:17:08Z</time>
      </trkpt>
      <trkpt lat="45.70904" lon="6.2763">
        <ele>1305.4</ele>
        <time>2021-02-08T08:17:10Z</time>
      </trkpt>
      <trkpt lat="45.70903" lon="6.27631">
        <ele>1305.8</ele>
        <time>2021-02-08T08:17:11Z</time>
      </trkpt>
      <trkpt lat="45.70902" lon="6.27635">
        <ele>1306.2</ele>
        <time>2021-02-08T08:17:17Z</time>
      </trkpt>
      <trkpt lat="45.70901" lon="6.27636">
        <ele>1306.6</ele>
        <time>2021-02-08T08:17:19Z</time>
      </trkpt>
      <trkpt lat="45.709" lon="6.27639">
        <ele>1307</ele>
        <time>2021-02-08T08:17:23Z</time>
      </trkpt>
      <trkpt lat="45.709" lon="6.2764">
        <ele>1307</ele>
        <time>2021-02-08T08:17:24Z</time>
      </trkpt>
      <trkpt lat="45.70899" lon="6.2764">
        <ele>1307.3</ele>
        <time>2021-02-08T08:17:26Z</time>
      </trkpt>
      <trkpt lat="45.70897" lon="6.27643">
        <ele>1308</ele>
        <time>2021-02-08T08:17:30Z</time>
      </trkpt>
      <trkpt lat="45.70896" lon="6.27643">
        <ele>1308.4</ele>
        <time>2021-02-08T08:17:31Z</time>
      </trkpt>
      <trkpt lat="45.70896" lon="6.27644">
        <ele>1308.3</ele>
        <time>2021-02-08T08:17:32Z</time>
      </trkpt>
      <trkpt lat="45.70895" lon="6.27646">
        <ele>1308.7</ele>
        <time>2021-02-08T08:17:35Z</time>
      </trkpt>
      <trkpt lat="45.70892" lon="6.27652">
        <ele>1309.8</ele>
        <time>2021-02-08T08:17:41Z</time>
      </trkpt>
      <trkpt lat="45.70891" lon="6.27655">
        <ele>1310.2</ele>
        <time>2021-02-08T08:17:44Z</time>
      </trkpt>
      <trkpt lat="45.7089" lon="6.27658">
        <ele>1310.5</ele>
        <time>2021-02-08T08:17:48Z</time>
      </trkpt>
      <trkpt lat="45.70887" lon="6.27661">
        <ele>1311.7</ele>
        <time>2021-02-08T08:17:54Z</time>
      </trkpt>
      <trkpt lat="45.70886" lon="6.27661">
        <ele>1312.1</ele>
        <time>2021-02-08T08:17:55Z</time>
      </trkpt>
      <trkpt lat="45.70882" lon="6.27664">
        <ele>1313.6</ele>
        <time>2021-02-08T08:18:01Z</time>
      </trkpt>
      <trkpt lat="45.7088" lon="6.27667">
        <ele>1314.2</ele>
        <time>2021-02-08T08:18:07Z</time>
      </trkpt>
      <trkpt lat="45.70877" lon="6.27668">
        <ele>1315.2</ele>
        <time>2021-02-08T08:18:12Z</time>
      </trkpt>
      <trkpt lat="45.70875" lon="6.27668">
        <ele>1315.9</ele>
        <time>2021-02-08T08:18:16Z</time>
      </trkpt>
      <trkpt lat="45.70871" lon="6.27667">
        <ele>1317.4</ele>
        <time>2021-02-08T08:18:23Z</time>
      </trkpt>
      <trkpt lat="45.70869" lon="6.27665">
        <ele>1318.3</ele>
        <time>2021-02-08T08:18:26Z</time>
      </trkpt>
      <trkpt lat="45.70868" lon="6.27665">
        <ele>1318.7</ele>
        <time>2021-02-08T08:18:27Z</time>
      </trkpt>
      <trkpt lat="45.70868" lon="6.27664">
        <ele>1318.7</ele>
        <time>2021-02-08T08:18:28Z</time>
      </trkpt>
      <trkpt lat="45.70866" lon="6.27661">
        <ele>1319.7</ele>
        <time>2021-02-08T08:18:32Z</time>
      </trkpt>
      <trkpt lat="45.70865" lon="6.27654">
        <ele>1320.8</ele>
        <time>2021-02-08T08:18:39Z</time>
      </trkpt>
      <trkpt lat="45.70864" lon="6.27652">
        <ele>1321.4</ele>
        <time>2021-02-08T08:18:41Z</time>
      </trkpt>
      <trkpt lat="45.70862" lon="6.2765">
        <ele>1322.4</ele>
        <time>2021-02-08T08:18:44Z</time>
      </trkpt>
      <trkpt lat="45.70861" lon="6.2765">
        <ele>1322.9</ele>
        <time>2021-02-08T08:18:45Z</time>
      </trkpt>
      <trkpt lat="45.70859" lon="6.27647">
        <ele>1324.3</ele>
        <time>2021-02-08T08:18:49Z</time>
      </trkpt>
      <trkpt lat="45.70859" lon="6.27646">
        <ele>1324.4</ele>
        <time>2021-02-08T08:18:50Z</time>
      </trkpt>
      <trkpt lat="45.70858" lon="6.27645">
        <ele>1325.1</ele>
        <time>2021-02-08T08:18:52Z</time>
      </trkpt>
      <trkpt lat="45.70857" lon="6.27641">
        <ele>1326.1</ele>
        <time>2021-02-08T08:18:56Z</time>
      </trkpt>
      <trkpt lat="45.70856" lon="6.27635">
        <ele>1327.3</ele>
        <time>2021-02-08T08:19:03Z</time>
      </trkpt>
      <trkpt lat="45.70856" lon="6.2763">
        <ele>1327.8</ele>
        <time>2021-02-08T08:19:07Z</time>
      </trkpt>
      <trkpt lat="45.70855" lon="6.27629">
        <ele>1328.5</ele>
        <time>2021-02-08T08:19:08Z</time>
      </trkpt>
      <trkpt lat="45.70854" lon="6.27624">
        <ele>1329.6</ele>
        <time>2021-02-08T08:19:14Z</time>
      </trkpt>
      <trkpt lat="45.70851" lon="6.27621">
        <ele>1331.5</ele>
        <time>2021-02-08T08:19:19Z</time>
      </trkpt>
      <trkpt lat="45.70851" lon="6.27621">
        <ele>1331.5</ele>
        <time>2021-02-08T08:19:20Z</time>
      </trkpt>
      <trkpt lat="45.7085" lon="6.27619">
        <ele>1332.3</ele>
        <time>2021-02-08T08:19:24Z</time>
      </trkpt>
      <trkpt lat="45.70847" lon="6.27616">
        <ele>1334.2</ele>
        <time>2021-02-08T08:19:29Z</time>
      </trkpt>
      <trkpt lat="45.70847" lon="6.27615">
        <ele>1334.3</ele>
        <time>2021-02-08T08:19:31Z</time>
      </trkpt>
      <trkpt lat="45.70847" lon="6.27614">
        <ele>1334.4</ele>
        <time>2021-02-08T08:19:32Z</time>
      </trkpt>
      <trkpt lat="45.70848" lon="6.27612">
        <ele>1334</ele>
        <time>2021-02-08T08:19:34Z</time>
      </trkpt>
      <trkpt lat="45.70849" lon="6.27611">
        <ele>1333.5</ele>
        <time>2021-02-08T08:19:36Z</time>
      </trkpt>
      <trkpt lat="45.70847" lon="6.27609">
        <ele>1334.7</ele>
        <time>2021-02-08T08:19:40Z</time>
      </trkpt>
      <trkpt lat="45.70846" lon="6.27607">
        <ele>1335.3</ele>
        <time>2021-02-08T08:19:43Z</time>
      </trkpt>
      <trkpt lat="45.70845" lon="6.27606">
        <ele>1335.8</ele>
        <time>2021-02-08T08:19:44Z</time>
      </trkpt>
      <trkpt lat="45.70843" lon="6.27603">
        <ele>1336.9</ele>
        <time>2021-02-08T08:19:48Z</time>
      </trkpt>
      <trkpt lat="45.70842" lon="6.276">
        <ele>1337.4</ele>
        <time>2021-02-08T08:19:53Z</time>
      </trkpt>
      <trkpt lat="45.70841" lon="6.27597">
        <ele>1337.9</ele>
        <time>2021-02-08T08:19:56Z</time>
      </trkpt>
      <trkpt lat="45.7084" lon="6.27594">
        <ele>1338.4</ele>
        <time>2021-02-08T08:19:59Z</time>
      </trkpt>
      <trkpt lat="45.70839" lon="6.27594">
        <ele>1338.8</ele>
        <time>2021-02-08T08:20:00Z</time>
      </trkpt>
      <trkpt lat="45.70838" lon="6.27592">
        <ele>1339.3</ele>
        <time>2021-02-08T08:20:02Z</time>
      </trkpt>
      <trkpt lat="45.70837" lon="6.27591">
        <ele>1339.7</ele>
        <time>2021-02-08T08:20:04Z</time>
      </trkpt>
      <trkpt lat="45.70837" lon="6.27589">
        <ele>1339.6</ele>
        <time>2021-02-08T08:20:07Z</time>
      </trkpt>
      <trkpt lat="45.70836" lon="6.27587">
        <ele>1340</ele>
        <time>2021-02-08T08:20:09Z</time>
      </trkpt>
      <trkpt lat="45.70835" lon="6.27583">
        <ele>1340.4</ele>
        <time>2021-02-08T08:20:15Z</time>
      </trkpt>
      <trkpt lat="45.70835" lon="6.27582">
        <ele>1340.6</ele>
        <time>2021-02-08T08:20:17Z</time>
      </trkpt>
      <trkpt lat="45.70833" lon="6.27579">
        <ele>1342.1</ele>
        <time>2021-02-08T08:20:21Z</time>
      </trkpt>
      <trkpt lat="45.70832" lon="6.27575">
        <ele>1343.6</ele>
        <time>2021-02-08T08:20:25Z</time>
      </trkpt>
      <trkpt lat="45.70832" lon="6.27574">
        <ele>1343.8</ele>
        <time>2021-02-08T08:20:27Z</time>
      </trkpt>
      <trkpt lat="45.70831" lon="6.27574">
        <ele>1344.3</ele>
        <time>2021-02-08T08:20:28Z</time>
      </trkpt>
      <trkpt lat="45.7083" lon="6.2757">
        <ele>1345.7</ele>
        <time>2021-02-08T08:20:33Z</time>
      </trkpt>
      <trkpt lat="45.7083" lon="6.27565">
        <ele>1346.8</ele>
        <time>2021-02-08T08:20:39Z</time>
      </trkpt>
      <trkpt lat="45.7083" lon="6.27565">
        <ele>1346.8</ele>
        <time>2021-02-08T08:20:40Z</time>
      </trkpt>
      <trkpt lat="45.7083" lon="6.27561">
        <ele>1347.6</ele>
        <time>2021-02-08T08:20:45Z</time>
      </trkpt>
      <trkpt lat="45.7083" lon="6.27557">
        <ele>1348.5</ele>
        <time>2021-02-08T08:20:50Z</time>
      </trkpt>
      <trkpt lat="45.7083" lon="6.27555">
        <ele>1348.9</ele>
        <time>2021-02-08T08:20:52Z</time>
      </trkpt>
      <trkpt lat="45.7083" lon="6.27554">
        <ele>1349</ele>
        <time>2021-02-08T08:20:53Z</time>
      </trkpt>
      <trkpt lat="45.70828" lon="6.27553">
        <ele>1350.3</ele>
        <time>2021-02-08T08:20:56Z</time>
      </trkpt>
      <trkpt lat="45.70828" lon="6.27552">
        <ele>1350.4</ele>
        <time>2021-02-08T08:20:57Z</time>
      </trkpt>
      <trkpt lat="45.70828" lon="6.2755">
        <ele>1350.7</ele>
        <time>2021-02-08T08:20:59Z</time>
      </trkpt>
      <trkpt lat="45.70825" lon="6.27547">
        <ele>1352.8</ele>
        <time>2021-02-08T08:21:04Z</time>
      </trkpt>
      <trkpt lat="45.70825" lon="6.27544">
        <ele>1353.3</ele>
        <time>2021-02-08T08:21:07Z</time>
      </trkpt>
      <trkpt lat="45.70825" lon="6.27543">
        <ele>1353.4</ele>
        <time>2021-02-08T08:21:08Z</time>
      </trkpt>
      <trkpt lat="45.70825" lon="6.27542">
        <ele>1353.6</ele>
        <time>2021-02-08T08:21:10Z</time>
      </trkpt>
      <trkpt lat="45.70824" lon="6.27539">
        <ele>1354.6</ele>
        <time>2021-02-08T08:21:13Z</time>
      </trkpt>
      <trkpt lat="45.70825" lon="6.27537">
        <ele>1354.4</ele>
        <time>2021-02-08T08:21:15Z</time>
      </trkpt>
      <trkpt lat="45.70826" lon="6.27534">
        <ele>1354.3</ele>
        <time>2021-02-08T08:21:19Z</time>
      </trkpt>
      <trkpt lat="45.70826" lon="6.27532">
        <ele>1354.6</ele>
        <time>2021-02-08T08:21:21Z</time>
      </trkpt>
      <trkpt lat="45.70826" lon="6.27529">
        <ele>1355</ele>
        <time>2021-02-08T08:21:25Z</time>
      </trkpt>
      <trkpt lat="45.70826" lon="6.27527">
        <ele>1355.3</ele>
        <time>2021-02-08T08:21:27Z</time>
      </trkpt>
      <trkpt lat="45.70826" lon="6.27523">
        <ele>1355.7</ele>
        <time>2021-02-08T08:21:32Z</time>
      </trkpt>
      <trkpt lat="45.70826" lon="6.27521">
        <ele>1355.9</ele>
        <time>2021-02-08T08:21:34Z</time>
      </trkpt>
      <trkpt lat="45.70826" lon="6.27518">
        <ele>1356.2</ele>
        <time>2021-02-08T08:21:37Z</time>
      </trkpt>
      <trkpt lat="45.70828" lon="6.27513">
        <ele>1355.6</ele>
        <time>2021-02-08T08:21:45Z</time>
      </trkpt>
      <trkpt lat="45.70828" lon="6.27512">
        <ele>1355.7</ele>
        <time>2021-02-08T08:21:47Z</time>
      </trkpt>
      <trkpt lat="45.70828" lon="6.27514">
        <ele>1355.5</ele>
        <time>2021-02-08T08:22:00Z</time>
      </trkpt>
      <trkpt lat="45.70828" lon="6.27514">
        <ele>1355.5</ele>
        <time>2021-02-08T08:22:02Z</time>
      </trkpt>
      <trkpt lat="45.70829" lon="6.27514">
        <ele>1354.9</ele>
        <time>2021-02-08T08:22:05Z</time>
      </trkpt>
      <trkpt lat="45.70829" lon="6.27515">
        <ele>1354.8</ele>
        <time>2021-02-08T08:22:09Z</time>
      </trkpt>
      <trkpt lat="45.7083" lon="6.27514">
        <ele>1354.3</ele>
        <time>2021-02-08T08:22:20Z</time>
      </trkpt>
      <trkpt lat="45.70829" lon="6.27514">
        <ele>1354.9</ele>
        <time>2021-02-08T08:22:31Z</time>
      </trkpt>
      <trkpt lat="45.70829" lon="6.27514">
        <ele>1354.9</ele>
        <time>2021-02-08T08:22:36Z</time>
      </trkpt>
      <trkpt lat="45.70829" lon="6.27514">
        <ele>1354.9</ele>
        <time>2021-02-08T08:22:37Z</time>
      </trkpt>
      <trkpt lat="45.70826" lon="6.27516">
        <ele>1356.4</ele>
        <time>2021-02-08T08:22:50Z</time>
      </trkpt>
      <trkpt lat="45.70823" lon="6.27513">
        <ele>1358.4</ele>
        <time>2021-02-08T08:23:05Z</time>
      </trkpt>
      <trkpt lat="45.70824" lon="6.27509">
        <ele>1358.2</ele>
        <time>2021-02-08T08:23:18Z</time>
      </trkpt>
      <trkpt lat="45.70826" lon="6.27501">
        <ele>1357.9</ele>
        <time>2021-02-08T08:23:25Z</time>
      </trkpt>
      <trkpt lat="45.70825" lon="6.27499">
        <ele>1358.6</ele>
        <time>2021-02-08T08:23:27Z</time>
      </trkpt>
      <trkpt lat="45.70825" lon="6.27498">
        <ele>1358.7</ele>
        <time>2021-02-08T08:23:29Z</time>
      </trkpt>
      <trkpt lat="45.70824" lon="6.27494">
        <ele>1359.5</ele>
        <time>2021-02-08T08:23:33Z</time>
      </trkpt>
      <trkpt lat="45.70823" lon="6.27488">
        <ele>1360.6</ele>
        <time>2021-02-08T08:23:39Z</time>
      </trkpt>
      <trkpt lat="45.70823" lon="6.27486">
        <ele>1360.7</ele>
        <time>2021-02-08T08:23:41Z</time>
      </trkpt>
      <trkpt lat="45.70823" lon="6.27485">
        <ele>1360.8</ele>
        <time>2021-02-08T08:23:42Z</time>
      </trkpt>
      <trkpt lat="45.70823" lon="6.27482">
        <ele>1361</ele>
        <time>2021-02-08T08:23:45Z</time>
      </trkpt>
      <trkpt lat="45.70823" lon="6.2748">
        <ele>1361.2</ele>
        <time>2021-02-08T08:23:47Z</time>
      </trkpt>
      <trkpt lat="45.70823" lon="6.27479">
        <ele>1361.3</ele>
        <time>2021-02-08T08:23:48Z</time>
      </trkpt>
      <trkpt lat="45.70823" lon="6.27477">
        <ele>1361.4</ele>
        <time>2021-02-08T08:23:51Z</time>
      </trkpt>
      <trkpt lat="45.70822" lon="6.27475">
        <ele>1362.1</ele>
        <time>2021-02-08T08:23:53Z</time>
      </trkpt>
      <trkpt lat="45.70822" lon="6.27471">
        <ele>1362.5</ele>
        <time>2021-02-08T08:23:58Z</time>
      </trkpt>
      <trkpt lat="45.70821" lon="6.27468">
        <ele>1363.5</ele>
        <time>2021-02-08T08:24:01Z</time>
      </trkpt>
      <trkpt lat="45.70821" lon="6.27467">
        <ele>1363.6</ele>
        <time>2021-02-08T08:24:03Z</time>
      </trkpt>
      <trkpt lat="45.7082" lon="6.27465">
        <ele>1364.4</ele>
        <time>2021-02-08T08:24:05Z</time>
      </trkpt>
      <trkpt lat="45.7082" lon="6.27462">
        <ele>1364.9</ele>
        <time>2021-02-08T08:24:08Z</time>
      </trkpt>
      <trkpt lat="45.7082" lon="6.27459">
        <ele>1365.4</ele>
        <time>2021-02-08T08:24:11Z</time>
      </trkpt>
      <trkpt lat="45.70819" lon="6.27455">
        <ele>1366.5</ele>
        <time>2021-02-08T08:24:16Z</time>
      </trkpt>
      <trkpt lat="45.70816" lon="6.27451">
        <ele>1368.5</ele>
        <time>2021-02-08T08:24:22Z</time>
      </trkpt>
      <trkpt lat="45.70816" lon="6.2745">
        <ele>1368.6</ele>
        <time>2021-02-08T08:24:23Z</time>
      </trkpt>
      <trkpt lat="45.70816" lon="6.27446">
        <ele>1369.2</ele>
        <time>2021-02-08T08:24:28Z</time>
      </trkpt>
      <trkpt lat="45.70816" lon="6.27444">
        <ele>1369.6</ele>
        <time>2021-02-08T08:24:31Z</time>
      </trkpt>
      <trkpt lat="45.70816" lon="6.27443">
        <ele>1369.7</ele>
        <time>2021-02-08T08:24:32Z</time>
      </trkpt>
      <trkpt lat="45.70815" lon="6.27439">
        <ele>1370.8</ele>
        <time>2021-02-08T08:24:36Z</time>
      </trkpt>
      <trkpt lat="45.70815" lon="6.27438">
        <ele>1371</ele>
        <time>2021-02-08T08:24:38Z</time>
      </trkpt>
      <trkpt lat="45.70815" lon="6.27437">
        <ele>1371.2</ele>
        <time>2021-02-08T08:24:40Z</time>
      </trkpt>
      <trkpt lat="45.70815" lon="6.27436">
        <ele>1371.3</ele>
        <time>2021-02-08T08:24:42Z</time>
      </trkpt>
      <trkpt lat="45.70814" lon="6.27433">
        <ele>1372.3</ele>
        <time>2021-02-08T08:24:46Z</time>
      </trkpt>
      <trkpt lat="45.70814" lon="6.27431">
        <ele>1372.6</ele>
        <time>2021-02-08T08:24:48Z</time>
      </trkpt>
      <trkpt lat="45.70814" lon="6.27429">
        <ele>1373</ele>
        <time>2021-02-08T08:24:50Z</time>
      </trkpt>
      <trkpt lat="45.70813" lon="6.27428">
        <ele>1373.6</ele>
        <time>2021-02-08T08:24:51Z</time>
      </trkpt>
      <trkpt lat="45.70813" lon="6.27427">
        <ele>1373.8</ele>
        <time>2021-02-08T08:24:53Z</time>
      </trkpt>
      <trkpt lat="45.70812" lon="6.27422">
        <ele>1375.1</ele>
        <time>2021-02-08T08:24:59Z</time>
      </trkpt>
      <trkpt lat="45.70812" lon="6.2742">
        <ele>1375.4</ele>
        <time>2021-02-08T08:25:02Z</time>
      </trkpt>
      <trkpt lat="45.70811" lon="6.27418">
        <ele>1376.2</ele>
        <time>2021-02-08T08:25:04Z</time>
      </trkpt>
      <trkpt lat="45.70811" lon="6.27417">
        <ele>1376.4</ele>
        <time>2021-02-08T08:25:06Z</time>
      </trkpt>
      <trkpt lat="45.70811" lon="6.27414">
        <ele>1376.6</ele>
        <time>2021-02-08T08:25:09Z</time>
      </trkpt>
      <trkpt lat="45.7081" lon="6.27413">
        <ele>1377.2</ele>
        <time>2021-02-08T08:25:11Z</time>
      </trkpt>
      <trkpt lat="45.70809" lon="6.2741">
        <ele>1377.8</ele>
        <time>2021-02-08T08:25:16Z</time>
      </trkpt>
      <trkpt lat="45.70809" lon="6.27409">
        <ele>1377.9</ele>
        <time>2021-02-08T08:25:17Z</time>
      </trkpt>
      <trkpt lat="45.70807" lon="6.27406">
        <ele>1379.1</ele>
        <time>2021-02-08T08:25:22Z</time>
      </trkpt>
      <trkpt lat="45.70806" lon="6.27404">
        <ele>1379.7</ele>
        <time>2021-02-08T08:25:26Z</time>
      </trkpt>
      <trkpt lat="45.70804" lon="6.27403">
        <ele>1380.6</ele>
        <time>2021-02-08T08:25:29Z</time>
      </trkpt>
      <trkpt lat="45.70803" lon="6.274">
        <ele>1381.2</ele>
        <time>2021-02-08T08:25:33Z</time>
      </trkpt>
      <trkpt lat="45.70803" lon="6.27399">
        <ele>1381.3</ele>
        <time>2021-02-08T08:25:34Z</time>
      </trkpt>
      <trkpt lat="45.70802" lon="6.27397">
        <ele>1381.8</ele>
        <time>2021-02-08T08:25:38Z</time>
      </trkpt>
      <trkpt lat="45.70801" lon="6.27395">
        <ele>1382.3</ele>
        <time>2021-02-08T08:25:42Z</time>
      </trkpt>
      <trkpt lat="45.70801" lon="6.27394">
        <ele>1382.4</ele>
        <time>2021-02-08T08:25:43Z</time>
      </trkpt>
      <trkpt lat="45.70797" lon="6.27392">
        <ele>1384</ele>
        <time>2021-02-08T08:25:49Z</time>
      </trkpt>
      <trkpt lat="45.70796" lon="6.27389">
        <ele>1384.4</ele>
        <time>2021-02-08T08:25:54Z</time>
      </trkpt>
      <trkpt lat="45.70795" lon="6.27388">
        <ele>1384.7</ele>
        <time>2021-02-08T08:25:55Z</time>
      </trkpt>
      <trkpt lat="45.70793" lon="6.27383">
        <ele>1385.2</ele>
        <time>2021-02-08T08:26:02Z</time>
      </trkpt>
      <trkpt lat="45.70792" lon="6.27383">
        <ele>1385.6</ele>
        <time>2021-02-08T08:26:05Z</time>
      </trkpt>
      <trkpt lat="45.70792" lon="6.27383">
        <ele>1385.6</ele>
        <time>2021-02-08T08:26:07Z</time>
      </trkpt>
      <trkpt lat="45.70792" lon="6.27383">
        <ele>1385.6</ele>
        <time>2021-02-08T08:26:10Z</time>
      </trkpt>
      <trkpt lat="45.70792" lon="6.27384">
        <ele>1385.6</ele>
        <time>2021-02-08T08:26:12Z</time>
      </trkpt>
      <trkpt lat="45.7079" lon="6.27382">
        <ele>1386.2</ele>
        <time>2021-02-08T08:26:20Z</time>
      </trkpt>
      <trkpt lat="45.70789" lon="6.27381">
        <ele>1386.6</ele>
        <time>2021-02-08T08:26:22Z</time>
      </trkpt>
      <trkpt lat="45.70787" lon="6.27379">
        <ele>1387.2</ele>
        <time>2021-02-08T08:26:26Z</time>
      </trkpt>
      <trkpt lat="45.70786" lon="6.27377">
        <ele>1387.5</ele>
        <time>2021-02-08T08:26:28Z</time>
      </trkpt>
      <trkpt lat="45.70784" lon="6.27375">
        <ele>1388.1</ele>
        <time>2021-02-08T08:26:32Z</time>
      </trkpt>
      <trkpt lat="45.70784" lon="6.27375">
        <ele>1388.1</ele>
        <time>2021-02-08T08:26:33Z</time>
      </trkpt>
      <trkpt lat="45.70781" lon="6.27372">
        <ele>1389.2</ele>
        <time>2021-02-08T08:26:39Z</time>
      </trkpt>
      <trkpt lat="45.70779" lon="6.27369">
        <ele>1389.8</ele>
        <time>2021-02-08T08:26:43Z</time>
      </trkpt>
      <trkpt lat="45.70776" lon="6.27366">
        <ele>1390.9</ele>
        <time>2021-02-08T08:26:48Z</time>
      </trkpt>
      <trkpt lat="45.70773" lon="6.27362">
        <ele>1391.9</ele>
        <time>2021-02-08T08:26:54Z</time>
      </trkpt>
      <trkpt lat="45.70771" lon="6.2736">
        <ele>1392.6</ele>
        <time>2021-02-08T08:26:56Z</time>
      </trkpt>
      <trkpt lat="45.70771" lon="6.2736">
        <ele>1392.6</ele>
        <time>2021-02-08T08:26:57Z</time>
      </trkpt>
      <trkpt lat="45.7077" lon="6.2736">
        <ele>1393</ele>
        <time>2021-02-08T08:26:58Z</time>
      </trkpt>
      <trkpt lat="45.70769" lon="6.27356">
        <ele>1393.3</ele>
        <time>2021-02-08T08:27:03Z</time>
      </trkpt>
      <trkpt lat="45.70768" lon="6.27355">
        <ele>1393.7</ele>
        <time>2021-02-08T08:27:04Z</time>
      </trkpt>
      <trkpt lat="45.70766" lon="6.2735">
        <ele>1394.3</ele>
        <time>2021-02-08T08:27:09Z</time>
      </trkpt>
      <trkpt lat="45.70766" lon="6.2735">
        <ele>1394.3</ele>
        <time>2021-02-08T08:27:10Z</time>
      </trkpt>
      <trkpt lat="45.70763" lon="6.27345">
        <ele>1395.3</ele>
        <time>2021-02-08T08:27:17Z</time>
      </trkpt>
      <trkpt lat="45.70763" lon="6.27344">
        <ele>1395.2</ele>
        <time>2021-02-08T08:27:18Z</time>
      </trkpt>
      <trkpt lat="45.70761" lon="6.27341">
        <ele>1395.9</ele>
        <time>2021-02-08T08:27:22Z</time>
      </trkpt>
      <trkpt lat="45.7076" lon="6.27338">
        <ele>1396.2</ele>
        <time>2021-02-08T08:27:25Z</time>
      </trkpt>
      <trkpt lat="45.70759" lon="6.27337">
        <ele>1396.6</ele>
        <time>2021-02-08T08:27:27Z</time>
      </trkpt>
      <trkpt lat="45.70759" lon="6.27335">
        <ele>1396.5</ele>
        <time>2021-02-08T08:27:29Z</time>
      </trkpt>
      <trkpt lat="45.70756" lon="6.27331">
        <ele>1397.6</ele>
        <time>2021-02-08T08:27:35Z</time>
      </trkpt>
      <trkpt lat="45.70754" lon="6.27327">
        <ele>1398.3</ele>
        <time>2021-02-08T08:27:41Z</time>
      </trkpt>
      <trkpt lat="45.70754" lon="6.27326">
        <ele>1398.2</ele>
        <time>2021-02-08T08:27:42Z</time>
      </trkpt>
      <trkpt lat="45.70752" lon="6.27324">
        <ele>1398.9</ele>
        <time>2021-02-08T08:27:46Z</time>
      </trkpt>
      <trkpt lat="45.70751" lon="6.27323">
        <ele>1399.3</ele>
        <time>2021-02-08T08:27:48Z</time>
      </trkpt>
      <trkpt lat="45.70748" lon="6.27321">
        <ele>1400.3</ele>
        <time>2021-02-08T08:27:54Z</time>
      </trkpt>
      <trkpt lat="45.70747" lon="6.2732">
        <ele>1400.6</ele>
        <time>2021-02-08T08:27:55Z</time>
      </trkpt>
      <trkpt lat="45.70747" lon="6.2732">
        <ele>1400.6</ele>
        <time>2021-02-08T08:27:56Z</time>
      </trkpt>
      <trkpt lat="45.70745" lon="6.27319">
        <ele>1401.3</ele>
        <time>2021-02-08T08:28:00Z</time>
      </trkpt>
      <trkpt lat="45.70744" lon="6.27319">
        <ele>1401.6</ele>
        <time>2021-02-08T08:28:01Z</time>
      </trkpt>
      <trkpt lat="45.70744" lon="6.27318">
        <ele>1401.6</ele>
        <time>2021-02-08T08:28:02Z</time>
      </trkpt>
      <trkpt lat="45.70742" lon="6.27317">
        <ele>1402.2</ele>
        <time>2021-02-08T08:28:05Z</time>
      </trkpt>
      <trkpt lat="45.70741" lon="6.27315">
        <ele>1402.5</ele>
        <time>2021-02-08T08:28:08Z</time>
      </trkpt>
      <trkpt lat="45.7074" lon="6.27315">
        <ele>1402.8</ele>
        <time>2021-02-08T08:28:09Z</time>
      </trkpt>
      <trkpt lat="45.70739" lon="6.27312">
        <ele>1403</ele>
        <time>2021-02-08T08:28:13Z</time>
      </trkpt>
      <trkpt lat="45.70737" lon="6.2731">
        <ele>1403.5</ele>
        <time>2021-02-08T08:28:15Z</time>
      </trkpt>
      <trkpt lat="45.70736" lon="6.27309">
        <ele>1403.8</ele>
        <time>2021-02-08T08:28:17Z</time>
      </trkpt>
      <trkpt lat="45.70734" lon="6.27307">
        <ele>1404.3</ele>
        <time>2021-02-08T08:28:20Z</time>
      </trkpt>
      <trkpt lat="45.70733" lon="6.27306">
        <ele>1404.5</ele>
        <time>2021-02-08T08:28:22Z</time>
      </trkpt>
      <trkpt lat="45.70732" lon="6.27305">
        <ele>1404.8</ele>
        <time>2021-02-08T08:28:23Z</time>
      </trkpt>
      <trkpt lat="45.70731" lon="6.27304">
        <ele>1405</ele>
        <time>2021-02-08T08:28:25Z</time>
      </trkpt>
      <trkpt lat="45.70729" lon="6.27302">
        <ele>1405.5</ele>
        <time>2021-02-08T08:28:29Z</time>
      </trkpt>
      <trkpt lat="45.70727" lon="6.27301">
        <ele>1406.1</ele>
        <time>2021-02-08T08:28:32Z</time>
      </trkpt>
      <trkpt lat="45.70726" lon="6.273">
        <ele>1406.4</ele>
        <time>2021-02-08T08:28:34Z</time>
      </trkpt>
      <trkpt lat="45.70725" lon="6.27299">
        <ele>1406.6</ele>
        <time>2021-02-08T08:28:36Z</time>
      </trkpt>
      <trkpt lat="45.70722" lon="6.27298">
        <ele>1407.5</ele>
        <time>2021-02-08T08:28:41Z</time>
      </trkpt>
      <trkpt lat="45.7072" lon="6.27296">
        <ele>1408</ele>
        <time>2021-02-08T08:28:45Z</time>
      </trkpt>
      <trkpt lat="45.7072" lon="6.27296">
        <ele>1408</ele>
        <time>2021-02-08T08:28:46Z</time>
      </trkpt>
      <trkpt lat="45.70719" lon="6.27295">
        <ele>1408.3</ele>
        <time>2021-02-08T08:28:47Z</time>
      </trkpt>
      <trkpt lat="45.70717" lon="6.27294">
        <ele>1408.9</ele>
        <time>2021-02-08T08:28:51Z</time>
      </trkpt>
      <trkpt lat="45.70715" lon="6.27292">
        <ele>1409.4</ele>
        <time>2021-02-08T08:28:55Z</time>
      </trkpt>
      <trkpt lat="45.70712" lon="6.27291">
        <ele>1410.3</ele>
        <time>2021-02-08T08:28:59Z</time>
      </trkpt>
      <trkpt lat="45.70711" lon="6.2729">
        <ele>1410.5</ele>
        <time>2021-02-08T08:29:02Z</time>
      </trkpt>
      <trkpt lat="45.70708" lon="6.27289">
        <ele>1411.4</ele>
        <time>2021-02-08T08:29:07Z</time>
      </trkpt>
      <trkpt lat="45.70706" lon="6.27288">
        <ele>1412</ele>
        <time>2021-02-08T08:29:11Z</time>
      </trkpt>
      <trkpt lat="45.70705" lon="6.27288">
        <ele>1412.3</ele>
        <time>2021-02-08T08:29:12Z</time>
      </trkpt>
      <trkpt lat="45.70703" lon="6.27286">
        <ele>1412.8</ele>
        <time>2021-02-08T08:29:16Z</time>
      </trkpt>
      <trkpt lat="45.707" lon="6.27281">
        <ele>1413.4</ele>
        <time>2021-02-08T08:29:23Z</time>
      </trkpt>
      <trkpt lat="45.70698" lon="6.27278">
        <ele>1413.9</ele>
        <time>2021-02-08T08:29:27Z</time>
      </trkpt>
      <trkpt lat="45.70696" lon="6.27276">
        <ele>1414.3</ele>
        <time>2021-02-08T08:29:31Z</time>
      </trkpt>
      <trkpt lat="45.70695" lon="6.27275">
        <ele>1414.5</ele>
        <time>2021-02-08T08:29:33Z</time>
      </trkpt>
      <trkpt lat="45.70692" lon="6.27273">
        <ele>1415.8</ele>
        <time>2021-02-08T08:29:38Z</time>
      </trkpt>
      <trkpt lat="45.70692" lon="6.27273">
        <ele>1415.8</ele>
        <time>2021-02-08T08:29:39Z</time>
      </trkpt>
      <trkpt lat="45.70691" lon="6.27271">
        <ele>1416.1</ele>
        <time>2021-02-08T08:29:41Z</time>
      </trkpt>
      <trkpt lat="45.7069" lon="6.2727">
        <ele>1416.5</ele>
        <time>2021-02-08T08:29:45Z</time>
      </trkpt>
      <trkpt lat="45.70689" lon="6.27268">
        <ele>1416.9</ele>
        <time>2021-02-08T08:29:47Z</time>
      </trkpt>
      <trkpt lat="45.70687" lon="6.27266">
        <ele>1417.8</ele>
        <time>2021-02-08T08:29:52Z</time>
      </trkpt>
      <trkpt lat="45.70686" lon="6.27265">
        <ele>1418.3</ele>
        <time>2021-02-08T08:29:55Z</time>
      </trkpt>
      <trkpt lat="45.70685" lon="6.27265">
        <ele>1418.8</ele>
        <time>2021-02-08T08:29:58Z</time>
      </trkpt>
      <trkpt lat="45.70682" lon="6.27263">
        <ele>1420.4</ele>
        <time>2021-02-08T08:30:06Z</time>
      </trkpt>
      <trkpt lat="45.70681" lon="6.27262">
        <ele>1420.9</ele>
        <time>2021-02-08T08:30:09Z</time>
      </trkpt>
      <trkpt lat="45.7068" lon="6.2726">
        <ele>1421.4</ele>
        <time>2021-02-08T08:30:15Z</time>
      </trkpt>
      <trkpt lat="45.7068" lon="6.2726">
        <ele>1421.4</ele>
        <time>2021-02-08T08:30:16Z</time>
      </trkpt>
      <trkpt lat="45.70678" lon="6.27258">
        <ele>1422.4</ele>
        <time>2021-02-08T08:30:21Z</time>
      </trkpt>
      <trkpt lat="45.70677" lon="6.27257">
        <ele>1423</ele>
        <time>2021-02-08T08:30:23Z</time>
      </trkpt>
      <trkpt lat="45.70675" lon="6.27256">
        <ele>1424.1</ele>
        <time>2021-02-08T08:30:28Z</time>
      </trkpt>
      <trkpt lat="45.70675" lon="6.27256">
        <ele>1424.1</ele>
        <time>2021-02-08T08:30:29Z</time>
      </trkpt>
      <trkpt lat="45.70673" lon="6.27255">
        <ele>1425.2</ele>
        <time>2021-02-08T08:30:34Z</time>
      </trkpt>
      <trkpt lat="45.70672" lon="6.27255">
        <ele>1425.8</ele>
        <time>2021-02-08T08:30:36Z</time>
      </trkpt>
      <trkpt lat="45.70671" lon="6.27253">
        <ele>1426.4</ele>
        <time>2021-02-08T08:30:40Z</time>
      </trkpt>
      <trkpt lat="45.7067" lon="6.27252">
        <ele>1427</ele>
        <time>2021-02-08T08:30:43Z</time>
      </trkpt>
      <trkpt lat="45.7067" lon="6.27251">
        <ele>1427</ele>
        <time>2021-02-08T08:30:46Z</time>
      </trkpt>
      <trkpt lat="45.70669" lon="6.2725">
        <ele>1427.6</ele>
        <time>2021-02-08T08:30:48Z</time>
      </trkpt>
      <trkpt lat="45.70669" lon="6.27249">
        <ele>1427.4</ele>
        <time>2021-02-08T08:30:50Z</time>
      </trkpt>
      <trkpt lat="45.70669" lon="6.27246">
        <ele>1426.7</ele>
        <time>2021-02-08T08:30:54Z</time>
      </trkpt>
      <trkpt lat="45.70667" lon="6.27241">
        <ele>1426.9</ele>
        <time>2021-02-08T08:31:00Z</time>
      </trkpt>
      <trkpt lat="45.70667" lon="6.2724">
        <ele>1426.6</ele>
        <time>2021-02-08T08:31:01Z</time>
      </trkpt>
      <trkpt lat="45.70666" lon="6.27239">
        <ele>1427</ele>
        <time>2021-02-08T08:31:02Z</time>
      </trkpt>
      <trkpt lat="45.70664" lon="6.27238">
        <ele>1427.8</ele>
        <time>2021-02-08T08:31:06Z</time>
      </trkpt>
      <trkpt lat="45.70662" lon="6.27238">
        <ele>1428.9</ele>
        <time>2021-02-08T08:31:09Z</time>
      </trkpt>
      <trkpt lat="45.70661" lon="6.27239">
        <ele>1429.6</ele>
        <time>2021-02-08T08:31:13Z</time>
      </trkpt>
      <trkpt lat="45.70661" lon="6.2724">
        <ele>1429.8</ele>
        <time>2021-02-08T08:31:19Z</time>
      </trkpt>
      <trkpt lat="45.70658" lon="6.27239">
        <ele>1431.2</ele>
        <time>2021-02-08T08:31:26Z</time>
      </trkpt>
      <trkpt lat="45.70657" lon="6.2724">
        <ele>1431.9</ele>
        <time>2021-02-08T08:31:28Z</time>
      </trkpt>
      <trkpt lat="45.70656" lon="6.27245">
        <ele>1433.6</ele>
        <time>2021-02-08T08:31:33Z</time>
      </trkpt>
      <trkpt lat="45.70656" lon="6.27249">
        <ele>1434.5</ele>
        <time>2021-02-08T08:31:37Z</time>
      </trkpt>
      <trkpt lat="45.70657" lon="6.27251">
        <ele>1434.2</ele>
        <time>2021-02-08T08:31:39Z</time>
      </trkpt>
      <trkpt lat="45.70657" lon="6.27252">
        <ele>1434.3</ele>
        <time>2021-02-08T08:31:40Z</time>
      </trkpt>
      <trkpt lat="45.70657" lon="6.27253">
        <ele>1434.3</ele>
        <time>2021-02-08T08:31:41Z</time>
      </trkpt>
      <trkpt lat="45.70658" lon="6.27254">
        <ele>1433.8</ele>
        <time>2021-02-08T08:31:42Z</time>
      </trkpt>
      <trkpt lat="45.70659" lon="6.27256">
        <ele>1433.3</ele>
        <time>2021-02-08T08:31:44Z</time>
      </trkpt>
      <trkpt lat="45.70659" lon="6.27257">
        <ele>1433.3</ele>
        <time>2021-02-08T08:31:46Z</time>
      </trkpt>
      <trkpt lat="45.70659" lon="6.27262">
        <ele>1433.4</ele>
        <time>2021-02-08T08:31:51Z</time>
      </trkpt>
      <trkpt lat="45.70659" lon="6.27264">
        <ele>1433.4</ele>
        <time>2021-02-08T08:31:53Z</time>
      </trkpt>
      <trkpt lat="45.70658" lon="6.27275">
        <ele>1434.2</ele>
        <time>2021-02-08T08:32:03Z</time>
      </trkpt>
      <trkpt lat="45.70657" lon="6.27277">
        <ele>1434.9</ele>
        <time>2021-02-08T08:32:05Z</time>
      </trkpt>
      <trkpt lat="45.70655" lon="6.2728">
        <ele>1435.9</ele>
        <time>2021-02-08T08:32:08Z</time>
      </trkpt>
      <trkpt lat="45.70655" lon="6.27282">
        <ele>1435.8</ele>
        <time>2021-02-08T08:32:10Z</time>
      </trkpt>
      <trkpt lat="45.70654" lon="6.27284">
        <ele>1436.2</ele>
        <time>2021-02-08T08:32:12Z</time>
      </trkpt>
      <trkpt lat="45.70652" lon="6.27291">
        <ele>1436.8</ele>
        <time>2021-02-08T08:32:19Z</time>
      </trkpt>
      <trkpt lat="45.7065" lon="6.27296">
        <ele>1437.5</ele>
        <time>2021-02-08T08:32:25Z</time>
      </trkpt>
      <trkpt lat="45.7065" lon="6.27297">
        <ele>1437.4</ele>
        <time>2021-02-08T08:32:26Z</time>
      </trkpt>
      <trkpt lat="45.70649" lon="6.27298">
        <ele>1437.9</ele>
        <time>2021-02-08T08:32:27Z</time>
      </trkpt>
      <trkpt lat="45.70649" lon="6.27304">
        <ele>1437.3</ele>
        <time>2021-02-08T08:32:33Z</time>
      </trkpt>
      <trkpt lat="45.70648" lon="6.27307">
        <ele>1437.8</ele>
        <time>2021-02-08T08:32:36Z</time>
      </trkpt>
      <trkpt lat="45.70645" lon="6.27316">
        <ele>1439.8</ele>
        <time>2021-02-08T08:32:45Z</time>
      </trkpt>
      <trkpt lat="45.70645" lon="6.27325">
        <ele>1440.1</ele>
        <time>2021-02-08T08:32:53Z</time>
      </trkpt>
      <trkpt lat="45.70645" lon="6.27326">
        <ele>1440.1</ele>
        <time>2021-02-08T08:32:54Z</time>
      </trkpt>
      <trkpt lat="45.70644" lon="6.2733">
        <ele>1440.7</ele>
        <time>2021-02-08T08:32:57Z</time>
      </trkpt>
      <trkpt lat="45.7064" lon="6.27337">
        <ele>1442.9</ele>
        <time>2021-02-08T08:33:04Z</time>
      </trkpt>
      <trkpt lat="45.70638" lon="6.27336">
        <ele>1443.8</ele>
        <time>2021-02-08T08:33:07Z</time>
      </trkpt>
      <trkpt lat="45.70637" lon="6.27336">
        <ele>1444.3</ele>
        <time>2021-02-08T08:33:08Z</time>
      </trkpt>
      <trkpt lat="45.70635" lon="6.27332">
        <ele>1445.1</ele>
        <time>2021-02-08T08:33:12Z</time>
      </trkpt>
      <trkpt lat="45.70633" lon="6.27328">
        <ele>1446.3</ele>
        <time>2021-02-08T08:33:16Z</time>
      </trkpt>
      <trkpt lat="45.70633" lon="6.27327">
        <ele>1446.3</ele>
        <time>2021-02-08T08:33:17Z</time>
      </trkpt>
      <trkpt lat="45.70632" lon="6.27327">
        <ele>1446.8</ele>
        <time>2021-02-08T08:33:18Z</time>
      </trkpt>
      <trkpt lat="45.70631" lon="6.27325">
        <ele>1447.4</ele>
        <time>2021-02-08T08:33:20Z</time>
      </trkpt>
      <trkpt lat="45.7063" lon="6.2732">
        <ele>1448.1</ele>
        <time>2021-02-08T08:33:25Z</time>
      </trkpt>
      <trkpt lat="45.7063" lon="6.27319">
        <ele>1448.1</ele>
        <time>2021-02-08T08:33:26Z</time>
      </trkpt>
      <trkpt lat="45.70629" lon="6.27316">
        <ele>1448.8</ele>
        <time>2021-02-08T08:33:29Z</time>
      </trkpt>
      <trkpt lat="45.70629" lon="6.27314">
        <ele>1448.8</ele>
        <time>2021-02-08T08:33:32Z</time>
      </trkpt>
      <trkpt lat="45.70629" lon="6.27309">
        <ele>1449</ele>
        <time>2021-02-08T08:33:37Z</time>
      </trkpt>
      <trkpt lat="45.70628" lon="6.27306">
        <ele>1449.7</ele>
        <time>2021-02-08T08:33:40Z</time>
      </trkpt>
      <trkpt lat="45.70628" lon="6.27305">
        <ele>1449.7</ele>
        <time>2021-02-08T08:33:42Z</time>
      </trkpt>
      <trkpt lat="45.70628" lon="6.27304">
        <ele>1449.7</ele>
        <time>2021-02-08T08:33:43Z</time>
      </trkpt>
      <trkpt lat="45.70627" lon="6.27302">
        <ele>1450.3</ele>
        <time>2021-02-08T08:33:46Z</time>
      </trkpt>
      <trkpt lat="45.70627" lon="6.27301">
        <ele>1450.3</ele>
        <time>2021-02-08T08:33:47Z</time>
      </trkpt>
      <trkpt lat="45.70627" lon="6.273">
        <ele>1450.4</ele>
        <time>2021-02-08T08:33:48Z</time>
      </trkpt>
      <trkpt lat="45.70627" lon="6.27298">
        <ele>1450.4</ele>
        <time>2021-02-08T08:33:50Z</time>
      </trkpt>
      <trkpt lat="45.70626" lon="6.27296">
        <ele>1451</ele>
        <time>2021-02-08T08:33:52Z</time>
      </trkpt>
      <trkpt lat="45.70626" lon="6.27291">
        <ele>1451</ele>
        <time>2021-02-08T08:33:57Z</time>
      </trkpt>
      <trkpt lat="45.70625" lon="6.2729">
        <ele>1451.5</ele>
        <time>2021-02-08T08:33:58Z</time>
      </trkpt>
      <trkpt lat="45.70624" lon="6.27285">
        <ele>1452</ele>
        <time>2021-02-08T08:34:03Z</time>
      </trkpt>
      <trkpt lat="45.70623" lon="6.27282">
        <ele>1452.4</ele>
        <time>2021-02-08T08:34:06Z</time>
      </trkpt>
      <trkpt lat="45.70622" lon="6.27279">
        <ele>1452.7</ele>
        <time>2021-02-08T08:34:10Z</time>
      </trkpt>
      <trkpt lat="45.70621" lon="6.27277">
        <ele>1453</ele>
        <time>2021-02-08T08:34:12Z</time>
      </trkpt>
      <trkpt lat="45.70619" lon="6.27272">
        <ele>1452.9</ele>
        <time>2021-02-08T08:34:18Z</time>
      </trkpt>
      <trkpt lat="45.70618" lon="6.27272">
        <ele>1453.2</ele>
        <time>2021-02-08T08:34:19Z</time>
      </trkpt>
      <trkpt lat="45.70617" lon="6.27271">
        <ele>1453.4</ele>
        <time>2021-02-08T08:34:22Z</time>
      </trkpt>
      <trkpt lat="45.70616" lon="6.2727">
        <ele>1453.6</ele>
        <time>2021-02-08T08:34:24Z</time>
      </trkpt>
      <trkpt lat="45.70615" lon="6.2727">
        <ele>1453.9</ele>
        <time>2021-02-08T08:34:26Z</time>
      </trkpt>
      <trkpt lat="45.70609" lon="6.27272">
        <ele>1456.4</ele>
        <time>2021-02-08T08:34:35Z</time>
      </trkpt>
      <trkpt lat="45.70608" lon="6.27273">
        <ele>1456.9</ele>
        <time>2021-02-08T08:34:38Z</time>
      </trkpt>
      <trkpt lat="45.70606" lon="6.27274">
        <ele>1457.7</ele>
        <time>2021-02-08T08:34:42Z</time>
      </trkpt>
      <trkpt lat="45.70605" lon="6.27274">
        <ele>1458</ele>
        <time>2021-02-08T08:34:43Z</time>
      </trkpt>
      <trkpt lat="45.70601" lon="6.27275">
        <ele>1459.3</ele>
        <time>2021-02-08T08:34:51Z</time>
      </trkpt>
      <trkpt lat="45.70599" lon="6.27275">
        <ele>1459.9</ele>
        <time>2021-02-08T08:34:56Z</time>
      </trkpt>
      <trkpt lat="45.70599" lon="6.27276">
        <ele>1460.1</ele>
        <time>2021-02-08T08:34:59Z</time>
      </trkpt>
      <trkpt lat="45.70595" lon="6.27276">
        <ele>1461.3</ele>
        <time>2021-02-08T08:35:06Z</time>
      </trkpt>
      <trkpt lat="45.70591" lon="6.27275">
        <ele>1462.3</ele>
        <time>2021-02-08T08:35:11Z</time>
      </trkpt>
      <trkpt lat="45.70589" lon="6.27274">
        <ele>1462.7</ele>
        <time>2021-02-08T08:35:13Z</time>
      </trkpt>
      <trkpt lat="45.70584" lon="6.27272">
        <ele>1463.8</ele>
        <time>2021-02-08T08:35:18Z</time>
      </trkpt>
      <trkpt lat="45.70583" lon="6.27272">
        <ele>1464.1</ele>
        <time>2021-02-08T08:35:19Z</time>
      </trkpt>
      <trkpt lat="45.70582" lon="6.27272">
        <ele>1464.4</ele>
        <time>2021-02-08T08:35:20Z</time>
      </trkpt>
      <trkpt lat="45.70579" lon="6.2727">
        <ele>1465.1</ele>
        <time>2021-02-08T08:35:23Z</time>
      </trkpt>
      <trkpt lat="45.70579" lon="6.2727">
        <ele>1465.1</ele>
        <time>2021-02-08T08:35:24Z</time>
      </trkpt>
      <trkpt lat="45.70578" lon="6.27268">
        <ele>1465.1</ele>
        <time>2021-02-08T08:35:29Z</time>
      </trkpt>
      <trkpt lat="45.70577" lon="6.27267">
        <ele>1465.3</ele>
        <time>2021-02-08T08:35:32Z</time>
      </trkpt>
      <trkpt lat="45.70573" lon="6.2726">
        <ele>1465.3</ele>
        <time>2021-02-08T08:35:39Z</time>
      </trkpt>
      <trkpt lat="45.70572" lon="6.27257">
        <ele>1465</ele>
        <time>2021-02-08T08:35:42Z</time>
      </trkpt>
      <trkpt lat="45.70569" lon="6.27255">
        <ele>1465.6</ele>
        <time>2021-02-08T08:35:45Z</time>
      </trkpt>
      <trkpt lat="45.70567" lon="6.27252">
        <ele>1465.7</ele>
        <time>2021-02-08T08:35:48Z</time>
      </trkpt>
      <trkpt lat="45.70562" lon="6.27248">
        <ele>1466.2</ele>
        <time>2021-02-08T08:35:54Z</time>
      </trkpt>
      <trkpt lat="45.7055" lon="6.27236">
        <ele>1465.4</ele>
        <time>2021-02-08T08:36:10Z</time>
      </trkpt>
      <trkpt lat="45.7055" lon="6.27236">
        <ele>1465.4</ele>
        <time>2021-02-08T08:36:11Z</time>
      </trkpt>
      <trkpt lat="45.70545" lon="6.27231">
        <ele>1465</ele>
        <time>2021-02-08T08:36:19Z</time>
      </trkpt>
      <trkpt lat="45.70543" lon="6.2723">
        <ele>1465.3</ele>
        <time>2021-02-08T08:36:21Z</time>
      </trkpt>
      <trkpt lat="45.70539" lon="6.27226">
        <ele>1464.9</ele>
        <time>2021-02-08T08:36:24Z</time>
      </trkpt>
      <trkpt lat="45.70532" lon="6.27218">
        <ele>1464.7</ele>
        <time>2021-02-08T08:36:31Z</time>
      </trkpt>
      <trkpt lat="45.70528" lon="6.27214">
        <ele>1465.1</ele>
        <time>2021-02-08T08:36:37Z</time>
      </trkpt>
      <trkpt lat="45.70527" lon="6.27214">
        <ele>1465.4</ele>
        <time>2021-02-08T08:36:38Z</time>
      </trkpt>
      <trkpt lat="45.70527" lon="6.27213">
        <ele>1465.2</ele>
        <time>2021-02-08T08:36:39Z</time>
      </trkpt>
      <trkpt lat="45.70526" lon="6.27212">
        <ele>1465.2</ele>
        <time>2021-02-08T08:36:40Z</time>
      </trkpt>
      <trkpt lat="45.70525" lon="6.27211">
        <ele>1465.1</ele>
        <time>2021-02-08T08:36:43Z</time>
      </trkpt>
      <trkpt lat="45.70524" lon="6.2721">
        <ele>1465.1</ele>
        <time>2021-02-08T08:36:44Z</time>
      </trkpt>
      <trkpt lat="45.70523" lon="6.27209">
        <ele>1465.1</ele>
        <time>2021-02-08T08:36:45Z</time>
      </trkpt>
      <trkpt lat="45.70523" lon="6.27208">
        <ele>1464.9</ele>
        <time>2021-02-08T08:36:46Z</time>
      </trkpt>
      <trkpt lat="45.7052" lon="6.27205">
        <ele>1464.8</ele>
        <time>2021-02-08T08:36:49Z</time>
      </trkpt>
      <trkpt lat="45.70519" lon="6.27204">
        <ele>1464.8</ele>
        <time>2021-02-08T08:36:52Z</time>
      </trkpt>
      <trkpt lat="45.70517" lon="6.27203">
        <ele>1464.9</ele>
        <time>2021-02-08T08:36:54Z</time>
      </trkpt>
      <trkpt lat="45.70516" lon="6.27202">
        <ele>1464.9</ele>
        <time>2021-02-08T08:36:56Z</time>
      </trkpt>
      <trkpt lat="45.70515" lon="6.27202">
        <ele>1465.1</ele>
        <time>2021-02-08T08:36:57Z</time>
      </trkpt>
      <trkpt lat="45.70514" lon="6.27202">
        <ele>1465.2</ele>
        <time>2021-02-08T08:36:59Z</time>
      </trkpt>
      <trkpt lat="45.70511" lon="6.272">
        <ele>1465.3</ele>
        <time>2021-02-08T08:37:03Z</time>
      </trkpt>
      <trkpt lat="45.70508" lon="6.27198">
        <ele>1465.4</ele>
        <time>2021-02-08T08:37:07Z</time>
      </trkpt>
      <trkpt lat="45.70505" lon="6.27197">
        <ele>1465.7</ele>
        <time>2021-02-08T08:37:11Z</time>
      </trkpt>
      <trkpt lat="45.70503" lon="6.27197">
        <ele>1466.1</ele>
        <time>2021-02-08T08:37:14Z</time>
      </trkpt>
      <trkpt lat="45.70501" lon="6.27198">
        <ele>1466.7</ele>
        <time>2021-02-08T08:37:16Z</time>
      </trkpt>
      <trkpt lat="45.70499" lon="6.27199">
        <ele>1467.4</ele>
        <time>2021-02-08T08:37:19Z</time>
      </trkpt>
      <trkpt lat="45.70499" lon="6.27199">
        <ele>1467.4</ele>
        <time>2021-02-08T08:37:20Z</time>
      </trkpt>
      <trkpt lat="45.70496" lon="6.272">
        <ele>1468.3</ele>
        <time>2021-02-08T08:37:23Z</time>
      </trkpt>
      <trkpt lat="45.70495" lon="6.27203">
        <ele>1469.2</ele>
        <time>2021-02-08T08:37:27Z</time>
      </trkpt>
      <trkpt lat="45.70494" lon="6.27204">
        <ele>1469.6</ele>
        <time>2021-02-08T08:37:30Z</time>
      </trkpt>
      <trkpt lat="45.70493" lon="6.27207">
        <ele>1470.5</ele>
        <time>2021-02-08T08:37:34Z</time>
      </trkpt>
      <trkpt lat="45.70492" lon="6.27209">
        <ele>1471.1</ele>
        <time>2021-02-08T08:37:37Z</time>
      </trkpt>
      <trkpt lat="45.70492" lon="6.27209">
        <ele>1471.1</ele>
        <time>2021-02-08T08:37:38Z</time>
      </trkpt>
      <trkpt lat="45.70493" lon="6.2721">
        <ele>1471.1</ele>
        <time>2021-02-08T08:37:39Z</time>
      </trkpt>
      <trkpt lat="45.70495" lon="6.27212">
        <ele>1471.2</ele>
        <time>2021-02-08T08:37:46Z</time>
      </trkpt>
      <trkpt lat="45.70496" lon="6.27212">
        <ele>1471.1</ele>
        <time>2021-02-08T08:37:48Z</time>
      </trkpt>
      <trkpt lat="45.70498" lon="6.27212">
        <ele>1470.7</ele>
        <time>2021-02-08T08:37:53Z</time>
      </trkpt>
      <trkpt lat="45.70501" lon="6.27214">
        <ele>1470.7</ele>
        <time>2021-02-08T08:37:57Z</time>
      </trkpt>
      <trkpt lat="45.70503" lon="6.27216">
        <ele>1470.8</ele>
        <time>2021-02-08T08:37:59Z</time>
      </trkpt>
      <trkpt lat="45.70504" lon="6.27217">
        <ele>1470.8</ele>
        <time>2021-02-08T08:38:01Z</time>
      </trkpt>
      <trkpt lat="45.70507" lon="6.27219">
        <ele>1470.7</ele>
        <time>2021-02-08T08:38:05Z</time>
      </trkpt>
      <trkpt lat="45.70508" lon="6.27219">
        <ele>1470.5</ele>
        <time>2021-02-08T08:38:07Z</time>
      </trkpt>
      <trkpt lat="45.70509" lon="6.2722">
        <ele>1470.5</ele>
        <time>2021-02-08T08:38:10Z</time>
      </trkpt>
      <trkpt lat="45.70509" lon="6.2722">
        <ele>1470.5</ele>
        <time>2021-02-08T08:38:12Z</time>
      </trkpt>
      <trkpt lat="45.7051" lon="6.27223">
        <ele>1471.2</ele>
        <time>2021-02-08T08:38:16Z</time>
      </trkpt>
      <trkpt lat="45.70509" lon="6.27224">
        <ele>1471.8</ele>
        <time>2021-02-08T08:38:18Z</time>
      </trkpt>
      <trkpt lat="45.7051" lon="6.27225">
        <ele>1472</ele>
        <time>2021-02-08T08:38:20Z</time>
      </trkpt>
      <trkpt lat="45.70513" lon="6.27226">
        <ele>1471.8</ele>
        <time>2021-02-08T08:38:29Z</time>
      </trkpt>
      <trkpt lat="45.70513" lon="6.27226">
        <ele>1471.8</ele>
        <time>2021-02-08T08:38:32Z</time>
      </trkpt>
      <trkpt lat="45.70515" lon="6.27226">
        <ele>1471.3</ele>
        <time>2021-02-08T08:38:37Z</time>
      </trkpt>
      <trkpt lat="45.70515" lon="6.27227">
        <ele>1471.7</ele>
        <time>2021-02-08T08:38:39Z</time>
      </trkpt>
      <trkpt lat="45.70515" lon="6.27228">
        <ele>1472.2</ele>
        <time>2021-02-08T08:38:40Z</time>
      </trkpt>
      <trkpt lat="45.70516" lon="6.2723">
        <ele>1472.8</ele>
        <time>2021-02-08T08:38:43Z</time>
      </trkpt>
      <trkpt lat="45.70517" lon="6.2723">
        <ele>1472.6</ele>
        <time>2021-02-08T08:38:44Z</time>
      </trkpt>
      <trkpt lat="45.7052" lon="6.27235">
        <ele>1474.1</ele>
        <time>2021-02-08T08:38:49Z</time>
      </trkpt>
      <trkpt lat="45.70522" lon="6.27239">
        <ele>1475.4</ele>
        <time>2021-02-08T08:38:54Z</time>
      </trkpt>
      <trkpt lat="45.70522" lon="6.2724">
        <ele>1475.8</ele>
        <time>2021-02-08T08:38:55Z</time>
      </trkpt>
      <trkpt lat="45.70522" lon="6.27241">
        <ele>1476.2</ele>
        <time>2021-02-08T08:38:56Z</time>
      </trkpt>
      <trkpt lat="45.70521" lon="6.27245">
        <ele>1478.1</ele>
        <time>2021-02-08T08:39:02Z</time>
      </trkpt>
      <trkpt lat="45.70519" lon="6.27246">
        <ele>1478.9</ele>
        <time>2021-02-08T08:39:06Z</time>
      </trkpt>
      <trkpt lat="45.70519" lon="6.27247">
        <ele>1479.3</ele>
        <time>2021-02-08T08:39:08Z</time>
      </trkpt>
      <trkpt lat="45.70516" lon="6.2725">
        <ele>1481.1</ele>
        <time>2021-02-08T08:39:14Z</time>
      </trkpt>
      <trkpt lat="45.70511" lon="6.2725">
        <ele>1482</ele>
        <time>2021-02-08T08:39:22Z</time>
      </trkpt>
      <trkpt lat="45.70508" lon="6.27249">
        <ele>1482.2</ele>
        <time>2021-02-08T08:39:25Z</time>
      </trkpt>
      <trkpt lat="45.70507" lon="6.27249">
        <ele>1482.3</ele>
        <time>2021-02-08T08:39:29Z</time>
      </trkpt>
      <trkpt lat="45.70507" lon="6.2725">
        <ele>1482.7</ele>
        <time>2021-02-08T08:39:32Z</time>
      </trkpt>
      <trkpt lat="45.70507" lon="6.27251">
        <ele>1483.1</ele>
        <time>2021-02-08T08:39:34Z</time>
      </trkpt>
      <trkpt lat="45.70508" lon="6.27254">
        <ele>1484.1</ele>
        <time>2021-02-08T08:39:40Z</time>
      </trkpt>
      <trkpt lat="45.70508" lon="6.27255">
        <ele>1484.4</ele>
        <time>2021-02-08T08:39:42Z</time>
      </trkpt>
      <trkpt lat="45.70509" lon="6.27257">
        <ele>1485</ele>
        <time>2021-02-08T08:39:47Z</time>
      </trkpt>
      <trkpt lat="45.7051" lon="6.27259">
        <ele>1485.5</ele>
        <time>2021-02-08T08:39:50Z</time>
      </trkpt>
      <trkpt lat="45.70511" lon="6.27261">
        <ele>1486.1</ele>
        <time>2021-02-08T08:39:53Z</time>
      </trkpt>
      <trkpt lat="45.70511" lon="6.27264">
        <ele>1487.2</ele>
        <time>2021-02-08T08:39:56Z</time>
      </trkpt>
      <trkpt lat="45.70511" lon="6.27265">
        <ele>1487.5</ele>
        <time>2021-02-08T08:39:58Z</time>
      </trkpt>
      <trkpt lat="45.70512" lon="6.27265">
        <ele>1487.3</ele>
        <time>2021-02-08T08:39:59Z</time>
      </trkpt>
      <trkpt lat="45.70513" lon="6.27267">
        <ele>1487.8</ele>
        <time>2021-02-08T08:40:02Z</time>
      </trkpt>
      <trkpt lat="45.70513" lon="6.27268">
        <ele>1488.2</ele>
        <time>2021-02-08T08:40:05Z</time>
      </trkpt>
      <trkpt lat="45.70513" lon="6.2727">
        <ele>1488.9</ele>
        <time>2021-02-08T08:40:07Z</time>
      </trkpt>
      <trkpt lat="45.70514" lon="6.27271">
        <ele>1489</ele>
        <time>2021-02-08T08:40:09Z</time>
      </trkpt>
      <trkpt lat="45.70516" lon="6.27274">
        <ele>1489.6</ele>
        <time>2021-02-08T08:40:14Z</time>
      </trkpt>
      <trkpt lat="45.70518" lon="6.27277">
        <ele>1490.2</ele>
        <time>2021-02-08T08:40:19Z</time>
      </trkpt>
      <trkpt lat="45.70518" lon="6.27277">
        <ele>1490.2</ele>
        <time>2021-02-08T08:40:20Z</time>
      </trkpt>
      <trkpt lat="45.7052" lon="6.27282">
        <ele>1491</ele>
        <time>2021-02-08T08:40:26Z</time>
      </trkpt>
      <trkpt lat="45.7052" lon="6.27283">
        <ele>1491.3</ele>
        <time>2021-02-08T08:40:28Z</time>
      </trkpt>
      <trkpt lat="45.7052" lon="6.27282">
        <ele>1491</ele>
        <time>2021-02-08T08:40:30Z</time>
      </trkpt>
      <trkpt lat="45.70519" lon="6.27282">
        <ele>1491.3</ele>
        <time>2021-02-08T08:40:31Z</time>
      </trkpt>
      <trkpt lat="45.70518" lon="6.27281">
        <ele>1491.3</ele>
        <time>2021-02-08T08:40:35Z</time>
      </trkpt>
      <trkpt lat="45.70511" lon="6.27281">
        <ele>1493.2</ele>
        <time>2021-02-08T08:40:44Z</time>
      </trkpt>
      <trkpt lat="45.70505" lon="6.2728">
        <ele>1494.5</ele>
        <time>2021-02-08T08:40:54Z</time>
      </trkpt>
      <trkpt lat="45.705" lon="6.27281">
        <ele>1496.2</ele>
        <time>2021-02-08T08:41:00Z</time>
      </trkpt>
      <trkpt lat="45.70499" lon="6.27281">
        <ele>1496.4</ele>
        <time>2021-02-08T08:41:01Z</time>
      </trkpt>
      <trkpt lat="45.70498" lon="6.27281">
        <ele>1496.6</ele>
        <time>2021-02-08T08:41:02Z</time>
      </trkpt>
      <trkpt lat="45.70496" lon="6.2728">
        <ele>1496.6</ele>
        <time>2021-02-08T08:41:07Z</time>
      </trkpt>
      <trkpt lat="45.70494" lon="6.27278">
        <ele>1496.2</ele>
        <time>2021-02-08T08:41:12Z</time>
      </trkpt>
      <trkpt lat="45.70493" lon="6.27278">
        <ele>1496.3</ele>
        <time>2021-02-08T08:41:15Z</time>
      </trkpt>
      <trkpt lat="45.70491" lon="6.27279">
        <ele>1497.1</ele>
        <time>2021-02-08T08:41:19Z</time>
      </trkpt>
      <trkpt lat="45.70487" lon="6.2728">
        <ele>1498.3</ele>
        <time>2021-02-08T08:41:25Z</time>
      </trkpt>
      <trkpt lat="45.70487" lon="6.27281">
        <ele>1498.7</ele>
        <time>2021-02-08T08:41:27Z</time>
      </trkpt>
      <trkpt lat="45.70485" lon="6.27282">
        <ele>1499.5</ele>
        <time>2021-02-08T08:41:32Z</time>
      </trkpt>
      <trkpt lat="45.70483" lon="6.27281">
        <ele>1499.5</ele>
        <time>2021-02-08T08:41:35Z</time>
      </trkpt>
      <trkpt lat="45.7048" lon="6.2728">
        <ele>1499.6</ele>
        <time>2021-02-08T08:41:39Z</time>
      </trkpt>
      <trkpt lat="45.70476" lon="6.2728">
        <ele>1500.4</ele>
        <time>2021-02-08T08:41:45Z</time>
      </trkpt>
      <trkpt lat="45.70473" lon="6.2728">
        <ele>1501</ele>
        <time>2021-02-08T08:41:47Z</time>
      </trkpt>
      <trkpt lat="45.7047" lon="6.2728">
        <ele>1501.7</ele>
        <time>2021-02-08T08:41:49Z</time>
      </trkpt>
      <trkpt lat="45.70468" lon="6.2728">
        <ele>1502.3</ele>
        <time>2021-02-08T08:41:52Z</time>
      </trkpt>
      <trkpt lat="45.70464" lon="6.27281">
        <ele>1503.9</ele>
        <time>2021-02-08T08:41:56Z</time>
      </trkpt>
      <trkpt lat="45.70463" lon="6.27281">
        <ele>1504.2</ele>
        <time>2021-02-08T08:41:58Z</time>
      </trkpt>
      <trkpt lat="45.70462" lon="6.27281">
        <ele>1504.4</ele>
        <time>2021-02-08T08:41:59Z</time>
      </trkpt>
      <trkpt lat="45.70461" lon="6.27281">
        <ele>1504.7</ele>
        <time>2021-02-08T08:42:00Z</time>
      </trkpt>
      <trkpt lat="45.7046" lon="6.27281">
        <ele>1505</ele>
        <time>2021-02-08T08:42:01Z</time>
      </trkpt>
      <trkpt lat="45.70459" lon="6.27281">
        <ele>1505.3</ele>
        <time>2021-02-08T08:42:03Z</time>
      </trkpt>
      <trkpt lat="45.70454" lon="6.27278">
        <ele>1505.3</ele>
        <time>2021-02-08T08:42:09Z</time>
      </trkpt>
      <trkpt lat="45.70453" lon="6.27277">
        <ele>1505.3</ele>
        <time>2021-02-08T08:42:10Z</time>
      </trkpt>
      <trkpt lat="45.70452" lon="6.27277">
        <ele>1505.6</ele>
        <time>2021-02-08T08:42:12Z</time>
      </trkpt>
      <trkpt lat="45.70452" lon="6.27277">
        <ele>1505.6</ele>
        <time>2021-02-08T08:42:13Z</time>
      </trkpt>
      <trkpt lat="45.70451" lon="6.27276">
        <ele>1505.6</ele>
        <time>2021-02-08T08:42:14Z</time>
      </trkpt>
      <trkpt lat="45.70449" lon="6.27275">
        <ele>1506</ele>
        <time>2021-02-08T08:42:16Z</time>
      </trkpt>
      <trkpt lat="45.70448" lon="6.27275">
        <ele>1506.3</ele>
        <time>2021-02-08T08:42:18Z</time>
      </trkpt>
      <trkpt lat="45.70446" lon="6.27274">
        <ele>1506.7</ele>
        <time>2021-02-08T08:42:20Z</time>
      </trkpt>
      <trkpt lat="45.70444" lon="6.27273">
        <ele>1507.1</ele>
        <time>2021-02-08T08:42:23Z</time>
      </trkpt>
      <trkpt lat="45.70442" lon="6.27272">
        <ele>1507.7</ele>
        <time>2021-02-08T08:42:26Z</time>
      </trkpt>
      <trkpt lat="45.7044" lon="6.27271">
        <ele>1508.3</ele>
        <time>2021-02-08T08:42:29Z</time>
      </trkpt>
      <trkpt lat="45.70439" lon="6.2727">
        <ele>1508.5</ele>
        <time>2021-02-08T08:42:30Z</time>
      </trkpt>
      <trkpt lat="45.70438" lon="6.2727">
        <ele>1508.9</ele>
        <time>2021-02-08T08:42:31Z</time>
      </trkpt>
      <trkpt lat="45.70435" lon="6.27268">
        <ele>1509.7</ele>
        <time>2021-02-08T08:42:36Z</time>
      </trkpt>
      <trkpt lat="45.70435" lon="6.27268">
        <ele>1509.7</ele>
        <time>2021-02-08T08:42:37Z</time>
      </trkpt>
      <trkpt lat="45.70434" lon="6.27268">
        <ele>1510.2</ele>
        <time>2021-02-08T08:42:39Z</time>
      </trkpt>
      <trkpt lat="45.70431" lon="6.27267">
        <ele>1511.2</ele>
        <time>2021-02-08T08:42:43Z</time>
      </trkpt>
      <trkpt lat="45.7043" lon="6.27267">
        <ele>1511.6</ele>
        <time>2021-02-08T08:42:44Z</time>
      </trkpt>
      <trkpt lat="45.70429" lon="6.27267">
        <ele>1512</ele>
        <time>2021-02-08T08:42:46Z</time>
      </trkpt>
      <trkpt lat="45.70429" lon="6.27267">
        <ele>1512</ele>
        <time>2021-02-08T08:42:47Z</time>
      </trkpt>
      <trkpt lat="45.70427" lon="6.27267">
        <ele>1512.8</ele>
        <time>2021-02-08T08:42:50Z</time>
      </trkpt>
      <trkpt lat="45.70424" lon="6.27261">
        <ele>1512.9</ele>
        <time>2021-02-08T08:42:56Z</time>
      </trkpt>
      <trkpt lat="45.70424" lon="6.27259">
        <ele>1512.5</ele>
        <time>2021-02-08T08:42:57Z</time>
      </trkpt>
      <trkpt lat="45.70422" lon="6.27254">
        <ele>1512.4</ele>
        <time>2021-02-08T08:43:01Z</time>
      </trkpt>
      <trkpt lat="45.70422" lon="6.27248">
        <ele>1511.8</ele>
        <time>2021-02-08T08:43:06Z</time>
      </trkpt>
      <trkpt lat="45.70422" lon="6.27246">
        <ele>1512</ele>
        <time>2021-02-08T08:43:07Z</time>
      </trkpt>
      <trkpt lat="45.70421" lon="6.27243">
        <ele>1512.6</ele>
        <time>2021-02-08T08:43:10Z</time>
      </trkpt>
      <trkpt lat="45.70421" lon="6.27239">
        <ele>1512.9</ele>
        <time>2021-02-08T08:43:13Z</time>
      </trkpt>
      <trkpt lat="45.70421" lon="6.27238">
        <ele>1513</ele>
        <time>2021-02-08T08:43:14Z</time>
      </trkpt>
      <trkpt lat="45.70422" lon="6.27231">
        <ele>1513</ele>
        <time>2021-02-08T08:43:19Z</time>
      </trkpt>
      <trkpt lat="45.70422" lon="6.2723">
        <ele>1513</ele>
        <time>2021-02-08T08:43:20Z</time>
      </trkpt>
      <trkpt lat="45.70422" lon="6.27225">
        <ele>1513.4</ele>
        <time>2021-02-08T08:43:24Z</time>
      </trkpt>
      <trkpt lat="45.70422" lon="6.27223">
        <ele>1513.5</ele>
        <time>2021-02-08T08:43:25Z</time>
      </trkpt>
      <trkpt lat="45.70422" lon="6.27222">
        <ele>1513.5</ele>
        <time>2021-02-08T08:43:26Z</time>
      </trkpt>
      <trkpt lat="45.70422" lon="6.27217">
        <ele>1513.1</ele>
        <time>2021-02-08T08:43:31Z</time>
      </trkpt>
      <trkpt lat="45.70422" lon="6.27217">
        <ele>1513.1</ele>
        <time>2021-02-08T08:43:32Z</time>
      </trkpt>
      <trkpt lat="45.70422" lon="6.27216">
        <ele>1513.1</ele>
        <time>2021-02-08T08:43:33Z</time>
      </trkpt>
      <trkpt lat="45.70422" lon="6.27215">
        <ele>1513</ele>
        <time>2021-02-08T08:43:34Z</time>
      </trkpt>
      <trkpt lat="45.70421" lon="6.27212">
        <ele>1513.4</ele>
        <time>2021-02-08T08:43:36Z</time>
      </trkpt>
      <trkpt lat="45.70421" lon="6.27208">
        <ele>1513.1</ele>
        <time>2021-02-08T08:43:41Z</time>
      </trkpt>
      <trkpt lat="45.70421" lon="6.27207">
        <ele>1513</ele>
        <time>2021-02-08T08:43:42Z</time>
      </trkpt>
      <trkpt lat="45.7042" lon="6.27205">
        <ele>1513.5</ele>
        <time>2021-02-08T08:43:45Z</time>
      </trkpt>
      <trkpt lat="45.70419" lon="6.27204">
        <ele>1514.1</ele>
        <time>2021-02-08T08:43:47Z</time>
      </trkpt>
      <trkpt lat="45.70418" lon="6.27203">
        <ele>1514.7</ele>
        <time>2021-02-08T08:43:49Z</time>
      </trkpt>
      <trkpt lat="45.70417" lon="6.27202">
        <ele>1515.3</ele>
        <time>2021-02-08T08:43:51Z</time>
      </trkpt>
      <trkpt lat="45.70415" lon="6.27201">
        <ele>1515.9</ele>
        <time>2021-02-08T08:43:54Z</time>
      </trkpt>
      <trkpt lat="45.70414" lon="6.27201">
        <ele>1516.2</ele>
        <time>2021-02-08T08:43:57Z</time>
      </trkpt>
      <trkpt lat="45.70413" lon="6.27201">
        <ele>1516.5</ele>
        <time>2021-02-08T08:43:58Z</time>
      </trkpt>
      <trkpt lat="45.70411" lon="6.27202">
        <ele>1517.1</ele>
        <time>2021-02-08T08:44:03Z</time>
      </trkpt>
      <trkpt lat="45.7041" lon="6.27204">
        <ele>1517.6</ele>
        <time>2021-02-08T08:44:06Z</time>
      </trkpt>
      <trkpt lat="45.70409" lon="6.27206">
        <ele>1518.1</ele>
        <time>2021-02-08T08:44:09Z</time>
      </trkpt>
      <trkpt lat="45.70408" lon="6.2721">
        <ele>1518.8</ele>
        <time>2021-02-08T08:44:16Z</time>
      </trkpt>
      <trkpt lat="45.70407" lon="6.27213">
        <ele>1519.5</ele>
        <time>2021-02-08T08:44:21Z</time>
      </trkpt>
      <trkpt lat="45.70406" lon="6.27214">
        <ele>1519.9</ele>
        <time>2021-02-08T08:44:22Z</time>
      </trkpt>
      <trkpt lat="45.70404" lon="6.27219">
        <ele>1521.2</ele>
        <time>2021-02-08T08:44:29Z</time>
      </trkpt>
      <trkpt lat="45.70403" lon="6.27223">
        <ele>1521.9</ele>
        <time>2021-02-08T08:44:36Z</time>
      </trkpt>
      <trkpt lat="45.70401" lon="6.27226">
        <ele>1522.8</ele>
        <time>2021-02-08T08:44:42Z</time>
      </trkpt>
      <trkpt lat="45.70398" lon="6.27228">
        <ele>1524.2</ele>
        <time>2021-02-08T08:44:47Z</time>
      </trkpt>
      <trkpt lat="45.70398" lon="6.27228">
        <ele>1524.2</ele>
        <time>2021-02-08T08:44:48Z</time>
      </trkpt>
      <trkpt lat="45.70394" lon="6.27232">
        <ele>1526.4</ele>
        <time>2021-02-08T08:44:54Z</time>
      </trkpt>
      <trkpt lat="45.70393" lon="6.27232">
        <ele>1526.9</ele>
        <time>2021-02-08T08:44:55Z</time>
      </trkpt>
      <trkpt lat="45.70391" lon="6.27232">
        <ele>1527.8</ele>
        <time>2021-02-08T08:44:59Z</time>
      </trkpt>
      <trkpt lat="45.7039" lon="6.27231">
        <ele>1528.1</ele>
        <time>2021-02-08T08:45:00Z</time>
      </trkpt>
      <trkpt lat="45.70387" lon="6.2723">
        <ele>1529.6</ele>
        <time>2021-02-08T08:45:06Z</time>
      </trkpt>
      <trkpt lat="45.70384" lon="6.27229">
        <ele>1531.3</ele>
        <time>2021-02-08T08:45:10Z</time>
      </trkpt>
      <trkpt lat="45.70383" lon="6.27228">
        <ele>1531.7</ele>
        <time>2021-02-08T08:45:13Z</time>
      </trkpt>
      <trkpt lat="45.70383" lon="6.27228">
        <ele>1531.7</ele>
        <time>2021-02-08T08:45:18Z</time>
      </trkpt>
      <trkpt lat="45.70383" lon="6.27228">
        <ele>1531.7</ele>
        <time>2021-02-08T08:45:19Z</time>
      </trkpt>
      <trkpt lat="45.70383" lon="6.2723">
        <ele>1532</ele>
        <time>2021-02-08T08:45:22Z</time>
      </trkpt>
      <trkpt lat="45.70383" lon="6.27236">
        <ele>1533</ele>
        <time>2021-02-08T08:45:29Z</time>
      </trkpt>
      <trkpt lat="45.70384" lon="6.27239">
        <ele>1532.9</ele>
        <time>2021-02-08T08:45:34Z</time>
      </trkpt>
      <trkpt lat="45.70385" lon="6.2724">
        <ele>1532.5</ele>
        <time>2021-02-08T08:45:35Z</time>
      </trkpt>
      <trkpt lat="45.70386" lon="6.27248">
        <ele>1533.2</ele>
        <time>2021-02-08T08:45:44Z</time>
      </trkpt>
      <trkpt lat="45.70386" lon="6.27249">
        <ele>1533.4</ele>
        <time>2021-02-08T08:45:46Z</time>
      </trkpt>
      <trkpt lat="45.70386" lon="6.27254">
        <ele>1533.8</ele>
        <time>2021-02-08T08:45:51Z</time>
      </trkpt>
      <trkpt lat="45.70385" lon="6.27256">
        <ele>1534.5</ele>
        <time>2021-02-08T08:45:54Z</time>
      </trkpt>
      <trkpt lat="45.70382" lon="6.27258">
        <ele>1536.2</ele>
        <time>2021-02-08T08:45:58Z</time>
      </trkpt>
      <trkpt lat="45.70382" lon="6.27257">
        <ele>1536.2</ele>
        <time>2021-02-08T08:45:59Z</time>
      </trkpt>
      <trkpt lat="45.7038" lon="6.27255">
        <ele>1537.1</ele>
        <time>2021-02-08T08:46:02Z</time>
      </trkpt>
      <trkpt lat="45.70379" lon="6.27251">
        <ele>1537.4</ele>
        <time>2021-02-08T08:46:07Z</time>
      </trkpt>
      <trkpt lat="45.70378" lon="6.2725">
        <ele>1537.9</ele>
        <time>2021-02-08T08:46:09Z</time>
      </trkpt>
      <trkpt lat="45.70376" lon="6.27246">
        <ele>1538.4</ele>
        <time>2021-02-08T08:46:14Z</time>
      </trkpt>
      <trkpt lat="45.70375" lon="6.27244">
        <ele>1538.7</ele>
        <time>2021-02-08T08:46:16Z</time>
      </trkpt>
      <trkpt lat="45.70373" lon="6.27241">
        <ele>1539.5</ele>
        <time>2021-02-08T08:46:20Z</time>
      </trkpt>
      <trkpt lat="45.70372" lon="6.2724">
        <ele>1540</ele>
        <time>2021-02-08T08:46:22Z</time>
      </trkpt>
      <trkpt lat="45.70369" lon="6.27234">
        <ele>1541.1</ele>
        <time>2021-02-08T08:46:30Z</time>
      </trkpt>
      <trkpt lat="45.70368" lon="6.27232">
        <ele>1541.5</ele>
        <time>2021-02-08T08:46:33Z</time>
      </trkpt>
      <trkpt lat="45.70366" lon="6.27229">
        <ele>1542.4</ele>
        <time>2021-02-08T08:46:37Z</time>
      </trkpt>
      <trkpt lat="45.70365" lon="6.27226">
        <ele>1542.8</ele>
        <time>2021-02-08T08:46:43Z</time>
      </trkpt>
      <trkpt lat="45.70363" lon="6.27221">
        <ele>1543.7</ele>
        <time>2021-02-08T08:46:50Z</time>
      </trkpt>
      <trkpt lat="45.70362" lon="6.27218">
        <ele>1544.1</ele>
        <time>2021-02-08T08:46:53Z</time>
      </trkpt>
      <trkpt lat="45.70361" lon="6.27215">
        <ele>1544.6</ele>
        <time>2021-02-08T08:46:55Z</time>
      </trkpt>
      <trkpt lat="45.70361" lon="6.27213">
        <ele>1544.4</ele>
        <time>2021-02-08T08:46:57Z</time>
      </trkpt>
      <trkpt lat="45.70359" lon="6.27207">
        <ele>1545.3</ele>
        <time>2021-02-08T08:47:05Z</time>
      </trkpt>
      <trkpt lat="45.70358" lon="6.27205">
        <ele>1545.8</ele>
        <time>2021-02-08T08:47:07Z</time>
      </trkpt>
      <trkpt lat="45.70357" lon="6.27204">
        <ele>1546.4</ele>
        <time>2021-02-08T08:47:10Z</time>
      </trkpt>
      <trkpt lat="45.70357" lon="6.27203">
        <ele>1546.3</ele>
        <time>2021-02-08T08:47:11Z</time>
      </trkpt>
      <trkpt lat="45.70355" lon="6.272">
        <ele>1547.5</ele>
        <time>2021-02-08T08:47:16Z</time>
      </trkpt>
      <trkpt lat="45.70355" lon="6.27199">
        <ele>1547.4</ele>
        <time>2021-02-08T08:47:18Z</time>
      </trkpt>
      <trkpt lat="45.70355" lon="6.27199">
        <ele>1547.4</ele>
        <time>2021-02-08T08:47:19Z</time>
      </trkpt>
      <trkpt lat="45.70354" lon="6.27201">
        <ele>1548.2</ele>
        <time>2021-02-08T08:47:23Z</time>
      </trkpt>
      <trkpt lat="45.70354" lon="6.27204">
        <ele>1548.4</ele>
        <time>2021-02-08T08:47:27Z</time>
      </trkpt>
      <trkpt lat="45.70352" lon="6.27208">
        <ele>1549.9</ele>
        <time>2021-02-08T08:47:33Z</time>
      </trkpt>
      <trkpt lat="45.7035" lon="6.27209">
        <ele>1551.2</ele>
        <time>2021-02-08T08:47:38Z</time>
      </trkpt>
      <trkpt lat="45.7035" lon="6.27207">
        <ele>1551.1</ele>
        <time>2021-02-08T08:47:40Z</time>
      </trkpt>
      <trkpt lat="45.7035" lon="6.27205">
        <ele>1551.1</ele>
        <time>2021-02-08T08:47:43Z</time>
      </trkpt>
      <trkpt lat="45.70349" lon="6.27202">
        <ele>1551.6</ele>
        <time>2021-02-08T08:47:46Z</time>
      </trkpt>
      <trkpt lat="45.70347" lon="6.27196">
        <ele>1552.7</ele>
        <time>2021-02-08T08:47:53Z</time>
      </trkpt>
      <trkpt lat="45.70346" lon="6.27194">
        <ele>1553.3</ele>
        <time>2021-02-08T08:47:55Z</time>
      </trkpt>
      <trkpt lat="45.70346" lon="6.27193">
        <ele>1553.2</ele>
        <time>2021-02-08T08:47:56Z</time>
      </trkpt>
      <trkpt lat="45.70345" lon="6.27191">
        <ele>1553.8</ele>
        <time>2021-02-08T08:47:58Z</time>
      </trkpt>
      <trkpt lat="45.70342" lon="6.27184">
        <ele>1555.5</ele>
        <time>2021-02-08T08:48:09Z</time>
      </trkpt>
      <trkpt lat="45.70341" lon="6.27184">
        <ele>1556.2</ele>
        <time>2021-02-08T08:48:10Z</time>
      </trkpt>
      <trkpt lat="45.7034" lon="6.27181">
        <ele>1556.7</ele>
        <time>2021-02-08T08:48:14Z</time>
      </trkpt>
      <trkpt lat="45.70338" lon="6.27177">
        <ele>1558</ele>
        <time>2021-02-08T08:48:20Z</time>
      </trkpt>
      <trkpt lat="45.70338" lon="6.27177">
        <ele>1558</ele>
        <time>2021-02-08T08:48:21Z</time>
      </trkpt>
      <trkpt lat="45.70338" lon="6.27176">
        <ele>1557.9</ele>
        <time>2021-02-08T08:48:22Z</time>
      </trkpt>
      <trkpt lat="45.70338" lon="6.27175">
        <ele>1557.9</ele>
        <time>2021-02-08T08:48:23Z</time>
      </trkpt>
      <trkpt lat="45.70337" lon="6.27175">
        <ele>1558.6</ele>
        <time>2021-02-08T08:48:24Z</time>
      </trkpt>
      <trkpt lat="45.70337" lon="6.27174">
        <ele>1558.6</ele>
        <time>2021-02-08T08:48:25Z</time>
      </trkpt>
      <trkpt lat="45.70337" lon="6.27172">
        <ele>1558.5</ele>
        <time>2021-02-08T08:48:28Z</time>
      </trkpt>
      <trkpt lat="45.70336" lon="6.27171">
        <ele>1559.2</ele>
        <time>2021-02-08T08:48:29Z</time>
      </trkpt>
      <trkpt lat="45.70335" lon="6.27169">
        <ele>1559.8</ele>
        <time>2021-02-08T08:48:33Z</time>
      </trkpt>
      <trkpt lat="45.70335" lon="6.27168">
        <ele>1559.8</ele>
        <time>2021-02-08T08:48:34Z</time>
      </trkpt>
      <trkpt lat="45.70334" lon="6.27166">
        <ele>1560.4</ele>
        <time>2021-02-08T08:48:37Z</time>
      </trkpt>
      <trkpt lat="45.70333" lon="6.27165">
        <ele>1560.9</ele>
        <time>2021-02-08T08:48:42Z</time>
      </trkpt>
      <trkpt lat="45.70332" lon="6.27166">
        <ele>1561.7</ele>
        <time>2021-02-08T08:48:44Z</time>
      </trkpt>
      <trkpt lat="45.70331" lon="6.27173">
        <ele>1562.6</ele>
        <time>2021-02-08T08:48:52Z</time>
      </trkpt>
      <trkpt lat="45.70331" lon="6.27174">
        <ele>1562.7</ele>
        <time>2021-02-08T08:48:53Z</time>
      </trkpt>
      <trkpt lat="45.70331" lon="6.27175">
        <ele>1562.7</ele>
        <time>2021-02-08T08:48:55Z</time>
      </trkpt>
      <trkpt lat="45.70329" lon="6.2718">
        <ele>1564.1</ele>
        <time>2021-02-08T08:49:01Z</time>
      </trkpt>
      <trkpt lat="45.70327" lon="6.27184">
        <ele>1565.6</ele>
        <time>2021-02-08T08:49:07Z</time>
      </trkpt>
      <trkpt lat="45.70326" lon="6.27184">
        <ele>1566.2</ele>
        <time>2021-02-08T08:49:08Z</time>
      </trkpt>
      <trkpt lat="45.70325" lon="6.27182">
        <ele>1566.7</ele>
        <time>2021-02-08T08:49:10Z</time>
      </trkpt>
      <trkpt lat="45.70325" lon="6.27179">
        <ele>1566.5</ele>
        <time>2021-02-08T08:49:13Z</time>
      </trkpt>
      <trkpt lat="45.70325" lon="6.27178">
        <ele>1566.5</ele>
        <time>2021-02-08T08:49:14Z</time>
      </trkpt>
      <trkpt lat="45.70323" lon="6.2717">
        <ele>1567.2</ele>
        <time>2021-02-08T08:49:21Z</time>
      </trkpt>
      <trkpt lat="45.70322" lon="6.27166">
        <ele>1567.4</ele>
        <time>2021-02-08T08:49:25Z</time>
      </trkpt>
      <trkpt lat="45.70321" lon="6.27162">
        <ele>1567.4</ele>
        <time>2021-02-08T08:49:29Z</time>
      </trkpt>
      <trkpt lat="45.70321" lon="6.27161">
        <ele>1567.3</ele>
        <time>2021-02-08T08:49:30Z</time>
      </trkpt>
      <trkpt lat="45.70321" lon="6.27159">
        <ele>1567</ele>
        <time>2021-02-08T08:49:32Z</time>
      </trkpt>
      <trkpt lat="45.7032" lon="6.27156">
        <ele>1567.1</ele>
        <time>2021-02-08T08:49:34Z</time>
      </trkpt>
      <trkpt lat="45.70319" lon="6.27154">
        <ele>1567.4</ele>
        <time>2021-02-08T08:49:36Z</time>
      </trkpt>
      <trkpt lat="45.70318" lon="6.2715">
        <ele>1567.5</ele>
        <time>2021-02-08T08:49:40Z</time>
      </trkpt>
      <trkpt lat="45.70316" lon="6.27145">
        <ele>1568.1</ele>
        <time>2021-02-08T08:49:45Z</time>
      </trkpt>
      <trkpt lat="45.70316" lon="6.27145">
        <ele>1568.1</ele>
        <time>2021-02-08T08:49:46Z</time>
      </trkpt>
      <trkpt lat="45.70316" lon="6.27144">
        <ele>1567.9</ele>
        <time>2021-02-08T08:49:48Z</time>
      </trkpt>
      <trkpt lat="45.70315" lon="6.27143">
        <ele>1568.4</ele>
        <time>2021-02-08T08:49:49Z</time>
      </trkpt>
      <trkpt lat="45.70314" lon="6.27141">
        <ele>1568.8</ele>
        <time>2021-02-08T08:49:54Z</time>
      </trkpt>
      <trkpt lat="45.70314" lon="6.2714">
        <ele>1568.7</ele>
        <time>2021-02-08T08:49:55Z</time>
      </trkpt>
      <trkpt lat="45.70313" lon="6.27139">
        <ele>1569.2</ele>
        <time>2021-02-08T08:49:57Z</time>
      </trkpt>
      <trkpt lat="45.70312" lon="6.27138">
        <ele>1569.8</ele>
        <time>2021-02-08T08:50:02Z</time>
      </trkpt>
      <trkpt lat="45.70311" lon="6.27139">
        <ele>1570.5</ele>
        <time>2021-02-08T08:50:05Z</time>
      </trkpt>
      <trkpt lat="45.7031" lon="6.2714">
        <ele>1571.3</ele>
        <time>2021-02-08T08:50:07Z</time>
      </trkpt>
      <trkpt lat="45.70309" lon="6.2714">
        <ele>1571.9</ele>
        <time>2021-02-08T08:50:08Z</time>
      </trkpt>
      <trkpt lat="45.70309" lon="6.27141">
        <ele>1572</ele>
        <time>2021-02-08T08:50:10Z</time>
      </trkpt>
      <trkpt lat="45.70306" lon="6.27143">
        <ele>1574.2</ele>
        <time>2021-02-08T08:50:15Z</time>
      </trkpt>
      <trkpt lat="45.70305" lon="6.27144">
        <ele>1574.9</ele>
        <time>2021-02-08T08:50:17Z</time>
      </trkpt>
      <trkpt lat="45.70304" lon="6.27146">
        <ele>1575.8</ele>
        <time>2021-02-08T08:50:19Z</time>
      </trkpt>
      <trkpt lat="45.70304" lon="6.27147">
        <ele>1575.9</ele>
        <time>2021-02-08T08:50:21Z</time>
      </trkpt>
      <trkpt lat="45.70303" lon="6.27152">
        <ele>1577</ele>
        <time>2021-02-08T08:50:27Z</time>
      </trkpt>
      <trkpt lat="45.70303" lon="6.27153">
        <ele>1577.1</ele>
        <time>2021-02-08T08:50:28Z</time>
      </trkpt>
      <trkpt lat="45.70302" lon="6.27158">
        <ele>1578.1</ele>
        <time>2021-02-08T08:50:36Z</time>
      </trkpt>
      <trkpt lat="45.70301" lon="6.27159">
        <ele>1578.8</ele>
        <time>2021-02-08T08:50:39Z</time>
      </trkpt>
      <trkpt lat="45.70301" lon="6.27161">
        <ele>1579</ele>
        <time>2021-02-08T08:50:41Z</time>
      </trkpt>
      <trkpt lat="45.70301" lon="6.27163">
        <ele>1579.2</ele>
        <time>2021-02-08T08:50:43Z</time>
      </trkpt>
      <trkpt lat="45.70301" lon="6.27168">
        <ele>1579.6</ele>
        <time>2021-02-08T08:50:49Z</time>
      </trkpt>
      <trkpt lat="45.70301" lon="6.27169">
        <ele>1579.7</ele>
        <time>2021-02-08T08:50:50Z</time>
      </trkpt>
      <trkpt lat="45.70301" lon="6.27171">
        <ele>1579.9</ele>
        <time>2021-02-08T08:50:51Z</time>
      </trkpt>
      <trkpt lat="45.70299" lon="6.27177">
        <ele>1581.6</ele>
        <time>2021-02-08T08:50:59Z</time>
      </trkpt>
      <trkpt lat="45.70299" lon="6.27178">
        <ele>1581.7</ele>
        <time>2021-02-08T08:51:00Z</time>
      </trkpt>
      <trkpt lat="45.70299" lon="6.27186">
        <ele>1582.5</ele>
        <time>2021-02-08T08:51:09Z</time>
      </trkpt>
      <trkpt lat="45.70299" lon="6.27187">
        <ele>1582.6</ele>
        <time>2021-02-08T08:51:10Z</time>
      </trkpt>
      <trkpt lat="45.70299" lon="6.27189">
        <ele>1582.8</ele>
        <time>2021-02-08T08:51:12Z</time>
      </trkpt>
      <trkpt lat="45.70299" lon="6.2719">
        <ele>1582.9</ele>
        <time>2021-02-08T08:51:14Z</time>
      </trkpt>
      <trkpt lat="45.70299" lon="6.27193">
        <ele>1583.2</ele>
        <time>2021-02-08T08:51:18Z</time>
      </trkpt>
      <trkpt lat="45.70299" lon="6.27193">
        <ele>1583.2</ele>
        <time>2021-02-08T08:51:19Z</time>
      </trkpt>
      <trkpt lat="45.70299" lon="6.27195">
        <ele>1583.3</ele>
        <time>2021-02-08T08:51:21Z</time>
      </trkpt>
      <trkpt lat="45.70298" lon="6.27196">
        <ele>1583.7</ele>
        <time>2021-02-08T08:51:23Z</time>
      </trkpt>
      <trkpt lat="45.70298" lon="6.27197">
        <ele>1583.6</ele>
        <time>2021-02-08T08:51:26Z</time>
      </trkpt>
      <trkpt lat="45.70297" lon="6.272">
        <ele>1583.8</ele>
        <time>2021-02-08T08:51:31Z</time>
      </trkpt>
      <trkpt lat="45.70297" lon="6.272">
        <ele>1583.8</ele>
        <time>2021-02-08T08:51:32Z</time>
      </trkpt>
      <trkpt lat="45.70295" lon="6.27198">
        <ele>1585</ele>
        <time>2021-02-08T08:51:36Z</time>
      </trkpt>
      <trkpt lat="45.70294" lon="6.27195">
        <ele>1585.8</ele>
        <time>2021-02-08T08:51:40Z</time>
      </trkpt>
      <trkpt lat="45.70293" lon="6.27193">
        <ele>1586.2</ele>
        <time>2021-02-08T08:51:42Z</time>
      </trkpt>
      <trkpt lat="45.70292" lon="6.27191">
        <ele>1586.5</ele>
        <time>2021-02-08T08:51:44Z</time>
      </trkpt>
      <trkpt lat="45.70291" lon="6.27189">
        <ele>1586.9</ele>
        <time>2021-02-08T08:51:46Z</time>
      </trkpt>
      <trkpt lat="45.70291" lon="6.27189">
        <ele>1586.9</ele>
        <time>2021-02-08T08:51:47Z</time>
      </trkpt>
      <trkpt lat="45.7029" lon="6.27188">
        <ele>1587.3</ele>
        <time>2021-02-08T08:51:52Z</time>
      </trkpt>
      <trkpt lat="45.70289" lon="6.27192">
        <ele>1588.1</ele>
        <time>2021-02-08T08:52:00Z</time>
      </trkpt>
      <trkpt lat="45.70288" lon="6.27192">
        <ele>1588.6</ele>
        <time>2021-02-08T08:52:01Z</time>
      </trkpt>
      <trkpt lat="45.70286" lon="6.27196">
        <ele>1589.8</ele>
        <time>2021-02-08T08:52:07Z</time>
      </trkpt>
      <trkpt lat="45.70284" lon="6.27198">
        <ele>1590.7</ele>
        <time>2021-02-08T08:52:12Z</time>
      </trkpt>
      <trkpt lat="45.70284" lon="6.27199">
        <ele>1590.6</ele>
        <time>2021-02-08T08:52:14Z</time>
      </trkpt>
      <trkpt lat="45.70282" lon="6.27204">
        <ele>1591.4</ele>
        <time>2021-02-08T08:52:20Z</time>
      </trkpt>
      <trkpt lat="45.70281" lon="6.27208">
        <ele>1591.8</ele>
        <time>2021-02-08T08:52:24Z</time>
      </trkpt>
      <trkpt lat="45.70281" lon="6.27208">
        <ele>1591.8</ele>
        <time>2021-02-08T08:52:25Z</time>
      </trkpt>
      <trkpt lat="45.7028" lon="6.27209">
        <ele>1592.3</ele>
        <time>2021-02-08T08:52:26Z</time>
      </trkpt>
      <trkpt lat="45.70277" lon="6.2721">
        <ele>1593.8</ele>
        <time>2021-02-08T08:52:33Z</time>
      </trkpt>
      <trkpt lat="45.70275" lon="6.27209">
        <ele>1594.7</ele>
        <time>2021-02-08T08:52:35Z</time>
      </trkpt>
      <trkpt lat="45.70274" lon="6.27207">
        <ele>1595.2</ele>
        <time>2021-02-08T08:52:39Z</time>
      </trkpt>
      <trkpt lat="45.70273" lon="6.27206">
        <ele>1595.7</ele>
        <time>2021-02-08T08:52:41Z</time>
      </trkpt>
      <trkpt lat="45.70271" lon="6.27203">
        <ele>1596.7</ele>
        <time>2021-02-08T08:52:46Z</time>
      </trkpt>
      <trkpt lat="45.70269" lon="6.27202">
        <ele>1597.7</ele>
        <time>2021-02-08T08:52:54Z</time>
      </trkpt>
      <trkpt lat="45.70269" lon="6.27203">
        <ele>1597.6</ele>
        <time>2021-02-08T08:52:56Z</time>
      </trkpt>
      <trkpt lat="45.70268" lon="6.27205">
        <ele>1597.9</ele>
        <time>2021-02-08T08:52:58Z</time>
      </trkpt>
      <trkpt lat="45.70268" lon="6.27205">
        <ele>1597.9</ele>
        <time>2021-02-08T08:52:59Z</time>
      </trkpt>
      <trkpt lat="45.70268" lon="6.27207">
        <ele>1597.8</ele>
        <time>2021-02-08T08:53:01Z</time>
      </trkpt>
      <trkpt lat="45.70268" lon="6.27207">
        <ele>1597.8</ele>
        <time>2021-02-08T08:53:02Z</time>
      </trkpt>
      <trkpt lat="45.70268" lon="6.27207">
        <ele>1597.8</ele>
        <time>2021-02-08T08:53:03Z</time>
      </trkpt>
      <trkpt lat="45.70267" lon="6.27208">
        <ele>1598.2</ele>
        <time>2021-02-08T08:53:05Z</time>
      </trkpt>
      <trkpt lat="45.70265" lon="6.27209">
        <ele>1599</ele>
        <time>2021-02-08T08:53:08Z</time>
      </trkpt>
      <trkpt lat="45.70263" lon="6.27212">
        <ele>1599.6</ele>
        <time>2021-02-08T08:53:14Z</time>
      </trkpt>
      <trkpt lat="45.70262" lon="6.27212">
        <ele>1600</ele>
        <time>2021-02-08T08:53:17Z</time>
      </trkpt>
      <trkpt lat="45.70261" lon="6.27211">
        <ele>1600.5</ele>
        <time>2021-02-08T08:53:19Z</time>
      </trkpt>
      <trkpt lat="45.70259" lon="6.27208">
        <ele>1601.6</ele>
        <time>2021-02-08T08:53:24Z</time>
      </trkpt>
      <trkpt lat="45.70259" lon="6.27205">
        <ele>1601.9</ele>
        <time>2021-02-08T08:53:27Z</time>
      </trkpt>
      <trkpt lat="45.70258" lon="6.27202">
        <ele>1602.6</ele>
        <time>2021-02-08T08:53:31Z</time>
      </trkpt>
      <trkpt lat="45.70258" lon="6.272">
        <ele>1602.8</ele>
        <time>2021-02-08T08:53:33Z</time>
      </trkpt>
      <trkpt lat="45.70257" lon="6.27198">
        <ele>1603.4</ele>
        <time>2021-02-08T08:53:36Z</time>
      </trkpt>
      <trkpt lat="45.70256" lon="6.27196">
        <ele>1604</ele>
        <time>2021-02-08T08:53:38Z</time>
      </trkpt>
      <trkpt lat="45.70255" lon="6.27192">
        <ele>1604.9</ele>
        <time>2021-02-08T08:53:43Z</time>
      </trkpt>
      <trkpt lat="45.70255" lon="6.27192">
        <ele>1604.9</ele>
        <time>2021-02-08T08:53:44Z</time>
      </trkpt>
      <trkpt lat="45.70254" lon="6.27186">
        <ele>1606.1</ele>
        <time>2021-02-08T08:53:51Z</time>
      </trkpt>
      <trkpt lat="45.70254" lon="6.27185">
        <ele>1606.2</ele>
        <time>2021-02-08T08:53:53Z</time>
      </trkpt>
      <trkpt lat="45.70253" lon="6.2718">
        <ele>1607.3</ele>
        <time>2021-02-08T08:53:58Z</time>
      </trkpt>
      <trkpt lat="45.70252" lon="6.27176">
        <ele>1608.4</ele>
        <time>2021-02-08T08:54:03Z</time>
      </trkpt>
      <trkpt lat="45.70251" lon="6.27173">
        <ele>1609.5</ele>
        <time>2021-02-08T08:54:06Z</time>
      </trkpt>
      <trkpt lat="45.70251" lon="6.27172">
        <ele>1609.6</ele>
        <time>2021-02-08T08:54:08Z</time>
      </trkpt>
      <trkpt lat="45.70249" lon="6.27168">
        <ele>1611.3</ele>
        <time>2021-02-08T08:54:13Z</time>
      </trkpt>
      <trkpt lat="45.70249" lon="6.27168">
        <ele>1611.3</ele>
        <time>2021-02-08T08:54:14Z</time>
      </trkpt>
      <trkpt lat="45.70248" lon="6.27164">
        <ele>1612.1</ele>
        <time>2021-02-08T08:54:19Z</time>
      </trkpt>
      <trkpt lat="45.70247" lon="6.27162">
        <ele>1612.6</ele>
        <time>2021-02-08T08:54:21Z</time>
      </trkpt>
      <trkpt lat="45.70245" lon="6.27156">
        <ele>1613.6</ele>
        <time>2021-02-08T08:54:28Z</time>
      </trkpt>
      <trkpt lat="45.70244" lon="6.27153">
        <ele>1614.1</ele>
        <time>2021-02-08T08:54:32Z</time>
      </trkpt>
      <trkpt lat="45.70243" lon="6.27149">
        <ele>1614.5</ele>
        <time>2021-02-08T08:54:37Z</time>
      </trkpt>
      <trkpt lat="45.70241" lon="6.27144">
        <ele>1615.3</ele>
        <time>2021-02-08T08:54:43Z</time>
      </trkpt>
      <trkpt lat="45.7024" lon="6.27142">
        <ele>1615.6</ele>
        <time>2021-02-08T08:54:45Z</time>
      </trkpt>
      <trkpt lat="45.70238" lon="6.27136">
        <ele>1616.1</ele>
        <time>2021-02-08T08:54:53Z</time>
      </trkpt>
      <trkpt lat="45.70237" lon="6.27133">
        <ele>1616.3</ele>
        <time>2021-02-08T08:54:57Z</time>
      </trkpt>
      <trkpt lat="45.70236" lon="6.27131">
        <ele>1616.6</ele>
        <time>2021-02-08T08:55:00Z</time>
      </trkpt>
      <trkpt lat="45.70235" lon="6.27128">
        <ele>1616.9</ele>
        <time>2021-02-08T08:55:04Z</time>
      </trkpt>
      <trkpt lat="45.70233" lon="6.27125">
        <ele>1617.8</ele>
        <time>2021-02-08T08:55:11Z</time>
      </trkpt>
      <trkpt lat="45.70232" lon="6.27124">
        <ele>1618.2</ele>
        <time>2021-02-08T08:55:13Z</time>
      </trkpt>
      <trkpt lat="45.70228" lon="6.27118">
        <ele>1620.3</ele>
        <time>2021-02-08T08:55:22Z</time>
      </trkpt>
      <trkpt lat="45.70227" lon="6.27118">
        <ele>1620.9</ele>
        <time>2021-02-08T08:55:23Z</time>
      </trkpt>
      <trkpt lat="45.70225" lon="6.27117">
        <ele>1622</ele>
        <time>2021-02-08T08:55:28Z</time>
      </trkpt>
      <trkpt lat="45.70222" lon="6.27116">
        <ele>1623.8</ele>
        <time>2021-02-08T08:55:33Z</time>
      </trkpt>
      <trkpt lat="45.70222" lon="6.27115">
        <ele>1623.9</ele>
        <time>2021-02-08T08:55:34Z</time>
      </trkpt>
      <trkpt lat="45.7022" lon="6.27114">
        <ele>1625.2</ele>
        <time>2021-02-08T08:55:39Z</time>
      </trkpt>
      <trkpt lat="45.70219" lon="6.27113">
        <ele>1625.9</ele>
        <time>2021-02-08T08:55:41Z</time>
      </trkpt>
      <trkpt lat="45.70217" lon="6.27111">
        <ele>1627.2</ele>
        <time>2021-02-08T08:55:45Z</time>
      </trkpt>
      <trkpt lat="45.70216" lon="6.2711">
        <ele>1627.8</ele>
        <time>2021-02-08T08:55:46Z</time>
      </trkpt>
      <trkpt lat="45.70215" lon="6.2711">
        <ele>1628.4</ele>
        <time>2021-02-08T08:55:47Z</time>
      </trkpt>
      <trkpt lat="45.70215" lon="6.27109">
        <ele>1628.4</ele>
        <time>2021-02-08T08:55:48Z</time>
      </trkpt>
      <trkpt lat="45.70214" lon="6.27108">
        <ele>1629</ele>
        <time>2021-02-08T08:55:50Z</time>
      </trkpt>
      <trkpt lat="45.70214" lon="6.27108">
        <ele>1629</ele>
        <time>2021-02-08T08:55:51Z</time>
      </trkpt>
      <trkpt lat="45.70214" lon="6.27106">
        <ele>1629.1</ele>
        <time>2021-02-08T08:55:54Z</time>
      </trkpt>
      <trkpt lat="45.70212" lon="6.27103">
        <ele>1630.2</ele>
        <time>2021-02-08T08:55:59Z</time>
      </trkpt>
      <trkpt lat="45.7021" lon="6.27099">
        <ele>1631.3</ele>
        <time>2021-02-08T08:56:05Z</time>
      </trkpt>
      <trkpt lat="45.70209" lon="6.27096">
        <ele>1631.9</ele>
        <time>2021-02-08T08:56:09Z</time>
      </trkpt>
      <trkpt lat="45.70208" lon="6.27096">
        <ele>1632.4</ele>
        <time>2021-02-08T08:56:10Z</time>
      </trkpt>
      <trkpt lat="45.70207" lon="6.27093">
        <ele>1632.9</ele>
        <time>2021-02-08T08:56:13Z</time>
      </trkpt>
      <trkpt lat="45.70204" lon="6.27088">
        <ele>1634.3</ele>
        <time>2021-02-08T08:56:20Z</time>
      </trkpt>
      <trkpt lat="45.70204" lon="6.27087">
        <ele>1634.3</ele>
        <time>2021-02-08T08:56:22Z</time>
      </trkpt>
      <trkpt lat="45.70203" lon="6.27085">
        <ele>1634.8</ele>
        <time>2021-02-08T08:56:25Z</time>
      </trkpt>
      <trkpt lat="45.70202" lon="6.27083">
        <ele>1635.2</ele>
        <time>2021-02-08T08:56:28Z</time>
      </trkpt>
      <trkpt lat="45.70202" lon="6.2708">
        <ele>1634.8</ele>
        <time>2021-02-08T08:56:31Z</time>
      </trkpt>
      <trkpt lat="45.70202" lon="6.2708">
        <ele>1634.8</ele>
        <time>2021-02-08T08:56:32Z</time>
      </trkpt>
      <trkpt lat="45.70201" lon="6.27075">
        <ele>1634.7</ele>
        <time>2021-02-08T08:56:37Z</time>
      </trkpt>
      <trkpt lat="45.70201" lon="6.27073">
        <ele>1634.5</ele>
        <time>2021-02-08T08:56:41Z</time>
      </trkpt>
      <trkpt lat="45.702" lon="6.27071">
        <ele>1634.8</ele>
        <time>2021-02-08T08:56:43Z</time>
      </trkpt>
      <trkpt lat="45.70197" lon="6.27068">
        <ele>1636</ele>
        <time>2021-02-08T08:56:49Z</time>
      </trkpt>
      <trkpt lat="45.70195" lon="6.27063">
        <ele>1636.5</ele>
        <time>2021-02-08T08:56:56Z</time>
      </trkpt>
      <trkpt lat="45.70193" lon="6.27059">
        <ele>1637.1</ele>
        <time>2021-02-08T08:57:02Z</time>
      </trkpt>
      <trkpt lat="45.70192" lon="6.27055">
        <ele>1637.1</ele>
        <time>2021-02-08T08:57:06Z</time>
      </trkpt>
      <trkpt lat="45.70192" lon="6.27053">
        <ele>1636.8</ele>
        <time>2021-02-08T08:57:09Z</time>
      </trkpt>
      <trkpt lat="45.70191" lon="6.2705">
        <ele>1636.7</ele>
        <time>2021-02-08T08:57:13Z</time>
      </trkpt>
      <trkpt lat="45.7019" lon="6.27045">
        <ele>1636.2</ele>
        <time>2021-02-08T08:57:20Z</time>
      </trkpt>
      <trkpt lat="45.70189" lon="6.27044">
        <ele>1636.5</ele>
        <time>2021-02-08T08:57:21Z</time>
      </trkpt>
      <trkpt lat="45.70188" lon="6.27043">
        <ele>1636.8</ele>
        <time>2021-02-08T08:57:23Z</time>
      </trkpt>
      <trkpt lat="45.70182" lon="6.27037">
        <ele>1638.3</ele>
        <time>2021-02-08T08:57:33Z</time>
      </trkpt>
      <trkpt lat="45.70181" lon="6.27037">
        <ele>1638.8</ele>
        <time>2021-02-08T08:57:34Z</time>
      </trkpt>
      <trkpt lat="45.70179" lon="6.27036">
        <ele>1639.5</ele>
        <time>2021-02-08T08:57:36Z</time>
      </trkpt>
      <trkpt lat="45.70177" lon="6.27035">
        <ele>1640.2</ele>
        <time>2021-02-08T08:57:40Z</time>
      </trkpt>
      <trkpt lat="45.70175" lon="6.27039">
        <ele>1642</ele>
        <time>2021-02-08T08:57:46Z</time>
      </trkpt>
      <trkpt lat="45.70176" lon="6.27041">
        <ele>1642</ele>
        <time>2021-02-08T08:57:51Z</time>
      </trkpt>
      <trkpt lat="45.70177" lon="6.27043">
        <ele>1642</ele>
        <time>2021-02-08T08:57:56Z</time>
      </trkpt>
      <trkpt lat="45.70178" lon="6.27045">
        <ele>1641.9</ele>
        <time>2021-02-08T08:58:00Z</time>
      </trkpt>
      <trkpt lat="45.70179" lon="6.27047">
        <ele>1641.9</ele>
        <time>2021-02-08T08:58:06Z</time>
      </trkpt>
      <trkpt lat="45.70179" lon="6.27047">
        <ele>1641.9</ele>
        <time>2021-02-08T08:58:08Z</time>
      </trkpt>
      <trkpt lat="45.70179" lon="6.27047">
        <ele>1641.9</ele>
        <time>2021-02-08T08:58:09Z</time>
      </trkpt>
      <trkpt lat="45.70179" lon="6.27047">
        <ele>1641.9</ele>
        <time>2021-02-08T08:58:10Z</time>
      </trkpt>
      <trkpt lat="45.70176" lon="6.27049">
        <ele>1643.8</ele>
        <time>2021-02-08T08:58:16Z</time>
      </trkpt>
      <trkpt lat="45.70175" lon="6.27049">
        <ele>1644.3</ele>
        <time>2021-02-08T08:58:17Z</time>
      </trkpt>
      <trkpt lat="45.70173" lon="6.2705">
        <ele>1645.5</ele>
        <time>2021-02-08T08:58:20Z</time>
      </trkpt>
      <trkpt lat="45.70171" lon="6.27049">
        <ele>1646.2</ele>
        <time>2021-02-08T08:58:24Z</time>
      </trkpt>
      <trkpt lat="45.7017" lon="6.27049">
        <ele>1646.7</ele>
        <time>2021-02-08T08:58:25Z</time>
      </trkpt>
      <trkpt lat="45.70169" lon="6.27048">
        <ele>1647</ele>
        <time>2021-02-08T08:58:27Z</time>
      </trkpt>
      <trkpt lat="45.70167" lon="6.27047">
        <ele>1647.7</ele>
        <time>2021-02-08T08:58:30Z</time>
      </trkpt>
      <trkpt lat="45.70166" lon="6.27047">
        <ele>1648.2</ele>
        <time>2021-02-08T08:58:32Z</time>
      </trkpt>
      <trkpt lat="45.70164" lon="6.27046">
        <ele>1648.9</ele>
        <time>2021-02-08T08:58:35Z</time>
      </trkpt>
      <trkpt lat="45.70162" lon="6.27044">
        <ele>1649.3</ele>
        <time>2021-02-08T08:58:39Z</time>
      </trkpt>
      <trkpt lat="45.70162" lon="6.27042">
        <ele>1648.8</ele>
        <time>2021-02-08T08:58:42Z</time>
      </trkpt>
      <trkpt lat="45.70159" lon="6.27038">
        <ele>1649.1</ele>
        <time>2021-02-08T08:58:48Z</time>
      </trkpt>
      <trkpt lat="45.70156" lon="6.27035">
        <ele>1649.6</ele>
        <time>2021-02-08T08:58:54Z</time>
      </trkpt>
      <trkpt lat="45.70156" lon="6.27035">
        <ele>1649.6</ele>
        <time>2021-02-08T08:58:55Z</time>
      </trkpt>
      <trkpt lat="45.70154" lon="6.27033">
        <ele>1650</ele>
        <time>2021-02-08T08:59:00Z</time>
      </trkpt>
      <trkpt lat="45.70152" lon="6.27031">
        <ele>1650.3</ele>
        <time>2021-02-08T08:59:06Z</time>
      </trkpt>
      <trkpt lat="45.7015" lon="6.2703">
        <ele>1650.9</ele>
        <time>2021-02-08T08:59:10Z</time>
      </trkpt>
      <trkpt lat="45.70149" lon="6.2703">
        <ele>1651.3</ele>
        <time>2021-02-08T08:59:12Z</time>
      </trkpt>
      <trkpt lat="45.70148" lon="6.27029">
        <ele>1651.4</ele>
        <time>2021-02-08T08:59:14Z</time>
      </trkpt>
      <trkpt lat="45.70146" lon="6.27028">
        <ele>1652</ele>
        <time>2021-02-08T08:59:16Z</time>
      </trkpt>
      <trkpt lat="45.70143" lon="6.27027">
        <ele>1653</ele>
        <time>2021-02-08T08:59:19Z</time>
      </trkpt>
      <trkpt lat="45.70139" lon="6.27027">
        <ele>1654.8</ele>
        <time>2021-02-08T08:59:25Z</time>
      </trkpt>
      <trkpt lat="45.70136" lon="6.27024">
        <ele>1655.7</ele>
        <time>2021-02-08T08:59:30Z</time>
      </trkpt>
      <trkpt lat="45.70136" lon="6.27023">
        <ele>1655.4</ele>
        <time>2021-02-08T08:59:33Z</time>
      </trkpt>
      <trkpt lat="45.70135" lon="6.27023">
        <ele>1656</ele>
        <time>2021-02-08T08:59:37Z</time>
      </trkpt>
      <trkpt lat="45.70135" lon="6.27024">
        <ele>1656.2</ele>
        <time>2021-02-08T08:59:39Z</time>
      </trkpt>
      <trkpt lat="45.70135" lon="6.27025">
        <ele>1656.4</ele>
        <time>2021-02-08T08:59:41Z</time>
      </trkpt>
      <trkpt lat="45.70137" lon="6.27029">
        <ele>1656.4</ele>
        <time>2021-02-08T08:59:46Z</time>
      </trkpt>
      <trkpt lat="45.70137" lon="6.2703">
        <ele>1656.7</ele>
        <time>2021-02-08T08:59:48Z</time>
      </trkpt>
      <trkpt lat="45.70137" lon="6.27034">
        <ele>1658</ele>
        <time>2021-02-08T08:59:52Z</time>
      </trkpt>
      <trkpt lat="45.70138" lon="6.27034">
        <ele>1657.5</ele>
        <time>2021-02-08T08:59:53Z</time>
      </trkpt>
      <trkpt lat="45.70139" lon="6.27036">
        <ele>1657.6</ele>
        <time>2021-02-08T08:59:55Z</time>
      </trkpt>
      <trkpt lat="45.7014" lon="6.27038">
        <ele>1657.8</ele>
        <time>2021-02-08T09:00:00Z</time>
      </trkpt>
      <trkpt lat="45.70141" lon="6.2704">
        <ele>1658</ele>
        <time>2021-02-08T09:00:03Z</time>
      </trkpt>
      <trkpt lat="45.70142" lon="6.27042">
        <ele>1658.1</ele>
        <time>2021-02-08T09:00:07Z</time>
      </trkpt>
      <trkpt lat="45.70144" lon="6.27046">
        <ele>1658.5</ele>
        <time>2021-02-08T09:00:11Z</time>
      </trkpt>
      <trkpt lat="45.70144" lon="6.27047">
        <ele>1658.8</ele>
        <time>2021-02-08T09:00:13Z</time>
      </trkpt>
      <trkpt lat="45.70146" lon="6.27048">
        <ele>1658.1</ele>
        <time>2021-02-08T09:00:15Z</time>
      </trkpt>
      <trkpt lat="45.70146" lon="6.27049">
        <ele>1658.4</ele>
        <time>2021-02-08T09:00:16Z</time>
      </trkpt>
      <trkpt lat="45.70146" lon="6.2705">
        <ele>1658.7</ele>
        <time>2021-02-08T09:00:17Z</time>
      </trkpt>
      <trkpt lat="45.7015" lon="6.27053">
        <ele>1657.6</ele>
        <time>2021-02-08T09:00:24Z</time>
      </trkpt>
      <trkpt lat="45.70148" lon="6.27056">
        <ele>1659.5</ele>
        <time>2021-02-08T09:00:29Z</time>
      </trkpt>
      <trkpt lat="45.70147" lon="6.27056">
        <ele>1660</ele>
        <time>2021-02-08T09:00:30Z</time>
      </trkpt>
      <trkpt lat="45.70146" lon="6.27056">
        <ele>1660.5</ele>
        <time>2021-02-08T09:00:32Z</time>
      </trkpt>
      <trkpt lat="45.70144" lon="6.27056">
        <ele>1661.5</ele>
        <time>2021-02-08T09:00:34Z</time>
      </trkpt>
      <trkpt lat="45.70142" lon="6.27056">
        <ele>1662.5</ele>
        <time>2021-02-08T09:00:37Z</time>
      </trkpt>
      <trkpt lat="45.70139" lon="6.27056">
        <ele>1664</ele>
        <time>2021-02-08T09:00:41Z</time>
      </trkpt>
      <trkpt lat="45.70139" lon="6.27056">
        <ele>1664</ele>
        <time>2021-02-08T09:00:42Z</time>
      </trkpt>
      <trkpt lat="45.70133" lon="6.27055">
        <ele>1666.4</ele>
        <time>2021-02-08T09:00:51Z</time>
      </trkpt>
      <trkpt lat="45.70132" lon="6.27053">
        <ele>1666.2</ele>
        <time>2021-02-08T09:00:54Z</time>
      </trkpt>
      <trkpt lat="45.7013" lon="6.27051">
        <ele>1666.5</ele>
        <time>2021-02-08T09:00:59Z</time>
      </trkpt>
      <trkpt lat="45.70128" lon="6.27043">
        <ele>1665.2</ele>
        <time>2021-02-08T09:01:06Z</time>
      </trkpt>
      <trkpt lat="45.70126" lon="6.27041">
        <ele>1665.6</ele>
        <time>2021-02-08T09:01:09Z</time>
      </trkpt>
      <trkpt lat="45.70121" lon="6.27035">
        <ele>1666.5</ele>
        <time>2021-02-08T09:01:19Z</time>
      </trkpt>
      <trkpt lat="45.7012" lon="6.27034">
        <ele>1666.8</ele>
        <time>2021-02-08T09:01:22Z</time>
      </trkpt>
      <trkpt lat="45.70119" lon="6.27033">
        <ele>1667</ele>
        <time>2021-02-08T09:01:23Z</time>
      </trkpt>
      <trkpt lat="45.70115" lon="6.2703">
        <ele>1668.4</ele>
        <time>2021-02-08T09:01:32Z</time>
      </trkpt>
      <trkpt lat="45.70114" lon="6.27028">
        <ele>1668.5</ele>
        <time>2021-02-08T09:01:35Z</time>
      </trkpt>
      <trkpt lat="45.70113" lon="6.27028">
        <ele>1669</ele>
        <time>2021-02-08T09:01:36Z</time>
      </trkpt>
      <trkpt lat="45.70108" lon="6.27023">
        <ele>1670.7</ele>
        <time>2021-02-08T09:01:44Z</time>
      </trkpt>
      <trkpt lat="45.70106" lon="6.2702">
        <ele>1671.1</ele>
        <time>2021-02-08T09:01:47Z</time>
      </trkpt>
      <trkpt lat="45.70104" lon="6.27017">
        <ele>1671.6</ele>
        <time>2021-02-08T09:01:52Z</time>
      </trkpt>
      <trkpt lat="45.70104" lon="6.27016">
        <ele>1671.5</ele>
        <time>2021-02-08T09:01:53Z</time>
      </trkpt>
      <trkpt lat="45.70101" lon="6.27014">
        <ele>1672.6</ele>
        <time>2021-02-08T09:02:01Z</time>
      </trkpt>
      <trkpt lat="45.70098" lon="6.27016">
        <ele>1674.2</ele>
        <time>2021-02-08T09:02:06Z</time>
      </trkpt>
      <trkpt lat="45.70098" lon="6.27019">
        <ele>1674.5</ele>
        <time>2021-02-08T09:02:11Z</time>
      </trkpt>
      <trkpt lat="45.70098" lon="6.2702">
        <ele>1674.7</ele>
        <time>2021-02-08T09:02:12Z</time>
      </trkpt>
      <trkpt lat="45.70098" lon="6.27022">
        <ele>1674.9</ele>
        <time>2021-02-08T09:02:14Z</time>
      </trkpt>
      <trkpt lat="45.70099" lon="6.27027">
        <ele>1675.1</ele>
        <time>2021-02-08T09:02:21Z</time>
      </trkpt>
      <trkpt lat="45.701" lon="6.27029">
        <ele>1675.1</ele>
        <time>2021-02-08T09:02:23Z</time>
      </trkpt>
      <trkpt lat="45.701" lon="6.27032">
        <ele>1675.8</ele>
        <time>2021-02-08T09:02:27Z</time>
      </trkpt>
      <trkpt lat="45.701" lon="6.27038">
        <ele>1677.3</ele>
        <time>2021-02-08T09:02:33Z</time>
      </trkpt>
      <trkpt lat="45.701" lon="6.27039">
        <ele>1677.5</ele>
        <time>2021-02-08T09:02:34Z</time>
      </trkpt>
      <trkpt lat="45.701" lon="6.27042">
        <ele>1678.3</ele>
        <time>2021-02-08T09:02:37Z</time>
      </trkpt>
      <trkpt lat="45.701" lon="6.27043">
        <ele>1678.5</ele>
        <time>2021-02-08T09:02:38Z</time>
      </trkpt>
      <trkpt lat="45.70101" lon="6.27047">
        <ele>1679</ele>
        <time>2021-02-08T09:02:42Z</time>
      </trkpt>
      <trkpt lat="45.70102" lon="6.27053">
        <ele>1680</ele>
        <time>2021-02-08T09:02:48Z</time>
      </trkpt>
      <trkpt lat="45.70101" lon="6.27057">
        <ele>1681.5</ele>
        <time>2021-02-08T09:02:52Z</time>
      </trkpt>
      <trkpt lat="45.701" lon="6.27063">
        <ele>1683.5</ele>
        <time>2021-02-08T09:02:57Z</time>
      </trkpt>
      <trkpt lat="45.701" lon="6.27068">
        <ele>1684.8</ele>
        <time>2021-02-08T09:03:01Z</time>
      </trkpt>
      <trkpt lat="45.701" lon="6.27071">
        <ele>1685.6</ele>
        <time>2021-02-08T09:03:04Z</time>
      </trkpt>
      <trkpt lat="45.70102" lon="6.27077">
        <ele>1686</ele>
        <time>2021-02-08T09:03:11Z</time>
      </trkpt>
      <trkpt lat="45.70102" lon="6.27079">
        <ele>1686.5</ele>
        <time>2021-02-08T09:03:15Z</time>
      </trkpt>
      <trkpt lat="45.70101" lon="6.27081">
        <ele>1687.6</ele>
        <time>2021-02-08T09:03:17Z</time>
      </trkpt>
      <trkpt lat="45.701" lon="6.27081">
        <ele>1688.2</ele>
        <time>2021-02-08T09:03:19Z</time>
      </trkpt>
      <trkpt lat="45.70098" lon="6.27087">
        <ele>1690.5</ele>
        <time>2021-02-08T09:03:25Z</time>
      </trkpt>
      <trkpt lat="45.70098" lon="6.27087">
        <ele>1690.5</ele>
        <time>2021-02-08T09:03:26Z</time>
      </trkpt>
      <trkpt lat="45.70097" lon="6.27092">
        <ele>1691.7</ele>
        <time>2021-02-08T09:03:32Z</time>
      </trkpt>
      <trkpt lat="45.70097" lon="6.27096">
        <ele>1692.2</ele>
        <time>2021-02-08T09:03:37Z</time>
      </trkpt>
      <trkpt lat="45.70097" lon="6.27098">
        <ele>1692.5</ele>
        <time>2021-02-08T09:03:40Z</time>
      </trkpt>
      <trkpt lat="45.70097" lon="6.27104">
        <ele>1693.2</ele>
        <time>2021-02-08T09:03:49Z</time>
      </trkpt>
      <trkpt lat="45.70097" lon="6.27104">
        <ele>1693.2</ele>
        <time>2021-02-08T09:03:50Z</time>
      </trkpt>
      <trkpt lat="45.70097" lon="6.27105">
        <ele>1693.4</ele>
        <time>2021-02-08T09:03:52Z</time>
      </trkpt>
      <trkpt lat="45.70099" lon="6.27107">
        <ele>1692.3</ele>
        <time>2021-02-08T09:03:58Z</time>
      </trkpt>
      <trkpt lat="45.70099" lon="6.27108">
        <ele>1692.5</ele>
        <time>2021-02-08T09:04:00Z</time>
      </trkpt>
      <trkpt lat="45.70099" lon="6.27108">
        <ele>1692.5</ele>
        <time>2021-02-08T09:04:01Z</time>
      </trkpt>
      <trkpt lat="45.70098" lon="6.27114">
        <ele>1693.4</ele>
        <time>2021-02-08T09:04:10Z</time>
      </trkpt>
      <trkpt lat="45.70098" lon="6.27114">
        <ele>1693.4</ele>
        <time>2021-02-08T09:04:11Z</time>
      </trkpt>
      <trkpt lat="45.70096" lon="6.2712">
        <ele>1694.2</ele>
        <time>2021-02-08T09:04:22Z</time>
      </trkpt>
      <trkpt lat="45.70096" lon="6.27121">
        <ele>1694.2</ele>
        <time>2021-02-08T09:04:23Z</time>
      </trkpt>
      <trkpt lat="45.70096" lon="6.27124">
        <ele>1694</ele>
        <time>2021-02-08T09:04:26Z</time>
      </trkpt>
      <trkpt lat="45.70095" lon="6.27126">
        <ele>1694.4</ele>
        <time>2021-02-08T09:04:29Z</time>
      </trkpt>
      <trkpt lat="45.70095" lon="6.27126">
        <ele>1694.4</ele>
        <time>2021-02-08T09:04:30Z</time>
      </trkpt>
      <trkpt lat="45.70095" lon="6.27126">
        <ele>1694.4</ele>
        <time>2021-02-08T09:04:31Z</time>
      </trkpt>
      <trkpt lat="45.70094" lon="6.27128">
        <ele>1694.8</ele>
        <time>2021-02-08T09:04:34Z</time>
      </trkpt>
      <trkpt lat="45.70093" lon="6.27129">
        <ele>1695.3</ele>
        <time>2021-02-08T09:04:39Z</time>
      </trkpt>
      <trkpt lat="45.7009" lon="6.2713">
        <ele>1696.8</ele>
        <time>2021-02-08T09:04:44Z</time>
      </trkpt>
      <trkpt lat="45.7009" lon="6.27131">
        <ele>1696.7</ele>
        <time>2021-02-08T09:04:46Z</time>
      </trkpt>
      <trkpt lat="45.70088" lon="6.27133">
        <ele>1697.5</ele>
        <time>2021-02-08T09:04:50Z</time>
      </trkpt>
      <trkpt lat="45.70086" lon="6.2713">
        <ele>1698.9</ele>
        <time>2021-02-08T09:04:56Z</time>
      </trkpt>
      <trkpt lat="45.70086" lon="6.27129">
        <ele>1699</ele>
        <time>2021-02-08T09:04:58Z</time>
      </trkpt>
      <trkpt lat="45.70086" lon="6.27126">
        <ele>1699.4</ele>
        <time>2021-02-08T09:05:01Z</time>
      </trkpt>
      <trkpt lat="45.70085" lon="6.27121">
        <ele>1700.6</ele>
        <time>2021-02-08T09:05:07Z</time>
      </trkpt>
      <trkpt lat="45.70085" lon="6.2712">
        <ele>1700.7</ele>
        <time>2021-02-08T09:05:08Z</time>
      </trkpt>
      <trkpt lat="45.70084" lon="6.27117">
        <ele>1701.7</ele>
        <time>2021-02-08T09:05:11Z</time>
      </trkpt>
      <trkpt lat="45.70084" lon="6.27114">
        <ele>1702.2</ele>
        <time>2021-02-08T09:05:14Z</time>
      </trkpt>
      <trkpt lat="45.70084" lon="6.27111">
        <ele>1702.6</ele>
        <time>2021-02-08T09:05:18Z</time>
      </trkpt>
      <trkpt lat="45.70084" lon="6.27109">
        <ele>1702.3</ele>
        <time>2021-02-08T09:05:21Z</time>
      </trkpt>
      <trkpt lat="45.70084" lon="6.27107">
        <ele>1702</ele>
        <time>2021-02-08T09:05:24Z</time>
      </trkpt>
      <trkpt lat="45.70083" lon="6.27107">
        <ele>1702.6</ele>
        <time>2021-02-08T09:05:26Z</time>
      </trkpt>
      <trkpt lat="45.70083" lon="6.27106">
        <ele>1702.4</ele>
        <time>2021-02-08T09:05:27Z</time>
      </trkpt>
      <trkpt lat="45.70081" lon="6.27105">
        <ele>1703.3</ele>
        <time>2021-02-08T09:05:29Z</time>
      </trkpt>
      <trkpt lat="45.70081" lon="6.27104">
        <ele>1703.1</ele>
        <time>2021-02-08T09:05:30Z</time>
      </trkpt>
      <trkpt lat="45.7008" lon="6.27101">
        <ele>1703.3</ele>
        <time>2021-02-08T09:05:34Z</time>
      </trkpt>
      <trkpt lat="45.7008" lon="6.271">
        <ele>1703.2</ele>
        <time>2021-02-08T09:05:36Z</time>
      </trkpt>
      <trkpt lat="45.70079" lon="6.27098">
        <ele>1703.5</ele>
        <time>2021-02-08T09:05:39Z</time>
      </trkpt>
      <trkpt lat="45.70078" lon="6.27096">
        <ele>1703.9</ele>
        <time>2021-02-08T09:05:43Z</time>
      </trkpt>
      <trkpt lat="45.70076" lon="6.27094">
        <ele>1704.8</ele>
        <time>2021-02-08T09:05:47Z</time>
      </trkpt>
      <trkpt lat="45.70075" lon="6.27093">
        <ele>1705.4</ele>
        <time>2021-02-08T09:05:50Z</time>
      </trkpt>
      <trkpt lat="45.70074" lon="6.27093">
        <ele>1706</ele>
        <time>2021-02-08T09:05:51Z</time>
      </trkpt>
      <trkpt lat="45.70071" lon="6.27089">
        <ele>1707.6</ele>
        <time>2021-02-08T09:05:57Z</time>
      </trkpt>
      <trkpt lat="45.70071" lon="6.27087">
        <ele>1707.6</ele>
        <time>2021-02-08T09:06:00Z</time>
      </trkpt>
      <trkpt lat="45.7007" lon="6.27086">
        <ele>1708.2</ele>
        <time>2021-02-08T09:06:01Z</time>
      </trkpt>
      <trkpt lat="45.7007" lon="6.27085">
        <ele>1708.2</ele>
        <time>2021-02-08T09:06:02Z</time>
      </trkpt>
      <trkpt lat="45.7007" lon="6.27084">
        <ele>1708.1</ele>
        <time>2021-02-08T09:06:04Z</time>
      </trkpt>
      <trkpt lat="45.70068" lon="6.27081">
        <ele>1708.6</ele>
        <time>2021-02-08T09:06:09Z</time>
      </trkpt>
      <trkpt lat="45.70068" lon="6.2708">
        <ele>1708.2</ele>
        <time>2021-02-08T09:06:11Z</time>
      </trkpt>
      <trkpt lat="45.70068" lon="6.27079">
        <ele>1707.8</ele>
        <time>2021-02-08T09:06:13Z</time>
      </trkpt>
      <trkpt lat="45.70067" lon="6.27078">
        <ele>1708.1</ele>
        <time>2021-02-08T09:06:14Z</time>
      </trkpt>
      <trkpt lat="45.70062" lon="6.27075">
        <ele>1710.2</ele>
        <time>2021-02-08T09:06:25Z</time>
      </trkpt>
      <trkpt lat="45.70062" lon="6.27075">
        <ele>1710.2</ele>
        <time>2021-02-08T09:06:26Z</time>
      </trkpt>
      <trkpt lat="45.7006" lon="6.27074">
        <ele>1711.1</ele>
        <time>2021-02-08T09:06:29Z</time>
      </trkpt>
      <trkpt lat="45.70057" lon="6.27073">
        <ele>1712.6</ele>
        <time>2021-02-08T09:06:38Z</time>
      </trkpt>
      <trkpt lat="45.70057" lon="6.27074">
        <ele>1713</ele>
        <time>2021-02-08T09:06:42Z</time>
      </trkpt>
      <trkpt lat="45.70058" lon="6.27075">
        <ele>1712.8</ele>
        <time>2021-02-08T09:06:49Z</time>
      </trkpt>
      <trkpt lat="45.70058" lon="6.27076">
        <ele>1713.2</ele>
        <time>2021-02-08T09:06:50Z</time>
      </trkpt>
      <trkpt lat="45.70062" lon="6.27083">
        <ele>1713.5</ele>
        <time>2021-02-08T09:07:02Z</time>
      </trkpt>
      <trkpt lat="45.70062" lon="6.27084">
        <ele>1713.6</ele>
        <time>2021-02-08T09:07:03Z</time>
      </trkpt>
      <trkpt lat="45.70063" lon="6.27086">
        <ele>1712.8</ele>
        <time>2021-02-08T09:07:05Z</time>
      </trkpt>
      <trkpt lat="45.70062" lon="6.27088">
        <ele>1713.4</ele>
        <time>2021-02-08T09:07:08Z</time>
      </trkpt>
      <trkpt lat="45.7006" lon="6.27093">
        <ele>1714.3</ele>
        <time>2021-02-08T09:07:14Z</time>
      </trkpt>
      <trkpt lat="45.70058" lon="6.27095">
        <ele>1715.3</ele>
        <time>2021-02-08T09:07:18Z</time>
      </trkpt>
      <trkpt lat="45.70053" lon="6.27099">
        <ele>1717.4</ele>
        <time>2021-02-08T09:07:27Z</time>
      </trkpt>
      <trkpt lat="45.7005" lon="6.27098">
        <ele>1718.7</ele>
        <time>2021-02-08T09:07:33Z</time>
      </trkpt>
      <trkpt lat="45.70048" lon="6.27096">
        <ele>1719.5</ele>
        <time>2021-02-08T09:07:38Z</time>
      </trkpt>
      <trkpt lat="45.70047" lon="6.27095">
        <ele>1719.9</ele>
        <time>2021-02-08T09:07:39Z</time>
      </trkpt>
      <trkpt lat="45.70045" lon="6.27092">
        <ele>1720.7</ele>
        <time>2021-02-08T09:07:45Z</time>
      </trkpt>
      <trkpt lat="45.7004" lon="6.27088">
        <ele>1722.2</ele>
        <time>2021-02-08T09:07:51Z</time>
      </trkpt>
      <trkpt lat="45.7004" lon="6.27087">
        <ele>1722.1</ele>
        <time>2021-02-08T09:07:52Z</time>
      </trkpt>
      <trkpt lat="45.70035" lon="6.27084">
        <ele>1723.3</ele>
        <time>2021-02-08T09:07:58Z</time>
      </trkpt>
      <trkpt lat="45.70031" lon="6.27084">
        <ele>1724.3</ele>
        <time>2021-02-08T09:08:05Z</time>
      </trkpt>
      <trkpt lat="45.70031" lon="6.27083">
        <ele>1724.1</ele>
        <time>2021-02-08T09:08:06Z</time>
      </trkpt>
      <trkpt lat="45.7003" lon="6.27083">
        <ele>1724.4</ele>
        <time>2021-02-08T09:08:09Z</time>
      </trkpt>
      <trkpt lat="45.70029" lon="6.27081">
        <ele>1724.2</ele>
        <time>2021-02-08T09:08:11Z</time>
      </trkpt>
      <trkpt lat="45.70026" lon="6.27078">
        <ele>1725.1</ele>
        <time>2021-02-08T09:08:16Z</time>
      </trkpt>
      <trkpt lat="45.70025" lon="6.27078">
        <ele>1725.7</ele>
        <time>2021-02-08T09:08:17Z</time>
      </trkpt>
      <trkpt lat="45.70025" lon="6.27078">
        <ele>1725.7</ele>
        <time>2021-02-08T09:08:18Z</time>
      </trkpt>
      <trkpt lat="45.70024" lon="6.27077">
        <ele>1726.2</ele>
        <time>2021-02-08T09:08:19Z</time>
      </trkpt>
      <trkpt lat="45.70022" lon="6.27076">
        <ele>1727.1</ele>
        <time>2021-02-08T09:08:23Z</time>
      </trkpt>
      <trkpt lat="45.70019" lon="6.27074">
        <ele>1728.5</ele>
        <time>2021-02-08T09:08:28Z</time>
      </trkpt>
      <trkpt lat="45.70018" lon="6.27072">
        <ele>1728.6</ele>
        <time>2021-02-08T09:08:32Z</time>
      </trkpt>
      <trkpt lat="45.70017" lon="6.2707">
        <ele>1728.7</ele>
        <time>2021-02-08T09:08:36Z</time>
      </trkpt>
      <trkpt lat="45.70016" lon="6.27068">
        <ele>1728.7</ele>
        <time>2021-02-08T09:08:40Z</time>
      </trkpt>
      <trkpt lat="45.70015" lon="6.27065">
        <ele>1728.5</ele>
        <time>2021-02-08T09:08:45Z</time>
      </trkpt>
      <trkpt lat="45.70015" lon="6.27065">
        <ele>1728.5</ele>
        <time>2021-02-08T09:08:47Z</time>
      </trkpt>
      <trkpt lat="45.70014" lon="6.2707">
        <ele>1730.3</ele>
        <time>2021-02-08T09:08:55Z</time>
      </trkpt>
      <trkpt lat="45.70014" lon="6.27071">
        <ele>1730.6</ele>
        <time>2021-02-08T09:08:56Z</time>
      </trkpt>
      <trkpt lat="45.70014" lon="6.27072">
        <ele>1730.9</ele>
        <time>2021-02-08T09:08:57Z</time>
      </trkpt>
      <trkpt lat="45.70013" lon="6.27076">
        <ele>1732.6</ele>
        <time>2021-02-08T09:09:03Z</time>
      </trkpt>
      <trkpt lat="45.70013" lon="6.27079">
        <ele>1733.4</ele>
        <time>2021-02-08T09:09:08Z</time>
      </trkpt>
      <trkpt lat="45.70013" lon="6.2708">
        <ele>1733.7</ele>
        <time>2021-02-08T09:09:11Z</time>
      </trkpt>
      <trkpt lat="45.70012" lon="6.27077">
        <ele>1733.4</ele>
        <time>2021-02-08T09:09:16Z</time>
      </trkpt>
      <trkpt lat="45.70011" lon="6.27075">
        <ele>1733.5</ele>
        <time>2021-02-08T09:09:18Z</time>
      </trkpt>
      <trkpt lat="45.70008" lon="6.27071">
        <ele>1734</ele>
        <time>2021-02-08T09:09:25Z</time>
      </trkpt>
      <trkpt lat="45.70008" lon="6.27069">
        <ele>1733.4</ele>
        <time>2021-02-08T09:09:28Z</time>
      </trkpt>
      <trkpt lat="45.70006" lon="6.27068">
        <ele>1734.2</ele>
        <time>2021-02-08T09:09:32Z</time>
      </trkpt>
      <trkpt lat="45.70005" lon="6.27068">
        <ele>1734.7</ele>
        <time>2021-02-08T09:09:34Z</time>
      </trkpt>
      <trkpt lat="45.70001" lon="6.27066">
        <ele>1736.2</ele>
        <time>2021-02-08T09:09:41Z</time>
      </trkpt>
      <trkpt lat="45.69999" lon="6.27066">
        <ele>1737.3</ele>
        <time>2021-02-08T09:09:43Z</time>
      </trkpt>
      <trkpt lat="45.69996" lon="6.27066">
        <ele>1738.8</ele>
        <time>2021-02-08T09:09:48Z</time>
      </trkpt>
      <trkpt lat="45.69995" lon="6.27066">
        <ele>1739.3</ele>
        <time>2021-02-08T09:09:49Z</time>
      </trkpt>
      <trkpt lat="45.6999" lon="6.27064">
        <ele>1741</ele>
        <time>2021-02-08T09:09:57Z</time>
      </trkpt>
      <trkpt lat="45.6999" lon="6.27064">
        <ele>1741</ele>
        <time>2021-02-08T09:09:58Z</time>
      </trkpt>
      <trkpt lat="45.6999" lon="6.27066">
        <ele>1741.8</ele>
        <time>2021-02-08T09:10:03Z</time>
      </trkpt>
      <trkpt lat="45.6999" lon="6.27067">
        <ele>1742.2</ele>
        <time>2021-02-08T09:10:04Z</time>
      </trkpt>
      <trkpt lat="45.6999" lon="6.27068">
        <ele>1742.6</ele>
        <time>2021-02-08T09:10:06Z</time>
      </trkpt>
      <trkpt lat="45.6999" lon="6.27069">
        <ele>1743</ele>
        <time>2021-02-08T09:10:08Z</time>
      </trkpt>
      <trkpt lat="45.69991" lon="6.27072">
        <ele>1743.7</ele>
        <time>2021-02-08T09:10:12Z</time>
      </trkpt>
      <trkpt lat="45.69993" lon="6.27076">
        <ele>1744.2</ele>
        <time>2021-02-08T09:10:18Z</time>
      </trkpt>
      <trkpt lat="45.69993" lon="6.27076">
        <ele>1744.2</ele>
        <time>2021-02-08T09:10:20Z</time>
      </trkpt>
      <trkpt lat="45.69993" lon="6.27077">
        <ele>1744.6</ele>
        <time>2021-02-08T09:10:22Z</time>
      </trkpt>
      <trkpt lat="45.69994" lon="6.27078">
        <ele>1744.4</ele>
        <time>2021-02-08T09:10:24Z</time>
      </trkpt>
      <trkpt lat="45.69996" lon="6.2708">
        <ele>1744.1</ele>
        <time>2021-02-08T09:10:29Z</time>
      </trkpt>
      <trkpt lat="45.69998" lon="6.27083">
        <ele>1744</ele>
        <time>2021-02-08T09:10:33Z</time>
      </trkpt>
      <trkpt lat="45.69999" lon="6.27084">
        <ele>1743.6</ele>
        <time>2021-02-08T09:10:34Z</time>
      </trkpt>
      <trkpt lat="45.69999" lon="6.27084">
        <ele>1743.6</ele>
        <time>2021-02-08T09:10:35Z</time>
      </trkpt>
      <trkpt lat="45.69999" lon="6.27085">
        <ele>1743.8</ele>
        <time>2021-02-08T09:10:36Z</time>
      </trkpt>
      <trkpt lat="45.69999" lon="6.27086">
        <ele>1743.9</ele>
        <time>2021-02-08T09:10:37Z</time>
      </trkpt>
      <trkpt lat="45.69999" lon="6.27089">
        <ele>1744.2</ele>
        <time>2021-02-08T09:10:41Z</time>
      </trkpt>
      <trkpt lat="45.69999" lon="6.27093">
        <ele>1744.6</ele>
        <time>2021-02-08T09:10:47Z</time>
      </trkpt>
      <trkpt lat="45.69999" lon="6.27095">
        <ele>1744.8</ele>
        <time>2021-02-08T09:10:49Z</time>
      </trkpt>
      <trkpt lat="45.69997" lon="6.27103">
        <ele>1746.7</ele>
        <time>2021-02-08T09:10:57Z</time>
      </trkpt>
      <trkpt lat="45.69997" lon="6.27104">
        <ele>1746.8</ele>
        <time>2021-02-08T09:10:59Z</time>
      </trkpt>
      <trkpt lat="45.69996" lon="6.27106">
        <ele>1747.5</ele>
        <time>2021-02-08T09:11:03Z</time>
      </trkpt>
      <trkpt lat="45.69996" lon="6.27106">
        <ele>1747.5</ele>
        <time>2021-02-08T09:11:10Z</time>
      </trkpt>
      <trkpt lat="45.69995" lon="6.27105">
        <ele>1747.9</ele>
        <time>2021-02-08T09:11:11Z</time>
      </trkpt>
      <trkpt lat="45.69992" lon="6.27103">
        <ele>1749.3</ele>
        <time>2021-02-08T09:11:17Z</time>
      </trkpt>
      <trkpt lat="45.69989" lon="6.27102">
        <ele>1750.8</ele>
        <time>2021-02-08T09:11:22Z</time>
      </trkpt>
      <trkpt lat="45.69988" lon="6.27101">
        <ele>1751.3</ele>
        <time>2021-02-08T09:11:24Z</time>
      </trkpt>
      <trkpt lat="45.69986" lon="6.27099">
        <ele>1752.2</ele>
        <time>2021-02-08T09:11:31Z</time>
      </trkpt>
      <trkpt lat="45.69985" lon="6.27101">
        <ele>1752.9</ele>
        <time>2021-02-08T09:11:33Z</time>
      </trkpt>
      <trkpt lat="45.69983" lon="6.27104">
        <ele>1754.1</ele>
        <time>2021-02-08T09:11:38Z</time>
      </trkpt>
      <trkpt lat="45.69983" lon="6.27107">
        <ele>1754.3</ele>
        <time>2021-02-08T09:11:45Z</time>
      </trkpt>
      <trkpt lat="45.69982" lon="6.2711">
        <ele>1755</ele>
        <time>2021-02-08T09:11:51Z</time>
      </trkpt>
      <trkpt lat="45.6998" lon="6.2711">
        <ele>1756</ele>
        <time>2021-02-08T09:11:56Z</time>
      </trkpt>
      <trkpt lat="45.69979" lon="6.27109">
        <ele>1756.5</ele>
        <time>2021-02-08T09:11:58Z</time>
      </trkpt>
      <trkpt lat="45.69978" lon="6.27108">
        <ele>1756.9</ele>
        <time>2021-02-08T09:12:00Z</time>
      </trkpt>
      <trkpt lat="45.69978" lon="6.27108">
        <ele>1756.9</ele>
        <time>2021-02-08T09:12:01Z</time>
      </trkpt>
      <trkpt lat="45.69977" lon="6.27108">
        <ele>1757.4</ele>
        <time>2021-02-08T09:12:02Z</time>
      </trkpt>
      <trkpt lat="45.69973" lon="6.27104">
        <ele>1759.3</ele>
        <time>2021-02-08T09:12:12Z</time>
      </trkpt>
      <trkpt lat="45.69972" lon="6.27103">
        <ele>1759.8</ele>
        <time>2021-02-08T09:12:14Z</time>
      </trkpt>
      <trkpt lat="45.69969" lon="6.27105">
        <ele>1761</ele>
        <time>2021-02-08T09:12:21Z</time>
      </trkpt>
      <trkpt lat="45.69968" lon="6.27107">
        <ele>1761.4</ele>
        <time>2021-02-08T09:12:24Z</time>
      </trkpt>
      <trkpt lat="45.69967" lon="6.27108">
        <ele>1761.8</ele>
        <time>2021-02-08T09:12:27Z</time>
      </trkpt>
      <trkpt lat="45.69966" lon="6.2711">
        <ele>1762.2</ele>
        <time>2021-02-08T09:12:31Z</time>
      </trkpt>
      <trkpt lat="45.69964" lon="6.27111">
        <ele>1763</ele>
        <time>2021-02-08T09:12:34Z</time>
      </trkpt>
      <trkpt lat="45.69963" lon="6.27112">
        <ele>1763.2</ele>
        <time>2021-02-08T09:12:38Z</time>
      </trkpt>
      <trkpt lat="45.69963" lon="6.27112">
        <ele>1763.2</ele>
        <time>2021-02-08T09:12:39Z</time>
      </trkpt>
      <trkpt lat="45.69962" lon="6.27112">
        <ele>1763.6</ele>
        <time>2021-02-08T09:12:40Z</time>
      </trkpt>
      <trkpt lat="45.6996" lon="6.27112">
        <ele>1764.3</ele>
        <time>2021-02-08T09:12:49Z</time>
      </trkpt>
      <trkpt lat="45.69958" lon="6.27113">
        <ele>1765</ele>
        <time>2021-02-08T09:12:51Z</time>
      </trkpt>
      <trkpt lat="45.69957" lon="6.27114">
        <ele>1765.3</ele>
        <time>2021-02-08T09:12:53Z</time>
      </trkpt>
      <trkpt lat="45.69954" lon="6.27117">
        <ele>1766.3</ele>
        <time>2021-02-08T09:13:00Z</time>
      </trkpt>
      <trkpt lat="45.69954" lon="6.2712">
        <ele>1766.2</ele>
        <time>2021-02-08T09:13:04Z</time>
      </trkpt>
      <trkpt lat="45.69953" lon="6.27121">
        <ele>1766.6</ele>
        <time>2021-02-08T09:13:07Z</time>
      </trkpt>
      <trkpt lat="45.69952" lon="6.27122">
        <ele>1767</ele>
        <time>2021-02-08T09:13:09Z</time>
      </trkpt>
      <trkpt lat="45.6995" lon="6.27123">
        <ele>1767.9</ele>
        <time>2021-02-08T09:13:14Z</time>
      </trkpt>
      <trkpt lat="45.69948" lon="6.27123">
        <ele>1768.8</ele>
        <time>2021-02-08T09:13:17Z</time>
      </trkpt>
      <trkpt lat="45.69946" lon="6.27124">
        <ele>1769.7</ele>
        <time>2021-02-08T09:13:21Z</time>
      </trkpt>
      <trkpt lat="45.69946" lon="6.27125">
        <ele>1769.8</ele>
        <time>2021-02-08T09:13:22Z</time>
      </trkpt>
      <trkpt lat="45.69944" lon="6.27127">
        <ele>1770.8</ele>
        <time>2021-02-08T09:13:27Z</time>
      </trkpt>
      <trkpt lat="45.69944" lon="6.27129">
        <ele>1770.9</ele>
        <time>2021-02-08T09:13:29Z</time>
      </trkpt>
      <trkpt lat="45.69942" lon="6.27132">
        <ele>1772.2</ele>
        <time>2021-02-08T09:13:34Z</time>
      </trkpt>
      <trkpt lat="45.69941" lon="6.27134">
        <ele>1772.8</ele>
        <time>2021-02-08T09:13:38Z</time>
      </trkpt>
      <trkpt lat="45.6994" lon="6.27135">
        <ele>1773.3</ele>
        <time>2021-02-08T09:13:40Z</time>
      </trkpt>
      <trkpt lat="45.69938" lon="6.27139">
        <ele>1774.5</ele>
        <time>2021-02-08T09:13:48Z</time>
      </trkpt>
      <trkpt lat="45.69938" lon="6.2714">
        <ele>1774.5</ele>
        <time>2021-02-08T09:13:50Z</time>
      </trkpt>
      <trkpt lat="45.69937" lon="6.27141">
        <ele>1775.1</ele>
        <time>2021-02-08T09:13:51Z</time>
      </trkpt>
      <trkpt lat="45.69937" lon="6.27143">
        <ele>1775.2</ele>
        <time>2021-02-08T09:13:53Z</time>
      </trkpt>
      <trkpt lat="45.69935" lon="6.27143">
        <ele>1776.2</ele>
        <time>2021-02-08T09:13:56Z</time>
      </trkpt>
      <trkpt lat="45.69934" lon="6.27142">
        <ele>1776.8</ele>
        <time>2021-02-08T09:14:00Z</time>
      </trkpt>
      <trkpt lat="45.69933" lon="6.27141">
        <ele>1777.3</ele>
        <time>2021-02-08T09:14:01Z</time>
      </trkpt>
      <trkpt lat="45.69933" lon="6.2714">
        <ele>1777.2</ele>
        <time>2021-02-08T09:14:03Z</time>
      </trkpt>
      <trkpt lat="45.69933" lon="6.27137">
        <ele>1777.2</ele>
        <time>2021-02-08T09:14:07Z</time>
      </trkpt>
      <trkpt lat="45.69932" lon="6.27133">
        <ele>1777.9</ele>
        <time>2021-02-08T09:14:12Z</time>
      </trkpt>
      <trkpt lat="45.69931" lon="6.27132">
        <ele>1778.5</ele>
        <time>2021-02-08T09:14:14Z</time>
      </trkpt>
      <trkpt lat="45.69931" lon="6.27127">
        <ele>1778.7</ele>
        <time>2021-02-08T09:14:20Z</time>
      </trkpt>
      <trkpt lat="45.69931" lon="6.27121">
        <ele>1778.9</ele>
        <time>2021-02-08T09:14:28Z</time>
      </trkpt>
      <trkpt lat="45.69931" lon="6.27121">
        <ele>1778.9</ele>
        <time>2021-02-08T09:14:29Z</time>
      </trkpt>
      <trkpt lat="45.69929" lon="6.27118">
        <ele>1780.3</ele>
        <time>2021-02-08T09:14:33Z</time>
      </trkpt>
      <trkpt lat="45.69929" lon="6.27116">
        <ele>1780.3</ele>
        <time>2021-02-08T09:14:36Z</time>
      </trkpt>
      <trkpt lat="45.69929" lon="6.27115">
        <ele>1780.4</ele>
        <time>2021-02-08T09:14:38Z</time>
      </trkpt>
      <trkpt lat="45.69928" lon="6.27112">
        <ele>1781.2</ele>
        <time>2021-02-08T09:14:41Z</time>
      </trkpt>
      <trkpt lat="45.69928" lon="6.2711">
        <ele>1781.1</ele>
        <time>2021-02-08T09:14:43Z</time>
      </trkpt>
      <trkpt lat="45.69927" lon="6.27109">
        <ele>1781.6</ele>
        <time>2021-02-08T09:14:44Z</time>
      </trkpt>
      <trkpt lat="45.69927" lon="6.27106">
        <ele>1781.1</ele>
        <time>2021-02-08T09:14:49Z</time>
      </trkpt>
      <trkpt lat="45.69928" lon="6.27104">
        <ele>1780.2</ele>
        <time>2021-02-08T09:14:51Z</time>
      </trkpt>
      <trkpt lat="45.69928" lon="6.27104">
        <ele>1780.2</ele>
        <time>2021-02-08T09:14:53Z</time>
      </trkpt>
      <trkpt lat="45.69929" lon="6.27103">
        <ele>1779.5</ele>
        <time>2021-02-08T09:14:55Z</time>
      </trkpt>
      <trkpt lat="45.69929" lon="6.27099">
        <ele>1779</ele>
        <time>2021-02-08T09:15:03Z</time>
      </trkpt>
      <trkpt lat="45.69928" lon="6.27098">
        <ele>1779.4</ele>
        <time>2021-02-08T09:15:07Z</time>
      </trkpt>
      <trkpt lat="45.69927" lon="6.27098">
        <ele>1779.9</ele>
        <time>2021-02-08T09:15:12Z</time>
      </trkpt>
      <trkpt lat="45.69926" lon="6.271">
        <ele>1780.8</ele>
        <time>2021-02-08T09:15:16Z</time>
      </trkpt>
      <trkpt lat="45.69926" lon="6.271">
        <ele>1780.8</ele>
        <time>2021-02-08T09:15:17Z</time>
      </trkpt>
      <trkpt lat="45.69924" lon="6.27102">
        <ele>1782.2</ele>
        <time>2021-02-08T09:15:22Z</time>
      </trkpt>
      <trkpt lat="45.69924" lon="6.27102">
        <ele>1782.2</ele>
        <time>2021-02-08T09:15:23Z</time>
      </trkpt>
      <trkpt lat="45.69922" lon="6.27104">
        <ele>1783.8</ele>
        <time>2021-02-08T09:15:27Z</time>
      </trkpt>
      <trkpt lat="45.69922" lon="6.27104">
        <ele>1783.8</ele>
        <time>2021-02-08T09:15:28Z</time>
      </trkpt>
      <trkpt lat="45.69921" lon="6.27107">
        <ele>1785.1</ele>
        <time>2021-02-08T09:15:35Z</time>
      </trkpt>
      <trkpt lat="45.69919" lon="6.27109">
        <ele>1786.9</ele>
        <time>2021-02-08T09:15:39Z</time>
      </trkpt>
      <trkpt lat="45.69919" lon="6.27109">
        <ele>1786.9</ele>
        <time>2021-02-08T09:15:40Z</time>
      </trkpt>
      <trkpt lat="45.69918" lon="6.2711">
        <ele>1787.8</ele>
        <time>2021-02-08T09:15:41Z</time>
      </trkpt>
      <trkpt lat="45.69917" lon="6.27113">
        <ele>1788.6</ele>
        <time>2021-02-08T09:15:46Z</time>
      </trkpt>
      <trkpt lat="45.69914" lon="6.27115">
        <ele>1790.1</ele>
        <time>2021-02-08T09:15:54Z</time>
      </trkpt>
      <trkpt lat="45.69914" lon="6.27115">
        <ele>1790.1</ele>
        <time>2021-02-08T09:15:55Z</time>
      </trkpt>
      <trkpt lat="45.69914" lon="6.27112">
        <ele>1790.4</ele>
        <time>2021-02-08T09:16:03Z</time>
      </trkpt>
      <trkpt lat="45.69913" lon="6.27112">
        <ele>1791</ele>
        <time>2021-02-08T09:16:07Z</time>
      </trkpt>
      <trkpt lat="45.69911" lon="6.27113">
        <ele>1792.1</ele>
        <time>2021-02-08T09:16:11Z</time>
      </trkpt>
      <trkpt lat="45.69909" lon="6.27113">
        <ele>1793.2</ele>
        <time>2021-02-08T09:16:14Z</time>
      </trkpt>
      <trkpt lat="45.69907" lon="6.27114">
        <ele>1794.3</ele>
        <time>2021-02-08T09:16:18Z</time>
      </trkpt>
      <trkpt lat="45.69906" lon="6.27115">
        <ele>1794.8</ele>
        <time>2021-02-08T09:16:20Z</time>
      </trkpt>
      <trkpt lat="45.69906" lon="6.27118">
        <ele>1794.5</ele>
        <time>2021-02-08T09:16:25Z</time>
      </trkpt>
      <trkpt lat="45.69906" lon="6.2712">
        <ele>1794.3</ele>
        <time>2021-02-08T09:16:27Z</time>
      </trkpt>
      <trkpt lat="45.69906" lon="6.27122">
        <ele>1794.1</ele>
        <time>2021-02-08T09:16:31Z</time>
      </trkpt>
      <trkpt lat="45.69906" lon="6.27122">
        <ele>1794.1</ele>
        <time>2021-02-08T09:16:32Z</time>
      </trkpt>
      <trkpt lat="45.69906" lon="6.27123">
        <ele>1794</ele>
        <time>2021-02-08T09:16:33Z</time>
      </trkpt>
      <trkpt lat="45.69905" lon="6.27123">
        <ele>1794.6</ele>
        <time>2021-02-08T09:16:37Z</time>
      </trkpt>
      <trkpt lat="45.69905" lon="6.27124">
        <ele>1794.5</ele>
        <time>2021-02-08T09:16:40Z</time>
      </trkpt>
      <trkpt lat="45.69904" lon="6.27123">
        <ele>1795.2</ele>
        <time>2021-02-08T09:16:43Z</time>
      </trkpt>
      <trkpt lat="45.69903" lon="6.27121">
        <ele>1796</ele>
        <time>2021-02-08T09:16:47Z</time>
      </trkpt>
      <trkpt lat="45.69902" lon="6.27119">
        <ele>1796.7</ele>
        <time>2021-02-08T09:16:50Z</time>
      </trkpt>
      <trkpt lat="45.69901" lon="6.27116">
        <ele>1797.6</ele>
        <time>2021-02-08T09:16:54Z</time>
      </trkpt>
      <trkpt lat="45.699" lon="6.27113">
        <ele>1798.4</ele>
        <time>2021-02-08T09:16:57Z</time>
      </trkpt>
      <trkpt lat="45.699" lon="6.27112">
        <ele>1798.5</ele>
        <time>2021-02-08T09:16:59Z</time>
      </trkpt>
      <trkpt lat="45.699" lon="6.27111">
        <ele>1798.6</ele>
        <time>2021-02-08T09:17:00Z</time>
      </trkpt>
      <trkpt lat="45.69899" lon="6.27108">
        <ele>1798.6</ele>
        <time>2021-02-08T09:17:04Z</time>
      </trkpt>
      <trkpt lat="45.69897" lon="6.27108">
        <ele>1799.8</ele>
        <time>2021-02-08T09:17:11Z</time>
      </trkpt>
      <trkpt lat="45.69897" lon="6.27108">
        <ele>1799.8</ele>
        <time>2021-02-08T09:17:12Z</time>
      </trkpt>
      <trkpt lat="45.69897" lon="6.27108">
        <ele>1799.8</ele>
        <time>2021-02-08T09:17:13Z</time>
      </trkpt>
      <trkpt lat="45.69894" lon="6.27111">
        <ele>1802</ele>
        <time>2021-02-08T09:17:21Z</time>
      </trkpt>
      <trkpt lat="45.69893" lon="6.27112">
        <ele>1802.6</ele>
        <time>2021-02-08T09:17:24Z</time>
      </trkpt>
      <trkpt lat="45.69892" lon="6.27115">
        <ele>1802.9</ele>
        <time>2021-02-08T09:17:29Z</time>
      </trkpt>
      <trkpt lat="45.69889" lon="6.27119">
        <ele>1804.4</ele>
        <time>2021-02-08T09:17:38Z</time>
      </trkpt>
      <trkpt lat="45.69888" lon="6.27121">
        <ele>1804.6</ele>
        <time>2021-02-08T09:17:40Z</time>
      </trkpt>
      <trkpt lat="45.69887" lon="6.27122">
        <ele>1805</ele>
        <time>2021-02-08T09:17:42Z</time>
      </trkpt>
      <trkpt lat="45.69887" lon="6.27123">
        <ele>1804.9</ele>
        <time>2021-02-08T09:17:44Z</time>
      </trkpt>
      <trkpt lat="45.69886" lon="6.27126">
        <ele>1805.1</ele>
        <time>2021-02-08T09:17:49Z</time>
      </trkpt>
      <trkpt lat="45.69884" lon="6.27128">
        <ele>1805.9</ele>
        <time>2021-02-08T09:17:54Z</time>
      </trkpt>
      <trkpt lat="45.6988" lon="6.27129">
        <ele>1807.5</ele>
        <time>2021-02-08T09:18:03Z</time>
      </trkpt>
      <trkpt lat="45.6988" lon="6.27129">
        <ele>1807.5</ele>
        <time>2021-02-08T09:18:04Z</time>
      </trkpt>
      <trkpt lat="45.6988" lon="6.2713">
        <ele>1807.5</ele>
        <time>2021-02-08T09:18:12Z</time>
      </trkpt>
      <trkpt lat="45.69881" lon="6.2713">
        <ele>1807.1</ele>
        <time>2021-02-08T09:18:15Z</time>
      </trkpt>
      <trkpt lat="45.6988" lon="6.2713">
        <ele>1807.5</ele>
        <time>2021-02-08T09:18:20Z</time>
      </trkpt>
      <trkpt lat="45.6988" lon="6.2713">
        <ele>1807.5</ele>
        <time>2021-02-08T09:18:24Z</time>
      </trkpt>
      <trkpt lat="45.6988" lon="6.2713">
        <ele>1807.5</ele>
        <time>2021-02-08T09:18:29Z</time>
      </trkpt>
      <trkpt lat="45.6988" lon="6.2713">
        <ele>1807.5</ele>
        <time>2021-02-08T09:18:35Z</time>
      </trkpt>
      <trkpt lat="45.69879" lon="6.27129">
        <ele>1808</ele>
        <time>2021-02-08T09:18:42Z</time>
      </trkpt>
      <trkpt lat="45.69879" lon="6.27129">
        <ele>1808</ele>
        <time>2021-02-08T09:18:45Z</time>
      </trkpt>
      <trkpt lat="45.69879" lon="6.27129">
        <ele>1808</ele>
        <time>2021-02-08T09:18:49Z</time>
      </trkpt>
      <trkpt lat="45.69879" lon="6.27129">
        <ele>1808</ele>
        <time>2021-02-08T09:18:50Z</time>
      </trkpt>
      <trkpt lat="45.69879" lon="6.27128">
        <ele>1808</ele>
        <time>2021-02-08T09:18:54Z</time>
      </trkpt>
      <trkpt lat="45.69877" lon="6.27128">
        <ele>1808.8</ele>
        <time>2021-02-08T09:19:00Z</time>
      </trkpt>
      <trkpt lat="45.69875" lon="6.27127">
        <ele>1809.7</ele>
        <time>2021-02-08T09:19:03Z</time>
      </trkpt>
      <trkpt lat="45.69873" lon="6.27125">
        <ele>1810.6</ele>
        <time>2021-02-08T09:19:06Z</time>
      </trkpt>
      <trkpt lat="45.69872" lon="6.27122">
        <ele>1811</ele>
        <time>2021-02-08T09:19:10Z</time>
      </trkpt>
      <trkpt lat="45.6987" lon="6.2712">
        <ele>1811.8</ele>
        <time>2021-02-08T09:19:14Z</time>
      </trkpt>
      <trkpt lat="45.69869" lon="6.2712">
        <ele>1812.2</ele>
        <time>2021-02-08T09:19:15Z</time>
      </trkpt>
      <trkpt lat="45.69868" lon="6.27118">
        <ele>1812.6</ele>
        <time>2021-02-08T09:19:17Z</time>
      </trkpt>
      <trkpt lat="45.69867" lon="6.27117">
        <ele>1813</ele>
        <time>2021-02-08T09:19:20Z</time>
      </trkpt>
      <trkpt lat="45.69865" lon="6.27116">
        <ele>1813.7</ele>
        <time>2021-02-08T09:19:24Z</time>
      </trkpt>
      <trkpt lat="45.69861" lon="6.27114">
        <ele>1815.2</ele>
        <time>2021-02-08T09:19:30Z</time>
      </trkpt>
      <trkpt lat="45.69861" lon="6.27114">
        <ele>1815.2</ele>
        <time>2021-02-08T09:19:31Z</time>
      </trkpt>
      <trkpt lat="45.69857" lon="6.27114">
        <ele>1817.2</ele>
        <time>2021-02-08T09:19:36Z</time>
      </trkpt>
      <trkpt lat="45.69855" lon="6.27115">
        <ele>1818.3</ele>
        <time>2021-02-08T09:19:40Z</time>
      </trkpt>
      <trkpt lat="45.69854" lon="6.27116">
        <ele>1818.8</ele>
        <time>2021-02-08T09:19:43Z</time>
      </trkpt>
      <trkpt lat="45.69853" lon="6.27117">
        <ele>1819.3</ele>
        <time>2021-02-08T09:19:46Z</time>
      </trkpt>
      <trkpt lat="45.69851" lon="6.2712">
        <ele>1820.2</ele>
        <time>2021-02-08T09:19:52Z</time>
      </trkpt>
      <trkpt lat="45.69849" lon="6.27123">
        <ele>1821</ele>
        <time>2021-02-08T09:19:57Z</time>
      </trkpt>
      <trkpt lat="45.69849" lon="6.27123">
        <ele>1821</ele>
        <time>2021-02-08T09:19:58Z</time>
      </trkpt>
      <trkpt lat="45.69848" lon="6.27126">
        <ele>1821.4</ele>
        <time>2021-02-08T09:20:02Z</time>
      </trkpt>
      <trkpt lat="45.69847" lon="6.27129">
        <ele>1821.6</ele>
        <time>2021-02-08T09:20:06Z</time>
      </trkpt>
      <trkpt lat="45.69846" lon="6.27131">
        <ele>1821.9</ele>
        <time>2021-02-08T09:20:10Z</time>
      </trkpt>
      <trkpt lat="45.69844" lon="6.27133">
        <ele>1822.6</ele>
        <time>2021-02-08T09:20:14Z</time>
      </trkpt>
      <trkpt lat="45.69842" lon="6.27137">
        <ele>1823</ele>
        <time>2021-02-08T09:20:20Z</time>
      </trkpt>
      <trkpt lat="45.69842" lon="6.27137">
        <ele>1823</ele>
        <time>2021-02-08T09:20:21Z</time>
      </trkpt>
      <trkpt lat="45.69838" lon="6.27142">
        <ele>1824.4</ele>
        <time>2021-02-08T09:20:29Z</time>
      </trkpt>
      <trkpt lat="45.69839" lon="6.27142">
        <ele>1824</ele>
        <time>2021-02-08T09:20:41Z</time>
      </trkpt>
      <trkpt lat="45.69839" lon="6.27142">
        <ele>1824</ele>
        <time>2021-02-08T09:20:47Z</time>
      </trkpt>
      <trkpt lat="45.69839" lon="6.27142">
        <ele>1824</ele>
        <time>2021-02-08T09:20:52Z</time>
      </trkpt>
      <trkpt lat="45.69839" lon="6.27142">
        <ele>1824</ele>
        <time>2021-02-08T09:20:57Z</time>
      </trkpt>
      <trkpt lat="45.69838" lon="6.27142">
        <ele>1824.4</ele>
        <time>2021-02-08T09:21:03Z</time>
      </trkpt>
      <trkpt lat="45.69838" lon="6.27144">
        <ele>1824.5</ele>
        <time>2021-02-08T09:21:07Z</time>
      </trkpt>
      <trkpt lat="45.69837" lon="6.27146">
        <ele>1824.9</ele>
        <time>2021-02-08T09:21:09Z</time>
      </trkpt>
      <trkpt lat="45.69837" lon="6.27147">
        <ele>1824.9</ele>
        <time>2021-02-08T09:21:10Z</time>
      </trkpt>
      <trkpt lat="45.69836" lon="6.27149">
        <ele>1825.4</ele>
        <time>2021-02-08T09:21:12Z</time>
      </trkpt>
      <trkpt lat="45.69832" lon="6.27153">
        <ele>1826.6</ele>
        <time>2021-02-08T09:21:19Z</time>
      </trkpt>
      <trkpt lat="45.6983" lon="6.27153">
        <ele>1826.8</ele>
        <time>2021-02-08T09:21:21Z</time>
      </trkpt>
      <trkpt lat="45.69829" lon="6.27154">
        <ele>1826.9</ele>
        <time>2021-02-08T09:21:23Z</time>
      </trkpt>
      <trkpt lat="45.69828" lon="6.27154">
        <ele>1827</ele>
        <time>2021-02-08T09:21:25Z</time>
      </trkpt>
      <trkpt lat="45.69824" lon="6.27156">
        <ele>1827.3</ele>
        <time>2021-02-08T09:21:30Z</time>
      </trkpt>
      <trkpt lat="45.69823" lon="6.27156">
        <ele>1827.4</ele>
        <time>2021-02-08T09:21:31Z</time>
      </trkpt>
      <trkpt lat="45.69823" lon="6.27156">
        <ele>1827.4</ele>
        <time>2021-02-08T09:21:32Z</time>
      </trkpt>
      <trkpt lat="45.6982" lon="6.27156">
        <ele>1827.6</ele>
        <time>2021-02-08T09:21:37Z</time>
      </trkpt>
      <trkpt lat="45.69814" lon="6.27156">
        <ele>1828.1</ele>
        <time>2021-02-08T09:21:46Z</time>
      </trkpt>
      <trkpt lat="45.69814" lon="6.27156">
        <ele>1828.1</ele>
        <time>2021-02-08T09:21:47Z</time>
      </trkpt>
      <trkpt lat="45.69812" lon="6.27154">
        <ele>1828.4</ele>
        <time>2021-02-08T09:21:50Z</time>
      </trkpt>
      <trkpt lat="45.69809" lon="6.2715">
        <ele>1828.9</ele>
        <time>2021-02-08T09:21:55Z</time>
      </trkpt>
      <trkpt lat="45.69808" lon="6.27146">
        <ele>1829.2</ele>
        <time>2021-02-08T09:22:01Z</time>
      </trkpt>
      <trkpt lat="45.69808" lon="6.27145">
        <ele>1829.3</ele>
        <time>2021-02-08T09:22:02Z</time>
      </trkpt>
      <trkpt lat="45.69807" lon="6.27139">
        <ele>1829.8</ele>
        <time>2021-02-08T09:22:09Z</time>
      </trkpt>
      <trkpt lat="45.69806" lon="6.27135">
        <ele>1830.2</ele>
        <time>2021-02-08T09:22:14Z</time>
      </trkpt>
      <trkpt lat="45.69805" lon="6.27134">
        <ele>1830.4</ele>
        <time>2021-02-08T09:22:15Z</time>
      </trkpt>
      <trkpt lat="45.69804" lon="6.27131">
        <ele>1830.6</ele>
        <time>2021-02-08T09:22:19Z</time>
      </trkpt>
      <trkpt lat="45.69803" lon="6.27123">
        <ele>1831.1</ele>
        <time>2021-02-08T09:22:28Z</time>
      </trkpt>
      <trkpt lat="45.69803" lon="6.27118">
        <ele>1831.5</ele>
        <time>2021-02-08T09:22:35Z</time>
      </trkpt>
      <trkpt lat="45.69804" lon="6.27118">
        <ele>1831.5</ele>
        <time>2021-02-08T09:22:37Z</time>
      </trkpt>
      <trkpt lat="45.69804" lon="6.27117">
        <ele>1831.6</ele>
        <time>2021-02-08T09:22:39Z</time>
      </trkpt>
      <trkpt lat="45.69804" lon="6.27117">
        <ele>1831.6</ele>
        <time>2021-02-08T09:22:40Z</time>
      </trkpt>
      <trkpt lat="45.69804" lon="6.27118">
        <ele>1831.5</ele>
        <time>2021-02-08T09:22:44Z</time>
      </trkpt>
      <trkpt lat="45.69804" lon="6.27118">
        <ele>1831.5</ele>
        <time>2021-02-08T09:22:45Z</time>
      </trkpt>
      <trkpt lat="45.69804" lon="6.27119">
        <ele>1831.4</ele>
        <time>2021-02-08T09:22:50Z</time>
      </trkpt>
      <trkpt lat="45.69804" lon="6.27119">
        <ele>1831.4</ele>
        <time>2021-02-08T09:22:51Z</time>
      </trkpt>
      <trkpt lat="45.69805" lon="6.27119">
        <ele>1831.4</ele>
        <time>2021-02-08T09:22:52Z</time>
      </trkpt>
      <trkpt lat="45.69805" lon="6.27119">
        <ele>1831.4</ele>
        <time>2021-02-08T09:22:56Z</time>
      </trkpt>
      <trkpt lat="45.69802" lon="6.27115">
        <ele>1831.7</ele>
        <time>2021-02-08T09:23:02Z</time>
      </trkpt>
      <trkpt lat="45.69798" lon="6.27105">
        <ele>1832.5</ele>
        <time>2021-02-08T09:23:06Z</time>
      </trkpt>
      <trkpt lat="45.69797" lon="6.27102">
        <ele>1832.8</ele>
        <time>2021-02-08T09:23:07Z</time>
      </trkpt>
      <trkpt lat="45.69797" lon="6.271">
        <ele>1833</ele>
        <time>2021-02-08T09:23:08Z</time>
      </trkpt>
      <trkpt lat="45.69795" lon="6.27095">
        <ele>1833.3</ele>
        <time>2021-02-08T09:23:12Z</time>
      </trkpt>
      <trkpt lat="45.69795" lon="6.27094">
        <ele>1833.4</ele>
        <time>2021-02-08T09:23:13Z</time>
      </trkpt>
      <trkpt lat="45.69794" lon="6.27092">
        <ele>1833.5</ele>
        <time>2021-02-08T09:23:15Z</time>
      </trkpt>
      <trkpt lat="45.69793" lon="6.27089">
        <ele>1833.7</ele>
        <time>2021-02-08T09:23:18Z</time>
      </trkpt>
      <trkpt lat="45.69792" lon="6.27089">
        <ele>1833.6</ele>
        <time>2021-02-08T09:23:19Z</time>
      </trkpt>
      <trkpt lat="45.69792" lon="6.27086">
        <ele>1833.8</ele>
        <time>2021-02-08T09:23:22Z</time>
      </trkpt>
      <trkpt lat="45.69792" lon="6.27085">
        <ele>1833.9</ele>
        <time>2021-02-08T09:23:24Z</time>
      </trkpt>
      <trkpt lat="45.69791" lon="6.27081">
        <ele>1834.4</ele>
        <time>2021-02-08T09:23:28Z</time>
      </trkpt>
      <trkpt lat="45.69791" lon="6.2708">
        <ele>1834.5</ele>
        <time>2021-02-08T09:23:30Z</time>
      </trkpt>
      <trkpt lat="45.69791" lon="6.27074">
        <ele>1835.6</ele>
        <time>2021-02-08T09:23:36Z</time>
      </trkpt>
      <trkpt lat="45.69791" lon="6.27072">
        <ele>1836</ele>
        <time>2021-02-08T09:23:38Z</time>
      </trkpt>
      <trkpt lat="45.69791" lon="6.2707">
        <ele>1836.3</ele>
        <time>2021-02-08T09:23:41Z</time>
      </trkpt>
      <trkpt lat="45.6979" lon="6.27069">
        <ele>1836.4</ele>
        <time>2021-02-08T09:23:43Z</time>
      </trkpt>
      <trkpt lat="45.6979" lon="6.27067">
        <ele>1836.7</ele>
        <time>2021-02-08T09:23:45Z</time>
      </trkpt>
      <trkpt lat="45.6979" lon="6.27063">
        <ele>1837.5</ele>
        <time>2021-02-08T09:23:50Z</time>
      </trkpt>
      <trkpt lat="45.69789" lon="6.27059">
        <ele>1838</ele>
        <time>2021-02-08T09:23:54Z</time>
      </trkpt>
      <trkpt lat="45.69788" lon="6.27053">
        <ele>1839</ele>
        <time>2021-02-08T09:24:02Z</time>
      </trkpt>
      <trkpt lat="45.69788" lon="6.27051">
        <ele>1839.4</ele>
        <time>2021-02-08T09:24:04Z</time>
      </trkpt>
      <trkpt lat="45.69786" lon="6.27048">
        <ele>1839.8</ele>
        <time>2021-02-08T09:24:09Z</time>
      </trkpt>
      <trkpt lat="45.69783" lon="6.27043">
        <ele>1840.6</ele>
        <time>2021-02-08T09:24:15Z</time>
      </trkpt>
      <trkpt lat="45.69783" lon="6.27042">
        <ele>1840.8</ele>
        <time>2021-02-08T09:24:16Z</time>
      </trkpt>
      <trkpt lat="45.69781" lon="6.27041">
        <ele>1840.9</ele>
        <time>2021-02-08T09:24:20Z</time>
      </trkpt>
      <trkpt lat="45.69777" lon="6.27037">
        <ele>1841.9</ele>
        <time>2021-02-08T09:24:27Z</time>
      </trkpt>
      <trkpt lat="45.69776" lon="6.27037">
        <ele>1842.2</ele>
        <time>2021-02-08T09:24:28Z</time>
      </trkpt>
      <trkpt lat="45.69773" lon="6.27032">
        <ele>1844.3</ele>
        <time>2021-02-08T09:24:35Z</time>
      </trkpt>
      <trkpt lat="45.69773" lon="6.27031">
        <ele>1844.6</ele>
        <time>2021-02-08T09:24:37Z</time>
      </trkpt>
      <trkpt lat="45.69772" lon="6.27029">
        <ele>1845.4</ele>
        <time>2021-02-08T09:24:40Z</time>
      </trkpt>
      <trkpt lat="45.69771" lon="6.27028">
        <ele>1845.9</ele>
        <time>2021-02-08T09:24:44Z</time>
      </trkpt>
      <trkpt lat="45.69769" lon="6.27025">
        <ele>1846.9</ele>
        <time>2021-02-08T09:24:48Z</time>
      </trkpt>
      <trkpt lat="45.69768" lon="6.27023">
        <ele>1847.5</ele>
        <time>2021-02-08T09:24:50Z</time>
      </trkpt>
      <trkpt lat="45.69767" lon="6.27021">
        <ele>1848</ele>
        <time>2021-02-08T09:24:53Z</time>
      </trkpt>
      <trkpt lat="45.69765" lon="6.27016">
        <ele>1849.1</ele>
        <time>2021-02-08T09:25:00Z</time>
      </trkpt>
      <trkpt lat="45.69764" lon="6.27015">
        <ele>1849.4</ele>
        <time>2021-02-08T09:25:02Z</time>
      </trkpt>
      <trkpt lat="45.69759" lon="6.27008">
        <ele>1850.8</ele>
        <time>2021-02-08T09:25:12Z</time>
      </trkpt>
      <trkpt lat="45.69758" lon="6.27007">
        <ele>1851</ele>
        <time>2021-02-08T09:25:13Z</time>
      </trkpt>
      <trkpt lat="45.69758" lon="6.27007">
        <ele>1851</ele>
        <time>2021-02-08T09:25:14Z</time>
      </trkpt>
      <trkpt lat="45.69756" lon="6.27005">
        <ele>1851.3</ele>
        <time>2021-02-08T09:25:21Z</time>
      </trkpt>
      <trkpt lat="45.69755" lon="6.27004">
        <ele>1851.5</ele>
        <time>2021-02-08T09:25:23Z</time>
      </trkpt>
      <trkpt lat="45.69754" lon="6.27002">
        <ele>1851.6</ele>
        <time>2021-02-08T09:25:26Z</time>
      </trkpt>
      <trkpt lat="45.69753" lon="6.27002">
        <ele>1851.7</ele>
        <time>2021-02-08T09:25:28Z</time>
      </trkpt>
      <trkpt lat="45.69751" lon="6.26999">
        <ele>1852</ele>
        <time>2021-02-08T09:25:36Z</time>
      </trkpt>
      <trkpt lat="45.69751" lon="6.26998">
        <ele>1852.1</ele>
        <time>2021-02-08T09:25:38Z</time>
      </trkpt>
      <trkpt lat="45.6975" lon="6.26997">
        <ele>1852.2</ele>
        <time>2021-02-08T09:25:41Z</time>
      </trkpt>
      <trkpt lat="45.69748" lon="6.26996">
        <ele>1852.5</ele>
        <time>2021-02-08T09:25:44Z</time>
      </trkpt>
      <trkpt lat="45.69746" lon="6.26993">
        <ele>1853</ele>
        <time>2021-02-08T09:25:48Z</time>
      </trkpt>
      <trkpt lat="45.69745" lon="6.26991">
        <ele>1853.4</ele>
        <time>2021-02-08T09:25:50Z</time>
      </trkpt>
      <trkpt lat="45.69742" lon="6.26982">
        <ele>1854.7</ele>
        <time>2021-02-08T09:25:59Z</time>
      </trkpt>
      <trkpt lat="45.69742" lon="6.26982">
        <ele>1854.7</ele>
        <time>2021-02-08T09:26:00Z</time>
      </trkpt>
      <trkpt lat="45.69741" lon="6.26976">
        <ele>1855.5</ele>
        <time>2021-02-08T09:26:07Z</time>
      </trkpt>
      <trkpt lat="45.69741" lon="6.26976">
        <ele>1855.5</ele>
        <time>2021-02-08T09:26:08Z</time>
      </trkpt>
      <trkpt lat="45.6974" lon="6.26972">
        <ele>1856.2</ele>
        <time>2021-02-08T09:26:12Z</time>
      </trkpt>
      <trkpt lat="45.69734" lon="6.26967">
        <ele>1858.2</ele>
        <time>2021-02-08T09:26:20Z</time>
      </trkpt>
      <trkpt lat="45.69734" lon="6.26967">
        <ele>1858.2</ele>
        <time>2021-02-08T09:26:21Z</time>
      </trkpt>
      <trkpt lat="45.69733" lon="6.26966">
        <ele>1858.5</ele>
        <time>2021-02-08T09:26:22Z</time>
      </trkpt>
      <trkpt lat="45.69733" lon="6.26966">
        <ele>1858.5</ele>
        <time>2021-02-08T09:26:23Z</time>
      </trkpt>
      <trkpt lat="45.69732" lon="6.26966">
        <ele>1858.8</ele>
        <time>2021-02-08T09:26:25Z</time>
      </trkpt>
      <trkpt lat="45.69731" lon="6.26966">
        <ele>1859</ele>
        <time>2021-02-08T09:26:28Z</time>
      </trkpt>
      <trkpt lat="45.6973" lon="6.26966">
        <ele>1859.3</ele>
        <time>2021-02-08T09:26:32Z</time>
      </trkpt>
      <trkpt lat="45.69729" lon="6.26966">
        <ele>1859.5</ele>
        <time>2021-02-08T09:26:33Z</time>
      </trkpt>
      <trkpt lat="45.69728" lon="6.26966">
        <ele>1859.7</ele>
        <time>2021-02-08T09:26:35Z</time>
      </trkpt>
      <trkpt lat="45.69728" lon="6.26966">
        <ele>1859.7</ele>
        <time>2021-02-08T09:26:37Z</time>
      </trkpt>
      <trkpt lat="45.69727" lon="6.26966">
        <ele>1860</ele>
        <time>2021-02-08T09:26:38Z</time>
      </trkpt>
      <trkpt lat="45.69726" lon="6.26966">
        <ele>1860.2</ele>
        <time>2021-02-08T09:26:40Z</time>
      </trkpt>
      <trkpt lat="45.69725" lon="6.26966">
        <ele>1860.5</ele>
        <time>2021-02-08T09:26:42Z</time>
      </trkpt>
      <trkpt lat="45.69725" lon="6.26966">
        <ele>1860.5</ele>
        <time>2021-02-08T09:26:43Z</time>
      </trkpt>
      <trkpt lat="45.69721" lon="6.26966">
        <ele>1861.2</ele>
        <time>2021-02-08T09:26:51Z</time>
      </trkpt>
      <trkpt lat="45.6972" lon="6.26966">
        <ele>1861.3</ele>
        <time>2021-02-08T09:26:54Z</time>
      </trkpt>
      <trkpt lat="45.69717" lon="6.26966">
        <ele>1861.6</ele>
        <time>2021-02-08T09:26:58Z</time>
      </trkpt>
      <trkpt lat="45.69715" lon="6.26965">
        <ele>1862</ele>
        <time>2021-02-08T09:27:02Z</time>
      </trkpt>
      <trkpt lat="45.69714" lon="6.26965">
        <ele>1862.1</ele>
        <time>2021-02-08T09:27:04Z</time>
      </trkpt>
      <trkpt lat="45.69713" lon="6.26964">
        <ele>1862.5</ele>
        <time>2021-02-08T09:27:06Z</time>
      </trkpt>
      <trkpt lat="45.6971" lon="6.26963">
        <ele>1863.1</ele>
        <time>2021-02-08T09:27:12Z</time>
      </trkpt>
      <trkpt lat="45.69708" lon="6.26962">
        <ele>1863.7</ele>
        <time>2021-02-08T09:27:14Z</time>
      </trkpt>
      <trkpt lat="45.69707" lon="6.26961">
        <ele>1864.1</ele>
        <time>2021-02-08T09:27:17Z</time>
      </trkpt>
      <trkpt lat="45.69705" lon="6.2696">
        <ele>1864.7</ele>
        <time>2021-02-08T09:27:21Z</time>
      </trkpt>
      <trkpt lat="45.69705" lon="6.2696">
        <ele>1864.7</ele>
        <time>2021-02-08T09:27:22Z</time>
      </trkpt>
      <trkpt lat="45.69703" lon="6.26959">
        <ele>1865.4</ele>
        <time>2021-02-08T09:27:26Z</time>
      </trkpt>
      <trkpt lat="45.69699" lon="6.26957">
        <ele>1866.8</ele>
        <time>2021-02-08T09:27:33Z</time>
      </trkpt>
      <trkpt lat="45.69698" lon="6.26956">
        <ele>1867.4</ele>
        <time>2021-02-08T09:27:35Z</time>
      </trkpt>
      <trkpt lat="45.69697" lon="6.26954">
        <ele>1868.4</ele>
        <time>2021-02-08T09:27:39Z</time>
      </trkpt>
      <trkpt lat="45.69696" lon="6.26952">
        <ele>1869.4</ele>
        <time>2021-02-08T09:27:42Z</time>
      </trkpt>
      <trkpt lat="45.69694" lon="6.26952">
        <ele>1869.7</ele>
        <time>2021-02-08T09:27:44Z</time>
      </trkpt>
      <trkpt lat="45.69691" lon="6.2695">
        <ele>1870.4</ele>
        <time>2021-02-08T09:27:51Z</time>
      </trkpt>
      <trkpt lat="45.69689" lon="6.26949">
        <ele>1870.7</ele>
        <time>2021-02-08T09:27:54Z</time>
      </trkpt>
      <trkpt lat="45.69687" lon="6.26948">
        <ele>1870.9</ele>
        <time>2021-02-08T09:27:57Z</time>
      </trkpt>
      <trkpt lat="45.69686" lon="6.26945">
        <ele>1871.9</ele>
        <time>2021-02-08T09:28:02Z</time>
      </trkpt>
      <trkpt lat="45.69684" lon="6.26943">
        <ele>1872</ele>
        <time>2021-02-08T09:28:05Z</time>
      </trkpt>
      <trkpt lat="45.69683" lon="6.26943">
        <ele>1871.9</ele>
        <time>2021-02-08T09:28:07Z</time>
      </trkpt>
      <trkpt lat="45.6968" lon="6.26938">
        <ele>1872.3</ele>
        <time>2021-02-08T09:28:15Z</time>
      </trkpt>
      <trkpt lat="45.6968" lon="6.26936">
        <ele>1872.5</ele>
        <time>2021-02-08T09:28:18Z</time>
      </trkpt>
      <trkpt lat="45.69679" lon="6.26936">
        <ele>1872.4</ele>
        <time>2021-02-08T09:28:19Z</time>
      </trkpt>
      <trkpt lat="45.69678" lon="6.26933">
        <ele>1872.7</ele>
        <time>2021-02-08T09:28:23Z</time>
      </trkpt>
      <trkpt lat="45.69676" lon="6.2693">
        <ele>1872.9</ele>
        <time>2021-02-08T09:28:27Z</time>
      </trkpt>
      <trkpt lat="45.69676" lon="6.26927">
        <ele>1873.3</ele>
        <time>2021-02-08T09:28:30Z</time>
      </trkpt>
      <trkpt lat="45.69675" lon="6.26925">
        <ele>1873.5</ele>
        <time>2021-02-08T09:28:32Z</time>
      </trkpt>
      <trkpt lat="45.69673" lon="6.26924">
        <ele>1873.5</ele>
        <time>2021-02-08T09:28:35Z</time>
      </trkpt>
      <trkpt lat="45.69673" lon="6.26923">
        <ele>1873.6</ele>
        <time>2021-02-08T09:28:36Z</time>
      </trkpt>
      <trkpt lat="45.69672" lon="6.26922">
        <ele>1873.7</ele>
        <time>2021-02-08T09:28:37Z</time>
      </trkpt>
      <trkpt lat="45.69668" lon="6.26917">
        <ele>1874</ele>
        <time>2021-02-08T09:28:44Z</time>
      </trkpt>
      <trkpt lat="45.69664" lon="6.26912">
        <ele>1875.5</ele>
        <time>2021-02-08T09:28:50Z</time>
      </trkpt>
      <trkpt lat="45.69663" lon="6.26908">
        <ele>1876.6</ele>
        <time>2021-02-08T09:28:55Z</time>
      </trkpt>
      <trkpt lat="45.69662" lon="6.26907">
        <ele>1877</ele>
        <time>2021-02-08T09:28:56Z</time>
      </trkpt>
      <trkpt lat="45.69662" lon="6.26905">
        <ele>1877.5</ele>
        <time>2021-02-08T09:28:59Z</time>
      </trkpt>
      <trkpt lat="45.69661" lon="6.26901">
        <ele>1878.7</ele>
        <time>2021-02-08T09:29:05Z</time>
      </trkpt>
      <trkpt lat="45.69661" lon="6.26899">
        <ele>1879.2</ele>
        <time>2021-02-08T09:29:08Z</time>
      </trkpt>
      <trkpt lat="45.69662" lon="6.26898">
        <ele>1879.2</ele>
        <time>2021-02-08T09:29:10Z</time>
      </trkpt>
      <trkpt lat="45.69662" lon="6.26896">
        <ele>1879.6</ele>
        <time>2021-02-08T09:29:12Z</time>
      </trkpt>
      <trkpt lat="45.69662" lon="6.26895">
        <ele>1879.9</ele>
        <time>2021-02-08T09:29:14Z</time>
      </trkpt>
      <trkpt lat="45.69661" lon="6.26894">
        <ele>1880.4</ele>
        <time>2021-02-08T09:29:15Z</time>
      </trkpt>
      <trkpt lat="45.69662" lon="6.26892">
        <ele>1880.6</ele>
        <time>2021-02-08T09:29:19Z</time>
      </trkpt>
      <trkpt lat="45.69662" lon="6.2689">
        <ele>1881.1</ele>
        <time>2021-02-08T09:29:23Z</time>
      </trkpt>
      <trkpt lat="45.69662" lon="6.26889">
        <ele>1881.3</ele>
        <time>2021-02-08T09:29:24Z</time>
      </trkpt>
      <trkpt lat="45.69662" lon="6.26888">
        <ele>1881.7</ele>
        <time>2021-02-08T09:29:26Z</time>
      </trkpt>
      <trkpt lat="45.69662" lon="6.26886">
        <ele>1882.5</ele>
        <time>2021-02-08T09:29:29Z</time>
      </trkpt>
      <trkpt lat="45.69662" lon="6.26885">
        <ele>1882.8</ele>
        <time>2021-02-08T09:29:31Z</time>
      </trkpt>
      <trkpt lat="45.69663" lon="6.26881">
        <ele>1884</ele>
        <time>2021-02-08T09:29:37Z</time>
      </trkpt>
      <trkpt lat="45.69664" lon="6.2688">
        <ele>1884.1</ele>
        <time>2021-02-08T09:29:38Z</time>
      </trkpt>
      <trkpt lat="45.69664" lon="6.26879">
        <ele>1884.5</ele>
        <time>2021-02-08T09:29:40Z</time>
      </trkpt>
      <trkpt lat="45.69665" lon="6.26877">
        <ele>1884.9</ele>
        <time>2021-02-08T09:29:43Z</time>
      </trkpt>
      <trkpt lat="45.69665" lon="6.26876">
        <ele>1885.2</ele>
        <time>2021-02-08T09:29:45Z</time>
      </trkpt>
      <trkpt lat="45.69665" lon="6.26875">
        <ele>1885.6</ele>
        <time>2021-02-08T09:29:49Z</time>
      </trkpt>
      <trkpt lat="45.69665" lon="6.26874">
        <ele>1886</ele>
        <time>2021-02-08T09:29:51Z</time>
      </trkpt>
      <trkpt lat="45.69665" lon="6.26873">
        <ele>1886.3</ele>
        <time>2021-02-08T09:29:53Z</time>
      </trkpt>
      <trkpt lat="45.69664" lon="6.26872">
        <ele>1887.1</ele>
        <time>2021-02-08T09:29:56Z</time>
      </trkpt>
      <trkpt lat="45.69663" lon="6.2687">
        <ele>1888.2</ele>
        <time>2021-02-08T09:30:02Z</time>
      </trkpt>
      <trkpt lat="45.69664" lon="6.26869">
        <ele>1888.2</ele>
        <time>2021-02-08T09:30:03Z</time>
      </trkpt>
      <trkpt lat="45.69665" lon="6.26864">
        <ele>1889.7</ele>
        <time>2021-02-08T09:30:10Z</time>
      </trkpt>
      <trkpt lat="45.69666" lon="6.26864">
        <ele>1889.2</ele>
        <time>2021-02-08T09:30:11Z</time>
      </trkpt>
      <trkpt lat="45.69666" lon="6.26861">
        <ele>1890.3</ele>
        <time>2021-02-08T09:30:17Z</time>
      </trkpt>
      <trkpt lat="45.69667" lon="6.2686">
        <ele>1890.3</ele>
        <time>2021-02-08T09:30:18Z</time>
      </trkpt>
      <trkpt lat="45.69667" lon="6.26858">
        <ele>1890.8</ele>
        <time>2021-02-08T09:30:22Z</time>
      </trkpt>
      <trkpt lat="45.69668" lon="6.26856">
        <ele>1891.3</ele>
        <time>2021-02-08T09:30:25Z</time>
      </trkpt>
      <trkpt lat="45.69669" lon="6.26851">
        <ele>1892.5</ele>
        <time>2021-02-08T09:30:30Z</time>
      </trkpt>
      <trkpt lat="45.69671" lon="6.26847">
        <ele>1893.4</ele>
        <time>2021-02-08T09:30:36Z</time>
      </trkpt>
      <trkpt lat="45.69671" lon="6.26844">
        <ele>1894.2</ele>
        <time>2021-02-08T09:30:42Z</time>
      </trkpt>
      <trkpt lat="45.69671" lon="6.26842">
        <ele>1894.8</ele>
        <time>2021-02-08T09:30:45Z</time>
      </trkpt>
      <trkpt lat="45.69672" lon="6.26841">
        <ele>1894.9</ele>
        <time>2021-02-08T09:30:46Z</time>
      </trkpt>
      <trkpt lat="45.69672" lon="6.26837">
        <ele>1896</ele>
        <time>2021-02-08T09:30:50Z</time>
      </trkpt>
      <trkpt lat="45.69672" lon="6.26835">
        <ele>1896.6</ele>
        <time>2021-02-08T09:30:53Z</time>
      </trkpt>
      <trkpt lat="45.69672" lon="6.26832">
        <ele>1897.2</ele>
        <time>2021-02-08T09:30:56Z</time>
      </trkpt>
      <trkpt lat="45.69672" lon="6.26827">
        <ele>1897.6</ele>
        <time>2021-02-08T09:31:01Z</time>
      </trkpt>
      <trkpt lat="45.69671" lon="6.26824">
        <ele>1898.1</ele>
        <time>2021-02-08T09:31:06Z</time>
      </trkpt>
      <trkpt lat="45.6967" lon="6.26822">
        <ele>1898.5</ele>
        <time>2021-02-08T09:31:09Z</time>
      </trkpt>
      <trkpt lat="45.69669" lon="6.26819">
        <ele>1899</ele>
        <time>2021-02-08T09:31:14Z</time>
      </trkpt>
      <trkpt lat="45.6967" lon="6.26816">
        <ele>1899.1</ele>
        <time>2021-02-08T09:31:17Z</time>
      </trkpt>
      <trkpt lat="45.6967" lon="6.26813">
        <ele>1899.4</ele>
        <time>2021-02-08T09:31:20Z</time>
      </trkpt>
      <trkpt lat="45.69669" lon="6.2681">
        <ele>1900</ele>
        <time>2021-02-08T09:31:25Z</time>
      </trkpt>
      <trkpt lat="45.69668" lon="6.2681">
        <ele>1900.2</ele>
        <time>2021-02-08T09:31:26Z</time>
      </trkpt>
      <trkpt lat="45.69668" lon="6.26809">
        <ele>1900.3</ele>
        <time>2021-02-08T09:31:27Z</time>
      </trkpt>
      <trkpt lat="45.69668" lon="6.26808">
        <ele>1900.4</ele>
        <time>2021-02-08T09:31:29Z</time>
      </trkpt>
      <trkpt lat="45.69668" lon="6.26806">
        <ele>1900.6</ele>
        <time>2021-02-08T09:31:32Z</time>
      </trkpt>
      <trkpt lat="45.69668" lon="6.26804">
        <ele>1900.8</ele>
        <time>2021-02-08T09:31:35Z</time>
      </trkpt>
      <trkpt lat="45.69668" lon="6.26802">
        <ele>1901</ele>
        <time>2021-02-08T09:31:38Z</time>
      </trkpt>
      <trkpt lat="45.69668" lon="6.268">
        <ele>1901.3</ele>
        <time>2021-02-08T09:31:40Z</time>
      </trkpt>
      <trkpt lat="45.69668" lon="6.26799">
        <ele>1901.4</ele>
        <time>2021-02-08T09:31:41Z</time>
      </trkpt>
      <trkpt lat="45.69668" lon="6.26796">
        <ele>1901.7</ele>
        <time>2021-02-08T09:31:44Z</time>
      </trkpt>
      <trkpt lat="45.69668" lon="6.26794">
        <ele>1901.9</ele>
        <time>2021-02-08T09:31:45Z</time>
      </trkpt>
      <trkpt lat="45.69668" lon="6.26793">
        <ele>1902</ele>
        <time>2021-02-08T09:31:46Z</time>
      </trkpt>
      <trkpt lat="45.69668" lon="6.26784">
        <ele>1903</ele>
        <time>2021-02-08T09:31:53Z</time>
      </trkpt>
      <trkpt lat="45.69668" lon="6.26782">
        <ele>1903.2</ele>
        <time>2021-02-08T09:31:55Z</time>
      </trkpt>
      <trkpt lat="45.69668" lon="6.2678">
        <ele>1903.4</ele>
        <time>2021-02-08T09:31:58Z</time>
      </trkpt>
      <trkpt lat="45.69668" lon="6.26778">
        <ele>1903.6</ele>
        <time>2021-02-08T09:32:00Z</time>
      </trkpt>
      <trkpt lat="45.69667" lon="6.26776">
        <ele>1904.1</ele>
        <time>2021-02-08T09:32:04Z</time>
      </trkpt>
      <trkpt lat="45.69667" lon="6.26775">
        <ele>1904.2</ele>
        <time>2021-02-08T09:32:05Z</time>
      </trkpt>
      <trkpt lat="45.69666" lon="6.26772">
        <ele>1904.9</ele>
        <time>2021-02-08T09:32:12Z</time>
      </trkpt>
      <trkpt lat="45.69666" lon="6.2677">
        <ele>1905.2</ele>
        <time>2021-02-08T09:32:16Z</time>
      </trkpt>
      <trkpt lat="45.69665" lon="6.2677">
        <ele>1905.6</ele>
        <time>2021-02-08T09:32:17Z</time>
      </trkpt>
      <trkpt lat="45.69665" lon="6.26768">
        <ele>1905.9</ele>
        <time>2021-02-08T09:32:21Z</time>
      </trkpt>
      <trkpt lat="45.69662" lon="6.26767">
        <ele>1907.4</ele>
        <time>2021-02-08T09:32:26Z</time>
      </trkpt>
      <trkpt lat="45.69662" lon="6.26766">
        <ele>1907.5</ele>
        <time>2021-02-08T09:32:27Z</time>
      </trkpt>
      <trkpt lat="45.69661" lon="6.26766">
        <ele>1908</ele>
        <time>2021-02-08T09:32:28Z</time>
      </trkpt>
      <trkpt lat="45.69658" lon="6.26763">
        <ele>1909.8</ele>
        <time>2021-02-08T09:32:34Z</time>
      </trkpt>
      <trkpt lat="45.69656" lon="6.2676">
        <ele>1911.2</ele>
        <time>2021-02-08T09:32:40Z</time>
      </trkpt>
      <trkpt lat="45.69656" lon="6.2676">
        <ele>1911.2</ele>
        <time>2021-02-08T09:32:41Z</time>
      </trkpt>
      <trkpt lat="45.69655" lon="6.26759">
        <ele>1911.8</ele>
        <time>2021-02-08T09:32:43Z</time>
      </trkpt>
      <trkpt lat="45.69655" lon="6.26758">
        <ele>1911.9</ele>
        <time>2021-02-08T09:32:44Z</time>
      </trkpt>
      <trkpt lat="45.69654" lon="6.26757">
        <ele>1912.5</ele>
        <time>2021-02-08T09:32:47Z</time>
      </trkpt>
      <trkpt lat="45.69654" lon="6.26757">
        <ele>1912.5</ele>
        <time>2021-02-08T09:32:51Z</time>
      </trkpt>
      <trkpt lat="45.69652" lon="6.26759">
        <ele>1913.2</ele>
        <time>2021-02-08T09:32:55Z</time>
      </trkpt>
      <trkpt lat="45.6965" lon="6.26762">
        <ele>1913.8</ele>
        <time>2021-02-08T09:33:01Z</time>
      </trkpt>
      <trkpt lat="45.6965" lon="6.26762">
        <ele>1913.8</ele>
        <time>2021-02-08T09:33:02Z</time>
      </trkpt>
      <trkpt lat="45.69649" lon="6.26763">
        <ele>1914.2</ele>
        <time>2021-02-08T09:33:05Z</time>
      </trkpt>
      <trkpt lat="45.69648" lon="6.26765">
        <ele>1914.4</ele>
        <time>2021-02-08T09:33:08Z</time>
      </trkpt>
      <trkpt lat="45.69647" lon="6.26767">
        <ele>1914.6</ele>
        <time>2021-02-08T09:33:11Z</time>
      </trkpt>
      <trkpt lat="45.69647" lon="6.26767">
        <ele>1914.6</ele>
        <time>2021-02-08T09:33:12Z</time>
      </trkpt>
      <trkpt lat="45.69645" lon="6.26769">
        <ele>1915.3</ele>
        <time>2021-02-08T09:33:15Z</time>
      </trkpt>
      <trkpt lat="45.69645" lon="6.26769">
        <ele>1915.3</ele>
        <time>2021-02-08T09:33:17Z</time>
      </trkpt>
      <trkpt lat="45.69644" lon="6.2677">
        <ele>1915.7</ele>
        <time>2021-02-08T09:33:21Z</time>
      </trkpt>
      <trkpt lat="45.69642" lon="6.26768">
        <ele>1916.9</ele>
        <time>2021-02-08T09:33:26Z</time>
      </trkpt>
      <trkpt lat="45.69642" lon="6.26768">
        <ele>1916.9</ele>
        <time>2021-02-08T09:33:28Z</time>
      </trkpt>
      <trkpt lat="45.6964" lon="6.26766">
        <ele>1918.2</ele>
        <time>2021-02-08T09:33:34Z</time>
      </trkpt>
      <trkpt lat="45.69638" lon="6.26765">
        <ele>1919.4</ele>
        <time>2021-02-08T09:33:39Z</time>
      </trkpt>
      <trkpt lat="45.69637" lon="6.26765">
        <ele>1919.9</ele>
        <time>2021-02-08T09:33:40Z</time>
      </trkpt>
      <trkpt lat="45.69635" lon="6.26764">
        <ele>1921.2</ele>
        <time>2021-02-08T09:33:46Z</time>
      </trkpt>
      <trkpt lat="45.69633" lon="6.26763">
        <ele>1922.5</ele>
        <time>2021-02-08T09:33:48Z</time>
      </trkpt>
      <trkpt lat="45.69631" lon="6.26762">
        <ele>1923.7</ele>
        <time>2021-02-08T09:33:51Z</time>
      </trkpt>
      <trkpt lat="45.69631" lon="6.26761">
        <ele>1923.8</ele>
        <time>2021-02-08T09:33:54Z</time>
      </trkpt>
      <trkpt lat="45.69629" lon="6.26761">
        <ele>1925</ele>
        <time>2021-02-08T09:33:57Z</time>
      </trkpt>
      <trkpt lat="45.69628" lon="6.2676">
        <ele>1925.6</ele>
        <time>2021-02-08T09:34:00Z</time>
      </trkpt>
      <trkpt lat="45.69627" lon="6.2676">
        <ele>1926.2</ele>
        <time>2021-02-08T09:34:02Z</time>
      </trkpt>
      <trkpt lat="45.69626" lon="6.2676">
        <ele>1926.7</ele>
        <time>2021-02-08T09:34:04Z</time>
      </trkpt>
      <trkpt lat="45.69625" lon="6.26759">
        <ele>1927.4</ele>
        <time>2021-02-08T09:34:06Z</time>
      </trkpt>
      <trkpt lat="45.69623" lon="6.26757">
        <ele>1928.6</ele>
        <time>2021-02-08T09:34:11Z</time>
      </trkpt>
      <trkpt lat="45.69623" lon="6.26756">
        <ele>1928.6</ele>
        <time>2021-02-08T09:34:12Z</time>
      </trkpt>
      <trkpt lat="45.69622" lon="6.26755">
        <ele>1929.2</ele>
        <time>2021-02-08T09:34:14Z</time>
      </trkpt>
      <trkpt lat="45.69622" lon="6.26755">
        <ele>1929.2</ele>
        <time>2021-02-08T09:34:15Z</time>
      </trkpt>
      <trkpt lat="45.69621" lon="6.26754">
        <ele>1929.8</ele>
        <time>2021-02-08T09:34:19Z</time>
      </trkpt>
      <trkpt lat="45.6962" lon="6.26754">
        <ele>1930.3</ele>
        <time>2021-02-08T09:34:21Z</time>
      </trkpt>
      <trkpt lat="45.6962" lon="6.26755">
        <ele>1930.3</ele>
        <time>2021-02-08T09:34:25Z</time>
      </trkpt>
      <trkpt lat="45.6962" lon="6.26754">
        <ele>1930.3</ele>
        <time>2021-02-08T09:34:26Z</time>
      </trkpt>
      <trkpt lat="45.69619" lon="6.26754">
        <ele>1930.9</ele>
        <time>2021-02-08T09:34:32Z</time>
      </trkpt>
      <trkpt lat="45.69619" lon="6.26754">
        <ele>1930.9</ele>
        <time>2021-02-08T09:34:33Z</time>
      </trkpt>
      <trkpt lat="45.69618" lon="6.26753">
        <ele>1931.4</ele>
        <time>2021-02-08T09:34:37Z</time>
      </trkpt>
      <trkpt lat="45.69618" lon="6.26748">
        <ele>1932.1</ele>
        <time>2021-02-08T09:34:45Z</time>
      </trkpt>
      <trkpt lat="45.69619" lon="6.26748">
        <ele>1931.6</ele>
        <time>2021-02-08T09:34:46Z</time>
      </trkpt>
      <trkpt lat="45.69619" lon="6.26747">
        <ele>1931.9</ele>
        <time>2021-02-08T09:34:48Z</time>
      </trkpt>
      <trkpt lat="45.69619" lon="6.26747">
        <ele>1931.9</ele>
        <time>2021-02-08T09:34:51Z</time>
      </trkpt>
      <trkpt lat="45.69615" lon="6.26749">
        <ele>1933.3</ele>
        <time>2021-02-08T09:35:01Z</time>
      </trkpt>
      <trkpt lat="45.69614" lon="6.2675">
        <ele>1933.5</ele>
        <time>2021-02-08T09:35:04Z</time>
      </trkpt>
      <trkpt lat="45.69614" lon="6.26748">
        <ele>1934.2</ele>
        <time>2021-02-08T09:35:11Z</time>
      </trkpt>
      <trkpt lat="45.69614" lon="6.26747">
        <ele>1934.5</ele>
        <time>2021-02-08T09:35:12Z</time>
      </trkpt>
      <trkpt lat="45.69614" lon="6.26744">
        <ele>1935.4</ele>
        <time>2021-02-08T09:35:18Z</time>
      </trkpt>
      <trkpt lat="45.69614" lon="6.26743">
        <ele>1935.7</ele>
        <time>2021-02-08T09:35:19Z</time>
      </trkpt>
      <trkpt lat="45.69614" lon="6.26743">
        <ele>1935.7</ele>
        <time>2021-02-08T09:35:20Z</time>
      </trkpt>
      <trkpt lat="45.69615" lon="6.26741">
        <ele>1935.8</ele>
        <time>2021-02-08T09:35:23Z</time>
      </trkpt>
      <trkpt lat="45.69615" lon="6.2674">
        <ele>1936.1</ele>
        <time>2021-02-08T09:35:24Z</time>
      </trkpt>
      <trkpt lat="45.69615" lon="6.26739">
        <ele>1936.4</ele>
        <time>2021-02-08T09:35:26Z</time>
      </trkpt>
      <trkpt lat="45.69615" lon="6.26738">
        <ele>1936.7</ele>
        <time>2021-02-08T09:35:37Z</time>
      </trkpt>
      <trkpt lat="45.69613" lon="6.26738">
        <ele>1937.8</ele>
        <time>2021-02-08T09:35:41Z</time>
      </trkpt>
      <trkpt lat="45.69611" lon="6.26739">
        <ele>1938.6</ele>
        <time>2021-02-08T09:35:43Z</time>
      </trkpt>
      <trkpt lat="45.6961" lon="6.26739">
        <ele>1939</ele>
        <time>2021-02-08T09:35:47Z</time>
      </trkpt>
      <trkpt lat="45.69605" lon="6.26741">
        <ele>1940.6</ele>
        <time>2021-02-08T09:35:55Z</time>
      </trkpt>
      <trkpt lat="45.69603" lon="6.26743">
        <ele>1941.1</ele>
        <time>2021-02-08T09:36:00Z</time>
      </trkpt>
      <trkpt lat="45.69603" lon="6.26745">
        <ele>1940.6</ele>
        <time>2021-02-08T09:36:02Z</time>
      </trkpt>
      <trkpt lat="45.69602" lon="6.26749">
        <ele>1940.1</ele>
        <time>2021-02-08T09:36:07Z</time>
      </trkpt>
      <trkpt lat="45.69601" lon="6.26751">
        <ele>1940.4</ele>
        <time>2021-02-08T09:36:11Z</time>
      </trkpt>
      <trkpt lat="45.69601" lon="6.26753">
        <ele>1940.3</ele>
        <time>2021-02-08T09:36:13Z</time>
      </trkpt>
      <trkpt lat="45.696" lon="6.26754">
        <ele>1940.8</ele>
        <time>2021-02-08T09:36:17Z</time>
      </trkpt>
      <trkpt lat="45.696" lon="6.26752">
        <ele>1940.9</ele>
        <time>2021-02-08T09:36:21Z</time>
      </trkpt>
      <trkpt lat="45.696" lon="6.26752">
        <ele>1940.9</ele>
        <time>2021-02-08T09:36:22Z</time>
      </trkpt>
      <trkpt lat="45.696" lon="6.26752">
        <ele>1940.9</ele>
        <time>2021-02-08T09:36:23Z</time>
      </trkpt>
      <trkpt lat="45.69598" lon="6.26749">
        <ele>1942.3</ele>
        <time>2021-02-08T09:36:28Z</time>
      </trkpt>
      <trkpt lat="45.69598" lon="6.26749">
        <ele>1942.3</ele>
        <time>2021-02-08T09:36:30Z</time>
      </trkpt>
      <trkpt lat="45.69597" lon="6.26748">
        <ele>1943</ele>
        <time>2021-02-08T09:36:35Z</time>
      </trkpt>
      <trkpt lat="45.69597" lon="6.26748">
        <ele>1943</ele>
        <time>2021-02-08T09:36:36Z</time>
      </trkpt>
      <trkpt lat="45.69596" lon="6.2675">
        <ele>1943.2</ele>
        <time>2021-02-08T09:36:41Z</time>
      </trkpt>
      <trkpt lat="45.69596" lon="6.2675">
        <ele>1943.2</ele>
        <time>2021-02-08T09:36:42Z</time>
      </trkpt>
      <trkpt lat="45.69595" lon="6.26752">
        <ele>1943.6</ele>
        <time>2021-02-08T09:36:44Z</time>
      </trkpt>
      <trkpt lat="45.69595" lon="6.26753">
        <ele>1943.5</ele>
        <time>2021-02-08T09:36:46Z</time>
      </trkpt>
      <trkpt lat="45.69594" lon="6.26755">
        <ele>1943.9</ele>
        <time>2021-02-08T09:36:49Z</time>
      </trkpt>
      <trkpt lat="45.69593" lon="6.26758">
        <ele>1944.2</ele>
        <time>2021-02-08T09:36:54Z</time>
      </trkpt>
      <trkpt lat="45.69593" lon="6.26758">
        <ele>1944.2</ele>
        <time>2021-02-08T09:36:55Z</time>
      </trkpt>
      <trkpt lat="45.69589" lon="6.26759">
        <ele>1946.2</ele>
        <time>2021-02-08T09:37:02Z</time>
      </trkpt>
      <trkpt lat="45.69588" lon="6.26758">
        <ele>1946.8</ele>
        <time>2021-02-08T09:37:06Z</time>
      </trkpt>
      <trkpt lat="45.69587" lon="6.26755">
        <ele>1947.6</ele>
        <time>2021-02-08T09:37:11Z</time>
      </trkpt>
      <trkpt lat="45.69587" lon="6.26755">
        <ele>1947.6</ele>
        <time>2021-02-08T09:37:17Z</time>
      </trkpt>
      <trkpt lat="45.69587" lon="6.26747">
        <ele>1948.2</ele>
        <time>2021-02-08T09:37:27Z</time>
      </trkpt>
      <trkpt lat="45.69586" lon="6.26747">
        <ele>1948.8</ele>
        <time>2021-02-08T09:37:28Z</time>
      </trkpt>
      <trkpt lat="45.69586" lon="6.26746">
        <ele>1948.8</ele>
        <time>2021-02-08T09:37:29Z</time>
      </trkpt>
      <trkpt lat="45.69586" lon="6.26745">
        <ele>1948.9</ele>
        <time>2021-02-08T09:37:31Z</time>
      </trkpt>
      <trkpt lat="45.69586" lon="6.26744">
        <ele>1948.9</ele>
        <time>2021-02-08T09:37:32Z</time>
      </trkpt>
      <trkpt lat="45.69586" lon="6.26743">
        <ele>1949</ele>
        <time>2021-02-08T09:37:34Z</time>
      </trkpt>
      <trkpt lat="45.69585" lon="6.2674">
        <ele>1949.6</ele>
        <time>2021-02-08T09:37:38Z</time>
      </trkpt>
      <trkpt lat="45.69583" lon="6.26735">
        <ele>1950.7</ele>
        <time>2021-02-08T09:37:46Z</time>
      </trkpt>
      <trkpt lat="45.69582" lon="6.26731">
        <ele>1951.5</ele>
        <time>2021-02-08T09:37:51Z</time>
      </trkpt>
      <trkpt lat="45.69581" lon="6.26731">
        <ele>1952.1</ele>
        <time>2021-02-08T09:37:53Z</time>
      </trkpt>
      <trkpt lat="45.6958" lon="6.26727">
        <ele>1952.9</ele>
        <time>2021-02-08T09:38:00Z</time>
      </trkpt>
      <trkpt lat="45.69579" lon="6.26726">
        <ele>1953.6</ele>
        <time>2021-02-08T09:38:02Z</time>
      </trkpt>
      <trkpt lat="45.69579" lon="6.26724">
        <ele>1953.7</ele>
        <time>2021-02-08T09:38:05Z</time>
      </trkpt>
      <trkpt lat="45.69578" lon="6.26722">
        <ele>1954.5</ele>
        <time>2021-02-08T09:38:09Z</time>
      </trkpt>
      <trkpt lat="45.69577" lon="6.26721">
        <ele>1955.4</ele>
        <time>2021-02-08T09:38:11Z</time>
      </trkpt>
      <trkpt lat="45.69576" lon="6.26719">
        <ele>1956.4</ele>
        <time>2021-02-08T09:38:14Z</time>
      </trkpt>
      <trkpt lat="45.69575" lon="6.26718">
        <ele>1957.2</ele>
        <time>2021-02-08T09:38:17Z</time>
      </trkpt>
      <trkpt lat="45.69575" lon="6.26715">
        <ele>1957.7</ele>
        <time>2021-02-08T09:38:22Z</time>
      </trkpt>
      <trkpt lat="45.69575" lon="6.26715">
        <ele>1957.7</ele>
        <time>2021-02-08T09:38:23Z</time>
      </trkpt>
      <trkpt lat="45.69576" lon="6.26714">
        <ele>1957.3</ele>
        <time>2021-02-08T09:38:24Z</time>
      </trkpt>
      <trkpt lat="45.69575" lon="6.26714">
        <ele>1957.9</ele>
        <time>2021-02-08T09:38:25Z</time>
      </trkpt>
      <trkpt lat="45.69575" lon="6.26714">
        <ele>1957.9</ele>
        <time>2021-02-08T09:38:27Z</time>
      </trkpt>
      <trkpt lat="45.69576" lon="6.26714">
        <ele>1957.3</ele>
        <time>2021-02-08T09:38:29Z</time>
      </trkpt>
      <trkpt lat="45.69576" lon="6.26711">
        <ele>1957.9</ele>
        <time>2021-02-08T09:38:37Z</time>
      </trkpt>
      <trkpt lat="45.69578" lon="6.26706">
        <ele>1958</ele>
        <time>2021-02-08T09:38:45Z</time>
      </trkpt>
      <trkpt lat="45.69578" lon="6.26705">
        <ele>1958.2</ele>
        <time>2021-02-08T09:38:46Z</time>
      </trkpt>
      <trkpt lat="45.69579" lon="6.26703">
        <ele>1958.3</ele>
        <time>2021-02-08T09:38:51Z</time>
      </trkpt>
      <trkpt lat="45.69579" lon="6.26702">
        <ele>1958.5</ele>
        <time>2021-02-08T09:38:52Z</time>
      </trkpt>
      <trkpt lat="45.6958" lon="6.26698">
        <ele>1959.1</ele>
        <time>2021-02-08T09:38:59Z</time>
      </trkpt>
      <trkpt lat="45.6958" lon="6.26696">
        <ele>1959.6</ele>
        <time>2021-02-08T09:39:01Z</time>
      </trkpt>
      <trkpt lat="45.6958" lon="6.26695">
        <ele>1959.8</ele>
        <time>2021-02-08T09:39:03Z</time>
      </trkpt>
      <trkpt lat="45.6958" lon="6.26693">
        <ele>1960.3</ele>
        <time>2021-02-08T09:39:05Z</time>
      </trkpt>
      <trkpt lat="45.6958" lon="6.26691">
        <ele>1960.8</ele>
        <time>2021-02-08T09:39:08Z</time>
      </trkpt>
      <trkpt lat="45.69578" lon="6.26691">
        <ele>1961.4</ele>
        <time>2021-02-08T09:39:15Z</time>
      </trkpt>
      <trkpt lat="45.69576" lon="6.26692">
        <ele>1961.8</ele>
        <time>2021-02-08T09:39:17Z</time>
      </trkpt>
      <trkpt lat="45.69573" lon="6.26696">
        <ele>1961.7</ele>
        <time>2021-02-08T09:39:23Z</time>
      </trkpt>
      <trkpt lat="45.69571" lon="6.26698">
        <ele>1962.1</ele>
        <time>2021-02-08T09:39:29Z</time>
      </trkpt>
      <trkpt lat="45.69571" lon="6.26698">
        <ele>1962.1</ele>
        <time>2021-02-08T09:39:31Z</time>
      </trkpt>
      <trkpt lat="45.69571" lon="6.26698">
        <ele>1962.1</ele>
        <time>2021-02-08T09:39:44Z</time>
      </trkpt>
      <trkpt lat="45.69567" lon="6.26698">
        <ele>1963.4</ele>
        <time>2021-02-08T09:39:54Z</time>
      </trkpt>
      <trkpt lat="45.69567" lon="6.26698">
        <ele>1963.4</ele>
        <time>2021-02-08T09:39:55Z</time>
      </trkpt>
      <trkpt lat="45.69564" lon="6.26696">
        <ele>1964.5</ele>
        <time>2021-02-08T09:40:01Z</time>
      </trkpt>
      <trkpt lat="45.69562" lon="6.26694">
        <ele>1965.3</ele>
        <time>2021-02-08T09:40:05Z</time>
      </trkpt>
      <trkpt lat="45.69562" lon="6.26694">
        <ele>1965.3</ele>
        <time>2021-02-08T09:40:06Z</time>
      </trkpt>
      <trkpt lat="45.69561" lon="6.26694">
        <ele>1965.6</ele>
        <time>2021-02-08T09:40:07Z</time>
      </trkpt>
      <trkpt lat="45.69561" lon="6.26694">
        <ele>1965.6</ele>
        <time>2021-02-08T09:40:08Z</time>
      </trkpt>
      <trkpt lat="45.69559" lon="6.26693">
        <ele>1966.6</ele>
        <time>2021-02-08T09:40:13Z</time>
      </trkpt>
      <trkpt lat="45.69558" lon="6.26693">
        <ele>1966.9</ele>
        <time>2021-02-08T09:40:14Z</time>
      </trkpt>
      <trkpt lat="45.69557" lon="6.26693">
        <ele>1967.2</ele>
        <time>2021-02-08T09:40:16Z</time>
      </trkpt>
      <trkpt lat="45.69556" lon="6.26693">
        <ele>1967.5</ele>
        <time>2021-02-08T09:40:17Z</time>
      </trkpt>
      <trkpt lat="45.69554" lon="6.26692">
        <ele>1968.3</ele>
        <time>2021-02-08T09:40:22Z</time>
      </trkpt>
      <trkpt lat="45.69554" lon="6.26692">
        <ele>1968.3</ele>
        <time>2021-02-08T09:40:23Z</time>
      </trkpt>
      <trkpt lat="45.69553" lon="6.26692">
        <ele>1968.5</ele>
        <time>2021-02-08T09:40:25Z</time>
      </trkpt>
      <trkpt lat="45.69552" lon="6.26692">
        <ele>1968.7</ele>
        <time>2021-02-08T09:40:26Z</time>
      </trkpt>
      <trkpt lat="45.69551" lon="6.26692">
        <ele>1968.9</ele>
        <time>2021-02-08T09:40:29Z</time>
      </trkpt>
      <trkpt lat="45.69549" lon="6.26692">
        <ele>1969.3</ele>
        <time>2021-02-08T09:40:32Z</time>
      </trkpt>
      <trkpt lat="45.69547" lon="6.26691">
        <ele>1970.1</ele>
        <time>2021-02-08T09:40:36Z</time>
      </trkpt>
      <trkpt lat="45.69546" lon="6.26691">
        <ele>1970.3</ele>
        <time>2021-02-08T09:40:38Z</time>
      </trkpt>
      <trkpt lat="45.69546" lon="6.26691">
        <ele>1970.3</ele>
        <time>2021-02-08T09:40:39Z</time>
      </trkpt>
      <trkpt lat="45.69545" lon="6.2669">
        <ele>1970.9</ele>
        <time>2021-02-08T09:40:42Z</time>
      </trkpt>
      <trkpt lat="45.69544" lon="6.2669">
        <ele>1971.1</ele>
        <time>2021-02-08T09:40:44Z</time>
      </trkpt>
      <trkpt lat="45.69544" lon="6.2669">
        <ele>1971.1</ele>
        <time>2021-02-08T09:40:45Z</time>
      </trkpt>
      <trkpt lat="45.69542" lon="6.2669">
        <ele>1971.5</ele>
        <time>2021-02-08T09:40:49Z</time>
      </trkpt>
      <trkpt lat="45.69542" lon="6.2669">
        <ele>1971.5</ele>
        <time>2021-02-08T09:40:50Z</time>
      </trkpt>
      <trkpt lat="45.69541" lon="6.2669">
        <ele>1971.7</ele>
        <time>2021-02-08T09:40:51Z</time>
      </trkpt>
      <trkpt lat="45.6954" lon="6.26689">
        <ele>1972.4</ele>
        <time>2021-02-08T09:40:53Z</time>
      </trkpt>
      <trkpt lat="45.69539" lon="6.26688">
        <ele>1973</ele>
        <time>2021-02-08T09:40:56Z</time>
      </trkpt>
      <trkpt lat="45.69538" lon="6.26688">
        <ele>1973.2</ele>
        <time>2021-02-08T09:40:59Z</time>
      </trkpt>
      <trkpt lat="45.69537" lon="6.26687">
        <ele>1973.9</ele>
        <time>2021-02-08T09:41:01Z</time>
      </trkpt>
      <trkpt lat="45.69537" lon="6.26686">
        <ele>1974.4</ele>
        <time>2021-02-08T09:41:04Z</time>
      </trkpt>
      <trkpt lat="45.69538" lon="6.26684">
        <ele>1975.1</ele>
        <time>2021-02-08T09:41:07Z</time>
      </trkpt>
      <trkpt lat="45.69539" lon="6.26683">
        <ele>1975.4</ele>
        <time>2021-02-08T09:41:09Z</time>
      </trkpt>
      <trkpt lat="45.69539" lon="6.26681">
        <ele>1976.4</ele>
        <time>2021-02-08T09:41:13Z</time>
      </trkpt>
      <trkpt lat="45.69542" lon="6.26677">
        <ele>1977.6</ele>
        <time>2021-02-08T09:41:23Z</time>
      </trkpt>
      <trkpt lat="45.69542" lon="6.26676">
        <ele>1978.1</ele>
        <time>2021-02-08T09:41:24Z</time>
      </trkpt>
      <trkpt lat="45.69544" lon="6.26676">
        <ele>1977.6</ele>
        <time>2021-02-08T09:41:28Z</time>
      </trkpt>
      <trkpt lat="45.69543" lon="6.26675">
        <ele>1978.3</ele>
        <time>2021-02-08T09:41:31Z</time>
      </trkpt>
      <trkpt lat="45.69542" lon="6.26674">
        <ele>1979</ele>
        <time>2021-02-08T09:41:36Z</time>
      </trkpt>
      <trkpt lat="45.69538" lon="6.26673">
        <ele>1980.4</ele>
        <time>2021-02-08T09:41:42Z</time>
      </trkpt>
      <trkpt lat="45.69536" lon="6.26674">
        <ele>1980.4</ele>
        <time>2021-02-08T09:41:45Z</time>
      </trkpt>
      <trkpt lat="45.69535" lon="6.26674">
        <ele>1980.6</ele>
        <time>2021-02-08T09:41:48Z</time>
      </trkpt>
      <trkpt lat="45.69534" lon="6.26674">
        <ele>1980.9</ele>
        <time>2021-02-08T09:41:49Z</time>
      </trkpt>
      <trkpt lat="45.69532" lon="6.26672">
        <ele>1982.3</ele>
        <time>2021-02-08T09:41:53Z</time>
      </trkpt>
      <trkpt lat="45.69531" lon="6.26672">
        <ele>1982.5</ele>
        <time>2021-02-08T09:41:54Z</time>
      </trkpt>
      <trkpt lat="45.6953" lon="6.26672">
        <ele>1982.8</ele>
        <time>2021-02-08T09:41:56Z</time>
      </trkpt>
      <trkpt lat="45.69529" lon="6.26672">
        <ele>1983</ele>
        <time>2021-02-08T09:41:59Z</time>
      </trkpt>
      <trkpt lat="45.69529" lon="6.26671">
        <ele>1983.5</ele>
        <time>2021-02-08T09:42:00Z</time>
      </trkpt>
      <trkpt lat="45.69528" lon="6.2667">
        <ele>1984.3</ele>
        <time>2021-02-08T09:42:03Z</time>
      </trkpt>
      <trkpt lat="45.69527" lon="6.2667">
        <ele>1984.4</ele>
        <time>2021-02-08T09:42:05Z</time>
      </trkpt>
      <trkpt lat="45.69526" lon="6.26669">
        <ele>1984.9</ele>
        <time>2021-02-08T09:42:08Z</time>
      </trkpt>
      <trkpt lat="45.69523" lon="6.26668">
        <ele>1985.6</ele>
        <time>2021-02-08T09:42:15Z</time>
      </trkpt>
      <trkpt lat="45.69522" lon="6.26666">
        <ele>1986.7</ele>
        <time>2021-02-08T09:42:20Z</time>
      </trkpt>
      <trkpt lat="45.69518" lon="6.26665">
        <ele>1987.4</ele>
        <time>2021-02-08T09:42:27Z</time>
      </trkpt>
      <trkpt lat="45.69518" lon="6.26664">
        <ele>1987.9</ele>
        <time>2021-02-08T09:42:28Z</time>
      </trkpt>
      <trkpt lat="45.69518" lon="6.26664">
        <ele>1987.9</ele>
        <time>2021-02-08T09:42:29Z</time>
      </trkpt>
      <trkpt lat="45.69516" lon="6.26664">
        <ele>1988</ele>
        <time>2021-02-08T09:42:32Z</time>
      </trkpt>
      <trkpt lat="45.69515" lon="6.26663">
        <ele>1988.6</ele>
        <time>2021-02-08T09:42:35Z</time>
      </trkpt>
      <trkpt lat="45.69513" lon="6.26662">
        <ele>1989.2</ele>
        <time>2021-02-08T09:42:38Z</time>
      </trkpt>
      <trkpt lat="45.69511" lon="6.26661">
        <ele>1989.8</ele>
        <time>2021-02-08T09:42:43Z</time>
      </trkpt>
      <trkpt lat="45.69509" lon="6.2666">
        <ele>1990.4</ele>
        <time>2021-02-08T09:42:45Z</time>
      </trkpt>
      <trkpt lat="45.69509" lon="6.2666">
        <ele>1990.4</ele>
        <time>2021-02-08T09:42:46Z</time>
      </trkpt>
      <trkpt lat="45.69507" lon="6.2666">
        <ele>1990.6</ele>
        <time>2021-02-08T09:42:49Z</time>
      </trkpt>
      <trkpt lat="45.69505" lon="6.2666">
        <ele>1990.7</ele>
        <time>2021-02-08T09:42:54Z</time>
      </trkpt>
      <trkpt lat="45.69503" lon="6.2666">
        <ele>1990.9</ele>
        <time>2021-02-08T09:42:58Z</time>
      </trkpt>
      <trkpt lat="45.69502" lon="6.2666">
        <ele>1991</ele>
        <time>2021-02-08T09:43:00Z</time>
      </trkpt>
      <trkpt lat="45.69501" lon="6.26659">
        <ele>1991.5</ele>
        <time>2021-02-08T09:43:03Z</time>
      </trkpt>
      <trkpt lat="45.695" lon="6.26659">
        <ele>1991.6</ele>
        <time>2021-02-08T09:43:05Z</time>
      </trkpt>
      <trkpt lat="45.69499" lon="6.26658">
        <ele>1992.1</ele>
        <time>2021-02-08T09:43:09Z</time>
      </trkpt>
      <trkpt lat="45.69497" lon="6.26658">
        <ele>1992.3</ele>
        <time>2021-02-08T09:43:13Z</time>
      </trkpt>
      <trkpt lat="45.69496" lon="6.26657">
        <ele>1992.8</ele>
        <time>2021-02-08T09:43:16Z</time>
      </trkpt>
      <trkpt lat="45.69494" lon="6.26656">
        <ele>1993.5</ele>
        <time>2021-02-08T09:43:21Z</time>
      </trkpt>
      <trkpt lat="45.69493" lon="6.26657">
        <ele>1993</ele>
        <time>2021-02-08T09:43:23Z</time>
      </trkpt>
      <trkpt lat="45.69492" lon="6.26657">
        <ele>1993.1</ele>
        <time>2021-02-08T09:43:26Z</time>
      </trkpt>
      <trkpt lat="45.6949" lon="6.26657">
        <ele>1993.3</ele>
        <time>2021-02-08T09:43:28Z</time>
      </trkpt>
      <trkpt lat="45.69489" lon="6.26656">
        <ele>1993.8</ele>
        <time>2021-02-08T09:43:34Z</time>
      </trkpt>
      <trkpt lat="45.69488" lon="6.26656">
        <ele>1993.9</ele>
        <time>2021-02-08T09:43:36Z</time>
      </trkpt>
      <trkpt lat="45.69488" lon="6.26655">
        <ele>1994.4</ele>
        <time>2021-02-08T09:43:38Z</time>
      </trkpt>
      <trkpt lat="45.69487" lon="6.26654">
        <ele>1995</ele>
        <time>2021-02-08T09:43:41Z</time>
      </trkpt>
      <trkpt lat="45.69488" lon="6.26651">
        <ele>1996.5</ele>
        <time>2021-02-08T09:43:44Z</time>
      </trkpt>
      <trkpt lat="45.69489" lon="6.26649">
        <ele>1997.4</ele>
        <time>2021-02-08T09:43:47Z</time>
      </trkpt>
      <trkpt lat="45.69489" lon="6.26647">
        <ele>1998.4</ele>
        <time>2021-02-08T09:43:50Z</time>
      </trkpt>
      <trkpt lat="45.6949" lon="6.26645">
        <ele>1999.3</ele>
        <time>2021-02-08T09:43:53Z</time>
      </trkpt>
      <trkpt lat="45.6949" lon="6.26643">
        <ele>2000.4</ele>
        <time>2021-02-08T09:43:55Z</time>
      </trkpt>
      <trkpt lat="45.69491" lon="6.26642">
        <ele>2000.7</ele>
        <time>2021-02-08T09:43:57Z</time>
      </trkpt>
      <trkpt lat="45.69492" lon="6.2664">
        <ele>2001.6</ele>
        <time>2021-02-08T09:44:00Z</time>
      </trkpt>
      <trkpt lat="45.69492" lon="6.26639">
        <ele>2002.1</ele>
        <time>2021-02-08T09:44:01Z</time>
      </trkpt>
      <trkpt lat="45.69493" lon="6.26637">
        <ele>2002.9</ele>
        <time>2021-02-08T09:44:04Z</time>
      </trkpt>
      <trkpt lat="45.69494" lon="6.26634">
        <ele>2004.1</ele>
        <time>2021-02-08T09:44:10Z</time>
      </trkpt>
      <trkpt lat="45.69495" lon="6.26634">
        <ele>2004</ele>
        <time>2021-02-08T09:44:11Z</time>
      </trkpt>
      <trkpt lat="45.69496" lon="6.26633">
        <ele>2004.3</ele>
        <time>2021-02-08T09:44:14Z</time>
      </trkpt>
      <trkpt lat="45.69499" lon="6.26629">
        <ele>2005.8</ele>
        <time>2021-02-08T09:44:22Z</time>
      </trkpt>
      <trkpt lat="45.69499" lon="6.26629">
        <ele>2005.8</ele>
        <time>2021-02-08T09:44:23Z</time>
      </trkpt>
      <trkpt lat="45.69501" lon="6.26627">
        <ele>2006.4</ele>
        <time>2021-02-08T09:44:27Z</time>
      </trkpt>
      <trkpt lat="45.69501" lon="6.26626">
        <ele>2006.9</ele>
        <time>2021-02-08T09:44:29Z</time>
      </trkpt>
      <trkpt lat="45.69502" lon="6.26625">
        <ele>2007.2</ele>
        <time>2021-02-08T09:44:32Z</time>
      </trkpt>
      <trkpt lat="45.69505" lon="6.26622">
        <ele>2008.1</ele>
        <time>2021-02-08T09:44:38Z</time>
      </trkpt>
      <trkpt lat="45.69506" lon="6.2662">
        <ele>2008.9</ele>
        <time>2021-02-08T09:44:41Z</time>
      </trkpt>
      <trkpt lat="45.69507" lon="6.2662">
        <ele>2008.7</ele>
        <time>2021-02-08T09:44:43Z</time>
      </trkpt>
      <trkpt lat="45.69507" lon="6.26619">
        <ele>2009.2</ele>
        <time>2021-02-08T09:44:44Z</time>
      </trkpt>
      <trkpt lat="45.69508" lon="6.26618">
        <ele>2009.5</ele>
        <time>2021-02-08T09:44:47Z</time>
      </trkpt>
      <trkpt lat="45.69508" lon="6.26617">
        <ele>2009.9</ele>
        <time>2021-02-08T09:44:49Z</time>
      </trkpt>
      <trkpt lat="45.6951" lon="6.26616">
        <ele>2010</ele>
        <time>2021-02-08T09:44:52Z</time>
      </trkpt>
      <trkpt lat="45.69511" lon="6.26615">
        <ele>2010.3</ele>
        <time>2021-02-08T09:44:56Z</time>
      </trkpt>
      <trkpt lat="45.69513" lon="6.26615">
        <ele>2010</ele>
        <time>2021-02-08T09:44:59Z</time>
      </trkpt>
      <trkpt lat="45.69514" lon="6.26611">
        <ele>2011.5</ele>
        <time>2021-02-08T09:45:04Z</time>
      </trkpt>
      <trkpt lat="45.69515" lon="6.2661">
        <ele>2011.8</ele>
        <time>2021-02-08T09:45:06Z</time>
      </trkpt>
      <trkpt lat="45.69515" lon="6.2661">
        <ele>2011.8</ele>
        <time>2021-02-08T09:45:09Z</time>
      </trkpt>
      <trkpt lat="45.69514" lon="6.2661">
        <ele>2012</ele>
        <time>2021-02-08T09:45:11Z</time>
      </trkpt>
      <trkpt lat="45.69513" lon="6.2661">
        <ele>2012.2</ele>
        <time>2021-02-08T09:45:14Z</time>
      </trkpt>
      <trkpt lat="45.69512" lon="6.2661">
        <ele>2012.4</ele>
        <time>2021-02-08T09:45:15Z</time>
      </trkpt>
      <trkpt lat="45.6951" lon="6.2661">
        <ele>2012.7</ele>
        <time>2021-02-08T09:45:18Z</time>
      </trkpt>
      <trkpt lat="45.6951" lon="6.2661">
        <ele>2012.7</ele>
        <time>2021-02-08T09:45:19Z</time>
      </trkpt>
      <trkpt lat="45.69508" lon="6.2661">
        <ele>2013.1</ele>
        <time>2021-02-08T09:45:22Z</time>
      </trkpt>
      <trkpt lat="45.69507" lon="6.2661">
        <ele>2013.3</ele>
        <time>2021-02-08T09:45:23Z</time>
      </trkpt>
      <trkpt lat="45.69506" lon="6.2661">
        <ele>2013.4</ele>
        <time>2021-02-08T09:45:25Z</time>
      </trkpt>
      <trkpt lat="45.69504" lon="6.2661">
        <ele>2013.8</ele>
        <time>2021-02-08T09:45:29Z</time>
      </trkpt>
      <trkpt lat="45.69501" lon="6.26609">
        <ele>2014.8</ele>
        <time>2021-02-08T09:45:34Z</time>
      </trkpt>
      <trkpt lat="45.69499" lon="6.26608">
        <ele>2015.6</ele>
        <time>2021-02-08T09:45:38Z</time>
      </trkpt>
      <trkpt lat="45.69498" lon="6.26608">
        <ele>2015.7</ele>
        <time>2021-02-08T09:45:41Z</time>
      </trkpt>
      <trkpt lat="45.69495" lon="6.26608">
        <ele>2016</ele>
        <time>2021-02-08T09:45:46Z</time>
      </trkpt>
      <trkpt lat="45.69494" lon="6.26608">
        <ele>2016.1</ele>
        <time>2021-02-08T09:45:48Z</time>
      </trkpt>
      <trkpt lat="45.69492" lon="6.26607">
        <ele>2016.8</ele>
        <time>2021-02-08T09:45:51Z</time>
      </trkpt>
      <trkpt lat="45.6949" lon="6.26606">
        <ele>2017.5</ele>
        <time>2021-02-08T09:45:57Z</time>
      </trkpt>
      <trkpt lat="45.69488" lon="6.26605">
        <ele>2018.2</ele>
        <time>2021-02-08T09:46:02Z</time>
      </trkpt>
      <trkpt lat="45.69483" lon="6.26603">
        <ele>2019.6</ele>
        <time>2021-02-08T09:46:10Z</time>
      </trkpt>
      <trkpt lat="45.69483" lon="6.26603">
        <ele>2019.6</ele>
        <time>2021-02-08T09:46:11Z</time>
      </trkpt>
      <trkpt lat="45.69481" lon="6.26601">
        <ele>2020.8</ele>
        <time>2021-02-08T09:46:16Z</time>
      </trkpt>
      <trkpt lat="45.69479" lon="6.266">
        <ele>2021.5</ele>
        <time>2021-02-08T09:46:22Z</time>
      </trkpt>
      <trkpt lat="45.69478" lon="6.26598">
        <ele>2022.5</ele>
        <time>2021-02-08T09:46:26Z</time>
      </trkpt>
      <trkpt lat="45.69475" lon="6.26596">
        <ele>2023.8</ele>
        <time>2021-02-08T09:46:33Z</time>
      </trkpt>
      <trkpt lat="45.69475" lon="6.26596">
        <ele>2023.8</ele>
        <time>2021-02-08T09:46:34Z</time>
      </trkpt>
      <trkpt lat="45.69473" lon="6.26595">
        <ele>2024.5</ele>
        <time>2021-02-08T09:46:38Z</time>
      </trkpt>
      <trkpt lat="45.69471" lon="6.26591">
        <ele>2026.2</ele>
        <time>2021-02-08T09:46:46Z</time>
      </trkpt>
      <trkpt lat="45.69471" lon="6.26589">
        <ele>2027.2</ele>
        <time>2021-02-08T09:46:48Z</time>
      </trkpt>
      <trkpt lat="45.69472" lon="6.26588">
        <ele>2027.8</ele>
        <time>2021-02-08T09:46:51Z</time>
      </trkpt>
      <trkpt lat="45.69473" lon="6.26586">
        <ele>2028.7</ele>
        <time>2021-02-08T09:46:54Z</time>
      </trkpt>
      <trkpt lat="45.69474" lon="6.26585">
        <ele>2029</ele>
        <time>2021-02-08T09:46:57Z</time>
      </trkpt>
      <trkpt lat="45.69474" lon="6.26585">
        <ele>2029</ele>
        <time>2021-02-08T09:46:58Z</time>
      </trkpt>
      <trkpt lat="45.69475" lon="6.26584">
        <ele>2029.4</ele>
        <time>2021-02-08T09:47:02Z</time>
      </trkpt>
      <trkpt lat="45.69476" lon="6.26583">
        <ele>2029.7</ele>
        <time>2021-02-08T09:47:03Z</time>
      </trkpt>
      <trkpt lat="45.69477" lon="6.26582">
        <ele>2029.9</ele>
        <time>2021-02-08T09:47:07Z</time>
      </trkpt>
      <trkpt lat="45.69477" lon="6.26582">
        <ele>2029.9</ele>
        <time>2021-02-08T09:47:08Z</time>
      </trkpt>
      <trkpt lat="45.6948" lon="6.26579">
        <ele>2030.6</ele>
        <time>2021-02-08T09:47:15Z</time>
      </trkpt>
      <trkpt lat="45.69481" lon="6.26577">
        <ele>2031.2</ele>
        <time>2021-02-08T09:47:18Z</time>
      </trkpt>
      <trkpt lat="45.69482" lon="6.26576">
        <ele>2031.4</ele>
        <time>2021-02-08T09:47:20Z</time>
      </trkpt>
      <trkpt lat="45.69482" lon="6.26574">
        <ele>2032.1</ele>
        <time>2021-02-08T09:47:23Z</time>
      </trkpt>
      <trkpt lat="45.69483" lon="6.26573">
        <ele>2032.3</ele>
        <time>2021-02-08T09:47:25Z</time>
      </trkpt>
      <trkpt lat="45.69483" lon="6.26573">
        <ele>2032.3</ele>
        <time>2021-02-08T09:47:26Z</time>
      </trkpt>
      <trkpt lat="45.69486" lon="6.26568">
        <ele>2033.8</ele>
        <time>2021-02-08T09:47:35Z</time>
      </trkpt>
      <trkpt lat="45.69486" lon="6.26567">
        <ele>2034.1</ele>
        <time>2021-02-08T09:47:37Z</time>
      </trkpt>
      <trkpt lat="45.69486" lon="6.26567">
        <ele>2034.1</ele>
        <time>2021-02-08T09:47:38Z</time>
      </trkpt>
      <trkpt lat="45.69488" lon="6.26565">
        <ele>2034.6</ele>
        <time>2021-02-08T09:47:41Z</time>
      </trkpt>
      <trkpt lat="45.69488" lon="6.26564">
        <ele>2035</ele>
        <time>2021-02-08T09:47:42Z</time>
      </trkpt>
      <trkpt lat="45.69488" lon="6.26564">
        <ele>2035</ele>
        <time>2021-02-08T09:47:43Z</time>
      </trkpt>
      <trkpt lat="45.6949" lon="6.26561">
        <ele>2035.8</ele>
        <time>2021-02-08T09:47:48Z</time>
      </trkpt>
      <trkpt lat="45.6949" lon="6.2656">
        <ele>2036.2</ele>
        <time>2021-02-08T09:47:50Z</time>
      </trkpt>
      <trkpt lat="45.69491" lon="6.26559">
        <ele>2036.4</ele>
        <time>2021-02-08T09:47:52Z</time>
      </trkpt>
      <trkpt lat="45.69491" lon="6.26558">
        <ele>2036.8</ele>
        <time>2021-02-08T09:47:54Z</time>
      </trkpt>
      <trkpt lat="45.69492" lon="6.26558">
        <ele>2036.7</ele>
        <time>2021-02-08T09:47:55Z</time>
      </trkpt>
      <trkpt lat="45.69495" lon="6.26553">
        <ele>2038.4</ele>
        <time>2021-02-08T09:48:04Z</time>
      </trkpt>
      <trkpt lat="45.69495" lon="6.26552">
        <ele>2038.8</ele>
        <time>2021-02-08T09:48:06Z</time>
      </trkpt>
      <trkpt lat="45.69496" lon="6.26551">
        <ele>2039.2</ele>
        <time>2021-02-08T09:48:08Z</time>
      </trkpt>
      <trkpt lat="45.69499" lon="6.26547">
        <ele>2040.7</ele>
        <time>2021-02-08T09:48:16Z</time>
      </trkpt>
      <trkpt lat="45.695" lon="6.26546">
        <ele>2041.1</ele>
        <time>2021-02-08T09:48:19Z</time>
      </trkpt>
      <trkpt lat="45.695" lon="6.26546">
        <ele>2041.1</ele>
        <time>2021-02-08T09:48:20Z</time>
      </trkpt>
      <trkpt lat="45.69501" lon="6.26545">
        <ele>2041.5</ele>
        <time>2021-02-08T09:48:22Z</time>
      </trkpt>
      <trkpt lat="45.69503" lon="6.26542">
        <ele>2042.6</ele>
        <time>2021-02-08T09:48:27Z</time>
      </trkpt>
      <trkpt lat="45.69504" lon="6.26542">
        <ele>2042.6</ele>
        <time>2021-02-08T09:48:30Z</time>
      </trkpt>
      <trkpt lat="45.69505" lon="6.26541">
        <ele>2042.9</ele>
        <time>2021-02-08T09:48:32Z</time>
      </trkpt>
      <trkpt lat="45.69507" lon="6.26539">
        <ele>2043.6</ele>
        <time>2021-02-08T09:48:37Z</time>
      </trkpt>
      <trkpt lat="45.69509" lon="6.26536">
        <ele>2044.8</ele>
        <time>2021-02-08T09:48:45Z</time>
      </trkpt>
      <trkpt lat="45.6951" lon="6.26535">
        <ele>2045.2</ele>
        <time>2021-02-08T09:48:47Z</time>
      </trkpt>
      <trkpt lat="45.6951" lon="6.26533">
        <ele>2046</ele>
        <time>2021-02-08T09:48:50Z</time>
      </trkpt>
      <trkpt lat="45.6951" lon="6.26532">
        <ele>2046.5</ele>
        <time>2021-02-08T09:48:53Z</time>
      </trkpt>
      <trkpt lat="45.6951" lon="6.26532">
        <ele>2046.5</ele>
        <time>2021-02-08T09:48:54Z</time>
      </trkpt>
      <trkpt lat="45.6951" lon="6.26531">
        <ele>2046.9</ele>
        <time>2021-02-08T09:48:57Z</time>
      </trkpt>
      <trkpt lat="45.69509" lon="6.26531">
        <ele>2047</ele>
        <time>2021-02-08T09:48:59Z</time>
      </trkpt>
      <trkpt lat="45.69505" lon="6.26529">
        <ele>2048.1</ele>
        <time>2021-02-08T09:49:05Z</time>
      </trkpt>
      <trkpt lat="45.69503" lon="6.26529">
        <ele>2048.3</ele>
        <time>2021-02-08T09:49:08Z</time>
      </trkpt>
      <trkpt lat="45.69503" lon="6.26528">
        <ele>2048.7</ele>
        <time>2021-02-08T09:49:09Z</time>
      </trkpt>
      <trkpt lat="45.69499" lon="6.26527">
        <ele>2049.2</ele>
        <time>2021-02-08T09:49:15Z</time>
      </trkpt>
      <trkpt lat="45.69496" lon="6.26527">
        <ele>2049.1</ele>
        <time>2021-02-08T09:49:19Z</time>
      </trkpt>
      <trkpt lat="45.69494" lon="6.26526">
        <ele>2049.4</ele>
        <time>2021-02-08T09:49:23Z</time>
      </trkpt>
      <trkpt lat="45.69488" lon="6.26522">
        <ele>2050.6</ele>
        <time>2021-02-08T09:49:31Z</time>
      </trkpt>
      <trkpt lat="45.69487" lon="6.26521">
        <ele>2051</ele>
        <time>2021-02-08T09:49:33Z</time>
      </trkpt>
      <trkpt lat="45.69486" lon="6.2652">
        <ele>2051.3</ele>
        <time>2021-02-08T09:49:35Z</time>
      </trkpt>
      <trkpt lat="45.69482" lon="6.26519">
        <ele>2051.5</ele>
        <time>2021-02-08T09:49:40Z</time>
      </trkpt>
      <trkpt lat="45.69478" lon="6.26516">
        <ele>2052.4</ele>
        <time>2021-02-08T09:49:47Z</time>
      </trkpt>
      <trkpt lat="45.69475" lon="6.26514">
        <ele>2053.1</ele>
        <time>2021-02-08T09:49:54Z</time>
      </trkpt>
      <trkpt lat="45.69475" lon="6.26514">
        <ele>2053.1</ele>
        <time>2021-02-08T09:49:55Z</time>
      </trkpt>
      <trkpt lat="45.69473" lon="6.26513">
        <ele>2053.3</ele>
        <time>2021-02-08T09:49:59Z</time>
      </trkpt>
      <trkpt lat="45.69471" lon="6.26512">
        <ele>2053.8</ele>
        <time>2021-02-08T09:50:02Z</time>
      </trkpt>
      <trkpt lat="45.69469" lon="6.2651">
        <ele>2054.6</ele>
        <time>2021-02-08T09:50:07Z</time>
      </trkpt>
      <trkpt lat="45.69468" lon="6.26508">
        <ele>2055.4</ele>
        <time>2021-02-08T09:50:11Z</time>
      </trkpt>
      <trkpt lat="45.69465" lon="6.26508">
        <ele>2055.6</ele>
        <time>2021-02-08T09:50:16Z</time>
      </trkpt>
      <trkpt lat="45.69462" lon="6.26506">
        <ele>2056.6</ele>
        <time>2021-02-08T09:50:20Z</time>
      </trkpt>
      <trkpt lat="45.6946" lon="6.26505">
        <ele>2057.1</ele>
        <time>2021-02-08T09:50:23Z</time>
      </trkpt>
      <trkpt lat="45.69459" lon="6.26504">
        <ele>2057.5</ele>
        <time>2021-02-08T09:50:26Z</time>
      </trkpt>
      <trkpt lat="45.69457" lon="6.26502">
        <ele>2058.4</ele>
        <time>2021-02-08T09:50:30Z</time>
      </trkpt>
      <trkpt lat="45.69456" lon="6.26501">
        <ele>2058.8</ele>
        <time>2021-02-08T09:50:33Z</time>
      </trkpt>
      <trkpt lat="45.69455" lon="6.26499">
        <ele>2059.5</ele>
        <time>2021-02-08T09:50:36Z</time>
      </trkpt>
      <trkpt lat="45.69453" lon="6.26497">
        <ele>2060.2</ele>
        <time>2021-02-08T09:50:41Z</time>
      </trkpt>
      <trkpt lat="45.69451" lon="6.26496">
        <ele>2060.6</ele>
        <time>2021-02-08T09:50:44Z</time>
      </trkpt>
      <trkpt lat="45.69449" lon="6.26494">
        <ele>2061.3</ele>
        <time>2021-02-08T09:50:49Z</time>
      </trkpt>
      <trkpt lat="45.69447" lon="6.26493">
        <ele>2061.6</ele>
        <time>2021-02-08T09:50:53Z</time>
      </trkpt>
      <trkpt lat="45.69445" lon="6.26492">
        <ele>2062</ele>
        <time>2021-02-08T09:50:58Z</time>
      </trkpt>
      <trkpt lat="45.69443" lon="6.26489">
        <ele>2062.9</ele>
        <time>2021-02-08T09:51:02Z</time>
      </trkpt>
      <trkpt lat="45.69441" lon="6.26485">
        <ele>2064.1</ele>
        <time>2021-02-08T09:51:08Z</time>
      </trkpt>
      <trkpt lat="45.69441" lon="6.26485">
        <ele>2064.1</ele>
        <time>2021-02-08T09:51:09Z</time>
      </trkpt>
      <trkpt lat="45.69441" lon="6.26481">
        <ele>2065</ele>
        <time>2021-02-08T09:51:14Z</time>
      </trkpt>
      <trkpt lat="45.69441" lon="6.26479">
        <ele>2065.5</ele>
        <time>2021-02-08T09:51:17Z</time>
      </trkpt>
      <trkpt lat="45.69442" lon="6.26478">
        <ele>2065.7</ele>
        <time>2021-02-08T09:51:19Z</time>
      </trkpt>
      <trkpt lat="45.69443" lon="6.26476">
        <ele>2066.1</ele>
        <time>2021-02-08T09:51:22Z</time>
      </trkpt>
      <trkpt lat="45.69445" lon="6.26474">
        <ele>2066.6</ele>
        <time>2021-02-08T09:51:26Z</time>
      </trkpt>
      <trkpt lat="45.69447" lon="6.26473">
        <ele>2066.9</ele>
        <time>2021-02-08T09:51:30Z</time>
      </trkpt>
      <trkpt lat="45.69448" lon="6.26472">
        <ele>2067.1</ele>
        <time>2021-02-08T09:51:32Z</time>
      </trkpt>
      <trkpt lat="45.69453" lon="6.26468">
        <ele>2066.4</ele>
        <time>2021-02-08T09:51:41Z</time>
      </trkpt>
      <trkpt lat="45.69455" lon="6.26467">
        <ele>2066.5</ele>
        <time>2021-02-08T09:51:46Z</time>
      </trkpt>
      <trkpt lat="45.69458" lon="6.26466">
        <ele>2066.9</ele>
        <time>2021-02-08T09:51:51Z</time>
      </trkpt>
      <trkpt lat="45.69463" lon="6.26462">
        <ele>2067.8</ele>
        <time>2021-02-08T09:52:00Z</time>
      </trkpt>
      <trkpt lat="45.69464" lon="6.26461">
        <ele>2068.1</ele>
        <time>2021-02-08T09:52:04Z</time>
      </trkpt>
      <trkpt lat="45.69465" lon="6.2646">
        <ele>2068.4</ele>
        <time>2021-02-08T09:52:11Z</time>
      </trkpt>
      <trkpt lat="45.69467" lon="6.26456">
        <ele>2069.4</ele>
        <time>2021-02-08T09:52:17Z</time>
      </trkpt>
      <trkpt lat="45.69467" lon="6.26455">
        <ele>2069.6</ele>
        <time>2021-02-08T09:52:19Z</time>
      </trkpt>
      <trkpt lat="45.69467" lon="6.26454">
        <ele>2069.7</ele>
        <time>2021-02-08T09:52:22Z</time>
      </trkpt>
      <trkpt lat="45.69467" lon="6.26453">
        <ele>2069.8</ele>
        <time>2021-02-08T09:52:24Z</time>
      </trkpt>
      <trkpt lat="45.69467" lon="6.26452">
        <ele>2069.9</ele>
        <time>2021-02-08T09:52:25Z</time>
      </trkpt>
      <trkpt lat="45.69468" lon="6.2645">
        <ele>2070.6</ele>
        <time>2021-02-08T09:52:29Z</time>
      </trkpt>
      <trkpt lat="45.69468" lon="6.2645">
        <ele>2070.6</ele>
        <time>2021-02-08T09:52:37Z</time>
      </trkpt>
      <trkpt lat="45.69467" lon="6.26451">
        <ele>2070</ele>
        <time>2021-02-08T09:52:41Z</time>
      </trkpt>
      <trkpt lat="45.69467" lon="6.26452">
        <ele>2069.9</ele>
        <time>2021-02-08T09:52:43Z</time>
      </trkpt>
      <trkpt lat="45.69467" lon="6.26452">
        <ele>2069.9</ele>
        <time>2021-02-08T09:52:50Z</time>
      </trkpt>
      <trkpt lat="45.69467" lon="6.26452">
        <ele>2069.9</ele>
        <time>2021-02-08T09:53:01Z</time>
      </trkpt>
      <trkpt lat="45.69467" lon="6.26452">
        <ele>2069.9</ele>
        <time>2021-02-08T09:53:02Z</time>
      </trkpt>
      <trkpt lat="45.69467" lon="6.26452">
        <ele>2069.9</ele>
        <time>2021-02-08T09:53:05Z</time>
      </trkpt>
      <trkpt lat="45.69467" lon="6.26451">
        <ele>2070</ele>
        <time>2021-02-08T09:53:06Z</time>
      </trkpt>
      <trkpt lat="45.69467" lon="6.26451">
        <ele>2070</ele>
        <time>2021-02-08T09:53:07Z</time>
      </trkpt>
      <trkpt lat="45.69467" lon="6.26452">
        <ele>2069.9</ele>
        <time>2021-02-08T09:53:12Z</time>
      </trkpt>
      <trkpt lat="45.69467" lon="6.26452">
        <ele>2069.9</ele>
        <time>2021-02-08T09:53:15Z</time>
      </trkpt>
      <trkpt lat="45.69466" lon="6.2645">
        <ele>2069.5</ele>
        <time>2021-02-08T09:53:21Z</time>
      </trkpt>
      <trkpt lat="45.69466" lon="6.26449">
        <ele>2069.6</ele>
        <time>2021-02-08T09:53:22Z</time>
      </trkpt>
      <trkpt lat="45.69466" lon="6.2645">
        <ele>2069.5</ele>
        <time>2021-02-08T09:53:27Z</time>
      </trkpt>
      <trkpt lat="45.69466" lon="6.2645">
        <ele>2069.5</ele>
        <time>2021-02-08T09:53:29Z</time>
      </trkpt>
      <trkpt lat="45.69466" lon="6.26449">
        <ele>2069.6</ele>
        <time>2021-02-08T09:53:31Z</time>
      </trkpt>
      <trkpt lat="45.69467" lon="6.26448">
        <ele>2070.3</ele>
        <time>2021-02-08T09:53:34Z</time>
      </trkpt>
      <trkpt lat="45.69467" lon="6.26447">
        <ele>2070.4</ele>
        <time>2021-02-08T09:53:36Z</time>
      </trkpt>
      <trkpt lat="45.69467" lon="6.26446">
        <ele>2070.5</ele>
        <time>2021-02-08T09:53:38Z</time>
      </trkpt>
      <trkpt lat="45.69467" lon="6.26446">
        <ele>2070.5</ele>
        <time>2021-02-08T09:53:39Z</time>
      </trkpt>
      <trkpt lat="45.69466" lon="6.26446">
        <ele>2069.8</ele>
        <time>2021-02-08T09:53:44Z</time>
      </trkpt>
      <trkpt lat="45.69467" lon="6.26449">
        <ele>2070.2</ele>
        <time>2021-02-08T09:54:01Z</time>
      </trkpt>
      <trkpt lat="45.69467" lon="6.26448">
        <ele>2070.3</ele>
        <time>2021-02-08T09:54:03Z</time>
      </trkpt>
      <trkpt lat="45.69467" lon="6.26448">
        <ele>2070.3</ele>
        <time>2021-02-08T09:54:04Z</time>
      </trkpt>
      <trkpt lat="45.69467" lon="6.26448">
        <ele>2070.3</ele>
        <time>2021-02-08T09:54:12Z</time>
      </trkpt>
      <trkpt lat="45.69467" lon="6.26447">
        <ele>2070.4</ele>
        <time>2021-02-08T09:54:15Z</time>
      </trkpt>
      <trkpt lat="45.6947" lon="6.26449">
        <ele>2071.8</ele>
        <time>2021-02-08T09:54:32Z</time>
      </trkpt>
      <trkpt lat="45.69471" lon="6.26451">
        <ele>2072</ele>
        <time>2021-02-08T09:54:35Z</time>
      </trkpt>
      <trkpt lat="45.6947" lon="6.26454">
        <ele>2071</ele>
        <time>2021-02-08T09:54:39Z</time>
      </trkpt>
      <trkpt lat="45.69469" lon="6.26455">
        <ele>2070.4</ele>
        <time>2021-02-08T09:54:40Z</time>
      </trkpt>
      <trkpt lat="45.69469" lon="6.26456">
        <ele>2070.2</ele>
        <time>2021-02-08T09:54:43Z</time>
      </trkpt>
      <trkpt lat="45.69468" lon="6.26455">
        <ele>2070</ele>
        <time>2021-02-08T09:54:49Z</time>
      </trkpt>
      <trkpt lat="45.69467" lon="6.26458">
        <ele>2069.2</ele>
        <time>2021-02-08T09:54:55Z</time>
      </trkpt>
      <trkpt lat="45.69466" lon="6.26459">
        <ele>2068.8</ele>
        <time>2021-02-08T09:54:56Z</time>
      </trkpt>
      <trkpt lat="45.69465" lon="6.2646">
        <ele>2068.4</ele>
        <time>2021-02-08T09:54:57Z</time>
      </trkpt>
      <trkpt lat="45.69461" lon="6.26464">
        <ele>2067.3</ele>
        <time>2021-02-08T09:54:59Z</time>
      </trkpt>
      <trkpt lat="45.69459" lon="6.26465">
        <ele>2067</ele>
        <time>2021-02-08T09:55:00Z</time>
      </trkpt>
      <trkpt lat="45.69456" lon="6.26468">
        <ele>2066.8</ele>
        <time>2021-02-08T09:55:02Z</time>
      </trkpt>
      <trkpt lat="45.69454" lon="6.2647">
        <ele>2066.9</ele>
        <time>2021-02-08T09:55:04Z</time>
      </trkpt>
      <trkpt lat="45.69452" lon="6.26471">
        <ele>2067</ele>
        <time>2021-02-08T09:55:05Z</time>
      </trkpt>
      <trkpt lat="45.69449" lon="6.26473">
        <ele>2067</ele>
        <time>2021-02-08T09:55:07Z</time>
      </trkpt>
      <trkpt lat="45.69446" lon="6.26475">
        <ele>2066.3</ele>
        <time>2021-02-08T09:55:09Z</time>
      </trkpt>
      <trkpt lat="45.69438" lon="6.26476">
        <ele>2066.4</ele>
        <time>2021-02-08T09:55:15Z</time>
      </trkpt>
      <trkpt lat="45.69437" lon="6.26476">
        <ele>2066.4</ele>
        <time>2021-02-08T09:55:16Z</time>
      </trkpt>
      <trkpt lat="45.69435" lon="6.26477">
        <ele>2066.3</ele>
        <time>2021-02-08T09:55:19Z</time>
      </trkpt>
      <trkpt lat="45.69432" lon="6.26478">
        <ele>2066.3</ele>
        <time>2021-02-08T09:55:22Z</time>
      </trkpt>
      <trkpt lat="45.69429" lon="6.26478">
        <ele>2066.4</ele>
        <time>2021-02-08T09:55:25Z</time>
      </trkpt>
      <trkpt lat="45.69425" lon="6.26479">
        <ele>2066.5</ele>
        <time>2021-02-08T09:55:30Z</time>
      </trkpt>
      <trkpt lat="45.69417" lon="6.26481">
        <ele>2066.7</ele>
        <time>2021-02-08T09:55:38Z</time>
      </trkpt>
      <trkpt lat="45.69417" lon="6.26481">
        <ele>2066.7</ele>
        <time>2021-02-08T09:55:39Z</time>
      </trkpt>
      <trkpt lat="45.69412" lon="6.26482">
        <ele>2067.8</ele>
        <time>2021-02-08T09:55:44Z</time>
      </trkpt>
      <trkpt lat="45.6941" lon="6.26482">
        <ele>2068.3</ele>
        <time>2021-02-08T09:55:48Z</time>
      </trkpt>
      <trkpt lat="45.69409" lon="6.26482">
        <ele>2068.6</ele>
        <time>2021-02-08T09:55:49Z</time>
      </trkpt>
      <trkpt lat="45.69408" lon="6.26482">
        <ele>2068.9</ele>
        <time>2021-02-08T09:55:51Z</time>
      </trkpt>
      <trkpt lat="45.69405" lon="6.26482">
        <ele>2069.7</ele>
        <time>2021-02-08T09:55:56Z</time>
      </trkpt>
      <trkpt lat="45.69404" lon="6.26482">
        <ele>2069.9</ele>
        <time>2021-02-08T09:55:58Z</time>
      </trkpt>
      <trkpt lat="45.69401" lon="6.26484">
        <ele>2070.3</ele>
        <time>2021-02-08T09:56:02Z</time>
      </trkpt>
      <trkpt lat="45.694" lon="6.26484">
        <ele>2070.6</ele>
        <time>2021-02-08T09:56:03Z</time>
      </trkpt>
      <trkpt lat="45.69393" lon="6.26488">
        <ele>2071.6</ele>
        <time>2021-02-08T09:56:15Z</time>
      </trkpt>
      <trkpt lat="45.69391" lon="6.26488">
        <ele>2072.1</ele>
        <time>2021-02-08T09:56:17Z</time>
      </trkpt>
      <trkpt lat="45.69389" lon="6.26489">
        <ele>2072.3</ele>
        <time>2021-02-08T09:56:21Z</time>
      </trkpt>
      <trkpt lat="45.69388" lon="6.2649">
        <ele>2072.3</ele>
        <time>2021-02-08T09:56:23Z</time>
      </trkpt>
      <trkpt lat="45.69385" lon="6.26491">
        <ele>2072.5</ele>
        <time>2021-02-08T09:56:27Z</time>
      </trkpt>
      <trkpt lat="45.69383" lon="6.26491">
        <ele>2072.9</ele>
        <time>2021-02-08T09:56:30Z</time>
      </trkpt>
      <trkpt lat="45.69383" lon="6.26491">
        <ele>2072.9</ele>
        <time>2021-02-08T09:56:31Z</time>
      </trkpt>
      <trkpt lat="45.6938" lon="6.26492">
        <ele>2073.1</ele>
        <time>2021-02-08T09:56:34Z</time>
      </trkpt>
      <trkpt lat="45.69375" lon="6.26494">
        <ele>2073.4</ele>
        <time>2021-02-08T09:56:41Z</time>
      </trkpt>
      <trkpt lat="45.69374" lon="6.26495">
        <ele>2073.3</ele>
        <time>2021-02-08T09:56:43Z</time>
      </trkpt>
      <trkpt lat="45.6937" lon="6.26496">
        <ele>2073.7</ele>
        <time>2021-02-08T09:56:47Z</time>
      </trkpt>
      <trkpt lat="45.6937" lon="6.26496">
        <ele>2073.7</ele>
        <time>2021-02-08T09:56:48Z</time>
      </trkpt>
      <trkpt lat="45.69365" lon="6.26497">
        <ele>2074.2</ele>
        <time>2021-02-08T09:56:54Z</time>
      </trkpt>
      <trkpt lat="45.69365" lon="6.26498">
        <ele>2073.9</ele>
        <time>2021-02-08T09:56:55Z</time>
      </trkpt>
      <trkpt lat="45.69362" lon="6.26499">
        <ele>2074.1</ele>
        <time>2021-02-08T09:56:58Z</time>
      </trkpt>
      <trkpt lat="45.69359" lon="6.26499">
        <ele>2074.4</ele>
        <time>2021-02-08T09:57:01Z</time>
      </trkpt>
      <trkpt lat="45.69352" lon="6.26502">
        <ele>2074.6</ele>
        <time>2021-02-08T09:57:11Z</time>
      </trkpt>
      <trkpt lat="45.69347" lon="6.26504">
        <ele>2075.1</ele>
        <time>2021-02-08T09:57:16Z</time>
      </trkpt>
      <trkpt lat="45.69346" lon="6.26504">
        <ele>2075.2</ele>
        <time>2021-02-08T09:57:17Z</time>
      </trkpt>
      <trkpt lat="45.69337" lon="6.26507">
        <ele>2076.5</ele>
        <time>2021-02-08T09:57:29Z</time>
      </trkpt>
      <trkpt lat="45.69335" lon="6.26507">
        <ele>2076.8</ele>
        <time>2021-02-08T09:57:31Z</time>
      </trkpt>
      <trkpt lat="45.69333" lon="6.26508">
        <ele>2077.2</ele>
        <time>2021-02-08T09:57:36Z</time>
      </trkpt>
      <trkpt lat="45.69332" lon="6.26508">
        <ele>2077.4</ele>
        <time>2021-02-08T09:57:37Z</time>
      </trkpt>
      <trkpt lat="45.6933" lon="6.26509">
        <ele>2078</ele>
        <time>2021-02-08T09:57:40Z</time>
      </trkpt>
      <trkpt lat="45.69329" lon="6.26509">
        <ele>2078.2</ele>
        <time>2021-02-08T09:57:42Z</time>
      </trkpt>
      <trkpt lat="45.69327" lon="6.2651">
        <ele>2078.7</ele>
        <time>2021-02-08T09:57:47Z</time>
      </trkpt>
      <trkpt lat="45.69325" lon="6.2651">
        <ele>2079.2</ele>
        <time>2021-02-08T09:57:51Z</time>
      </trkpt>
      <trkpt lat="45.69323" lon="6.2651">
        <ele>2079.6</ele>
        <time>2021-02-08T09:57:55Z</time>
      </trkpt>
      <trkpt lat="45.69323" lon="6.2651">
        <ele>2079.6</ele>
        <time>2021-02-08T09:57:56Z</time>
      </trkpt>
      <trkpt lat="45.69321" lon="6.26511">
        <ele>2080.2</ele>
        <time>2021-02-08T09:58:00Z</time>
      </trkpt>
      <trkpt lat="45.69321" lon="6.26511">
        <ele>2080.2</ele>
        <time>2021-02-08T09:58:02Z</time>
      </trkpt>
      <trkpt lat="45.69319" lon="6.26512">
        <ele>2080.8</ele>
        <time>2021-02-08T09:58:06Z</time>
      </trkpt>
      <trkpt lat="45.69318" lon="6.26512">
        <ele>2081</ele>
        <time>2021-02-08T09:58:08Z</time>
      </trkpt>
      <trkpt lat="45.69317" lon="6.26512">
        <ele>2081.2</ele>
        <time>2021-02-08T09:58:10Z</time>
      </trkpt>
      <trkpt lat="45.69315" lon="6.26513">
        <ele>2081.8</ele>
        <time>2021-02-08T09:58:15Z</time>
      </trkpt>
      <trkpt lat="45.69314" lon="6.26513">
        <ele>2082</ele>
        <time>2021-02-08T09:58:18Z</time>
      </trkpt>
      <trkpt lat="45.69313" lon="6.26514">
        <ele>2082.4</ele>
        <time>2021-02-08T09:58:20Z</time>
      </trkpt>
      <trkpt lat="45.69312" lon="6.26514">
        <ele>2082.6</ele>
        <time>2021-02-08T09:58:21Z</time>
      </trkpt>
      <trkpt lat="45.69312" lon="6.26514">
        <ele>2082.6</ele>
        <time>2021-02-08T09:58:23Z</time>
      </trkpt>
      <trkpt lat="45.69311" lon="6.26515">
        <ele>2083</ele>
        <time>2021-02-08T09:58:25Z</time>
      </trkpt>
      <trkpt lat="45.6931" lon="6.26515">
        <ele>2083.3</ele>
        <time>2021-02-08T09:58:28Z</time>
      </trkpt>
      <trkpt lat="45.69309" lon="6.26516">
        <ele>2083.7</ele>
        <time>2021-02-08T09:58:31Z</time>
      </trkpt>
      <trkpt lat="45.69308" lon="6.26516">
        <ele>2083.9</ele>
        <time>2021-02-08T09:58:34Z</time>
      </trkpt>
      <trkpt lat="45.69301" lon="6.26516">
        <ele>2085.6</ele>
        <time>2021-02-08T09:58:47Z</time>
      </trkpt>
      <trkpt lat="45.69299" lon="6.26516">
        <ele>2086.1</ele>
        <time>2021-02-08T09:58:51Z</time>
      </trkpt>
      <trkpt lat="45.69296" lon="6.26517">
        <ele>2087.2</ele>
        <time>2021-02-08T09:58:56Z</time>
      </trkpt>
      <trkpt lat="45.69294" lon="6.26516">
        <ele>2087.4</ele>
        <time>2021-02-08T09:58:58Z</time>
      </trkpt>
      <trkpt lat="45.69293" lon="6.26516">
        <ele>2087.7</ele>
        <time>2021-02-08T09:59:00Z</time>
      </trkpt>
      <trkpt lat="45.69293" lon="6.26516">
        <ele>2087.7</ele>
        <time>2021-02-08T09:59:02Z</time>
      </trkpt>
      <trkpt lat="45.69288" lon="6.26517">
        <ele>2089.2</ele>
        <time>2021-02-08T09:59:11Z</time>
      </trkpt>
      <trkpt lat="45.69288" lon="6.26517">
        <ele>2089.2</ele>
        <time>2021-02-08T09:59:12Z</time>
      </trkpt>
      <trkpt lat="45.69288" lon="6.26521">
        <ele>2090.3</ele>
        <time>2021-02-08T09:59:22Z</time>
      </trkpt>
      <trkpt lat="45.69288" lon="6.26522">
        <ele>2090.5</ele>
        <time>2021-02-08T09:59:23Z</time>
      </trkpt>
      <trkpt lat="45.6929" lon="6.26527">
        <ele>2091.3</ele>
        <time>2021-02-08T09:59:32Z</time>
      </trkpt>
      <trkpt lat="45.69292" lon="6.2653">
        <ele>2091.6</ele>
        <time>2021-02-08T09:59:37Z</time>
      </trkpt>
      <trkpt lat="45.69292" lon="6.26531">
        <ele>2091.9</ele>
        <time>2021-02-08T09:59:38Z</time>
      </trkpt>
      <trkpt lat="45.69292" lon="6.26532">
        <ele>2092.2</ele>
        <time>2021-02-08T09:59:39Z</time>
      </trkpt>
      <trkpt lat="45.69293" lon="6.26533">
        <ele>2092.2</ele>
        <time>2021-02-08T09:59:40Z</time>
      </trkpt>
      <trkpt lat="45.69294" lon="6.26537">
        <ele>2093.2</ele>
        <time>2021-02-08T09:59:46Z</time>
      </trkpt>
      <trkpt lat="45.69295" lon="6.26538">
        <ele>2093.2</ele>
        <time>2021-02-08T09:59:48Z</time>
      </trkpt>
      <trkpt lat="45.69296" lon="6.26539">
        <ele>2093.2</ele>
        <time>2021-02-08T09:59:50Z</time>
      </trkpt>
      <trkpt lat="45.69296" lon="6.2654">
        <ele>2093.6</ele>
        <time>2021-02-08T09:59:52Z</time>
      </trkpt>
      <trkpt lat="45.69298" lon="6.26544">
        <ele>2094.3</ele>
        <time>2021-02-08T09:59:58Z</time>
      </trkpt>
      <trkpt lat="45.69299" lon="6.26547">
        <ele>2095</ele>
        <time>2021-02-08T10:00:04Z</time>
      </trkpt>
      <trkpt lat="45.69299" lon="6.26548">
        <ele>2095.3</ele>
        <time>2021-02-08T10:00:05Z</time>
      </trkpt>
      <trkpt lat="45.69299" lon="6.2655">
        <ele>2095.9</ele>
        <time>2021-02-08T10:00:09Z</time>
      </trkpt>
      <trkpt lat="45.69298" lon="6.2655">
        <ele>2096.2</ele>
        <time>2021-02-08T10:00:13Z</time>
      </trkpt>
      <trkpt lat="45.69297" lon="6.2655">
        <ele>2096.4</ele>
        <time>2021-02-08T10:00:16Z</time>
      </trkpt>
      <trkpt lat="45.69296" lon="6.26551">
        <ele>2097</ele>
        <time>2021-02-08T10:00:17Z</time>
      </trkpt>
      <trkpt lat="45.69295" lon="6.26551">
        <ele>2097.2</ele>
        <time>2021-02-08T10:00:19Z</time>
      </trkpt>
      <trkpt lat="45.69291" lon="6.26552">
        <ele>2098.6</ele>
        <time>2021-02-08T10:00:28Z</time>
      </trkpt>
      <trkpt lat="45.69291" lon="6.26552">
        <ele>2098.6</ele>
        <time>2021-02-08T10:00:29Z</time>
      </trkpt>
      <trkpt lat="45.69291" lon="6.26552">
        <ele>2098.6</ele>
        <time>2021-02-08T10:00:31Z</time>
      </trkpt>
      <trkpt lat="45.69292" lon="6.26557">
        <ele>2100</ele>
        <time>2021-02-08T10:00:40Z</time>
      </trkpt>
      <trkpt lat="45.69293" lon="6.2656">
        <ele>2101</ele>
        <time>2021-02-08T10:00:46Z</time>
      </trkpt>
      <trkpt lat="45.69294" lon="6.26563">
        <ele>2102.1</ele>
        <time>2021-02-08T10:00:53Z</time>
      </trkpt>
      <trkpt lat="45.69294" lon="6.26564">
        <ele>2102.5</ele>
        <time>2021-02-08T10:00:54Z</time>
      </trkpt>
      <trkpt lat="45.69296" lon="6.26567">
        <ele>2103.3</ele>
        <time>2021-02-08T10:00:59Z</time>
      </trkpt>
      <trkpt lat="45.69296" lon="6.26569">
        <ele>2104.2</ele>
        <time>2021-02-08T10:01:02Z</time>
      </trkpt>
      <trkpt lat="45.69296" lon="6.2657">
        <ele>2104.6</ele>
        <time>2021-02-08T10:01:05Z</time>
      </trkpt>
      <trkpt lat="45.69296" lon="6.2657">
        <ele>2104.6</ele>
        <time>2021-02-08T10:01:06Z</time>
      </trkpt>
      <trkpt lat="45.69293" lon="6.26571">
        <ele>2105.6</ele>
        <time>2021-02-08T10:01:12Z</time>
      </trkpt>
      <trkpt lat="45.69292" lon="6.26571">
        <ele>2105.8</ele>
        <time>2021-02-08T10:01:14Z</time>
      </trkpt>
      <trkpt lat="45.69291" lon="6.26571">
        <ele>2106</ele>
        <time>2021-02-08T10:01:17Z</time>
      </trkpt>
      <trkpt lat="45.6929" lon="6.26572">
        <ele>2106.6</ele>
        <time>2021-02-08T10:01:21Z</time>
      </trkpt>
      <trkpt lat="45.69289" lon="6.26572">
        <ele>2106.8</ele>
        <time>2021-02-08T10:01:23Z</time>
      </trkpt>
      <trkpt lat="45.69287" lon="6.26573">
        <ele>2107.6</ele>
        <time>2021-02-08T10:01:27Z</time>
      </trkpt>
      <trkpt lat="45.69284" lon="6.26573">
        <ele>2108.1</ele>
        <time>2021-02-08T10:01:32Z</time>
      </trkpt>
      <trkpt lat="45.69283" lon="6.26573">
        <ele>2108.3</ele>
        <time>2021-02-08T10:01:34Z</time>
      </trkpt>
      <trkpt lat="45.69281" lon="6.26572">
        <ele>2108.3</ele>
        <time>2021-02-08T10:01:39Z</time>
      </trkpt>
      <trkpt lat="45.69281" lon="6.26572">
        <ele>2108.3</ele>
        <time>2021-02-08T10:01:40Z</time>
      </trkpt>
      <trkpt lat="45.69279" lon="6.26572">
        <ele>2108.7</ele>
        <time>2021-02-08T10:01:43Z</time>
      </trkpt>
      <trkpt lat="45.69279" lon="6.26572">
        <ele>2108.7</ele>
        <time>2021-02-08T10:01:48Z</time>
      </trkpt>
      <trkpt lat="45.69279" lon="6.26573">
        <ele>2109.1</ele>
        <time>2021-02-08T10:01:49Z</time>
      </trkpt>
      <trkpt lat="45.69279" lon="6.26573">
        <ele>2109.1</ele>
        <time>2021-02-08T10:01:50Z</time>
      </trkpt>
      <trkpt lat="45.69279" lon="6.26573">
        <ele>2109.1</ele>
        <time>2021-02-08T10:01:51Z</time>
      </trkpt>
      <trkpt lat="45.6928" lon="6.26576">
        <ele>2110</ele>
        <time>2021-02-08T10:01:57Z</time>
      </trkpt>
      <trkpt lat="45.6928" lon="6.26579">
        <ele>2111.1</ele>
        <time>2021-02-08T10:02:02Z</time>
      </trkpt>
      <trkpt lat="45.6928" lon="6.26581">
        <ele>2111.8</ele>
        <time>2021-02-08T10:02:04Z</time>
      </trkpt>
      <trkpt lat="45.69281" lon="6.26584">
        <ele>2112.5</ele>
        <time>2021-02-08T10:02:09Z</time>
      </trkpt>
      <trkpt lat="45.69282" lon="6.26587">
        <ele>2112</ele>
        <time>2021-02-08T10:02:12Z</time>
      </trkpt>
      <trkpt lat="45.69282" lon="6.26588">
        <ele>2111.9</ele>
        <time>2021-02-08T10:02:14Z</time>
      </trkpt>
      <trkpt lat="45.69283" lon="6.2659">
        <ele>2111.5</ele>
        <time>2021-02-08T10:02:17Z</time>
      </trkpt>
      <trkpt lat="45.69283" lon="6.26591">
        <ele>2111.4</ele>
        <time>2021-02-08T10:02:18Z</time>
      </trkpt>
      <trkpt lat="45.69285" lon="6.26594">
        <ele>2110.8</ele>
        <time>2021-02-08T10:02:23Z</time>
      </trkpt>
      <trkpt lat="45.69286" lon="6.26595">
        <ele>2110.6</ele>
        <time>2021-02-08T10:02:25Z</time>
      </trkpt>
      <trkpt lat="45.69287" lon="6.26596">
        <ele>2110.3</ele>
        <time>2021-02-08T10:02:28Z</time>
      </trkpt>
      <trkpt lat="45.69288" lon="6.26597">
        <ele>2110.1</ele>
        <time>2021-02-08T10:02:30Z</time>
      </trkpt>
      <trkpt lat="45.6929" lon="6.26598">
        <ele>2109.7</ele>
        <time>2021-02-08T10:02:33Z</time>
      </trkpt>
      <trkpt lat="45.6929" lon="6.26599">
        <ele>2109.5</ele>
        <time>2021-02-08T10:02:34Z</time>
      </trkpt>
      <trkpt lat="45.6929" lon="6.26599">
        <ele>2109.5</ele>
        <time>2021-02-08T10:02:35Z</time>
      </trkpt>
      <trkpt lat="45.6929" lon="6.26599">
        <ele>2109.5</ele>
        <time>2021-02-08T10:02:36Z</time>
      </trkpt>
      <trkpt lat="45.6929" lon="6.26599">
        <ele>2109.5</ele>
        <time>2021-02-08T10:02:37Z</time>
      </trkpt>
      <trkpt lat="45.6929" lon="6.26599">
        <ele>2109.5</ele>
        <time>2021-02-08T10:02:38Z</time>
      </trkpt>
      <trkpt lat="45.6929" lon="6.26599">
        <ele>2109.5</ele>
        <time>2021-02-08T10:02:50Z</time>
      </trkpt>
      <trkpt lat="45.6929" lon="6.26599">
        <ele>2109.5</ele>
        <time>2021-02-08T10:02:55Z</time>
      </trkpt>
      <trkpt lat="45.6929" lon="6.26599">
        <ele>2109.5</ele>
        <time>2021-02-08T10:02:59Z</time>
      </trkpt>
      <trkpt lat="45.6929" lon="6.26599">
        <ele>2109.5</ele>
        <time>2021-02-08T10:03:03Z</time>
      </trkpt>
      <trkpt lat="45.6929" lon="6.26599">
        <ele>2109.5</ele>
        <time>2021-02-08T10:03:04Z</time>
      </trkpt>
      <trkpt lat="45.6929" lon="6.26599">
        <ele>2109.5</ele>
        <time>2021-02-08T10:03:11Z</time>
      </trkpt>
      <trkpt lat="45.69289" lon="6.26599">
        <ele>2109.7</ele>
        <time>2021-02-08T10:03:15Z</time>
      </trkpt>
      <trkpt lat="45.69289" lon="6.26599">
        <ele>2109.7</ele>
        <time>2021-02-08T10:03:17Z</time>
      </trkpt>
      <trkpt lat="45.69289" lon="6.26599">
        <ele>2109.7</ele>
        <time>2021-02-08T10:03:18Z</time>
      </trkpt>
      <trkpt lat="45.69289" lon="6.26599">
        <ele>2109.7</ele>
        <time>2021-02-08T10:03:19Z</time>
      </trkpt>
      <trkpt lat="45.69289" lon="6.26599">
        <ele>2109.7</ele>
        <time>2021-02-08T10:03:24Z</time>
      </trkpt>
      <trkpt lat="45.69289" lon="6.26598">
        <ele>2109.8</ele>
        <time>2021-02-08T10:03:30Z</time>
      </trkpt>
      <trkpt lat="45.69289" lon="6.26598">
        <ele>2109.8</ele>
        <time>2021-02-08T10:03:32Z</time>
      </trkpt>
      <trkpt lat="45.69289" lon="6.26598">
        <ele>2109.8</ele>
        <time>2021-02-08T10:03:36Z</time>
      </trkpt>
      <trkpt lat="45.69288" lon="6.26598">
        <ele>2109.9</ele>
        <time>2021-02-08T10:03:40Z</time>
      </trkpt>
      <trkpt lat="45.69287" lon="6.26598">
        <ele>2110.1</ele>
        <time>2021-02-08T10:03:50Z</time>
      </trkpt>
      <trkpt lat="45.69287" lon="6.26598">
        <ele>2110.1</ele>
        <time>2021-02-08T10:03:54Z</time>
      </trkpt>
      <trkpt lat="45.69287" lon="6.26598">
        <ele>2110.1</ele>
        <time>2021-02-08T10:03:57Z</time>
      </trkpt>
      <trkpt lat="45.69288" lon="6.26598">
        <ele>2109.9</ele>
        <time>2021-02-08T10:04:12Z</time>
      </trkpt>
      <trkpt lat="45.69287" lon="6.26597">
        <ele>2110.2</ele>
        <time>2021-02-08T10:04:32Z</time>
      </trkpt>
      <trkpt lat="45.69287" lon="6.26597">
        <ele>2110.2</ele>
        <time>2021-02-08T10:04:41Z</time>
      </trkpt>
      <trkpt lat="45.69287" lon="6.26596">
        <ele>2110.3</ele>
        <time>2021-02-08T10:04:45Z</time>
      </trkpt>
      <trkpt lat="45.69287" lon="6.26596">
        <ele>2110.3</ele>
        <time>2021-02-08T10:04:46Z</time>
      </trkpt>
      <trkpt lat="45.69287" lon="6.26597">
        <ele>2110.2</ele>
        <time>2021-02-08T10:04:58Z</time>
      </trkpt>
      <trkpt lat="45.69287" lon="6.26598">
        <ele>2110.1</ele>
        <time>2021-02-08T10:05:01Z</time>
      </trkpt>
      <trkpt lat="45.69287" lon="6.26597">
        <ele>2110.2</ele>
        <time>2021-02-08T10:05:07Z</time>
      </trkpt>
      <trkpt lat="45.69287" lon="6.26598">
        <ele>2110.1</ele>
        <time>2021-02-08T10:05:09Z</time>
      </trkpt>
      <trkpt lat="45.69287" lon="6.26598">
        <ele>2110.1</ele>
        <time>2021-02-08T10:05:14Z</time>
      </trkpt>
      <trkpt lat="45.69288" lon="6.26598">
        <ele>2109.9</ele>
        <time>2021-02-08T10:05:20Z</time>
      </trkpt>
      <trkpt lat="45.69288" lon="6.26598">
        <ele>2109.9</ele>
        <time>2021-02-08T10:05:23Z</time>
      </trkpt>
      <trkpt lat="45.69288" lon="6.26598">
        <ele>2109.9</ele>
        <time>2021-02-08T10:05:28Z</time>
      </trkpt>
      <trkpt lat="45.69288" lon="6.26598">
        <ele>2109.9</ele>
        <time>2021-02-08T10:05:30Z</time>
      </trkpt>
      <trkpt lat="45.69287" lon="6.26597">
        <ele>2110.2</ele>
        <time>2021-02-08T10:05:41Z</time>
      </trkpt>
      <trkpt lat="45.69287" lon="6.26597">
        <ele>2110.2</ele>
        <time>2021-02-08T10:05:43Z</time>
      </trkpt>
      <trkpt lat="45.69289" lon="6.26597">
        <ele>2109.9</ele>
        <time>2021-02-08T10:05:47Z</time>
      </trkpt>
      <trkpt lat="45.6929" lon="6.26597">
        <ele>2109.8</ele>
        <time>2021-02-08T10:05:48Z</time>
      </trkpt>
      <trkpt lat="45.69293" lon="6.26596">
        <ele>2109.4</ele>
        <time>2021-02-08T10:05:53Z</time>
      </trkpt>
      <trkpt lat="45.69294" lon="6.26596">
        <ele>2109.3</ele>
        <time>2021-02-08T10:05:58Z</time>
      </trkpt>
      <trkpt lat="45.69294" lon="6.26596">
        <ele>2109.3</ele>
        <time>2021-02-08T10:06:00Z</time>
      </trkpt>
      <trkpt lat="45.69293" lon="6.26596">
        <ele>2109.4</ele>
        <time>2021-02-08T10:06:03Z</time>
      </trkpt>
      <trkpt lat="45.69293" lon="6.26596">
        <ele>2109.4</ele>
        <time>2021-02-08T10:06:05Z</time>
      </trkpt>
      <trkpt lat="45.69293" lon="6.26596">
        <ele>2109.4</ele>
        <time>2021-02-08T10:06:06Z</time>
      </trkpt>
      <trkpt lat="45.69293" lon="6.26597">
        <ele>2109.3</ele>
        <time>2021-02-08T10:06:13Z</time>
      </trkpt>
      <trkpt lat="45.69293" lon="6.26597">
        <ele>2109.3</ele>
        <time>2021-02-08T10:06:15Z</time>
      </trkpt>
      <trkpt lat="45.69293" lon="6.26597">
        <ele>2109.3</ele>
        <time>2021-02-08T10:06:18Z</time>
      </trkpt>
      <trkpt lat="45.69293" lon="6.26597">
        <ele>2109.3</ele>
        <time>2021-02-08T10:06:24Z</time>
      </trkpt>
      <trkpt lat="45.69293" lon="6.26597">
        <ele>2109.3</ele>
        <time>2021-02-08T10:06:27Z</time>
      </trkpt>
      <trkpt lat="45.69293" lon="6.26597">
        <ele>2109.3</ele>
        <time>2021-02-08T10:06:30Z</time>
      </trkpt>
      <trkpt lat="45.69293" lon="6.26597">
        <ele>2109.3</ele>
        <time>2021-02-08T10:06:42Z</time>
      </trkpt>
      <trkpt lat="45.69293" lon="6.26597">
        <ele>2109.3</ele>
        <time>2021-02-08T10:06:43Z</time>
      </trkpt>
      <trkpt lat="45.69294" lon="6.26597">
        <ele>2109.2</ele>
        <time>2021-02-08T10:06:45Z</time>
      </trkpt>
      <trkpt lat="45.69294" lon="6.26597">
        <ele>2109.2</ele>
        <time>2021-02-08T10:06:47Z</time>
      </trkpt>
      <trkpt lat="45.69293" lon="6.26597">
        <ele>2109.3</ele>
        <time>2021-02-08T10:06:51Z</time>
      </trkpt>
      <trkpt lat="45.69293" lon="6.26598">
        <ele>2109.2</ele>
        <time>2021-02-08T10:06:52Z</time>
      </trkpt>
      <trkpt lat="45.69293" lon="6.26598">
        <ele>2109.2</ele>
        <time>2021-02-08T10:06:54Z</time>
      </trkpt>
      <trkpt lat="45.69294" lon="6.26599">
        <ele>2109</ele>
        <time>2021-02-08T10:06:57Z</time>
      </trkpt>
      <trkpt lat="45.69293" lon="6.26599">
        <ele>2109.1</ele>
        <time>2021-02-08T10:07:00Z</time>
      </trkpt>
      <trkpt lat="45.69291" lon="6.26599">
        <ele>2109.4</ele>
        <time>2021-02-08T10:07:06Z</time>
      </trkpt>
      <trkpt lat="45.6929" lon="6.26599">
        <ele>2109.5</ele>
        <time>2021-02-08T10:07:08Z</time>
      </trkpt>
      <trkpt lat="45.69289" lon="6.26599">
        <ele>2109.7</ele>
        <time>2021-02-08T10:07:10Z</time>
      </trkpt>
      <trkpt lat="45.69288" lon="6.266">
        <ele>2109.7</ele>
        <time>2021-02-08T10:07:13Z</time>
      </trkpt>
      <trkpt lat="45.69287" lon="6.26599">
        <ele>2110</ele>
        <time>2021-02-08T10:07:17Z</time>
      </trkpt>
      <trkpt lat="45.69287" lon="6.26599">
        <ele>2110</ele>
        <time>2021-02-08T10:07:19Z</time>
      </trkpt>
      <trkpt lat="45.69287" lon="6.26599">
        <ele>2110</ele>
        <time>2021-02-08T10:07:21Z</time>
      </trkpt>
      <trkpt lat="45.69287" lon="6.26599">
        <ele>2110</ele>
        <time>2021-02-08T10:07:26Z</time>
      </trkpt>
      <trkpt lat="45.69287" lon="6.26599">
        <ele>2110</ele>
        <time>2021-02-08T10:07:28Z</time>
      </trkpt>
      <trkpt lat="45.69287" lon="6.26599">
        <ele>2110</ele>
        <time>2021-02-08T10:07:32Z</time>
      </trkpt>
      <trkpt lat="45.69287" lon="6.26598">
        <ele>2110.1</ele>
        <time>2021-02-08T10:07:41Z</time>
      </trkpt>
      <trkpt lat="45.69287" lon="6.26598">
        <ele>2110.1</ele>
        <time>2021-02-08T10:07:48Z</time>
      </trkpt>
      <trkpt lat="45.69287" lon="6.26598">
        <ele>2110.1</ele>
        <time>2021-02-08T10:07:52Z</time>
      </trkpt>
      <trkpt lat="45.69287" lon="6.26598">
        <ele>2110.1</ele>
        <time>2021-02-08T10:08:00Z</time>
      </trkpt>
      <trkpt lat="45.69287" lon="6.26597">
        <ele>2110.2</ele>
        <time>2021-02-08T10:08:07Z</time>
      </trkpt>
      <trkpt lat="45.69286" lon="6.26597">
        <ele>2110.3</ele>
        <time>2021-02-08T10:08:14Z</time>
      </trkpt>
      <trkpt lat="45.69287" lon="6.26597">
        <ele>2110.2</ele>
        <time>2021-02-08T10:08:15Z</time>
      </trkpt>
      <trkpt lat="45.69288" lon="6.26599">
        <ele>2109.8</ele>
        <time>2021-02-08T10:08:20Z</time>
      </trkpt>
      <trkpt lat="45.69288" lon="6.26598">
        <ele>2109.9</ele>
        <time>2021-02-08T10:08:22Z</time>
      </trkpt>
      <trkpt lat="45.69288" lon="6.26598">
        <ele>2109.9</ele>
        <time>2021-02-08T10:08:24Z</time>
      </trkpt>
      <trkpt lat="45.69288" lon="6.26598">
        <ele>2109.9</ele>
        <time>2021-02-08T10:08:25Z</time>
      </trkpt>
      <trkpt lat="45.69288" lon="6.26597">
        <ele>2110.1</ele>
        <time>2021-02-08T10:08:33Z</time>
      </trkpt>
      <trkpt lat="45.69288" lon="6.26598">
        <ele>2109.9</ele>
        <time>2021-02-08T10:08:40Z</time>
      </trkpt>
      <trkpt lat="45.69288" lon="6.26598">
        <ele>2109.9</ele>
        <time>2021-02-08T10:08:43Z</time>
      </trkpt>
      <trkpt lat="45.69288" lon="6.26598">
        <ele>2109.9</ele>
        <time>2021-02-08T10:08:48Z</time>
      </trkpt>
      <trkpt lat="45.69289" lon="6.26598">
        <ele>2109.8</ele>
        <time>2021-02-08T10:08:51Z</time>
      </trkpt>
      <trkpt lat="45.69289" lon="6.26597">
        <ele>2109.9</ele>
        <time>2021-02-08T10:08:52Z</time>
      </trkpt>
      <trkpt lat="45.6929" lon="6.26595">
        <ele>2110</ele>
        <time>2021-02-08T10:08:55Z</time>
      </trkpt>
      <trkpt lat="45.69292" lon="6.26595">
        <ele>2109.7</ele>
        <time>2021-02-08T10:09:02Z</time>
      </trkpt>
      <trkpt lat="45.69292" lon="6.26595">
        <ele>2109.7</ele>
        <time>2021-02-08T10:09:03Z</time>
      </trkpt>
      <trkpt lat="45.69291" lon="6.26595">
        <ele>2109.8</ele>
        <time>2021-02-08T10:09:07Z</time>
      </trkpt>
      <trkpt lat="45.69289" lon="6.26595">
        <ele>2110.1</ele>
        <time>2021-02-08T10:09:19Z</time>
      </trkpt>
      <trkpt lat="45.6929" lon="6.26595">
        <ele>2110</ele>
        <time>2021-02-08T10:09:32Z</time>
      </trkpt>
      <trkpt lat="45.6929" lon="6.26595">
        <ele>2110</ele>
        <time>2021-02-08T10:09:33Z</time>
      </trkpt>
      <trkpt lat="45.6929" lon="6.26596">
        <ele>2109.9</ele>
        <time>2021-02-08T10:09:39Z</time>
      </trkpt>
      <trkpt lat="45.6929" lon="6.26596">
        <ele>2109.9</ele>
        <time>2021-02-08T10:09:42Z</time>
      </trkpt>
      <trkpt lat="45.6929" lon="6.26596">
        <ele>2109.9</ele>
        <time>2021-02-08T10:09:45Z</time>
      </trkpt>
      <trkpt lat="45.6929" lon="6.26596">
        <ele>2109.9</ele>
        <time>2021-02-08T10:09:49Z</time>
      </trkpt>
      <trkpt lat="45.6929" lon="6.26596">
        <ele>2109.9</ele>
        <time>2021-02-08T10:09:52Z</time>
      </trkpt>
      <trkpt lat="45.6929" lon="6.26596">
        <ele>2109.9</ele>
        <time>2021-02-08T10:09:57Z</time>
      </trkpt>
      <trkpt lat="45.6929" lon="6.26596">
        <ele>2109.9</ele>
        <time>2021-02-08T10:10:02Z</time>
      </trkpt>
      <trkpt lat="45.69288" lon="6.26597">
        <ele>2110.1</ele>
        <time>2021-02-08T10:10:15Z</time>
      </trkpt>
      <trkpt lat="45.69288" lon="6.26597">
        <ele>2110.1</ele>
        <time>2021-02-08T10:10:21Z</time>
      </trkpt>
      <trkpt lat="45.69288" lon="6.26597">
        <ele>2110.1</ele>
        <time>2021-02-08T10:10:22Z</time>
      </trkpt>
      <trkpt lat="45.69289" lon="6.26597">
        <ele>2109.9</ele>
        <time>2021-02-08T10:10:29Z</time>
      </trkpt>
      <trkpt lat="45.69289" lon="6.26597">
        <ele>2109.9</ele>
        <time>2021-02-08T10:10:30Z</time>
      </trkpt>
      <trkpt lat="45.69288" lon="6.26597">
        <ele>2110.1</ele>
        <time>2021-02-08T10:10:32Z</time>
      </trkpt>
      <trkpt lat="45.69288" lon="6.26597">
        <ele>2110.1</ele>
        <time>2021-02-08T10:10:40Z</time>
      </trkpt>
      <trkpt lat="45.69289" lon="6.26597">
        <ele>2109.9</ele>
        <time>2021-02-08T10:10:48Z</time>
      </trkpt>
      <trkpt lat="45.69289" lon="6.26598">
        <ele>2109.8</ele>
        <time>2021-02-08T10:10:50Z</time>
      </trkpt>
      <trkpt lat="45.69289" lon="6.26598">
        <ele>2109.8</ele>
        <time>2021-02-08T10:10:53Z</time>
      </trkpt>
      <trkpt lat="45.69289" lon="6.266">
        <ele>2109.6</ele>
        <time>2021-02-08T10:11:04Z</time>
      </trkpt>
      <trkpt lat="45.69289" lon="6.26599">
        <ele>2109.7</ele>
        <time>2021-02-08T10:11:11Z</time>
      </trkpt>
      <trkpt lat="45.69289" lon="6.266">
        <ele>2109.6</ele>
        <time>2021-02-08T10:11:19Z</time>
      </trkpt>
      <trkpt lat="45.6929" lon="6.26599">
        <ele>2109.5</ele>
        <time>2021-02-08T10:11:26Z</time>
      </trkpt>
      <trkpt lat="45.69292" lon="6.26599">
        <ele>2109.3</ele>
        <time>2021-02-08T10:11:29Z</time>
      </trkpt>
      <trkpt lat="45.69292" lon="6.266">
        <ele>2109.2</ele>
        <time>2021-02-08T10:11:33Z</time>
      </trkpt>
      <trkpt lat="45.69292" lon="6.266">
        <ele>2109.2</ele>
        <time>2021-02-08T10:11:34Z</time>
      </trkpt>
      <trkpt lat="45.69292" lon="6.26599">
        <ele>2109.3</ele>
        <time>2021-02-08T10:11:44Z</time>
      </trkpt>
      <trkpt lat="45.6929" lon="6.266">
        <ele>2109.4</ele>
        <time>2021-02-08T10:11:58Z</time>
      </trkpt>
      <trkpt lat="45.69289" lon="6.26599">
        <ele>2109.7</ele>
        <time>2021-02-08T10:11:59Z</time>
      </trkpt>
      <trkpt lat="45.69288" lon="6.266">
        <ele>2109.7</ele>
        <time>2021-02-08T10:12:01Z</time>
      </trkpt>
      <trkpt lat="45.69288" lon="6.266">
        <ele>2109.7</ele>
        <time>2021-02-08T10:12:05Z</time>
      </trkpt>
      <trkpt lat="45.69287" lon="6.26601">
        <ele>2109.8</ele>
        <time>2021-02-08T10:12:07Z</time>
      </trkpt>
      <trkpt lat="45.69288" lon="6.26601">
        <ele>2109.6</ele>
        <time>2021-02-08T10:12:09Z</time>
      </trkpt>
      <trkpt lat="45.69288" lon="6.26601">
        <ele>2109.6</ele>
        <time>2021-02-08T10:12:12Z</time>
      </trkpt>
      <trkpt lat="45.69288" lon="6.26601">
        <ele>2109.6</ele>
        <time>2021-02-08T10:12:19Z</time>
      </trkpt>
      <trkpt lat="45.69288" lon="6.26601">
        <ele>2109.6</ele>
        <time>2021-02-08T10:12:22Z</time>
      </trkpt>
      <trkpt lat="45.69288" lon="6.26601">
        <ele>2109.6</ele>
        <time>2021-02-08T10:12:27Z</time>
      </trkpt>
      <trkpt lat="45.69287" lon="6.26602">
        <ele>2109.7</ele>
        <time>2021-02-08T10:12:43Z</time>
      </trkpt>
      <trkpt lat="45.69287" lon="6.26601">
        <ele>2109.8</ele>
        <time>2021-02-08T10:12:53Z</time>
      </trkpt>
      <trkpt lat="45.69288" lon="6.26601">
        <ele>2109.6</ele>
        <time>2021-02-08T10:12:55Z</time>
      </trkpt>
      <trkpt lat="45.69288" lon="6.26601">
        <ele>2109.6</ele>
        <time>2021-02-08T10:12:56Z</time>
      </trkpt>
      <trkpt lat="45.69288" lon="6.266">
        <ele>2109.7</ele>
        <time>2021-02-08T10:12:59Z</time>
      </trkpt>
      <trkpt lat="45.69288" lon="6.266">
        <ele>2109.7</ele>
        <time>2021-02-08T10:13:03Z</time>
      </trkpt>
      <trkpt lat="45.69288" lon="6.266">
        <ele>2109.7</ele>
        <time>2021-02-08T10:13:07Z</time>
      </trkpt>
      <trkpt lat="45.69288" lon="6.266">
        <ele>2109.7</ele>
        <time>2021-02-08T10:13:11Z</time>
      </trkpt>
      <trkpt lat="45.69288" lon="6.26599">
        <ele>2109.8</ele>
        <time>2021-02-08T10:13:17Z</time>
      </trkpt>
      <trkpt lat="45.69288" lon="6.26599">
        <ele>2109.8</ele>
        <time>2021-02-08T10:13:18Z</time>
      </trkpt>
      <trkpt lat="45.69288" lon="6.26598">
        <ele>2109.9</ele>
        <time>2021-02-08T10:13:23Z</time>
      </trkpt>
      <trkpt lat="45.69287" lon="6.26598">
        <ele>2110.1</ele>
        <time>2021-02-08T10:13:31Z</time>
      </trkpt>
      <trkpt lat="45.69287" lon="6.26599">
        <ele>2110</ele>
        <time>2021-02-08T10:13:33Z</time>
      </trkpt>
      <trkpt lat="45.69287" lon="6.26599">
        <ele>2110</ele>
        <time>2021-02-08T10:13:42Z</time>
      </trkpt>
      <trkpt lat="45.69288" lon="6.26599">
        <ele>2109.8</ele>
        <time>2021-02-08T10:13:47Z</time>
      </trkpt>
      <trkpt lat="45.69288" lon="6.26598">
        <ele>2109.9</ele>
        <time>2021-02-08T10:13:52Z</time>
      </trkpt>
      <trkpt lat="45.69288" lon="6.26598">
        <ele>2109.9</ele>
        <time>2021-02-08T10:13:55Z</time>
      </trkpt>
      <trkpt lat="45.69287" lon="6.26599">
        <ele>2110</ele>
        <time>2021-02-08T10:13:56Z</time>
      </trkpt>
      <trkpt lat="45.69287" lon="6.26598">
        <ele>2110.1</ele>
        <time>2021-02-08T10:14:06Z</time>
      </trkpt>
      <trkpt lat="45.69287" lon="6.26599">
        <ele>2110</ele>
        <time>2021-02-08T10:14:08Z</time>
      </trkpt>
      <trkpt lat="45.69287" lon="6.26599">
        <ele>2110</ele>
        <time>2021-02-08T10:14:17Z</time>
      </trkpt>
      <trkpt lat="45.69287" lon="6.26599">
        <ele>2110</ele>
        <time>2021-02-08T10:14:18Z</time>
      </trkpt>
      <trkpt lat="45.69287" lon="6.26599">
        <ele>2110</ele>
        <time>2021-02-08T10:14:30Z</time>
      </trkpt>
      <trkpt lat="45.69287" lon="6.26599">
        <ele>2110</ele>
        <time>2021-02-08T10:14:39Z</time>
      </trkpt>
      <trkpt lat="45.69286" lon="6.26599">
        <ele>2110.1</ele>
        <time>2021-02-08T10:14:43Z</time>
      </trkpt>
      <trkpt lat="45.69286" lon="6.26599">
        <ele>2110.1</ele>
        <time>2021-02-08T10:14:46Z</time>
      </trkpt>
      <trkpt lat="45.69286" lon="6.26599">
        <ele>2110.1</ele>
        <time>2021-02-08T10:14:49Z</time>
      </trkpt>
      <trkpt lat="45.69284" lon="6.26596">
        <ele>2110.7</ele>
        <time>2021-02-08T10:14:55Z</time>
      </trkpt>
      <trkpt lat="45.69282" lon="6.26589">
        <ele>2111.8</ele>
        <time>2021-02-08T10:15:00Z</time>
      </trkpt>
      <trkpt lat="45.69283" lon="6.26587">
        <ele>2111.9</ele>
        <time>2021-02-08T10:15:01Z</time>
      </trkpt>
      <trkpt lat="45.69283" lon="6.26581">
        <ele>2111.4</ele>
        <time>2021-02-08T10:15:03Z</time>
      </trkpt>
      <trkpt lat="45.69283" lon="6.26578">
        <ele>2110.2</ele>
        <time>2021-02-08T10:15:04Z</time>
      </trkpt>
      <trkpt lat="45.69283" lon="6.26574">
        <ele>2108.7</ele>
        <time>2021-02-08T10:15:05Z</time>
      </trkpt>
      <trkpt lat="45.69285" lon="6.26571">
        <ele>2107.2</ele>
        <time>2021-02-08T10:15:06Z</time>
      </trkpt>
      <trkpt lat="45.69289" lon="6.26566">
        <ele>2104.4</ele>
        <time>2021-02-08T10:15:08Z</time>
      </trkpt>
      <trkpt lat="45.69289" lon="6.26562">
        <ele>2102.8</ele>
        <time>2021-02-08T10:15:09Z</time>
      </trkpt>
      <trkpt lat="45.69288" lon="6.26558">
        <ele>2101.4</ele>
        <time>2021-02-08T10:15:10Z</time>
      </trkpt>
      <trkpt lat="45.69287" lon="6.26554">
        <ele>2100.2</ele>
        <time>2021-02-08T10:15:11Z</time>
      </trkpt>
      <trkpt lat="45.69292" lon="6.26549">
        <ele>2097.4</ele>
        <time>2021-02-08T10:15:13Z</time>
      </trkpt>
      <trkpt lat="45.69294" lon="6.26547">
        <ele>2096.3</ele>
        <time>2021-02-08T10:15:14Z</time>
      </trkpt>
      <trkpt lat="45.69295" lon="6.26543">
        <ele>2094.8</ele>
        <time>2021-02-08T10:15:15Z</time>
      </trkpt>
      <trkpt lat="45.69295" lon="6.26538">
        <ele>2093.2</ele>
        <time>2021-02-08T10:15:16Z</time>
      </trkpt>
      <trkpt lat="45.69296" lon="6.26533">
        <ele>2091.4</ele>
        <time>2021-02-08T10:15:17Z</time>
      </trkpt>
      <trkpt lat="45.69298" lon="6.26529">
        <ele>2089.6</ele>
        <time>2021-02-08T10:15:18Z</time>
      </trkpt>
      <trkpt lat="45.693" lon="6.26527">
        <ele>2088.4</ele>
        <time>2021-02-08T10:15:19Z</time>
      </trkpt>
      <trkpt lat="45.69302" lon="6.26524">
        <ele>2087.2</ele>
        <time>2021-02-08T10:15:20Z</time>
      </trkpt>
      <trkpt lat="45.69303" lon="6.26519">
        <ele>2085.8</ele>
        <time>2021-02-08T10:15:21Z</time>
      </trkpt>
      <trkpt lat="45.69302" lon="6.26515">
        <ele>2085.1</ele>
        <time>2021-02-08T10:15:22Z</time>
      </trkpt>
      <trkpt lat="45.69302" lon="6.26509">
        <ele>2083.8</ele>
        <time>2021-02-08T10:15:23Z</time>
      </trkpt>
      <trkpt lat="45.69303" lon="6.26504">
        <ele>2082.4</ele>
        <time>2021-02-08T10:15:24Z</time>
      </trkpt>
      <trkpt lat="45.69306" lon="6.26501">
        <ele>2081.1</ele>
        <time>2021-02-08T10:15:25Z</time>
      </trkpt>
      <trkpt lat="45.69307" lon="6.26499">
        <ele>2080.6</ele>
        <time>2021-02-08T10:15:26Z</time>
      </trkpt>
      <trkpt lat="45.69307" lon="6.26499">
        <ele>2080.6</ele>
        <time>2021-02-08T10:15:28Z</time>
      </trkpt>
      <trkpt lat="45.69307" lon="6.26499">
        <ele>2080.6</ele>
        <time>2021-02-08T10:15:31Z</time>
      </trkpt>
      <trkpt lat="45.69307" lon="6.26499">
        <ele>2080.6</ele>
        <time>2021-02-08T10:15:37Z</time>
      </trkpt>
      <trkpt lat="45.69307" lon="6.26499">
        <ele>2080.6</ele>
        <time>2021-02-08T10:15:39Z</time>
      </trkpt>
      <trkpt lat="45.69307" lon="6.26499">
        <ele>2080.6</ele>
        <time>2021-02-08T10:15:43Z</time>
      </trkpt>
      <trkpt lat="45.69307" lon="6.26499">
        <ele>2080.6</ele>
        <time>2021-02-08T10:15:44Z</time>
      </trkpt>
      <trkpt lat="45.69309" lon="6.26498">
        <ele>2080.1</ele>
        <time>2021-02-08T10:15:51Z</time>
      </trkpt>
      <trkpt lat="45.69315" lon="6.26496">
        <ele>2078.9</ele>
        <time>2021-02-08T10:15:54Z</time>
      </trkpt>
      <trkpt lat="45.69318" lon="6.26497">
        <ele>2078.5</ele>
        <time>2021-02-08T10:15:55Z</time>
      </trkpt>
      <trkpt lat="45.69322" lon="6.26498">
        <ele>2077.9</ele>
        <time>2021-02-08T10:15:56Z</time>
      </trkpt>
      <trkpt lat="45.69329" lon="6.26497">
        <ele>2076.8</ele>
        <time>2021-02-08T10:15:58Z</time>
      </trkpt>
      <trkpt lat="45.69333" lon="6.26498">
        <ele>2076.1</ele>
        <time>2021-02-08T10:15:59Z</time>
      </trkpt>
      <trkpt lat="45.69338" lon="6.265">
        <ele>2075.7</ele>
        <time>2021-02-08T10:16:00Z</time>
      </trkpt>
      <trkpt lat="45.69341" lon="6.26502">
        <ele>2075.6</ele>
        <time>2021-02-08T10:16:01Z</time>
      </trkpt>
      <trkpt lat="45.69345" lon="6.26505">
        <ele>2075.4</ele>
        <time>2021-02-08T10:16:02Z</time>
      </trkpt>
      <trkpt lat="45.69349" lon="6.26507">
        <ele>2074.9</ele>
        <time>2021-02-08T10:16:03Z</time>
      </trkpt>
      <trkpt lat="45.69353" lon="6.26509">
        <ele>2074.3</ele>
        <time>2021-02-08T10:16:04Z</time>
      </trkpt>
      <trkpt lat="45.69362" lon="6.2651">
        <ele>2072.7</ele>
        <time>2021-02-08T10:16:06Z</time>
      </trkpt>
      <trkpt lat="45.69366" lon="6.26508">
        <ele>2072.1</ele>
        <time>2021-02-08T10:16:07Z</time>
      </trkpt>
      <trkpt lat="45.69372" lon="6.26506">
        <ele>2071.2</ele>
        <time>2021-02-08T10:16:09Z</time>
      </trkpt>
      <trkpt lat="45.69375" lon="6.26505">
        <ele>2070.8</ele>
        <time>2021-02-08T10:16:10Z</time>
      </trkpt>
      <trkpt lat="45.69377" lon="6.26505">
        <ele>2070.5</ele>
        <time>2021-02-08T10:16:11Z</time>
      </trkpt>
      <trkpt lat="45.69381" lon="6.26504">
        <ele>2070</ele>
        <time>2021-02-08T10:16:13Z</time>
      </trkpt>
      <trkpt lat="45.69382" lon="6.26504">
        <ele>2069.8</ele>
        <time>2021-02-08T10:16:14Z</time>
      </trkpt>
      <trkpt lat="45.69384" lon="6.26503">
        <ele>2069.8</ele>
        <time>2021-02-08T10:16:16Z</time>
      </trkpt>
      <trkpt lat="45.69384" lon="6.26504">
        <ele>2069.4</ele>
        <time>2021-02-08T10:16:19Z</time>
      </trkpt>
      <trkpt lat="45.69384" lon="6.26505">
        <ele>2069.1</ele>
        <time>2021-02-08T10:16:37Z</time>
      </trkpt>
      <trkpt lat="45.69388" lon="6.26505">
        <ele>2068.4</ele>
        <time>2021-02-08T10:16:47Z</time>
      </trkpt>
      <trkpt lat="45.69391" lon="6.26505">
        <ele>2067.8</ele>
        <time>2021-02-08T10:16:49Z</time>
      </trkpt>
      <trkpt lat="45.69399" lon="6.26507">
        <ele>2065.4</ele>
        <time>2021-02-08T10:16:53Z</time>
      </trkpt>
      <trkpt lat="45.694" lon="6.26511">
        <ele>2063.8</ele>
        <time>2021-02-08T10:16:54Z</time>
      </trkpt>
      <trkpt lat="45.69402" lon="6.26514">
        <ele>2062.4</ele>
        <time>2021-02-08T10:16:55Z</time>
      </trkpt>
      <trkpt lat="45.69406" lon="6.26515">
        <ele>2061.2</ele>
        <time>2021-02-08T10:16:56Z</time>
      </trkpt>
      <trkpt lat="45.69414" lon="6.26516">
        <ele>2059.3</ele>
        <time>2021-02-08T10:16:58Z</time>
      </trkpt>
      <trkpt lat="45.69417" lon="6.26516">
        <ele>2058.8</ele>
        <time>2021-02-08T10:16:59Z</time>
      </trkpt>
      <trkpt lat="45.69419" lon="6.26515">
        <ele>2058.8</ele>
        <time>2021-02-08T10:17:00Z</time>
      </trkpt>
      <trkpt lat="45.69422" lon="6.26515">
        <ele>2058.3</ele>
        <time>2021-02-08T10:17:01Z</time>
      </trkpt>
      <trkpt lat="45.69424" lon="6.26515">
        <ele>2057.9</ele>
        <time>2021-02-08T10:17:02Z</time>
      </trkpt>
      <trkpt lat="45.69426" lon="6.26515">
        <ele>2057.6</ele>
        <time>2021-02-08T10:17:03Z</time>
      </trkpt>
      <trkpt lat="45.6943" lon="6.26517">
        <ele>2056.3</ele>
        <time>2021-02-08T10:17:05Z</time>
      </trkpt>
      <trkpt lat="45.6943" lon="6.26521">
        <ele>2054.9</ele>
        <time>2021-02-08T10:17:06Z</time>
      </trkpt>
      <trkpt lat="45.69429" lon="6.26528">
        <ele>2052.7</ele>
        <time>2021-02-08T10:17:08Z</time>
      </trkpt>
      <trkpt lat="45.69431" lon="6.2653">
        <ele>2051.5</ele>
        <time>2021-02-08T10:17:09Z</time>
      </trkpt>
      <trkpt lat="45.69434" lon="6.26537">
        <ele>2048</ele>
        <time>2021-02-08T10:17:11Z</time>
      </trkpt>
      <trkpt lat="45.69433" lon="6.26542">
        <ele>2046</ele>
        <time>2021-02-08T10:17:12Z</time>
      </trkpt>
      <trkpt lat="45.69431" lon="6.26545">
        <ele>2045</ele>
        <time>2021-02-08T10:17:13Z</time>
      </trkpt>
      <trkpt lat="45.69429" lon="6.26547">
        <ele>2044.4</ele>
        <time>2021-02-08T10:17:14Z</time>
      </trkpt>
      <trkpt lat="45.69427" lon="6.26549">
        <ele>2043.8</ele>
        <time>2021-02-08T10:17:15Z</time>
      </trkpt>
      <trkpt lat="45.69427" lon="6.26551">
        <ele>2042.9</ele>
        <time>2021-02-08T10:17:16Z</time>
      </trkpt>
      <trkpt lat="45.69429" lon="6.26553">
        <ele>2041.8</ele>
        <time>2021-02-08T10:17:18Z</time>
      </trkpt>
      <trkpt lat="45.6943" lon="6.26553">
        <ele>2041.7</ele>
        <time>2021-02-08T10:17:19Z</time>
      </trkpt>
      <trkpt lat="45.69431" lon="6.26553">
        <ele>2041.6</ele>
        <time>2021-02-08T10:17:20Z</time>
      </trkpt>
      <trkpt lat="45.69431" lon="6.26553">
        <ele>2041.6</ele>
        <time>2021-02-08T10:17:22Z</time>
      </trkpt>
      <trkpt lat="45.69431" lon="6.26553">
        <ele>2041.6</ele>
        <time>2021-02-08T10:17:24Z</time>
      </trkpt>
      <trkpt lat="45.69431" lon="6.26553">
        <ele>2041.6</ele>
        <time>2021-02-08T10:17:26Z</time>
      </trkpt>
      <trkpt lat="45.69429" lon="6.26559">
        <ele>2038.8</ele>
        <time>2021-02-08T10:17:30Z</time>
      </trkpt>
      <trkpt lat="45.69429" lon="6.26559">
        <ele>2038.8</ele>
        <time>2021-02-08T10:17:31Z</time>
      </trkpt>
      <trkpt lat="45.69428" lon="6.26559">
        <ele>2038.9</ele>
        <time>2021-02-08T10:17:38Z</time>
      </trkpt>
      <trkpt lat="45.69427" lon="6.26559">
        <ele>2039</ele>
        <time>2021-02-08T10:17:40Z</time>
      </trkpt>
      <trkpt lat="45.69427" lon="6.26559">
        <ele>2039</ele>
        <time>2021-02-08T10:17:41Z</time>
      </trkpt>
      <trkpt lat="45.69427" lon="6.26559">
        <ele>2039</ele>
        <time>2021-02-08T10:17:43Z</time>
      </trkpt>
      <trkpt lat="45.69427" lon="6.26559">
        <ele>2039</ele>
        <time>2021-02-08T10:17:55Z</time>
      </trkpt>
      <trkpt lat="45.69427" lon="6.26559">
        <ele>2039</ele>
        <time>2021-02-08T10:17:56Z</time>
      </trkpt>
      <trkpt lat="45.69427" lon="6.26559">
        <ele>2039</ele>
        <time>2021-02-08T10:18:01Z</time>
      </trkpt>
      <trkpt lat="45.69427" lon="6.26559">
        <ele>2039</ele>
        <time>2021-02-08T10:18:04Z</time>
      </trkpt>
      <trkpt lat="45.69427" lon="6.26559">
        <ele>2039</ele>
        <time>2021-02-08T10:18:06Z</time>
      </trkpt>
      <trkpt lat="45.69427" lon="6.26559">
        <ele>2039</ele>
        <time>2021-02-08T10:18:07Z</time>
      </trkpt>
      <trkpt lat="45.69425" lon="6.26561">
        <ele>2038</ele>
        <time>2021-02-08T10:18:11Z</time>
      </trkpt>
      <trkpt lat="45.69425" lon="6.26561">
        <ele>2038</ele>
        <time>2021-02-08T10:18:18Z</time>
      </trkpt>
      <trkpt lat="45.69425" lon="6.26561">
        <ele>2038</ele>
        <time>2021-02-08T10:18:23Z</time>
      </trkpt>
      <trkpt lat="45.69425" lon="6.26561">
        <ele>2038</ele>
        <time>2021-02-08T10:18:29Z</time>
      </trkpt>
      <trkpt lat="45.69425" lon="6.26561">
        <ele>2038</ele>
        <time>2021-02-08T10:18:32Z</time>
      </trkpt>
      <trkpt lat="45.69425" lon="6.26561">
        <ele>2038</ele>
        <time>2021-02-08T10:18:41Z</time>
      </trkpt>
      <trkpt lat="45.69425" lon="6.26561">
        <ele>2038</ele>
        <time>2021-02-08T10:18:49Z</time>
      </trkpt>
      <trkpt lat="45.69421" lon="6.26563">
        <ele>2037.1</ele>
        <time>2021-02-08T10:18:55Z</time>
      </trkpt>
      <trkpt lat="45.69419" lon="6.26564">
        <ele>2036.7</ele>
        <time>2021-02-08T10:18:56Z</time>
      </trkpt>
      <trkpt lat="45.69404" lon="6.26568">
        <ele>2036</ele>
        <time>2021-02-08T10:19:03Z</time>
      </trkpt>
      <trkpt lat="45.694" lon="6.26572">
        <ele>2034.1</ele>
        <time>2021-02-08T10:19:06Z</time>
      </trkpt>
      <trkpt lat="45.69403" lon="6.26574">
        <ele>2032.5</ele>
        <time>2021-02-08T10:19:08Z</time>
      </trkpt>
      <trkpt lat="45.69405" lon="6.26576">
        <ele>2031.1</ele>
        <time>2021-02-08T10:19:09Z</time>
      </trkpt>
      <trkpt lat="45.69404" lon="6.26579">
        <ele>2029.4</ele>
        <time>2021-02-08T10:19:10Z</time>
      </trkpt>
      <trkpt lat="45.69401" lon="6.26584">
        <ele>2026.9</ele>
        <time>2021-02-08T10:19:11Z</time>
      </trkpt>
      <trkpt lat="45.69398" lon="6.2659">
        <ele>2024.4</ele>
        <time>2021-02-08T10:19:13Z</time>
      </trkpt>
      <trkpt lat="45.69398" lon="6.26593">
        <ele>2022.9</ele>
        <time>2021-02-08T10:19:14Z</time>
      </trkpt>
      <trkpt lat="45.69399" lon="6.26594">
        <ele>2022.3</ele>
        <time>2021-02-08T10:19:15Z</time>
      </trkpt>
      <trkpt lat="45.69402" lon="6.26597">
        <ele>2020.3</ele>
        <time>2021-02-08T10:19:16Z</time>
      </trkpt>
      <trkpt lat="45.69405" lon="6.26601">
        <ele>2017.7</ele>
        <time>2021-02-08T10:19:17Z</time>
      </trkpt>
      <trkpt lat="45.69405" lon="6.26606">
        <ele>2015.1</ele>
        <time>2021-02-08T10:19:18Z</time>
      </trkpt>
      <trkpt lat="45.69401" lon="6.26614">
        <ele>2012</ele>
        <time>2021-02-08T10:19:20Z</time>
      </trkpt>
      <trkpt lat="45.69402" lon="6.26616">
        <ele>2010.8</ele>
        <time>2021-02-08T10:19:21Z</time>
      </trkpt>
      <trkpt lat="45.69404" lon="6.26619">
        <ele>2008.9</ele>
        <time>2021-02-08T10:19:22Z</time>
      </trkpt>
      <trkpt lat="45.69403" lon="6.26625">
        <ele>2006.2</ele>
        <time>2021-02-08T10:19:23Z</time>
      </trkpt>
      <trkpt lat="45.69402" lon="6.26631">
        <ele>2003.5</ele>
        <time>2021-02-08T10:19:24Z</time>
      </trkpt>
      <trkpt lat="45.69399" lon="6.26635">
        <ele>2002.3</ele>
        <time>2021-02-08T10:19:25Z</time>
      </trkpt>
      <trkpt lat="45.69396" lon="6.26639">
        <ele>2001.2</ele>
        <time>2021-02-08T10:19:26Z</time>
      </trkpt>
      <trkpt lat="45.69394" lon="6.26641">
        <ele>2000.9</ele>
        <time>2021-02-08T10:19:27Z</time>
      </trkpt>
      <trkpt lat="45.69392" lon="6.26642">
        <ele>2001</ele>
        <time>2021-02-08T10:19:28Z</time>
      </trkpt>
      <trkpt lat="45.69391" lon="6.26643">
        <ele>2000.9</ele>
        <time>2021-02-08T10:19:29Z</time>
      </trkpt>
      <trkpt lat="45.6939" lon="6.26643">
        <ele>2001.2</ele>
        <time>2021-02-08T10:19:30Z</time>
      </trkpt>
      <trkpt lat="45.69389" lon="6.26642">
        <ele>2001.8</ele>
        <time>2021-02-08T10:19:31Z</time>
      </trkpt>
      <trkpt lat="45.69389" lon="6.26642">
        <ele>2001.8</ele>
        <time>2021-02-08T10:19:32Z</time>
      </trkpt>
      <trkpt lat="45.6939" lon="6.26641">
        <ele>2001.9</ele>
        <time>2021-02-08T10:19:37Z</time>
      </trkpt>
      <trkpt lat="45.6939" lon="6.2664">
        <ele>2002.3</ele>
        <time>2021-02-08T10:19:45Z</time>
      </trkpt>
      <trkpt lat="45.69391" lon="6.2664">
        <ele>2002.1</ele>
        <time>2021-02-08T10:19:46Z</time>
      </trkpt>
      <trkpt lat="45.6939" lon="6.26638">
        <ele>2003.1</ele>
        <time>2021-02-08T10:19:55Z</time>
      </trkpt>
      <trkpt lat="45.6939" lon="6.26638">
        <ele>2003.1</ele>
        <time>2021-02-08T10:19:56Z</time>
      </trkpt>
      <trkpt lat="45.69389" lon="6.26639">
        <ele>2002.9</ele>
        <time>2021-02-08T10:20:00Z</time>
      </trkpt>
      <trkpt lat="45.6939" lon="6.26639">
        <ele>2002.7</ele>
        <time>2021-02-08T10:20:03Z</time>
      </trkpt>
      <trkpt lat="45.6939" lon="6.26639">
        <ele>2002.7</ele>
        <time>2021-02-08T10:20:04Z</time>
      </trkpt>
      <trkpt lat="45.69387" lon="6.26647">
        <ele>2001.3</ele>
        <time>2021-02-08T10:20:12Z</time>
      </trkpt>
      <trkpt lat="45.69386" lon="6.2665">
        <ele>2000.8</ele>
        <time>2021-02-08T10:20:13Z</time>
      </trkpt>
      <trkpt lat="45.69385" lon="6.26654">
        <ele>2000</ele>
        <time>2021-02-08T10:20:15Z</time>
      </trkpt>
      <trkpt lat="45.69387" lon="6.26658">
        <ele>1997.3</ele>
        <time>2021-02-08T10:20:17Z</time>
      </trkpt>
      <trkpt lat="45.69387" lon="6.26669">
        <ele>1993.6</ele>
        <time>2021-02-08T10:20:19Z</time>
      </trkpt>
      <trkpt lat="45.69386" lon="6.26674">
        <ele>1993</ele>
        <time>2021-02-08T10:20:20Z</time>
      </trkpt>
      <trkpt lat="45.69385" lon="6.26678">
        <ele>1992.7</ele>
        <time>2021-02-08T10:20:21Z</time>
      </trkpt>
      <trkpt lat="45.69385" lon="6.26679">
        <ele>1992.5</ele>
        <time>2021-02-08T10:20:22Z</time>
      </trkpt>
      <trkpt lat="45.69386" lon="6.26681">
        <ele>1991.3</ele>
        <time>2021-02-08T10:20:23Z</time>
      </trkpt>
      <trkpt lat="45.69387" lon="6.26682">
        <ele>1990.4</ele>
        <time>2021-02-08T10:20:25Z</time>
      </trkpt>
      <trkpt lat="45.6939" lon="6.26681">
        <ele>1988.8</ele>
        <time>2021-02-08T10:20:27Z</time>
      </trkpt>
      <trkpt lat="45.69391" lon="6.26681">
        <ele>1988.4</ele>
        <time>2021-02-08T10:20:28Z</time>
      </trkpt>
      <trkpt lat="45.69394" lon="6.26682">
        <ele>1986.6</ele>
        <time>2021-02-08T10:20:30Z</time>
      </trkpt>
      <trkpt lat="45.69395" lon="6.26687">
        <ele>1984.8</ele>
        <time>2021-02-08T10:20:32Z</time>
      </trkpt>
      <trkpt lat="45.69395" lon="6.2669">
        <ele>1983.9</ele>
        <time>2021-02-08T10:20:33Z</time>
      </trkpt>
      <trkpt lat="45.69395" lon="6.26691">
        <ele>1983.6</ele>
        <time>2021-02-08T10:20:34Z</time>
      </trkpt>
      <trkpt lat="45.69395" lon="6.26691">
        <ele>1983.6</ele>
        <time>2021-02-08T10:20:35Z</time>
      </trkpt>
      <trkpt lat="45.69395" lon="6.26691">
        <ele>1983.6</ele>
        <time>2021-02-08T10:20:36Z</time>
      </trkpt>
      <trkpt lat="45.69395" lon="6.26691">
        <ele>1983.6</ele>
        <time>2021-02-08T10:20:38Z</time>
      </trkpt>
      <trkpt lat="45.69393" lon="6.26698">
        <ele>1983.2</ele>
        <time>2021-02-08T10:20:48Z</time>
      </trkpt>
      <trkpt lat="45.69393" lon="6.267">
        <ele>1982.9</ele>
        <time>2021-02-08T10:20:50Z</time>
      </trkpt>
      <trkpt lat="45.69394" lon="6.26702">
        <ele>1982</ele>
        <time>2021-02-08T10:20:52Z</time>
      </trkpt>
      <trkpt lat="45.69395" lon="6.26709">
        <ele>1980.3</ele>
        <time>2021-02-08T10:20:54Z</time>
      </trkpt>
      <trkpt lat="45.69396" lon="6.26716">
        <ele>1978.5</ele>
        <time>2021-02-08T10:20:56Z</time>
      </trkpt>
      <trkpt lat="45.69397" lon="6.26716">
        <ele>1977.8</ele>
        <time>2021-02-08T10:20:57Z</time>
      </trkpt>
      <trkpt lat="45.69399" lon="6.26715">
        <ele>1976.8</ele>
        <time>2021-02-08T10:20:58Z</time>
      </trkpt>
      <trkpt lat="45.69403" lon="6.26714">
        <ele>1974.5</ele>
        <time>2021-02-08T10:20:59Z</time>
      </trkpt>
      <trkpt lat="45.69407" lon="6.26716">
        <ele>1971.6</ele>
        <time>2021-02-08T10:21:00Z</time>
      </trkpt>
      <trkpt lat="45.69407" lon="6.2672">
        <ele>1970.7</ele>
        <time>2021-02-08T10:21:01Z</time>
      </trkpt>
      <trkpt lat="45.69407" lon="6.26726">
        <ele>1969.1</ele>
        <time>2021-02-08T10:21:02Z</time>
      </trkpt>
      <trkpt lat="45.69407" lon="6.2673">
        <ele>1967.9</ele>
        <time>2021-02-08T10:21:03Z</time>
      </trkpt>
      <trkpt lat="45.69407" lon="6.26733">
        <ele>1966.9</ele>
        <time>2021-02-08T10:21:04Z</time>
      </trkpt>
      <trkpt lat="45.69408" lon="6.26734">
        <ele>1965.9</ele>
        <time>2021-02-08T10:21:05Z</time>
      </trkpt>
      <trkpt lat="45.69411" lon="6.26735">
        <ele>1963.4</ele>
        <time>2021-02-08T10:21:06Z</time>
      </trkpt>
      <trkpt lat="45.69413" lon="6.26738">
        <ele>1961</ele>
        <time>2021-02-08T10:21:07Z</time>
      </trkpt>
      <trkpt lat="45.69414" lon="6.26742">
        <ele>1958.9</ele>
        <time>2021-02-08T10:21:08Z</time>
      </trkpt>
      <trkpt lat="45.69415" lon="6.26746">
        <ele>1956.7</ele>
        <time>2021-02-08T10:21:09Z</time>
      </trkpt>
      <trkpt lat="45.69417" lon="6.26748">
        <ele>1954.6</ele>
        <time>2021-02-08T10:21:10Z</time>
      </trkpt>
      <trkpt lat="45.69421" lon="6.26751">
        <ele>1952.4</ele>
        <time>2021-02-08T10:21:11Z</time>
      </trkpt>
      <trkpt lat="45.69424" lon="6.26756">
        <ele>1950.6</ele>
        <time>2021-02-08T10:21:12Z</time>
      </trkpt>
      <trkpt lat="45.69426" lon="6.26762">
        <ele>1949</ele>
        <time>2021-02-08T10:21:13Z</time>
      </trkpt>
      <trkpt lat="45.6943" lon="6.26768">
        <ele>1946.5</ele>
        <time>2021-02-08T10:21:14Z</time>
      </trkpt>
      <trkpt lat="45.69433" lon="6.26773">
        <ele>1944.4</ele>
        <time>2021-02-08T10:21:15Z</time>
      </trkpt>
      <trkpt lat="45.69436" lon="6.2678">
        <ele>1941.9</ele>
        <time>2021-02-08T10:21:16Z</time>
      </trkpt>
      <trkpt lat="45.6944" lon="6.26786">
        <ele>1939</ele>
        <time>2021-02-08T10:21:17Z</time>
      </trkpt>
      <trkpt lat="45.69442" lon="6.26788">
        <ele>1937.8</ele>
        <time>2021-02-08T10:21:18Z</time>
      </trkpt>
      <trkpt lat="45.69444" lon="6.26789">
        <ele>1936.8</ele>
        <time>2021-02-08T10:21:19Z</time>
      </trkpt>
      <trkpt lat="45.69446" lon="6.26789">
        <ele>1936.7</ele>
        <time>2021-02-08T10:21:20Z</time>
      </trkpt>
      <trkpt lat="45.69447" lon="6.26789">
        <ele>1936.8</ele>
        <time>2021-02-08T10:21:21Z</time>
      </trkpt>
      <trkpt lat="45.69448" lon="6.2679">
        <ele>1936.7</ele>
        <time>2021-02-08T10:21:22Z</time>
      </trkpt>
      <trkpt lat="45.69448" lon="6.2679">
        <ele>1936.7</ele>
        <time>2021-02-08T10:21:23Z</time>
      </trkpt>
      <trkpt lat="45.69448" lon="6.2679">
        <ele>1936.7</ele>
        <time>2021-02-08T10:21:24Z</time>
      </trkpt>
      <trkpt lat="45.69448" lon="6.2679">
        <ele>1936.7</ele>
        <time>2021-02-08T10:21:29Z</time>
      </trkpt>
      <trkpt lat="45.69448" lon="6.2679">
        <ele>1936.7</ele>
        <time>2021-02-08T10:21:30Z</time>
      </trkpt>
      <trkpt lat="45.69448" lon="6.2679">
        <ele>1936.7</ele>
        <time>2021-02-08T10:21:33Z</time>
      </trkpt>
      <trkpt lat="45.69449" lon="6.2679">
        <ele>1936.8</ele>
        <time>2021-02-08T10:21:46Z</time>
      </trkpt>
      <trkpt lat="45.6945" lon="6.2679">
        <ele>1936.8</ele>
        <time>2021-02-08T10:21:48Z</time>
      </trkpt>
      <trkpt lat="45.6945" lon="6.2679">
        <ele>1936.8</ele>
        <time>2021-02-08T10:21:49Z</time>
      </trkpt>
      <trkpt lat="45.6945" lon="6.26789">
        <ele>1937.1</ele>
        <time>2021-02-08T10:22:01Z</time>
      </trkpt>
      <trkpt lat="45.6945" lon="6.26789">
        <ele>1937.1</ele>
        <time>2021-02-08T10:22:02Z</time>
      </trkpt>
      <trkpt lat="45.6945" lon="6.26788">
        <ele>1937.3</ele>
        <time>2021-02-08T10:22:05Z</time>
      </trkpt>
      <trkpt lat="45.69451" lon="6.26788">
        <ele>1937.4</ele>
        <time>2021-02-08T10:22:07Z</time>
      </trkpt>
      <trkpt lat="45.69451" lon="6.26788">
        <ele>1937.4</ele>
        <time>2021-02-08T10:22:08Z</time>
      </trkpt>
      <trkpt lat="45.6945" lon="6.26795">
        <ele>1935.8</ele>
        <time>2021-02-08T10:22:14Z</time>
      </trkpt>
      <trkpt lat="45.69447" lon="6.26801">
        <ele>1934.2</ele>
        <time>2021-02-08T10:22:16Z</time>
      </trkpt>
      <trkpt lat="45.69447" lon="6.26805">
        <ele>1933.4</ele>
        <time>2021-02-08T10:22:17Z</time>
      </trkpt>
      <trkpt lat="45.69447" lon="6.2681">
        <ele>1932.2</ele>
        <time>2021-02-08T10:22:18Z</time>
      </trkpt>
      <trkpt lat="45.69447" lon="6.26816">
        <ele>1930.8</ele>
        <time>2021-02-08T10:22:19Z</time>
      </trkpt>
      <trkpt lat="45.69448" lon="6.26829">
        <ele>1927.8</ele>
        <time>2021-02-08T10:22:21Z</time>
      </trkpt>
      <trkpt lat="45.69449" lon="6.26835">
        <ele>1926.4</ele>
        <time>2021-02-08T10:22:22Z</time>
      </trkpt>
      <trkpt lat="45.6945" lon="6.26841">
        <ele>1925.1</ele>
        <time>2021-02-08T10:22:23Z</time>
      </trkpt>
      <trkpt lat="45.69452" lon="6.26847">
        <ele>1923.6</ele>
        <time>2021-02-08T10:22:24Z</time>
      </trkpt>
      <trkpt lat="45.69454" lon="6.26853">
        <ele>1921.8</ele>
        <time>2021-02-08T10:22:25Z</time>
      </trkpt>
      <trkpt lat="45.69457" lon="6.26857">
        <ele>1920</ele>
        <time>2021-02-08T10:22:26Z</time>
      </trkpt>
      <trkpt lat="45.69459" lon="6.26862">
        <ele>1918.2</ele>
        <time>2021-02-08T10:22:27Z</time>
      </trkpt>
      <trkpt lat="45.69463" lon="6.26866">
        <ele>1916.5</ele>
        <time>2021-02-08T10:22:28Z</time>
      </trkpt>
      <trkpt lat="45.69467" lon="6.2687">
        <ele>1915</ele>
        <time>2021-02-08T10:22:29Z</time>
      </trkpt>
      <trkpt lat="45.69469" lon="6.26875">
        <ele>1914.2</ele>
        <time>2021-02-08T10:22:30Z</time>
      </trkpt>
      <trkpt lat="45.69471" lon="6.2688">
        <ele>1913.5</ele>
        <time>2021-02-08T10:22:31Z</time>
      </trkpt>
      <trkpt lat="45.69473" lon="6.26884">
        <ele>1912.9</ele>
        <time>2021-02-08T10:22:33Z</time>
      </trkpt>
      <trkpt lat="45.69473" lon="6.26885">
        <ele>1912.9</ele>
        <time>2021-02-08T10:22:34Z</time>
      </trkpt>
      <trkpt lat="45.69473" lon="6.26885">
        <ele>1912.9</ele>
        <time>2021-02-08T10:22:36Z</time>
      </trkpt>
      <trkpt lat="45.69473" lon="6.26885">
        <ele>1912.9</ele>
        <time>2021-02-08T10:22:42Z</time>
      </trkpt>
      <trkpt lat="45.69472" lon="6.26885">
        <ele>1913.2</ele>
        <time>2021-02-08T10:22:54Z</time>
      </trkpt>
      <trkpt lat="45.69474" lon="6.26887">
        <ele>1912.4</ele>
        <time>2021-02-08T10:23:01Z</time>
      </trkpt>
      <trkpt lat="45.69475" lon="6.26887">
        <ele>1912</ele>
        <time>2021-02-08T10:23:05Z</time>
      </trkpt>
      <trkpt lat="45.69477" lon="6.26887">
        <ele>1911.3</ele>
        <time>2021-02-08T10:23:16Z</time>
      </trkpt>
      <trkpt lat="45.69477" lon="6.26895">
        <ele>1909.6</ele>
        <time>2021-02-08T10:23:22Z</time>
      </trkpt>
      <trkpt lat="45.69477" lon="6.26896">
        <ele>1909.3</ele>
        <time>2021-02-08T10:23:25Z</time>
      </trkpt>
      <trkpt lat="45.69478" lon="6.26896">
        <ele>1908.9</ele>
        <time>2021-02-08T10:23:26Z</time>
      </trkpt>
      <trkpt lat="45.69478" lon="6.26896">
        <ele>1908.9</ele>
        <time>2021-02-08T10:23:29Z</time>
      </trkpt>
      <trkpt lat="45.69477" lon="6.26897">
        <ele>1909.1</ele>
        <time>2021-02-08T10:23:37Z</time>
      </trkpt>
      <trkpt lat="45.69476" lon="6.26899">
        <ele>1909</ele>
        <time>2021-02-08T10:23:42Z</time>
      </trkpt>
      <trkpt lat="45.69475" lon="6.26901">
        <ele>1908.8</ele>
        <time>2021-02-08T10:23:45Z</time>
      </trkpt>
      <trkpt lat="45.69475" lon="6.26902">
        <ele>1908.6</ele>
        <time>2021-02-08T10:23:46Z</time>
      </trkpt>
      <trkpt lat="45.69475" lon="6.26902">
        <ele>1908.6</ele>
        <time>2021-02-08T10:23:47Z</time>
      </trkpt>
      <trkpt lat="45.69479" lon="6.26907">
        <ele>1905.8</ele>
        <time>2021-02-08T10:23:49Z</time>
      </trkpt>
      <trkpt lat="45.69481" lon="6.26915">
        <ele>1902.9</ele>
        <time>2021-02-08T10:23:51Z</time>
      </trkpt>
      <trkpt lat="45.69482" lon="6.26919">
        <ele>1901.7</ele>
        <time>2021-02-08T10:23:52Z</time>
      </trkpt>
      <trkpt lat="45.69484" lon="6.26924">
        <ele>1900</ele>
        <time>2021-02-08T10:23:53Z</time>
      </trkpt>
      <trkpt lat="45.69487" lon="6.26928">
        <ele>1897.8</ele>
        <time>2021-02-08T10:23:54Z</time>
      </trkpt>
      <trkpt lat="45.6949" lon="6.26931">
        <ele>1895.8</ele>
        <time>2021-02-08T10:23:55Z</time>
      </trkpt>
      <trkpt lat="45.69494" lon="6.26932">
        <ele>1893.6</ele>
        <time>2021-02-08T10:23:56Z</time>
      </trkpt>
      <trkpt lat="45.69497" lon="6.26934">
        <ele>1891.5</ele>
        <time>2021-02-08T10:23:57Z</time>
      </trkpt>
      <trkpt lat="45.69501" lon="6.26936">
        <ele>1889.1</ele>
        <time>2021-02-08T10:23:58Z</time>
      </trkpt>
      <trkpt lat="45.69505" lon="6.26936">
        <ele>1887.6</ele>
        <time>2021-02-08T10:23:59Z</time>
      </trkpt>
      <trkpt lat="45.6951" lon="6.26936">
        <ele>1885.7</ele>
        <time>2021-02-08T10:24:00Z</time>
      </trkpt>
      <trkpt lat="45.69514" lon="6.26938">
        <ele>1883.5</ele>
        <time>2021-02-08T10:24:01Z</time>
      </trkpt>
      <trkpt lat="45.69516" lon="6.26939">
        <ele>1882.5</ele>
        <time>2021-02-08T10:24:02Z</time>
      </trkpt>
      <trkpt lat="45.6952" lon="6.26937">
        <ele>1881.6</ele>
        <time>2021-02-08T10:24:03Z</time>
      </trkpt>
      <trkpt lat="45.69522" lon="6.26934">
        <ele>1881.9</ele>
        <time>2021-02-08T10:24:04Z</time>
      </trkpt>
      <trkpt lat="45.69524" lon="6.26932">
        <ele>1881.9</ele>
        <time>2021-02-08T10:24:05Z</time>
      </trkpt>
      <trkpt lat="45.69524" lon="6.26931">
        <ele>1882.2</ele>
        <time>2021-02-08T10:24:06Z</time>
      </trkpt>
      <trkpt lat="45.69525" lon="6.26931">
        <ele>1881.8</ele>
        <time>2021-02-08T10:24:08Z</time>
      </trkpt>
      <trkpt lat="45.69525" lon="6.26931">
        <ele>1881.8</ele>
        <time>2021-02-08T10:24:09Z</time>
      </trkpt>
      <trkpt lat="45.69522" lon="6.26932">
        <ele>1882.6</ele>
        <time>2021-02-08T10:24:16Z</time>
      </trkpt>
      <trkpt lat="45.6952" lon="6.26933">
        <ele>1883</ele>
        <time>2021-02-08T10:24:24Z</time>
      </trkpt>
      <trkpt lat="45.69526" lon="6.2693">
        <ele>1881.8</ele>
        <time>2021-02-08T10:24:29Z</time>
      </trkpt>
      <trkpt lat="45.69528" lon="6.2693">
        <ele>1881.2</ele>
        <time>2021-02-08T10:24:30Z</time>
      </trkpt>
      <trkpt lat="45.69534" lon="6.26929">
        <ele>1882</ele>
        <time>2021-02-08T10:24:32Z</time>
      </trkpt>
      <trkpt lat="45.69537" lon="6.2693">
        <ele>1881.9</ele>
        <time>2021-02-08T10:24:34Z</time>
      </trkpt>
      <trkpt lat="45.69539" lon="6.26932">
        <ele>1881.2</ele>
        <time>2021-02-08T10:24:35Z</time>
      </trkpt>
      <trkpt lat="45.69541" lon="6.26933">
        <ele>1881</ele>
        <time>2021-02-08T10:24:36Z</time>
      </trkpt>
      <trkpt lat="45.69548" lon="6.26942">
        <ele>1877.7</ele>
        <time>2021-02-08T10:24:39Z</time>
      </trkpt>
      <trkpt lat="45.69551" lon="6.26945">
        <ele>1876.7</ele>
        <time>2021-02-08T10:24:40Z</time>
      </trkpt>
      <trkpt lat="45.69559" lon="6.2695">
        <ele>1875.7</ele>
        <time>2021-02-08T10:24:42Z</time>
      </trkpt>
      <trkpt lat="45.69562" lon="6.26952">
        <ele>1875.2</ele>
        <time>2021-02-08T10:24:43Z</time>
      </trkpt>
      <trkpt lat="45.6957" lon="6.26958">
        <ele>1873.6</ele>
        <time>2021-02-08T10:24:45Z</time>
      </trkpt>
      <trkpt lat="45.69574" lon="6.26962">
        <ele>1872.4</ele>
        <time>2021-02-08T10:24:46Z</time>
      </trkpt>
      <trkpt lat="45.69581" lon="6.26973">
        <ele>1868.9</ele>
        <time>2021-02-08T10:24:48Z</time>
      </trkpt>
      <trkpt lat="45.69585" lon="6.26978">
        <ele>1868.3</ele>
        <time>2021-02-08T10:24:49Z</time>
      </trkpt>
      <trkpt lat="45.69588" lon="6.26982">
        <ele>1868</ele>
        <time>2021-02-08T10:24:50Z</time>
      </trkpt>
      <trkpt lat="45.6959" lon="6.26984">
        <ele>1867.9</ele>
        <time>2021-02-08T10:24:51Z</time>
      </trkpt>
      <trkpt lat="45.69594" lon="6.26988">
        <ele>1867.6</ele>
        <time>2021-02-08T10:24:53Z</time>
      </trkpt>
      <trkpt lat="45.69597" lon="6.26991">
        <ele>1867.2</ele>
        <time>2021-02-08T10:24:58Z</time>
      </trkpt>
      <trkpt lat="45.69597" lon="6.26992">
        <ele>1867</ele>
        <time>2021-02-08T10:25:01Z</time>
      </trkpt>
      <trkpt lat="45.69597" lon="6.26992">
        <ele>1867</ele>
        <time>2021-02-08T10:25:03Z</time>
      </trkpt>
      <trkpt lat="45.69597" lon="6.26992">
        <ele>1867</ele>
        <time>2021-02-08T10:25:06Z</time>
      </trkpt>
      <trkpt lat="45.69597" lon="6.26992">
        <ele>1867</ele>
        <time>2021-02-08T10:25:10Z</time>
      </trkpt>
      <trkpt lat="45.69596" lon="6.26993">
        <ele>1866.6</ele>
        <time>2021-02-08T10:25:15Z</time>
      </trkpt>
      <trkpt lat="45.69596" lon="6.26993">
        <ele>1866.6</ele>
        <time>2021-02-08T10:25:18Z</time>
      </trkpt>
      <trkpt lat="45.69596" lon="6.26995">
        <ele>1866.1</ele>
        <time>2021-02-08T10:25:25Z</time>
      </trkpt>
      <trkpt lat="45.69599" lon="6.26999">
        <ele>1865.4</ele>
        <time>2021-02-08T10:25:29Z</time>
      </trkpt>
      <trkpt lat="45.69603" lon="6.27012">
        <ele>1862.2</ele>
        <time>2021-02-08T10:25:33Z</time>
      </trkpt>
      <trkpt lat="45.69606" lon="6.27017">
        <ele>1860.5</ele>
        <time>2021-02-08T10:25:34Z</time>
      </trkpt>
      <trkpt lat="45.69609" lon="6.27021">
        <ele>1858.8</ele>
        <time>2021-02-08T10:25:35Z</time>
      </trkpt>
      <trkpt lat="45.69612" lon="6.27026">
        <ele>1856.7</ele>
        <time>2021-02-08T10:25:36Z</time>
      </trkpt>
      <trkpt lat="45.69615" lon="6.27032">
        <ele>1855.8</ele>
        <time>2021-02-08T10:25:37Z</time>
      </trkpt>
      <trkpt lat="45.69619" lon="6.27037">
        <ele>1855.1</ele>
        <time>2021-02-08T10:25:38Z</time>
      </trkpt>
      <trkpt lat="45.69622" lon="6.2704">
        <ele>1854.5</ele>
        <time>2021-02-08T10:25:39Z</time>
      </trkpt>
      <trkpt lat="45.69626" lon="6.27043">
        <ele>1853.6</ele>
        <time>2021-02-08T10:25:40Z</time>
      </trkpt>
      <trkpt lat="45.6963" lon="6.27046">
        <ele>1852.5</ele>
        <time>2021-02-08T10:25:41Z</time>
      </trkpt>
      <trkpt lat="45.69634" lon="6.27049">
        <ele>1851.1</ele>
        <time>2021-02-08T10:25:42Z</time>
      </trkpt>
      <trkpt lat="45.69638" lon="6.27051">
        <ele>1849.9</ele>
        <time>2021-02-08T10:25:43Z</time>
      </trkpt>
      <trkpt lat="45.69643" lon="6.27054">
        <ele>1848.6</ele>
        <time>2021-02-08T10:25:44Z</time>
      </trkpt>
      <trkpt lat="45.69648" lon="6.27056">
        <ele>1847.9</ele>
        <time>2021-02-08T10:25:45Z</time>
      </trkpt>
      <trkpt lat="45.69652" lon="6.27058">
        <ele>1847.5</ele>
        <time>2021-02-08T10:25:46Z</time>
      </trkpt>
      <trkpt lat="45.6966" lon="6.27061">
        <ele>1846.8</ele>
        <time>2021-02-08T10:25:48Z</time>
      </trkpt>
      <trkpt lat="45.69668" lon="6.27065">
        <ele>1845.7</ele>
        <time>2021-02-08T10:25:50Z</time>
      </trkpt>
      <trkpt lat="45.69673" lon="6.27067">
        <ele>1844.4</ele>
        <time>2021-02-08T10:25:51Z</time>
      </trkpt>
      <trkpt lat="45.69677" lon="6.27068">
        <ele>1843.6</ele>
        <time>2021-02-08T10:25:52Z</time>
      </trkpt>
      <trkpt lat="45.69687" lon="6.27073">
        <ele>1841.2</ele>
        <time>2021-02-08T10:25:54Z</time>
      </trkpt>
      <trkpt lat="45.6969" lon="6.27075">
        <ele>1840.5</ele>
        <time>2021-02-08T10:25:55Z</time>
      </trkpt>
      <trkpt lat="45.69694" lon="6.27076">
        <ele>1839.9</ele>
        <time>2021-02-08T10:25:56Z</time>
      </trkpt>
      <trkpt lat="45.69701" lon="6.2708">
        <ele>1839.3</ele>
        <time>2021-02-08T10:25:58Z</time>
      </trkpt>
      <trkpt lat="45.69708" lon="6.27088">
        <ele>1837.6</ele>
        <time>2021-02-08T10:26:00Z</time>
      </trkpt>
      <trkpt lat="45.69712" lon="6.27091">
        <ele>1836.7</ele>
        <time>2021-02-08T10:26:01Z</time>
      </trkpt>
      <trkpt lat="45.69716" lon="6.27095">
        <ele>1835.6</ele>
        <time>2021-02-08T10:26:02Z</time>
      </trkpt>
      <trkpt lat="45.69716" lon="6.27095">
        <ele>1835.6</ele>
        <time>2021-02-08T10:26:03Z</time>
      </trkpt>
      <trkpt lat="45.69724" lon="6.27102">
        <ele>1833.3</ele>
        <time>2021-02-08T10:26:04Z</time>
      </trkpt>
      <trkpt lat="45.69733" lon="6.2711">
        <ele>1831.2</ele>
        <time>2021-02-08T10:26:06Z</time>
      </trkpt>
      <trkpt lat="45.69738" lon="6.27115">
        <ele>1830.2</ele>
        <time>2021-02-08T10:26:07Z</time>
      </trkpt>
      <trkpt lat="45.69743" lon="6.27121">
        <ele>1829</ele>
        <time>2021-02-08T10:26:08Z</time>
      </trkpt>
      <trkpt lat="45.69747" lon="6.27125">
        <ele>1828.4</ele>
        <time>2021-02-08T10:26:09Z</time>
      </trkpt>
      <trkpt lat="45.69752" lon="6.27129">
        <ele>1828</ele>
        <time>2021-02-08T10:26:10Z</time>
      </trkpt>
      <trkpt lat="45.69761" lon="6.27136">
        <ele>1828</ele>
        <time>2021-02-08T10:26:12Z</time>
      </trkpt>
      <trkpt lat="45.69765" lon="6.2714">
        <ele>1828</ele>
        <time>2021-02-08T10:26:13Z</time>
      </trkpt>
      <trkpt lat="45.69767" lon="6.27145">
        <ele>1827.4</ele>
        <time>2021-02-08T10:26:14Z</time>
      </trkpt>
      <trkpt lat="45.69769" lon="6.27148">
        <ele>1827.2</ele>
        <time>2021-02-08T10:26:15Z</time>
      </trkpt>
      <trkpt lat="45.69772" lon="6.27152">
        <ele>1826.9</ele>
        <time>2021-02-08T10:26:17Z</time>
      </trkpt>
      <trkpt lat="45.69774" lon="6.27154">
        <ele>1826.8</ele>
        <time>2021-02-08T10:26:19Z</time>
      </trkpt>
      <trkpt lat="45.69774" lon="6.27154">
        <ele>1826.8</ele>
        <time>2021-02-08T10:26:20Z</time>
      </trkpt>
      <trkpt lat="45.69775" lon="6.27155">
        <ele>1826.8</ele>
        <time>2021-02-08T10:26:25Z</time>
      </trkpt>
      <trkpt lat="45.69775" lon="6.27155">
        <ele>1826.8</ele>
        <time>2021-02-08T10:26:31Z</time>
      </trkpt>
      <trkpt lat="45.69777" lon="6.27155">
        <ele>1827</ele>
        <time>2021-02-08T10:26:39Z</time>
      </trkpt>
      <trkpt lat="45.69782" lon="6.27154">
        <ele>1827.5</ele>
        <time>2021-02-08T10:26:42Z</time>
      </trkpt>
      <trkpt lat="45.69785" lon="6.27153">
        <ele>1827.9</ele>
        <time>2021-02-08T10:26:43Z</time>
      </trkpt>
      <trkpt lat="45.69788" lon="6.27152">
        <ele>1828.2</ele>
        <time>2021-02-08T10:26:44Z</time>
      </trkpt>
      <trkpt lat="45.69792" lon="6.27151">
        <ele>1828.5</ele>
        <time>2021-02-08T10:26:45Z</time>
      </trkpt>
      <trkpt lat="45.69799" lon="6.27152">
        <ele>1828.7</ele>
        <time>2021-02-08T10:26:48Z</time>
      </trkpt>
      <trkpt lat="45.69801" lon="6.27153">
        <ele>1828.7</ele>
        <time>2021-02-08T10:26:50Z</time>
      </trkpt>
      <trkpt lat="45.69803" lon="6.27155">
        <ele>1828.7</ele>
        <time>2021-02-08T10:26:53Z</time>
      </trkpt>
      <trkpt lat="45.69804" lon="6.2716">
        <ele>1828.4</ele>
        <time>2021-02-08T10:26:57Z</time>
      </trkpt>
      <trkpt lat="45.69804" lon="6.27161">
        <ele>1828.3</ele>
        <time>2021-02-08T10:26:58Z</time>
      </trkpt>
      <trkpt lat="45.69803" lon="6.27167">
        <ele>1827.7</ele>
        <time>2021-02-08T10:27:01Z</time>
      </trkpt>
      <trkpt lat="45.69802" lon="6.27174">
        <ele>1827.6</ele>
        <time>2021-02-08T10:27:04Z</time>
      </trkpt>
      <trkpt lat="45.69802" lon="6.27183">
        <ele>1827.7</ele>
        <time>2021-02-08T10:27:08Z</time>
      </trkpt>
      <trkpt lat="45.69804" lon="6.27191">
        <ele>1828.4</ele>
        <time>2021-02-08T10:27:12Z</time>
      </trkpt>
      <trkpt lat="45.69805" lon="6.27196">
        <ele>1828.6</ele>
        <time>2021-02-08T10:27:15Z</time>
      </trkpt>
      <trkpt lat="45.69805" lon="6.27198">
        <ele>1828.3</ele>
        <time>2021-02-08T10:27:17Z</time>
      </trkpt>
      <trkpt lat="45.69807" lon="6.27203">
        <ele>1827.8</ele>
        <time>2021-02-08T10:27:21Z</time>
      </trkpt>
      <trkpt lat="45.69808" lon="6.27205">
        <ele>1827.6</ele>
        <time>2021-02-08T10:27:23Z</time>
      </trkpt>
      <trkpt lat="45.69807" lon="6.27208">
        <ele>1827.1</ele>
        <time>2021-02-08T10:27:30Z</time>
      </trkpt>
      <trkpt lat="45.69807" lon="6.27212">
        <ele>1826.6</ele>
        <time>2021-02-08T10:27:37Z</time>
      </trkpt>
      <trkpt lat="45.69807" lon="6.27212">
        <ele>1826.6</ele>
        <time>2021-02-08T10:27:46Z</time>
      </trkpt>
      <trkpt lat="45.69807" lon="6.27212">
        <ele>1826.6</ele>
        <time>2021-02-08T10:27:47Z</time>
      </trkpt>
      <trkpt lat="45.69807" lon="6.27212">
        <ele>1826.6</ele>
        <time>2021-02-08T10:27:51Z</time>
      </trkpt>
      <trkpt lat="45.69807" lon="6.27211">
        <ele>1826.7</ele>
        <time>2021-02-08T10:27:52Z</time>
      </trkpt>
      <trkpt lat="45.69807" lon="6.27211">
        <ele>1826.7</ele>
        <time>2021-02-08T10:27:53Z</time>
      </trkpt>
      <trkpt lat="45.69807" lon="6.27211">
        <ele>1826.7</ele>
        <time>2021-02-08T10:27:54Z</time>
      </trkpt>
      <trkpt lat="45.69808" lon="6.2721">
        <ele>1826.9</ele>
        <time>2021-02-08T10:27:57Z</time>
      </trkpt>
      <trkpt lat="45.69811" lon="6.27209">
        <ele>1827.2</ele>
        <time>2021-02-08T10:28:05Z</time>
      </trkpt>
      <trkpt lat="45.69811" lon="6.27209">
        <ele>1827.2</ele>
        <time>2021-02-08T10:28:06Z</time>
      </trkpt>
      <trkpt lat="45.69814" lon="6.27211">
        <ele>1827.2</ele>
        <time>2021-02-08T10:28:12Z</time>
      </trkpt>
      <trkpt lat="45.69816" lon="6.27213">
        <ele>1827.1</ele>
        <time>2021-02-08T10:28:20Z</time>
      </trkpt>
      <trkpt lat="45.69816" lon="6.27214">
        <ele>1827</ele>
        <time>2021-02-08T10:28:24Z</time>
      </trkpt>
      <trkpt lat="45.69816" lon="6.27214">
        <ele>1827</ele>
        <time>2021-02-08T10:28:28Z</time>
      </trkpt>
      <trkpt lat="45.69818" lon="6.27217">
        <ele>1826.8</ele>
        <time>2021-02-08T10:28:37Z</time>
      </trkpt>
      <trkpt lat="45.69819" lon="6.2722">
        <ele>1826.7</ele>
        <time>2021-02-08T10:28:44Z</time>
      </trkpt>
      <trkpt lat="45.69822" lon="6.27224">
        <ele>1826.4</ele>
        <time>2021-02-08T10:28:51Z</time>
      </trkpt>
      <trkpt lat="45.69825" lon="6.27229">
        <ele>1825.9</ele>
        <time>2021-02-08T10:28:59Z</time>
      </trkpt>
      <trkpt lat="45.69826" lon="6.2723">
        <ele>1825.9</ele>
        <time>2021-02-08T10:29:00Z</time>
      </trkpt>
      <trkpt lat="45.69828" lon="6.27235">
        <ele>1825.4</ele>
        <time>2021-02-08T10:29:03Z</time>
      </trkpt>
      <trkpt lat="45.69828" lon="6.27236">
        <ele>1825.3</ele>
        <time>2021-02-08T10:29:07Z</time>
      </trkpt>
      <trkpt lat="45.69828" lon="6.27236">
        <ele>1825.3</ele>
        <time>2021-02-08T10:29:08Z</time>
      </trkpt>
      <trkpt lat="45.69829" lon="6.27237">
        <ele>1825.4</ele>
        <time>2021-02-08T10:29:10Z</time>
      </trkpt>
      <trkpt lat="45.69829" lon="6.27237">
        <ele>1825.4</ele>
        <time>2021-02-08T10:29:11Z</time>
      </trkpt>
      <trkpt lat="45.69829" lon="6.27239">
        <ele>1825.1</ele>
        <time>2021-02-08T10:29:17Z</time>
      </trkpt>
      <trkpt lat="45.69829" lon="6.2724">
        <ele>1824.9</ele>
        <time>2021-02-08T10:29:18Z</time>
      </trkpt>
      <trkpt lat="45.6983" lon="6.27243">
        <ele>1824.8</ele>
        <time>2021-02-08T10:29:21Z</time>
      </trkpt>
      <trkpt lat="45.6983" lon="6.27243">
        <ele>1824.8</ele>
        <time>2021-02-08T10:29:28Z</time>
      </trkpt>
      <trkpt lat="45.6983" lon="6.27243">
        <ele>1824.8</ele>
        <time>2021-02-08T10:29:31Z</time>
      </trkpt>
      <trkpt lat="45.69829" lon="6.27242">
        <ele>1824.6</ele>
        <time>2021-02-08T10:29:33Z</time>
      </trkpt>
      <trkpt lat="45.69827" lon="6.27241">
        <ele>1824.2</ele>
        <time>2021-02-08T10:29:44Z</time>
      </trkpt>
      <trkpt lat="45.69828" lon="6.27241">
        <ele>1824.5</ele>
        <time>2021-02-08T10:29:48Z</time>
      </trkpt>
      <trkpt lat="45.69831" lon="6.27241">
        <ele>1825.3</ele>
        <time>2021-02-08T10:29:56Z</time>
      </trkpt>
      <trkpt lat="45.69831" lon="6.27242">
        <ele>1825.2</ele>
        <time>2021-02-08T10:29:57Z</time>
      </trkpt>
      <trkpt lat="45.69833" lon="6.27242">
        <ele>1825.8</ele>
        <time>2021-02-08T10:30:02Z</time>
      </trkpt>
      <trkpt lat="45.69835" lon="6.2724">
        <ele>1826</ele>
        <time>2021-02-08T10:30:11Z</time>
      </trkpt>
      <trkpt lat="45.69834" lon="6.27239">
        <ele>1826.1</ele>
        <time>2021-02-08T10:30:13Z</time>
      </trkpt>
      <trkpt lat="45.69831" lon="6.27239">
        <ele>1825.6</ele>
        <time>2021-02-08T10:30:16Z</time>
      </trkpt>
      <trkpt lat="45.6983" lon="6.27239">
        <ele>1825.3</ele>
        <time>2021-02-08T10:30:25Z</time>
      </trkpt>
      <trkpt lat="45.69831" lon="6.2724">
        <ele>1825.5</ele>
        <time>2021-02-08T10:30:29Z</time>
      </trkpt>
      <trkpt lat="45.69832" lon="6.2724">
        <ele>1825.7</ele>
        <time>2021-02-08T10:30:32Z</time>
      </trkpt>
      <trkpt lat="45.69832" lon="6.27241">
        <ele>1825.6</ele>
        <time>2021-02-08T10:30:33Z</time>
      </trkpt>
      <trkpt lat="45.69833" lon="6.27243">
        <ele>1825.7</ele>
        <time>2021-02-08T10:30:36Z</time>
      </trkpt>
      <trkpt lat="45.69834" lon="6.27243">
        <ele>1825.7</ele>
        <time>2021-02-08T10:30:41Z</time>
      </trkpt>
      <trkpt lat="45.69834" lon="6.27242">
        <ele>1825.8</ele>
        <time>2021-02-08T10:30:45Z</time>
      </trkpt>
      <trkpt lat="45.69833" lon="6.27242">
        <ele>1825.8</ele>
        <time>2021-02-08T10:30:49Z</time>
      </trkpt>
      <trkpt lat="45.69833" lon="6.27242">
        <ele>1825.8</ele>
        <time>2021-02-08T10:30:50Z</time>
      </trkpt>
      <trkpt lat="45.69833" lon="6.27242">
        <ele>1825.8</ele>
        <time>2021-02-08T10:30:52Z</time>
      </trkpt>
      <trkpt lat="45.69834" lon="6.27241">
        <ele>1825.9</ele>
        <time>2021-02-08T10:30:59Z</time>
      </trkpt>
      <trkpt lat="45.69834" lon="6.27241">
        <ele>1825.9</ele>
        <time>2021-02-08T10:31:00Z</time>
      </trkpt>
      <trkpt lat="45.69833" lon="6.27239">
        <ele>1826.1</ele>
        <time>2021-02-08T10:31:09Z</time>
      </trkpt>
      <trkpt lat="45.69829" lon="6.27244">
        <ele>1824.3</ele>
        <time>2021-02-08T10:31:22Z</time>
      </trkpt>
      <trkpt lat="45.69829" lon="6.27244">
        <ele>1824.3</ele>
        <time>2021-02-08T10:31:27Z</time>
      </trkpt>
      <trkpt lat="45.69831" lon="6.2725">
        <ele>1824.2</ele>
        <time>2021-02-08T10:31:38Z</time>
      </trkpt>
      <trkpt lat="45.69833" lon="6.2725">
        <ele>1824.9</ele>
        <time>2021-02-08T10:31:48Z</time>
      </trkpt>
      <trkpt lat="45.69834" lon="6.2725">
        <ele>1825</ele>
        <time>2021-02-08T10:31:49Z</time>
      </trkpt>
      <trkpt lat="45.69831" lon="6.27246">
        <ele>1824.7</ele>
        <time>2021-02-08T10:31:57Z</time>
      </trkpt>
      <trkpt lat="45.69831" lon="6.27246">
        <ele>1824.7</ele>
        <time>2021-02-08T10:31:58Z</time>
      </trkpt>
      <trkpt lat="45.69829" lon="6.27242">
        <ele>1824.6</ele>
        <time>2021-02-08T10:32:09Z</time>
      </trkpt>
      <trkpt lat="45.6983" lon="6.27245">
        <ele>1824.5</ele>
        <time>2021-02-08T10:32:16Z</time>
      </trkpt>
      <trkpt lat="45.6983" lon="6.27247">
        <ele>1824.2</ele>
        <time>2021-02-08T10:32:18Z</time>
      </trkpt>
      <trkpt lat="45.69833" lon="6.27249">
        <ele>1825</ele>
        <time>2021-02-08T10:32:24Z</time>
      </trkpt>
      <trkpt lat="45.69834" lon="6.27249">
        <ele>1825.1</ele>
        <time>2021-02-08T10:32:26Z</time>
      </trkpt>
      <trkpt lat="45.69834" lon="6.2725">
        <ele>1825</ele>
        <time>2021-02-08T10:32:29Z</time>
      </trkpt>
      <trkpt lat="45.69834" lon="6.2725">
        <ele>1825</ele>
        <time>2021-02-08T10:32:31Z</time>
      </trkpt>
      <trkpt lat="45.69834" lon="6.27251">
        <ele>1825.2</ele>
        <time>2021-02-08T10:32:33Z</time>
      </trkpt>
      <trkpt lat="45.69833" lon="6.2725">
        <ele>1824.9</ele>
        <time>2021-02-08T10:32:35Z</time>
      </trkpt>
      <trkpt lat="45.69832" lon="6.27253">
        <ele>1824.8</ele>
        <time>2021-02-08T10:32:45Z</time>
      </trkpt>
      <trkpt lat="45.69831" lon="6.27255">
        <ele>1824.6</ele>
        <time>2021-02-08T10:32:54Z</time>
      </trkpt>
      <trkpt lat="45.69831" lon="6.27255">
        <ele>1824.6</ele>
        <time>2021-02-08T10:33:00Z</time>
      </trkpt>
      <trkpt lat="45.69831" lon="6.27255">
        <ele>1824.6</ele>
        <time>2021-02-08T10:33:04Z</time>
      </trkpt>
      <trkpt lat="45.6983" lon="6.27255">
        <ele>1824.2</ele>
        <time>2021-02-08T10:33:07Z</time>
      </trkpt>
      <trkpt lat="45.6983" lon="6.27256">
        <ele>1824.3</ele>
        <time>2021-02-08T10:33:08Z</time>
      </trkpt>
      <trkpt lat="45.6983" lon="6.27256">
        <ele>1824.3</ele>
        <time>2021-02-08T10:33:09Z</time>
      </trkpt>
      <trkpt lat="45.69829" lon="6.27257">
        <ele>1824</ele>
        <time>2021-02-08T10:33:20Z</time>
      </trkpt>
      <trkpt lat="45.69828" lon="6.27257">
        <ele>1823.5</ele>
        <time>2021-02-08T10:33:22Z</time>
      </trkpt>
      <trkpt lat="45.69824" lon="6.27263">
        <ele>1822.1</ele>
        <time>2021-02-08T10:33:38Z</time>
      </trkpt>
      <trkpt lat="45.69824" lon="6.27263">
        <ele>1822.1</ele>
        <time>2021-02-08T10:33:48Z</time>
      </trkpt>
      <trkpt lat="45.69825" lon="6.27263">
        <ele>1822.6</ele>
        <time>2021-02-08T10:33:52Z</time>
      </trkpt>
      <trkpt lat="45.69825" lon="6.2726">
        <ele>1822.4</ele>
        <time>2021-02-08T10:34:09Z</time>
      </trkpt>
      <trkpt lat="45.69825" lon="6.27259">
        <ele>1822.4</ele>
        <time>2021-02-08T10:34:11Z</time>
      </trkpt>
      <trkpt lat="45.69824" lon="6.27255">
        <ele>1821.8</ele>
        <time>2021-02-08T10:34:15Z</time>
      </trkpt>
      <trkpt lat="45.69824" lon="6.27252">
        <ele>1821.7</ele>
        <time>2021-02-08T10:34:21Z</time>
      </trkpt>
      <trkpt lat="45.69824" lon="6.27252">
        <ele>1821.7</ele>
        <time>2021-02-08T10:34:22Z</time>
      </trkpt>
      <trkpt lat="45.69824" lon="6.27252">
        <ele>1821.7</ele>
        <time>2021-02-08T10:34:23Z</time>
      </trkpt>
      <trkpt lat="45.69824" lon="6.27252">
        <ele>1821.7</ele>
        <time>2021-02-08T10:34:25Z</time>
      </trkpt>
      <trkpt lat="45.69826" lon="6.27248">
        <ele>1822.7</ele>
        <time>2021-02-08T10:34:31Z</time>
      </trkpt>
      <trkpt lat="45.69825" lon="6.27248">
        <ele>1822.4</ele>
        <time>2021-02-08T10:34:33Z</time>
      </trkpt>
      <trkpt lat="45.69822" lon="6.27249">
        <ele>1821.1</ele>
        <time>2021-02-08T10:34:53Z</time>
      </trkpt>
      <trkpt lat="45.69821" lon="6.27247">
        <ele>1821.2</ele>
        <time>2021-02-08T10:34:55Z</time>
      </trkpt>
      <trkpt lat="45.69824" lon="6.27246">
        <ele>1822.4</ele>
        <time>2021-02-08T10:35:00Z</time>
      </trkpt>
      <trkpt lat="45.69825" lon="6.27246">
        <ele>1822.7</ele>
        <time>2021-02-08T10:35:01Z</time>
      </trkpt>
      <trkpt lat="45.69825" lon="6.27245">
        <ele>1822.9</ele>
        <time>2021-02-08T10:35:05Z</time>
      </trkpt>
      <trkpt lat="45.69825" lon="6.27245">
        <ele>1822.9</ele>
        <time>2021-02-08T10:35:10Z</time>
      </trkpt>
      <trkpt lat="45.69825" lon="6.27246">
        <ele>1822.7</ele>
        <time>2021-02-08T10:35:39Z</time>
      </trkpt>
      <trkpt lat="45.69825" lon="6.27246">
        <ele>1822.7</ele>
        <time>2021-02-08T10:35:41Z</time>
      </trkpt>
      <trkpt lat="45.69826" lon="6.27242">
        <ele>1823.8</ele>
        <time>2021-02-08T10:35:52Z</time>
      </trkpt>
      <trkpt lat="45.69826" lon="6.27242">
        <ele>1823.8</ele>
        <time>2021-02-08T10:35:57Z</time>
      </trkpt>
      <trkpt lat="45.69826" lon="6.27244">
        <ele>1823.4</ele>
        <time>2021-02-08T10:36:00Z</time>
      </trkpt>
      <trkpt lat="45.69826" lon="6.27245">
        <ele>1823.2</ele>
        <time>2021-02-08T10:36:04Z</time>
      </trkpt>
      <trkpt lat="45.69823" lon="6.27247">
        <ele>1821.9</ele>
        <time>2021-02-08T10:36:13Z</time>
      </trkpt>
      <trkpt lat="45.69823" lon="6.27248">
        <ele>1821.7</ele>
        <time>2021-02-08T10:36:14Z</time>
      </trkpt>
      <trkpt lat="45.69822" lon="6.27249">
        <ele>1821.1</ele>
        <time>2021-02-08T10:36:16Z</time>
      </trkpt>
      <trkpt lat="45.69821" lon="6.2725">
        <ele>1820.6</ele>
        <time>2021-02-08T10:36:20Z</time>
      </trkpt>
      <trkpt lat="45.69819" lon="6.2725">
        <ele>1819.8</ele>
        <time>2021-02-08T10:36:23Z</time>
      </trkpt>
      <trkpt lat="45.69822" lon="6.2725">
        <ele>1820.9</ele>
        <time>2021-02-08T10:36:41Z</time>
      </trkpt>
      <trkpt lat="45.69822" lon="6.2725">
        <ele>1820.9</ele>
        <time>2021-02-08T10:36:46Z</time>
      </trkpt>
      <trkpt lat="45.69824" lon="6.27248">
        <ele>1822</ele>
        <time>2021-02-08T10:36:50Z</time>
      </trkpt>
      <trkpt lat="45.69824" lon="6.27248">
        <ele>1822</ele>
        <time>2021-02-08T10:36:56Z</time>
      </trkpt>
      <trkpt lat="45.69824" lon="6.27244">
        <ele>1822.8</ele>
        <time>2021-02-08T10:37:10Z</time>
      </trkpt>
      <trkpt lat="45.69824" lon="6.27244">
        <ele>1822.8</ele>
        <time>2021-02-08T10:37:13Z</time>
      </trkpt>
      <trkpt lat="45.69824" lon="6.27244">
        <ele>1822.8</ele>
        <time>2021-02-08T10:37:15Z</time>
      </trkpt>
      <trkpt lat="45.69826" lon="6.27246">
        <ele>1823.1</ele>
        <time>2021-02-08T10:37:28Z</time>
      </trkpt>
      <trkpt lat="45.69825" lon="6.27248">
        <ele>1822.4</ele>
        <time>2021-02-08T10:37:42Z</time>
      </trkpt>
      <trkpt lat="45.69824" lon="6.27249">
        <ele>1821.8</ele>
        <time>2021-02-08T10:37:51Z</time>
      </trkpt>
      <trkpt lat="45.69825" lon="6.27249">
        <ele>1822.2</ele>
        <time>2021-02-08T10:37:57Z</time>
      </trkpt>
      <trkpt lat="45.69825" lon="6.27248">
        <ele>1822.4</ele>
        <time>2021-02-08T10:37:58Z</time>
      </trkpt>
      <trkpt lat="45.69824" lon="6.27248">
        <ele>1822</ele>
        <time>2021-02-08T10:38:06Z</time>
      </trkpt>
      <trkpt lat="45.69825" lon="6.27248">
        <ele>1822.4</ele>
        <time>2021-02-08T10:38:10Z</time>
      </trkpt>
      <trkpt lat="45.69825" lon="6.27248">
        <ele>1822.4</ele>
        <time>2021-02-08T10:38:15Z</time>
      </trkpt>
      <trkpt lat="45.69825" lon="6.27247">
        <ele>1822.6</ele>
        <time>2021-02-08T10:38:16Z</time>
      </trkpt>
      <trkpt lat="45.69826" lon="6.27247">
        <ele>1822.9</ele>
        <time>2021-02-08T10:38:31Z</time>
      </trkpt>
      <trkpt lat="45.69826" lon="6.27247">
        <ele>1822.9</ele>
        <time>2021-02-08T10:38:34Z</time>
      </trkpt>
      <trkpt lat="45.69825" lon="6.27252">
        <ele>1822.1</ele>
        <time>2021-02-08T10:38:46Z</time>
      </trkpt>
      <trkpt lat="45.69826" lon="6.27252">
        <ele>1822.5</ele>
        <time>2021-02-08T10:38:49Z</time>
      </trkpt>
      <trkpt lat="45.69826" lon="6.27252">
        <ele>1822.5</ele>
        <time>2021-02-08T10:38:50Z</time>
      </trkpt>
      <trkpt lat="45.69826" lon="6.27252">
        <ele>1822.5</ele>
        <time>2021-02-08T10:38:51Z</time>
      </trkpt>
      <trkpt lat="45.69827" lon="6.27251">
        <ele>1822.8</ele>
        <time>2021-02-08T10:38:53Z</time>
      </trkpt>
      <trkpt lat="45.69827" lon="6.27249">
        <ele>1822.9</ele>
        <time>2021-02-08T10:39:00Z</time>
      </trkpt>
      <trkpt lat="45.69827" lon="6.27249">
        <ele>1822.9</ele>
        <time>2021-02-08T10:39:01Z</time>
      </trkpt>
      <trkpt lat="45.69828" lon="6.27248">
        <ele>1823.4</ele>
        <time>2021-02-08T10:39:04Z</time>
      </trkpt>
      <trkpt lat="45.69828" lon="6.27248">
        <ele>1823.4</ele>
        <time>2021-02-08T10:39:05Z</time>
      </trkpt>
      <trkpt lat="45.69828" lon="6.27248">
        <ele>1823.4</ele>
        <time>2021-02-08T10:39:06Z</time>
      </trkpt>
      <trkpt lat="45.69829" lon="6.27247">
        <ele>1823.9</ele>
        <time>2021-02-08T10:39:10Z</time>
      </trkpt>
      <trkpt lat="45.69829" lon="6.27247">
        <ele>1823.9</ele>
        <time>2021-02-08T10:39:12Z</time>
      </trkpt>
      <trkpt lat="45.6983" lon="6.27247">
        <ele>1824.2</ele>
        <time>2021-02-08T10:39:16Z</time>
      </trkpt>
      <trkpt lat="45.69832" lon="6.27246">
        <ele>1825</ele>
        <time>2021-02-08T10:40:03Z</time>
      </trkpt>
      <trkpt lat="45.69832" lon="6.27246">
        <ele>1825</ele>
        <time>2021-02-08T10:40:07Z</time>
      </trkpt>
      <trkpt lat="45.69832" lon="6.27246">
        <ele>1825</ele>
        <time>2021-02-08T10:40:09Z</time>
      </trkpt>
      <trkpt lat="45.69833" lon="6.27246">
        <ele>1825.3</ele>
        <time>2021-02-08T10:40:11Z</time>
      </trkpt>
      <trkpt lat="45.69833" lon="6.27246">
        <ele>1825.3</ele>
        <time>2021-02-08T10:40:13Z</time>
      </trkpt>
      <trkpt lat="45.69833" lon="6.27246">
        <ele>1825.3</ele>
        <time>2021-02-08T10:40:16Z</time>
      </trkpt>
      <trkpt lat="45.69833" lon="6.27245">
        <ele>1825.4</ele>
        <time>2021-02-08T10:40:18Z</time>
      </trkpt>
      <trkpt lat="45.69833" lon="6.27244">
        <ele>1825.5</ele>
        <time>2021-02-08T10:40:21Z</time>
      </trkpt>
      <trkpt lat="45.69832" lon="6.27242">
        <ele>1825.5</ele>
        <time>2021-02-08T10:40:40Z</time>
      </trkpt>
      <trkpt lat="45.69831" lon="6.27244">
        <ele>1824.9</ele>
        <time>2021-02-08T10:40:47Z</time>
      </trkpt>
      <trkpt lat="45.69832" lon="6.27242">
        <ele>1825.5</ele>
        <time>2021-02-08T10:41:02Z</time>
      </trkpt>
      <trkpt lat="45.69832" lon="6.27242">
        <ele>1825.5</ele>
        <time>2021-02-08T10:41:03Z</time>
      </trkpt>
      <trkpt lat="45.69832" lon="6.27242">
        <ele>1825.5</ele>
        <time>2021-02-08T10:41:17Z</time>
      </trkpt>
      <trkpt lat="45.69832" lon="6.27242">
        <ele>1825.5</ele>
        <time>2021-02-08T10:41:19Z</time>
      </trkpt>
      <trkpt lat="45.69833" lon="6.27241">
        <ele>1825.9</ele>
        <time>2021-02-08T10:41:26Z</time>
      </trkpt>
      <trkpt lat="45.69839" lon="6.27239">
        <ele>1825.7</ele>
        <time>2021-02-08T10:42:09Z</time>
      </trkpt>
      <trkpt lat="45.6984" lon="6.27237">
        <ele>1825.6</ele>
        <time>2021-02-08T10:42:18Z</time>
      </trkpt>
      <trkpt lat="45.6984" lon="6.27238">
        <ele>1825.6</ele>
        <time>2021-02-08T10:42:20Z</time>
      </trkpt>
      <trkpt lat="45.69833" lon="6.27242">
        <ele>1825.8</ele>
        <time>2021-02-08T10:42:25Z</time>
      </trkpt>
      <trkpt lat="45.69833" lon="6.27243">
        <ele>1825.7</ele>
        <time>2021-02-08T10:42:26Z</time>
      </trkpt>
      <trkpt lat="45.69832" lon="6.27243">
        <ele>1825.4</ele>
        <time>2021-02-08T10:42:27Z</time>
      </trkpt>
      <trkpt lat="45.69831" lon="6.27244">
        <ele>1824.9</ele>
        <time>2021-02-08T10:42:29Z</time>
      </trkpt>
      <trkpt lat="45.6983" lon="6.27245">
        <ele>1824.5</ele>
        <time>2021-02-08T10:42:33Z</time>
      </trkpt>
      <trkpt lat="45.69825" lon="6.27247">
        <ele>1822.6</ele>
        <time>2021-02-08T10:42:43Z</time>
      </trkpt>
      <trkpt lat="45.69824" lon="6.27248">
        <ele>1822</ele>
        <time>2021-02-08T10:42:45Z</time>
      </trkpt>
      <trkpt lat="45.69823" lon="6.27249">
        <ele>1821.5</ele>
        <time>2021-02-08T10:42:50Z</time>
      </trkpt>
      <trkpt lat="45.69821" lon="6.2725">
        <ele>1820.6</ele>
        <time>2021-02-08T10:42:55Z</time>
      </trkpt>
      <trkpt lat="45.6982" lon="6.27251">
        <ele>1820.2</ele>
        <time>2021-02-08T10:43:05Z</time>
      </trkpt>
      <trkpt lat="45.6982" lon="6.27248">
        <ele>1820.7</ele>
        <time>2021-02-08T10:43:19Z</time>
      </trkpt>
      <trkpt lat="45.6982" lon="6.27248">
        <ele>1820.7</ele>
        <time>2021-02-08T10:43:20Z</time>
      </trkpt>
      <trkpt lat="45.6982" lon="6.27249">
        <ele>1820.4</ele>
        <time>2021-02-08T10:43:21Z</time>
      </trkpt>
      <trkpt lat="45.69832" lon="6.27235">
        <ele>1826.3</ele>
        <time>2021-02-08T10:45:22Z</time>
      </trkpt>
      <trkpt lat="45.69833" lon="6.27236">
        <ele>1826.4</ele>
        <time>2021-02-08T10:45:28Z</time>
      </trkpt>
      <trkpt lat="45.69833" lon="6.27236">
        <ele>1826.4</ele>
        <time>2021-02-08T10:45:40Z</time>
      </trkpt>
      <trkpt lat="45.69833" lon="6.27236">
        <ele>1826.4</ele>
        <time>2021-02-08T10:45:44Z</time>
      </trkpt>
      <trkpt lat="45.69833" lon="6.27236">
        <ele>1826.4</ele>
        <time>2021-02-08T10:45:47Z</time>
      </trkpt>
      <trkpt lat="45.69833" lon="6.27237">
        <ele>1826.3</ele>
        <time>2021-02-08T10:45:49Z</time>
      </trkpt>
      <trkpt lat="45.69831" lon="6.27242">
        <ele>1825.2</ele>
        <time>2021-02-08T10:46:10Z</time>
      </trkpt>
      <trkpt lat="45.69831" lon="6.27243">
        <ele>1825.1</ele>
        <time>2021-02-08T10:46:11Z</time>
      </trkpt>
      <trkpt lat="45.69831" lon="6.27244">
        <ele>1824.9</ele>
        <time>2021-02-08T10:46:21Z</time>
      </trkpt>
      <trkpt lat="45.69832" lon="6.27242">
        <ele>1825.5</ele>
        <time>2021-02-08T10:47:07Z</time>
      </trkpt>
      <trkpt lat="45.69832" lon="6.27244">
        <ele>1825.2</ele>
        <time>2021-02-08T10:47:19Z</time>
      </trkpt>
      <trkpt lat="45.69831" lon="6.27245">
        <ele>1824.8</ele>
        <time>2021-02-08T10:47:25Z</time>
      </trkpt>
      <trkpt lat="45.69831" lon="6.27245">
        <ele>1824.8</ele>
        <time>2021-02-08T10:47:26Z</time>
      </trkpt>
      <trkpt lat="45.69831" lon="6.27245">
        <ele>1824.8</ele>
        <time>2021-02-08T10:47:27Z</time>
      </trkpt>
      <trkpt lat="45.69831" lon="6.27245">
        <ele>1824.8</ele>
        <time>2021-02-08T10:47:29Z</time>
      </trkpt>
      <trkpt lat="45.69831" lon="6.27245">
        <ele>1824.8</ele>
        <time>2021-02-08T10:47:32Z</time>
      </trkpt>
      <trkpt lat="45.69831" lon="6.27245">
        <ele>1824.8</ele>
        <time>2021-02-08T10:47:34Z</time>
      </trkpt>
      <trkpt lat="45.69831" lon="6.27245">
        <ele>1824.8</ele>
        <time>2021-02-08T10:47:40Z</time>
      </trkpt>
      <trkpt lat="45.6983" lon="6.27245">
        <ele>1824.5</ele>
        <time>2021-02-08T10:47:42Z</time>
      </trkpt>
      <trkpt lat="45.69829" lon="6.27245">
        <ele>1824.2</ele>
        <time>2021-02-08T10:47:45Z</time>
      </trkpt>
      <trkpt lat="45.69829" lon="6.27245">
        <ele>1824.2</ele>
        <time>2021-02-08T10:47:48Z</time>
      </trkpt>
      <trkpt lat="45.69829" lon="6.27245">
        <ele>1824.2</ele>
        <time>2021-02-08T10:47:51Z</time>
      </trkpt>
      <trkpt lat="45.69831" lon="6.2724">
        <ele>1825.5</ele>
        <time>2021-02-08T10:48:09Z</time>
      </trkpt>
      <trkpt lat="45.69828" lon="6.27239">
        <ele>1824.8</ele>
        <time>2021-02-08T10:49:01Z</time>
      </trkpt>
      <trkpt lat="45.69828" lon="6.27239">
        <ele>1824.8</ele>
        <time>2021-02-08T10:49:02Z</time>
      </trkpt>
      <trkpt lat="45.69827" lon="6.27239">
        <ele>1824.5</ele>
        <time>2021-02-08T10:49:06Z</time>
      </trkpt>
      <trkpt lat="45.69827" lon="6.27239">
        <ele>1824.5</ele>
        <time>2021-02-08T10:49:10Z</time>
      </trkpt>
      <trkpt lat="45.69828" lon="6.27239">
        <ele>1824.8</ele>
        <time>2021-02-08T10:49:12Z</time>
      </trkpt>
      <trkpt lat="45.69826" lon="6.27241">
        <ele>1823.9</ele>
        <time>2021-02-08T10:49:24Z</time>
      </trkpt>
      <trkpt lat="45.69826" lon="6.27242">
        <ele>1823.8</ele>
        <time>2021-02-08T10:49:25Z</time>
      </trkpt>
      <trkpt lat="45.69823" lon="6.27241">
        <ele>1823.1</ele>
        <time>2021-02-08T10:49:33Z</time>
      </trkpt>
      <trkpt lat="45.69822" lon="6.27239">
        <ele>1823.2</ele>
        <time>2021-02-08T10:49:40Z</time>
      </trkpt>
      <trkpt lat="45.69823" lon="6.27239">
        <ele>1823.5</ele>
        <time>2021-02-08T10:49:43Z</time>
      </trkpt>
      <trkpt lat="45.69823" lon="6.27239">
        <ele>1823.5</ele>
        <time>2021-02-08T10:49:44Z</time>
      </trkpt>
      <trkpt lat="45.69823" lon="6.27248">
        <ele>1821.7</ele>
        <time>2021-02-08T10:49:53Z</time>
      </trkpt>
      <trkpt lat="45.69821" lon="6.2725">
        <ele>1820.6</ele>
        <time>2021-02-08T10:49:56Z</time>
      </trkpt>
      <trkpt lat="45.69821" lon="6.27252">
        <ele>1820.6</ele>
        <time>2021-02-08T10:49:58Z</time>
      </trkpt>
      <trkpt lat="45.69821" lon="6.27253">
        <ele>1820.6</ele>
        <time>2021-02-08T10:50:02Z</time>
      </trkpt>
      <trkpt lat="45.6982" lon="6.27254">
        <ele>1820.2</ele>
        <time>2021-02-08T10:50:03Z</time>
      </trkpt>
      <trkpt lat="45.6982" lon="6.27255">
        <ele>1820.2</ele>
        <time>2021-02-08T10:50:12Z</time>
      </trkpt>
      <trkpt lat="45.69821" lon="6.27255">
        <ele>1820.6</ele>
        <time>2021-02-08T10:50:16Z</time>
      </trkpt>
      <trkpt lat="45.69824" lon="6.27256">
        <ele>1821.9</ele>
        <time>2021-02-08T10:50:27Z</time>
      </trkpt>
      <trkpt lat="45.69824" lon="6.27254">
        <ele>1821.8</ele>
        <time>2021-02-08T10:50:30Z</time>
      </trkpt>
      <trkpt lat="45.69825" lon="6.27252">
        <ele>1822.1</ele>
        <time>2021-02-08T10:50:33Z</time>
      </trkpt>
      <trkpt lat="45.69825" lon="6.27247">
        <ele>1822.6</ele>
        <time>2021-02-08T10:50:48Z</time>
      </trkpt>
      <trkpt lat="45.69826" lon="6.27247">
        <ele>1822.9</ele>
        <time>2021-02-08T10:51:04Z</time>
      </trkpt>
      <trkpt lat="45.69827" lon="6.27245">
        <ele>1823.5</ele>
        <time>2021-02-08T10:51:09Z</time>
      </trkpt>
      <trkpt lat="45.69827" lon="6.27244">
        <ele>1823.7</ele>
        <time>2021-02-08T10:51:14Z</time>
      </trkpt>
      <trkpt lat="45.69828" lon="6.27243">
        <ele>1824.2</ele>
        <time>2021-02-08T10:51:16Z</time>
      </trkpt>
      <trkpt lat="45.69829" lon="6.27243">
        <ele>1824.5</ele>
        <time>2021-02-08T10:51:20Z</time>
      </trkpt>
      <trkpt lat="45.69828" lon="6.27242">
        <ele>1824.3</ele>
        <time>2021-02-08T10:51:22Z</time>
      </trkpt>
      <trkpt lat="45.69829" lon="6.27239">
        <ele>1825.1</ele>
        <time>2021-02-08T10:51:25Z</time>
      </trkpt>
      <trkpt lat="45.69828" lon="6.27239">
        <ele>1824.8</ele>
        <time>2021-02-08T10:51:26Z</time>
      </trkpt>
      <trkpt lat="45.69828" lon="6.2724">
        <ele>1824.6</ele>
        <time>2021-02-08T10:51:27Z</time>
      </trkpt>
      <trkpt lat="45.69827" lon="6.27241">
        <ele>1824.2</ele>
        <time>2021-02-08T10:51:29Z</time>
      </trkpt>
      <trkpt lat="45.69826" lon="6.27241">
        <ele>1823.9</ele>
        <time>2021-02-08T10:51:34Z</time>
      </trkpt>
      <trkpt lat="45.69827" lon="6.27241">
        <ele>1824.2</ele>
        <time>2021-02-08T10:51:35Z</time>
      </trkpt>
      <trkpt lat="45.69827" lon="6.27241">
        <ele>1824.2</ele>
        <time>2021-02-08T10:51:37Z</time>
      </trkpt>
      <trkpt lat="45.69828" lon="6.27241">
        <ele>1824.5</ele>
        <time>2021-02-08T10:51:46Z</time>
      </trkpt>
      <trkpt lat="45.69828" lon="6.27241">
        <ele>1824.5</ele>
        <time>2021-02-08T10:51:47Z</time>
      </trkpt>
      <trkpt lat="45.69829" lon="6.27243">
        <ele>1824.5</ele>
        <time>2021-02-08T10:51:49Z</time>
      </trkpt>
      <trkpt lat="45.69831" lon="6.27245">
        <ele>1824.8</ele>
        <time>2021-02-08T10:51:54Z</time>
      </trkpt>
      <trkpt lat="45.69831" lon="6.27245">
        <ele>1824.8</ele>
        <time>2021-02-08T10:51:56Z</time>
      </trkpt>
      <trkpt lat="45.69833" lon="6.27246">
        <ele>1825.3</ele>
        <time>2021-02-08T10:52:01Z</time>
      </trkpt>
      <trkpt lat="45.69833" lon="6.27246">
        <ele>1825.3</ele>
        <time>2021-02-08T10:52:02Z</time>
      </trkpt>
      <trkpt lat="45.69831" lon="6.27246">
        <ele>1824.7</ele>
        <time>2021-02-08T10:52:03Z</time>
      </trkpt>
      <trkpt lat="45.69828" lon="6.27245">
        <ele>1823.9</ele>
        <time>2021-02-08T10:52:07Z</time>
      </trkpt>
      <trkpt lat="45.69832" lon="6.2724">
        <ele>1825.7</ele>
        <time>2021-02-08T10:52:14Z</time>
      </trkpt>
      <trkpt lat="45.6983" lon="6.27238">
        <ele>1825.5</ele>
        <time>2021-02-08T10:52:18Z</time>
      </trkpt>
      <trkpt lat="45.69829" lon="6.27235">
        <ele>1825.6</ele>
        <time>2021-02-08T10:52:23Z</time>
      </trkpt>
      <trkpt lat="45.69828" lon="6.27233">
        <ele>1825.7</ele>
        <time>2021-02-08T10:52:26Z</time>
      </trkpt>
      <trkpt lat="45.69826" lon="6.2723">
        <ele>1825.9</ele>
        <time>2021-02-08T10:52:29Z</time>
      </trkpt>
      <trkpt lat="45.69827" lon="6.27228">
        <ele>1826.4</ele>
        <time>2021-02-08T10:52:31Z</time>
      </trkpt>
      <trkpt lat="45.69827" lon="6.27226">
        <ele>1826.7</ele>
        <time>2021-02-08T10:52:35Z</time>
      </trkpt>
      <trkpt lat="45.69827" lon="6.27225">
        <ele>1826.9</ele>
        <time>2021-02-08T10:52:36Z</time>
      </trkpt>
      <trkpt lat="45.69828" lon="6.27223">
        <ele>1827.3</ele>
        <time>2021-02-08T10:52:39Z</time>
      </trkpt>
      <trkpt lat="45.6983" lon="6.2722">
        <ele>1827.7</ele>
        <time>2021-02-08T10:52:44Z</time>
      </trkpt>
      <trkpt lat="45.69831" lon="6.27218">
        <ele>1827.9</ele>
        <time>2021-02-08T10:52:47Z</time>
      </trkpt>
      <trkpt lat="45.69832" lon="6.27216">
        <ele>1828.1</ele>
        <time>2021-02-08T10:52:49Z</time>
      </trkpt>
      <trkpt lat="45.69833" lon="6.27214">
        <ele>1828.3</ele>
        <time>2021-02-08T10:52:51Z</time>
      </trkpt>
      <trkpt lat="45.69834" lon="6.27214">
        <ele>1828.1</ele>
        <time>2021-02-08T10:52:52Z</time>
      </trkpt>
      <trkpt lat="45.69834" lon="6.27213">
        <ele>1828.1</ele>
        <time>2021-02-08T10:52:53Z</time>
      </trkpt>
      <trkpt lat="45.69835" lon="6.27212">
        <ele>1827.9</ele>
        <time>2021-02-08T10:52:54Z</time>
      </trkpt>
      <trkpt lat="45.69837" lon="6.2721">
        <ele>1827.3</ele>
        <time>2021-02-08T10:52:57Z</time>
      </trkpt>
      <trkpt lat="45.69837" lon="6.2721">
        <ele>1827.3</ele>
        <time>2021-02-08T10:52:58Z</time>
      </trkpt>
      <trkpt lat="45.69838" lon="6.27209">
        <ele>1827</ele>
        <time>2021-02-08T10:53:00Z</time>
      </trkpt>
      <trkpt lat="45.69838" lon="6.27209">
        <ele>1827</ele>
        <time>2021-02-08T10:53:01Z</time>
      </trkpt>
      <trkpt lat="45.69837" lon="6.27207">
        <ele>1827.4</ele>
        <time>2021-02-08T10:53:13Z</time>
      </trkpt>
      <trkpt lat="45.69836" lon="6.27207">
        <ele>1827.7</ele>
        <time>2021-02-08T10:53:26Z</time>
      </trkpt>
      <trkpt lat="45.69836" lon="6.27207">
        <ele>1827.7</ele>
        <time>2021-02-08T10:53:27Z</time>
      </trkpt>
      <trkpt lat="45.69836" lon="6.27207">
        <ele>1827.7</ele>
        <time>2021-02-08T10:53:31Z</time>
      </trkpt>
      <trkpt lat="45.69836" lon="6.27207">
        <ele>1827.7</ele>
        <time>2021-02-08T10:53:32Z</time>
      </trkpt>
      <trkpt lat="45.69836" lon="6.27207">
        <ele>1827.7</ele>
        <time>2021-02-08T10:53:35Z</time>
      </trkpt>
      <trkpt lat="45.69836" lon="6.27207">
        <ele>1827.7</ele>
        <time>2021-02-08T10:53:47Z</time>
      </trkpt>
      <trkpt lat="45.69836" lon="6.27207">
        <ele>1827.7</ele>
        <time>2021-02-08T10:53:48Z</time>
      </trkpt>
      <trkpt lat="45.69836" lon="6.27207">
        <ele>1827.7</ele>
        <time>2021-02-08T10:53:49Z</time>
      </trkpt>
      <trkpt lat="45.69836" lon="6.27207">
        <ele>1827.7</ele>
        <time>2021-02-08T10:53:54Z</time>
      </trkpt>
      <trkpt lat="45.69836" lon="6.27206">
        <ele>1827.8</ele>
        <time>2021-02-08T10:54:03Z</time>
      </trkpt>
      <trkpt lat="45.69837" lon="6.27206">
        <ele>1827.5</ele>
        <time>2021-02-08T10:54:05Z</time>
      </trkpt>
      <trkpt lat="45.69837" lon="6.27206">
        <ele>1827.5</ele>
        <time>2021-02-08T10:54:07Z</time>
      </trkpt>
      <trkpt lat="45.69838" lon="6.27205">
        <ele>1827.2</ele>
        <time>2021-02-08T10:54:10Z</time>
      </trkpt>
      <trkpt lat="45.69839" lon="6.27204">
        <ele>1827</ele>
        <time>2021-02-08T10:54:11Z</time>
      </trkpt>
      <trkpt lat="45.6984" lon="6.27204">
        <ele>1826.7</ele>
        <time>2021-02-08T10:54:13Z</time>
      </trkpt>
      <trkpt lat="45.69841" lon="6.27201">
        <ele>1826.5</ele>
        <time>2021-02-08T10:54:17Z</time>
      </trkpt>
      <trkpt lat="45.69841" lon="6.27195">
        <ele>1826.8</ele>
        <time>2021-02-08T10:54:23Z</time>
      </trkpt>
      <trkpt lat="45.69842" lon="6.27192">
        <ele>1826.2</ele>
        <time>2021-02-08T10:54:25Z</time>
      </trkpt>
      <trkpt lat="45.69841" lon="6.27186">
        <ele>1825.9</ele>
        <time>2021-02-08T10:54:27Z</time>
      </trkpt>
      <trkpt lat="45.69839" lon="6.27166">
        <ele>1824.7</ele>
        <time>2021-02-08T10:54:33Z</time>
      </trkpt>
      <trkpt lat="45.6984" lon="6.27154">
        <ele>1824</ele>
        <time>2021-02-08T10:54:36Z</time>
      </trkpt>
      <trkpt lat="45.69842" lon="6.27146">
        <ele>1823.1</ele>
        <time>2021-02-08T10:54:38Z</time>
      </trkpt>
      <trkpt lat="45.69845" lon="6.27143">
        <ele>1821.9</ele>
        <time>2021-02-08T10:54:39Z</time>
      </trkpt>
      <trkpt lat="45.69854" lon="6.27132">
        <ele>1818.6</ele>
        <time>2021-02-08T10:54:43Z</time>
      </trkpt>
      <trkpt lat="45.69859" lon="6.27129">
        <ele>1816.5</ele>
        <time>2021-02-08T10:54:45Z</time>
      </trkpt>
      <trkpt lat="45.6986" lon="6.27125">
        <ele>1816</ele>
        <time>2021-02-08T10:54:46Z</time>
      </trkpt>
      <trkpt lat="45.69862" lon="6.27121">
        <ele>1815</ele>
        <time>2021-02-08T10:54:47Z</time>
      </trkpt>
      <trkpt lat="45.69866" lon="6.2712">
        <ele>1813.4</ele>
        <time>2021-02-08T10:54:48Z</time>
      </trkpt>
      <trkpt lat="45.69868" lon="6.27121">
        <ele>1812.6</ele>
        <time>2021-02-08T10:54:49Z</time>
      </trkpt>
      <trkpt lat="45.6987" lon="6.27123">
        <ele>1811.8</ele>
        <time>2021-02-08T10:54:50Z</time>
      </trkpt>
      <trkpt lat="45.69873" lon="6.27123">
        <ele>1810.6</ele>
        <time>2021-02-08T10:54:51Z</time>
      </trkpt>
      <trkpt lat="45.69875" lon="6.27121">
        <ele>1809.8</ele>
        <time>2021-02-08T10:54:52Z</time>
      </trkpt>
      <trkpt lat="45.69878" lon="6.27117">
        <ele>1808.7</ele>
        <time>2021-02-08T10:54:53Z</time>
      </trkpt>
      <trkpt lat="45.69885" lon="6.27119">
        <ele>1806</ele>
        <time>2021-02-08T10:54:55Z</time>
      </trkpt>
      <trkpt lat="45.69886" lon="6.27122">
        <ele>1805.4</ele>
        <time>2021-02-08T10:54:56Z</time>
      </trkpt>
      <trkpt lat="45.69887" lon="6.27126">
        <ele>1804.7</ele>
        <time>2021-02-08T10:54:57Z</time>
      </trkpt>
      <trkpt lat="45.69889" lon="6.27135">
        <ele>1803.2</ele>
        <time>2021-02-08T10:54:59Z</time>
      </trkpt>
      <trkpt lat="45.6989" lon="6.2714">
        <ele>1802.2</ele>
        <time>2021-02-08T10:55:00Z</time>
      </trkpt>
      <trkpt lat="45.69891" lon="6.27144">
        <ele>1801.4</ele>
        <time>2021-02-08T10:55:01Z</time>
      </trkpt>
      <trkpt lat="45.69893" lon="6.27149">
        <ele>1799.9</ele>
        <time>2021-02-08T10:55:02Z</time>
      </trkpt>
      <trkpt lat="45.69895" lon="6.27153">
        <ele>1798.6</ele>
        <time>2021-02-08T10:55:03Z</time>
      </trkpt>
      <trkpt lat="45.69896" lon="6.27158">
        <ele>1797.8</ele>
        <time>2021-02-08T10:55:04Z</time>
      </trkpt>
      <trkpt lat="45.69898" lon="6.27163">
        <ele>1796.5</ele>
        <time>2021-02-08T10:55:05Z</time>
      </trkpt>
      <trkpt lat="45.69901" lon="6.27172">
        <ele>1795.2</ele>
        <time>2021-02-08T10:55:07Z</time>
      </trkpt>
      <trkpt lat="45.69905" lon="6.27183">
        <ele>1793.6</ele>
        <time>2021-02-08T10:55:09Z</time>
      </trkpt>
      <trkpt lat="45.69906" lon="6.27187">
        <ele>1793.2</ele>
        <time>2021-02-08T10:55:10Z</time>
      </trkpt>
      <trkpt lat="45.69908" lon="6.27192">
        <ele>1792.2</ele>
        <time>2021-02-08T10:55:11Z</time>
      </trkpt>
      <trkpt lat="45.69909" lon="6.27197">
        <ele>1791.5</ele>
        <time>2021-02-08T10:55:12Z</time>
      </trkpt>
      <trkpt lat="45.6991" lon="6.27202">
        <ele>1790.6</ele>
        <time>2021-02-08T10:55:13Z</time>
      </trkpt>
      <trkpt lat="45.6991" lon="6.27207">
        <ele>1790.3</ele>
        <time>2021-02-08T10:55:14Z</time>
      </trkpt>
      <trkpt lat="45.69912" lon="6.27221">
        <ele>1788.4</ele>
        <time>2021-02-08T10:55:16Z</time>
      </trkpt>
      <trkpt lat="45.69912" lon="6.27229">
        <ele>1788.1</ele>
        <time>2021-02-08T10:55:17Z</time>
      </trkpt>
      <trkpt lat="45.69913" lon="6.27236">
        <ele>1787.2</ele>
        <time>2021-02-08T10:55:18Z</time>
      </trkpt>
      <trkpt lat="45.69913" lon="6.27241">
        <ele>1787</ele>
        <time>2021-02-08T10:55:19Z</time>
      </trkpt>
      <trkpt lat="45.69915" lon="6.27244">
        <ele>1785.6</ele>
        <time>2021-02-08T10:55:20Z</time>
      </trkpt>
      <trkpt lat="45.69918" lon="6.27244">
        <ele>1783.9</ele>
        <time>2021-02-08T10:55:21Z</time>
      </trkpt>
      <trkpt lat="45.69922" lon="6.27245">
        <ele>1782.3</ele>
        <time>2021-02-08T10:55:22Z</time>
      </trkpt>
      <trkpt lat="45.69925" lon="6.27248">
        <ele>1781.1</ele>
        <time>2021-02-08T10:55:23Z</time>
      </trkpt>
      <trkpt lat="45.69928" lon="6.27252">
        <ele>1780.4</ele>
        <time>2021-02-08T10:55:24Z</time>
      </trkpt>
      <trkpt lat="45.69932" lon="6.27254">
        <ele>1779.3</ele>
        <time>2021-02-08T10:55:25Z</time>
      </trkpt>
      <trkpt lat="45.69936" lon="6.27255">
        <ele>1777.9</ele>
        <time>2021-02-08T10:55:26Z</time>
      </trkpt>
      <trkpt lat="45.6994" lon="6.27257">
        <ele>1776.5</ele>
        <time>2021-02-08T10:55:27Z</time>
      </trkpt>
      <trkpt lat="45.69943" lon="6.27262">
        <ele>1775.6</ele>
        <time>2021-02-08T10:55:28Z</time>
      </trkpt>
      <trkpt lat="45.69946" lon="6.27267">
        <ele>1774.5</ele>
        <time>2021-02-08T10:55:29Z</time>
      </trkpt>
      <trkpt lat="45.69949" lon="6.27273">
        <ele>1773.3</ele>
        <time>2021-02-08T10:55:30Z</time>
      </trkpt>
      <trkpt lat="45.69952" lon="6.27277">
        <ele>1771.9</ele>
        <time>2021-02-08T10:55:31Z</time>
      </trkpt>
      <trkpt lat="45.69955" lon="6.2728">
        <ele>1770.4</ele>
        <time>2021-02-08T10:55:32Z</time>
      </trkpt>
      <trkpt lat="45.69959" lon="6.27281">
        <ele>1768.2</ele>
        <time>2021-02-08T10:55:33Z</time>
      </trkpt>
      <trkpt lat="45.69961" lon="6.2728">
        <ele>1767.1</ele>
        <time>2021-02-08T10:55:34Z</time>
      </trkpt>
      <trkpt lat="45.69962" lon="6.2728">
        <ele>1766.5</ele>
        <time>2021-02-08T10:55:35Z</time>
      </trkpt>
      <trkpt lat="45.69963" lon="6.27279">
        <ele>1766</ele>
        <time>2021-02-08T10:55:36Z</time>
      </trkpt>
      <trkpt lat="45.69963" lon="6.2728">
        <ele>1766</ele>
        <time>2021-02-08T10:55:39Z</time>
      </trkpt>
      <trkpt lat="45.69964" lon="6.27278">
        <ele>1765.4</ele>
        <time>2021-02-08T10:55:42Z</time>
      </trkpt>
      <trkpt lat="45.69964" lon="6.27278">
        <ele>1765.4</ele>
        <time>2021-02-08T10:55:45Z</time>
      </trkpt>
      <trkpt lat="45.69963" lon="6.27278">
        <ele>1766</ele>
        <time>2021-02-08T10:55:49Z</time>
      </trkpt>
      <trkpt lat="45.69962" lon="6.27278">
        <ele>1766.5</ele>
        <time>2021-02-08T10:55:52Z</time>
      </trkpt>
      <trkpt lat="45.69962" lon="6.27278">
        <ele>1766.5</ele>
        <time>2021-02-08T10:55:54Z</time>
      </trkpt>
      <trkpt lat="45.69962" lon="6.27278">
        <ele>1766.5</ele>
        <time>2021-02-08T10:55:58Z</time>
      </trkpt>
      <trkpt lat="45.69962" lon="6.27278">
        <ele>1766.5</ele>
        <time>2021-02-08T10:56:00Z</time>
      </trkpt>
      <trkpt lat="45.69962" lon="6.27278">
        <ele>1766.5</ele>
        <time>2021-02-08T10:56:05Z</time>
      </trkpt>
      <trkpt lat="45.69962" lon="6.27279">
        <ele>1766.5</ele>
        <time>2021-02-08T10:56:11Z</time>
      </trkpt>
      <trkpt lat="45.69962" lon="6.27279">
        <ele>1766.5</ele>
        <time>2021-02-08T10:56:12Z</time>
      </trkpt>
      <trkpt lat="45.69962" lon="6.27278">
        <ele>1766.5</ele>
        <time>2021-02-08T10:56:14Z</time>
      </trkpt>
      <trkpt lat="45.69961" lon="6.27278">
        <ele>1767.1</ele>
        <time>2021-02-08T10:56:18Z</time>
      </trkpt>
      <trkpt lat="45.69962" lon="6.27277">
        <ele>1766.5</ele>
        <time>2021-02-08T10:56:27Z</time>
      </trkpt>
      <trkpt lat="45.69962" lon="6.27277">
        <ele>1766.5</ele>
        <time>2021-02-08T10:56:28Z</time>
      </trkpt>
      <trkpt lat="45.69965" lon="6.27284">
        <ele>1764.8</ele>
        <time>2021-02-08T10:56:32Z</time>
      </trkpt>
      <trkpt lat="45.69966" lon="6.27287">
        <ele>1764.1</ele>
        <time>2021-02-08T10:56:33Z</time>
      </trkpt>
      <trkpt lat="45.69967" lon="6.27289">
        <ele>1763.5</ele>
        <time>2021-02-08T10:56:34Z</time>
      </trkpt>
      <trkpt lat="45.69967" lon="6.27296">
        <ele>1763.2</ele>
        <time>2021-02-08T10:56:36Z</time>
      </trkpt>
      <trkpt lat="45.69968" lon="6.27299">
        <ele>1762.4</ele>
        <time>2021-02-08T10:56:37Z</time>
      </trkpt>
      <trkpt lat="45.69969" lon="6.27301">
        <ele>1761.6</ele>
        <time>2021-02-08T10:56:38Z</time>
      </trkpt>
      <trkpt lat="45.69974" lon="6.27302">
        <ele>1758.2</ele>
        <time>2021-02-08T10:56:40Z</time>
      </trkpt>
      <trkpt lat="45.69976" lon="6.27306">
        <ele>1756.9</ele>
        <time>2021-02-08T10:56:41Z</time>
      </trkpt>
      <trkpt lat="45.69979" lon="6.27313">
        <ele>1756</ele>
        <time>2021-02-08T10:56:43Z</time>
      </trkpt>
      <trkpt lat="45.69979" lon="6.27316">
        <ele>1756.4</ele>
        <time>2021-02-08T10:56:44Z</time>
      </trkpt>
      <trkpt lat="45.6998" lon="6.27319">
        <ele>1756.2</ele>
        <time>2021-02-08T10:56:45Z</time>
      </trkpt>
      <trkpt lat="45.69981" lon="6.27322">
        <ele>1755.9</ele>
        <time>2021-02-08T10:56:46Z</time>
      </trkpt>
      <trkpt lat="45.69983" lon="6.27322">
        <ele>1754.7</ele>
        <time>2021-02-08T10:56:47Z</time>
      </trkpt>
      <trkpt lat="45.69987" lon="6.27321">
        <ele>1752.1</ele>
        <time>2021-02-08T10:56:48Z</time>
      </trkpt>
      <trkpt lat="45.69991" lon="6.27321">
        <ele>1749.7</ele>
        <time>2021-02-08T10:56:49Z</time>
      </trkpt>
      <trkpt lat="45.69994" lon="6.27323">
        <ele>1748</ele>
        <time>2021-02-08T10:56:50Z</time>
      </trkpt>
      <trkpt lat="45.69998" lon="6.27325">
        <ele>1745.7</ele>
        <time>2021-02-08T10:56:51Z</time>
      </trkpt>
      <trkpt lat="45.70001" lon="6.27325">
        <ele>1743.8</ele>
        <time>2021-02-08T10:56:52Z</time>
      </trkpt>
      <trkpt lat="45.70004" lon="6.27324">
        <ele>1741.9</ele>
        <time>2021-02-08T10:56:53Z</time>
      </trkpt>
      <trkpt lat="45.70007" lon="6.27325">
        <ele>1740.1</ele>
        <time>2021-02-08T10:56:54Z</time>
      </trkpt>
      <trkpt lat="45.70009" lon="6.27328">
        <ele>1739.1</ele>
        <time>2021-02-08T10:56:55Z</time>
      </trkpt>
      <trkpt lat="45.70011" lon="6.27331">
        <ele>1738.1</ele>
        <time>2021-02-08T10:56:56Z</time>
      </trkpt>
      <trkpt lat="45.70012" lon="6.27332">
        <ele>1737.6</ele>
        <time>2021-02-08T10:56:57Z</time>
      </trkpt>
      <trkpt lat="45.70014" lon="6.27332">
        <ele>1736.3</ele>
        <time>2021-02-08T10:56:58Z</time>
      </trkpt>
      <trkpt lat="45.70016" lon="6.2733">
        <ele>1735</ele>
        <time>2021-02-08T10:56:59Z</time>
      </trkpt>
      <trkpt lat="45.70017" lon="6.27328">
        <ele>1734.2</ele>
        <time>2021-02-08T10:57:00Z</time>
      </trkpt>
      <trkpt lat="45.70019" lon="6.27327">
        <ele>1732.9</ele>
        <time>2021-02-08T10:57:01Z</time>
      </trkpt>
      <trkpt lat="45.70023" lon="6.27332">
        <ele>1730.8</ele>
        <time>2021-02-08T10:57:02Z</time>
      </trkpt>
      <trkpt lat="45.70024" lon="6.27334">
        <ele>1730.4</ele>
        <time>2021-02-08T10:57:04Z</time>
      </trkpt>
      <trkpt lat="45.70025" lon="6.27336">
        <ele>1729.9</ele>
        <time>2021-02-08T10:57:05Z</time>
      </trkpt>
      <trkpt lat="45.70027" lon="6.27336">
        <ele>1728.7</ele>
        <time>2021-02-08T10:57:06Z</time>
      </trkpt>
      <trkpt lat="45.70027" lon="6.27334">
        <ele>1728.5</ele>
        <time>2021-02-08T10:57:07Z</time>
      </trkpt>
      <trkpt lat="45.70028" lon="6.27331">
        <ele>1727.7</ele>
        <time>2021-02-08T10:57:08Z</time>
      </trkpt>
      <trkpt lat="45.7003" lon="6.2733">
        <ele>1726.2</ele>
        <time>2021-02-08T10:57:09Z</time>
      </trkpt>
      <trkpt lat="45.70032" lon="6.27332">
        <ele>1724.9</ele>
        <time>2021-02-08T10:57:10Z</time>
      </trkpt>
      <trkpt lat="45.70034" lon="6.27336">
        <ele>1723.7</ele>
        <time>2021-02-08T10:57:12Z</time>
      </trkpt>
      <trkpt lat="45.70035" lon="6.27337">
        <ele>1723.1</ele>
        <time>2021-02-08T10:57:13Z</time>
      </trkpt>
      <trkpt lat="45.70036" lon="6.27337">
        <ele>1722.3</ele>
        <time>2021-02-08T10:57:14Z</time>
      </trkpt>
      <trkpt lat="45.70037" lon="6.27335">
        <ele>1721.5</ele>
        <time>2021-02-08T10:57:15Z</time>
      </trkpt>
      <trkpt lat="45.70039" lon="6.27333">
        <ele>1719.9</ele>
        <time>2021-02-08T10:57:17Z</time>
      </trkpt>
      <trkpt lat="45.70039" lon="6.27332">
        <ele>1719.8</ele>
        <time>2021-02-08T10:57:18Z</time>
      </trkpt>
      <trkpt lat="45.70041" lon="6.27333">
        <ele>1718.5</ele>
        <time>2021-02-08T10:57:19Z</time>
      </trkpt>
      <trkpt lat="45.70042" lon="6.27339">
        <ele>1718.2</ele>
        <time>2021-02-08T10:57:21Z</time>
      </trkpt>
      <trkpt lat="45.70043" lon="6.27342">
        <ele>1717.7</ele>
        <time>2021-02-08T10:57:22Z</time>
      </trkpt>
      <trkpt lat="45.70043" lon="6.27342">
        <ele>1717.7</ele>
        <time>2021-02-08T10:57:23Z</time>
      </trkpt>
      <trkpt lat="45.70044" lon="6.27349">
        <ele>1717.4</ele>
        <time>2021-02-08T10:57:25Z</time>
      </trkpt>
      <trkpt lat="45.70044" lon="6.27351">
        <ele>1717.6</ele>
        <time>2021-02-08T10:57:27Z</time>
      </trkpt>
      <trkpt lat="45.70044" lon="6.2735">
        <ele>1717.5</ele>
        <time>2021-02-08T10:57:29Z</time>
      </trkpt>
      <trkpt lat="45.70045" lon="6.2735">
        <ele>1716.8</ele>
        <time>2021-02-08T10:57:35Z</time>
      </trkpt>
      <trkpt lat="45.7005" lon="6.27345">
        <ele>1712.8</ele>
        <time>2021-02-08T10:57:39Z</time>
      </trkpt>
      <trkpt lat="45.7005" lon="6.27343">
        <ele>1712.7</ele>
        <time>2021-02-08T10:57:40Z</time>
      </trkpt>
      <trkpt lat="45.70051" lon="6.27341">
        <ele>1711.8</ele>
        <time>2021-02-08T10:57:41Z</time>
      </trkpt>
      <trkpt lat="45.70054" lon="6.27336">
        <ele>1709.3</ele>
        <time>2021-02-08T10:57:43Z</time>
      </trkpt>
      <trkpt lat="45.70055" lon="6.27334">
        <ele>1708.4</ele>
        <time>2021-02-08T10:57:45Z</time>
      </trkpt>
      <trkpt lat="45.70056" lon="6.27334">
        <ele>1708</ele>
        <time>2021-02-08T10:57:47Z</time>
      </trkpt>
      <trkpt lat="45.70055" lon="6.27334">
        <ele>1708.4</ele>
        <time>2021-02-08T10:58:00Z</time>
      </trkpt>
      <trkpt lat="45.70056" lon="6.27336">
        <ele>1708.1</ele>
        <time>2021-02-08T10:58:03Z</time>
      </trkpt>
      <trkpt lat="45.70057" lon="6.27339">
        <ele>1708.1</ele>
        <time>2021-02-08T10:58:05Z</time>
      </trkpt>
      <trkpt lat="45.70057" lon="6.27345">
        <ele>1708.5</ele>
        <time>2021-02-08T10:58:07Z</time>
      </trkpt>
      <trkpt lat="45.70057" lon="6.27349">
        <ele>1708.8</ele>
        <time>2021-02-08T10:58:08Z</time>
      </trkpt>
      <trkpt lat="45.70059" lon="6.27354">
        <ele>1708.5</ele>
        <time>2021-02-08T10:58:09Z</time>
      </trkpt>
      <trkpt lat="45.70061" lon="6.27361">
        <ele>1708.2</ele>
        <time>2021-02-08T10:58:11Z</time>
      </trkpt>
      <trkpt lat="45.70062" lon="6.27364">
        <ele>1708.8</ele>
        <time>2021-02-08T10:58:12Z</time>
      </trkpt>
      <trkpt lat="45.70064" lon="6.27364">
        <ele>1708.2</ele>
        <time>2021-02-08T10:58:13Z</time>
      </trkpt>
      <trkpt lat="45.70069" lon="6.27363">
        <ele>1706.3</ele>
        <time>2021-02-08T10:58:15Z</time>
      </trkpt>
      <trkpt lat="45.70075" lon="6.27364">
        <ele>1704.8</ele>
        <time>2021-02-08T10:58:17Z</time>
      </trkpt>
      <trkpt lat="45.70077" lon="6.2736">
        <ele>1703.1</ele>
        <time>2021-02-08T10:58:19Z</time>
      </trkpt>
      <trkpt lat="45.70081" lon="6.27353">
        <ele>1702.2</ele>
        <time>2021-02-08T10:58:22Z</time>
      </trkpt>
      <trkpt lat="45.70082" lon="6.2735">
        <ele>1702.2</ele>
        <time>2021-02-08T10:58:24Z</time>
      </trkpt>
      <trkpt lat="45.70081" lon="6.2735">
        <ele>1702.4</ele>
        <time>2021-02-08T10:58:26Z</time>
      </trkpt>
      <trkpt lat="45.70082" lon="6.27352">
        <ele>1702</ele>
        <time>2021-02-08T10:58:32Z</time>
      </trkpt>
      <trkpt lat="45.70086" lon="6.2736">
        <ele>1699.8</ele>
        <time>2021-02-08T10:58:35Z</time>
      </trkpt>
      <trkpt lat="45.70088" lon="6.27363">
        <ele>1699.5</ele>
        <time>2021-02-08T10:58:36Z</time>
      </trkpt>
      <trkpt lat="45.7009" lon="6.27364">
        <ele>1698.9</ele>
        <time>2021-02-08T10:58:37Z</time>
      </trkpt>
      <trkpt lat="45.70094" lon="6.2736">
        <ele>1696</ele>
        <time>2021-02-08T10:58:39Z</time>
      </trkpt>
      <trkpt lat="45.70098" lon="6.27359">
        <ele>1694.2</ele>
        <time>2021-02-08T10:58:40Z</time>
      </trkpt>
      <trkpt lat="45.70101" lon="6.2736">
        <ele>1692.7</ele>
        <time>2021-02-08T10:58:41Z</time>
      </trkpt>
      <trkpt lat="45.70104" lon="6.27362">
        <ele>1691.6</ele>
        <time>2021-02-08T10:58:42Z</time>
      </trkpt>
      <trkpt lat="45.70108" lon="6.27362">
        <ele>1689.7</ele>
        <time>2021-02-08T10:58:43Z</time>
      </trkpt>
      <trkpt lat="45.70111" lon="6.27361">
        <ele>1688</ele>
        <time>2021-02-08T10:58:44Z</time>
      </trkpt>
      <trkpt lat="45.70115" lon="6.27361">
        <ele>1686.3</ele>
        <time>2021-02-08T10:58:45Z</time>
      </trkpt>
      <trkpt lat="45.70118" lon="6.27362">
        <ele>1685.2</ele>
        <time>2021-02-08T10:58:46Z</time>
      </trkpt>
      <trkpt lat="45.70124" lon="6.27368">
        <ele>1683.5</ele>
        <time>2021-02-08T10:58:48Z</time>
      </trkpt>
      <trkpt lat="45.70126" lon="6.2737">
        <ele>1682.8</ele>
        <time>2021-02-08T10:58:49Z</time>
      </trkpt>
      <trkpt lat="45.70128" lon="6.2737">
        <ele>1681.8</ele>
        <time>2021-02-08T10:58:50Z</time>
      </trkpt>
      <trkpt lat="45.70128" lon="6.27369">
        <ele>1681.7</ele>
        <time>2021-02-08T10:58:51Z</time>
      </trkpt>
      <trkpt lat="45.70128" lon="6.27369">
        <ele>1681.7</ele>
        <time>2021-02-08T10:58:52Z</time>
      </trkpt>
      <trkpt lat="45.70127" lon="6.27369">
        <ele>1682.2</ele>
        <time>2021-02-08T10:58:53Z</time>
      </trkpt>
      <trkpt lat="45.70126" lon="6.27368">
        <ele>1682.5</ele>
        <time>2021-02-08T10:58:56Z</time>
      </trkpt>
      <trkpt lat="45.70126" lon="6.27368">
        <ele>1682.5</ele>
        <time>2021-02-08T10:58:57Z</time>
      </trkpt>
      <trkpt lat="45.70125" lon="6.27368">
        <ele>1683</ele>
        <time>2021-02-08T10:58:59Z</time>
      </trkpt>
      <trkpt lat="45.70126" lon="6.27361">
        <ele>1681.6</ele>
        <time>2021-02-08T10:59:07Z</time>
      </trkpt>
      <trkpt lat="45.70133" lon="6.27356">
        <ele>1678.6</ele>
        <time>2021-02-08T10:59:09Z</time>
      </trkpt>
      <trkpt lat="45.70136" lon="6.27353">
        <ele>1677.5</ele>
        <time>2021-02-08T10:59:10Z</time>
      </trkpt>
      <trkpt lat="45.70138" lon="6.27344">
        <ele>1677</ele>
        <time>2021-02-08T10:59:12Z</time>
      </trkpt>
      <trkpt lat="45.70139" lon="6.27341">
        <ele>1676.6</ele>
        <time>2021-02-08T10:59:13Z</time>
      </trkpt>
      <trkpt lat="45.70138" lon="6.27338">
        <ele>1677.2</ele>
        <time>2021-02-08T10:59:15Z</time>
      </trkpt>
      <trkpt lat="45.70137" lon="6.27337">
        <ele>1677.6</ele>
        <time>2021-02-08T10:59:17Z</time>
      </trkpt>
      <trkpt lat="45.70136" lon="6.27337">
        <ele>1677.9</ele>
        <time>2021-02-08T10:59:18Z</time>
      </trkpt>
      <trkpt lat="45.70133" lon="6.27336">
        <ele>1679.1</ele>
        <time>2021-02-08T10:59:24Z</time>
      </trkpt>
      <trkpt lat="45.70132" lon="6.27336">
        <ele>1679.4</ele>
        <time>2021-02-08T10:59:26Z</time>
      </trkpt>
      <trkpt lat="45.70135" lon="6.27336">
        <ele>1678.3</ele>
        <time>2021-02-08T10:59:29Z</time>
      </trkpt>
      <trkpt lat="45.70138" lon="6.27336">
        <ele>1677.2</ele>
        <time>2021-02-08T10:59:37Z</time>
      </trkpt>
      <trkpt lat="45.70138" lon="6.27336">
        <ele>1677.2</ele>
        <time>2021-02-08T10:59:38Z</time>
      </trkpt>
      <trkpt lat="45.70138" lon="6.27336">
        <ele>1677.2</ele>
        <time>2021-02-08T10:59:39Z</time>
      </trkpt>
      <trkpt lat="45.70139" lon="6.27336">
        <ele>1676.8</ele>
        <time>2021-02-08T10:59:40Z</time>
      </trkpt>
      <trkpt lat="45.70139" lon="6.27336">
        <ele>1676.8</ele>
        <time>2021-02-08T10:59:42Z</time>
      </trkpt>
      <trkpt lat="45.70139" lon="6.27335">
        <ele>1676.9</ele>
        <time>2021-02-08T10:59:46Z</time>
      </trkpt>
      <trkpt lat="45.70139" lon="6.27335">
        <ele>1676.9</ele>
        <time>2021-02-08T10:59:47Z</time>
      </trkpt>
      <trkpt lat="45.70142" lon="6.27328">
        <ele>1674.7</ele>
        <time>2021-02-08T10:59:56Z</time>
      </trkpt>
      <trkpt lat="45.70146" lon="6.27325">
        <ele>1672.1</ele>
        <time>2021-02-08T10:59:58Z</time>
      </trkpt>
      <trkpt lat="45.70151" lon="6.27326">
        <ele>1668.8</ele>
        <time>2021-02-08T11:00:00Z</time>
      </trkpt>
      <trkpt lat="45.70152" lon="6.27325">
        <ele>1668.2</ele>
        <time>2021-02-08T11:00:01Z</time>
      </trkpt>
      <trkpt lat="45.70154" lon="6.27323">
        <ele>1666.9</ele>
        <time>2021-02-08T11:00:02Z</time>
      </trkpt>
      <trkpt lat="45.70154" lon="6.27322">
        <ele>1666.9</ele>
        <time>2021-02-08T11:00:03Z</time>
      </trkpt>
      <trkpt lat="45.70154" lon="6.2732">
        <ele>1667</ele>
        <time>2021-02-08T11:00:05Z</time>
      </trkpt>
      <trkpt lat="45.70158" lon="6.2732">
        <ele>1664.4</ele>
        <time>2021-02-08T11:00:08Z</time>
      </trkpt>
      <trkpt lat="45.70159" lon="6.27321">
        <ele>1663.8</ele>
        <time>2021-02-08T11:00:09Z</time>
      </trkpt>
      <trkpt lat="45.70162" lon="6.27322">
        <ele>1661.8</ele>
        <time>2021-02-08T11:00:10Z</time>
      </trkpt>
      <trkpt lat="45.70164" lon="6.27321">
        <ele>1660.6</ele>
        <time>2021-02-08T11:00:11Z</time>
      </trkpt>
      <trkpt lat="45.70166" lon="6.27318">
        <ele>1659.5</ele>
        <time>2021-02-08T11:00:12Z</time>
      </trkpt>
      <trkpt lat="45.70168" lon="6.27313">
        <ele>1658.5</ele>
        <time>2021-02-08T11:00:14Z</time>
      </trkpt>
      <trkpt lat="45.7017" lon="6.27313">
        <ele>1657.1</ele>
        <time>2021-02-08T11:00:15Z</time>
      </trkpt>
      <trkpt lat="45.70172" lon="6.27314">
        <ele>1655.6</ele>
        <time>2021-02-08T11:00:16Z</time>
      </trkpt>
      <trkpt lat="45.70173" lon="6.2732">
        <ele>1654.4</ele>
        <time>2021-02-08T11:00:18Z</time>
      </trkpt>
      <trkpt lat="45.70173" lon="6.27321">
        <ele>1654.3</ele>
        <time>2021-02-08T11:00:19Z</time>
      </trkpt>
      <trkpt lat="45.70173" lon="6.27321">
        <ele>1654.3</ele>
        <time>2021-02-08T11:00:21Z</time>
      </trkpt>
      <trkpt lat="45.70172" lon="6.27321">
        <ele>1655</ele>
        <time>2021-02-08T11:00:25Z</time>
      </trkpt>
      <trkpt lat="45.70175" lon="6.27321">
        <ele>1652.9</ele>
        <time>2021-02-08T11:00:28Z</time>
      </trkpt>
      <trkpt lat="45.70172" lon="6.27323">
        <ele>1654.9</ele>
        <time>2021-02-08T11:00:30Z</time>
      </trkpt>
      <trkpt lat="45.70172" lon="6.27327">
        <ele>1654.6</ele>
        <time>2021-02-08T11:00:32Z</time>
      </trkpt>
      <trkpt lat="45.70173" lon="6.27331">
        <ele>1653.6</ele>
        <time>2021-02-08T11:00:33Z</time>
      </trkpt>
      <trkpt lat="45.70174" lon="6.27341">
        <ele>1652.3</ele>
        <time>2021-02-08T11:00:36Z</time>
      </trkpt>
      <trkpt lat="45.70174" lon="6.27342">
        <ele>1652.3</ele>
        <time>2021-02-08T11:00:37Z</time>
      </trkpt>
      <trkpt lat="45.70174" lon="6.27343">
        <ele>1652.2</ele>
        <time>2021-02-08T11:00:38Z</time>
      </trkpt>
      <trkpt lat="45.70173" lon="6.27344">
        <ele>1652.8</ele>
        <time>2021-02-08T11:00:41Z</time>
      </trkpt>
      <trkpt lat="45.70173" lon="6.27346">
        <ele>1652.7</ele>
        <time>2021-02-08T11:00:44Z</time>
      </trkpt>
      <trkpt lat="45.70173" lon="6.27349">
        <ele>1652.6</ele>
        <time>2021-02-08T11:00:47Z</time>
      </trkpt>
      <trkpt lat="45.70173" lon="6.27349">
        <ele>1652.6</ele>
        <time>2021-02-08T11:00:49Z</time>
      </trkpt>
      <trkpt lat="45.70173" lon="6.27353">
        <ele>1652.3</ele>
        <time>2021-02-08T11:00:51Z</time>
      </trkpt>
      <trkpt lat="45.70174" lon="6.27355">
        <ele>1651.6</ele>
        <time>2021-02-08T11:00:52Z</time>
      </trkpt>
      <trkpt lat="45.70174" lon="6.27358">
        <ele>1651.4</ele>
        <time>2021-02-08T11:00:53Z</time>
      </trkpt>
      <trkpt lat="45.70175" lon="6.27362">
        <ele>1650.9</ele>
        <time>2021-02-08T11:00:55Z</time>
      </trkpt>
      <trkpt lat="45.70175" lon="6.27364">
        <ele>1651.7</ele>
        <time>2021-02-08T11:00:56Z</time>
      </trkpt>
      <trkpt lat="45.70175" lon="6.27364">
        <ele>1651.7</ele>
        <time>2021-02-08T11:00:57Z</time>
      </trkpt>
      <trkpt lat="45.70177" lon="6.27363">
        <ele>1650.1</ele>
        <time>2021-02-08T11:00:59Z</time>
      </trkpt>
      <trkpt lat="45.70181" lon="6.27358">
        <ele>1646.8</ele>
        <time>2021-02-08T11:01:02Z</time>
      </trkpt>
      <trkpt lat="45.70183" lon="6.27353">
        <ele>1645.7</ele>
        <time>2021-02-08T11:01:04Z</time>
      </trkpt>
      <trkpt lat="45.70184" lon="6.27351">
        <ele>1645</ele>
        <time>2021-02-08T11:01:05Z</time>
      </trkpt>
      <trkpt lat="45.70184" lon="6.2735">
        <ele>1645.1</ele>
        <time>2021-02-08T11:01:06Z</time>
      </trkpt>
      <trkpt lat="45.70186" lon="6.27349">
        <ele>1643.7</ele>
        <time>2021-02-08T11:01:07Z</time>
      </trkpt>
      <trkpt lat="45.70188" lon="6.2735">
        <ele>1642.4</ele>
        <time>2021-02-08T11:01:08Z</time>
      </trkpt>
      <trkpt lat="45.70191" lon="6.27353">
        <ele>1640.3</ele>
        <time>2021-02-08T11:01:09Z</time>
      </trkpt>
      <trkpt lat="45.70193" lon="6.27357">
        <ele>1639</ele>
        <time>2021-02-08T11:01:10Z</time>
      </trkpt>
      <trkpt lat="45.70195" lon="6.2736">
        <ele>1637.8</ele>
        <time>2021-02-08T11:01:11Z</time>
      </trkpt>
      <trkpt lat="45.70197" lon="6.27361">
        <ele>1636.9</ele>
        <time>2021-02-08T11:01:12Z</time>
      </trkpt>
      <trkpt lat="45.70199" lon="6.2736">
        <ele>1636.1</ele>
        <time>2021-02-08T11:01:13Z</time>
      </trkpt>
      <trkpt lat="45.702" lon="6.27355">
        <ele>1635.8</ele>
        <time>2021-02-08T11:01:15Z</time>
      </trkpt>
      <trkpt lat="45.70202" lon="6.27353">
        <ele>1635.1</ele>
        <time>2021-02-08T11:01:16Z</time>
      </trkpt>
      <trkpt lat="45.70203" lon="6.2735">
        <ele>1634.9</ele>
        <time>2021-02-08T11:01:17Z</time>
      </trkpt>
      <trkpt lat="45.70206" lon="6.27351">
        <ele>1633.8</ele>
        <time>2021-02-08T11:01:18Z</time>
      </trkpt>
      <trkpt lat="45.70212" lon="6.27357">
        <ele>1630.9</ele>
        <time>2021-02-08T11:01:20Z</time>
      </trkpt>
      <trkpt lat="45.70215" lon="6.27361">
        <ele>1629.1</ele>
        <time>2021-02-08T11:01:21Z</time>
      </trkpt>
      <trkpt lat="45.70217" lon="6.27363">
        <ele>1629.4</ele>
        <time>2021-02-08T11:01:22Z</time>
      </trkpt>
      <trkpt lat="45.7022" lon="6.27365">
        <ele>1629.4</ele>
        <time>2021-02-08T11:01:23Z</time>
      </trkpt>
      <trkpt lat="45.70225" lon="6.27366">
        <ele>1628.1</ele>
        <time>2021-02-08T11:01:25Z</time>
      </trkpt>
      <trkpt lat="45.70232" lon="6.27366">
        <ele>1625.3</ele>
        <time>2021-02-08T11:01:27Z</time>
      </trkpt>
      <trkpt lat="45.70236" lon="6.27368">
        <ele>1624.5</ele>
        <time>2021-02-08T11:01:28Z</time>
      </trkpt>
      <trkpt lat="45.7024" lon="6.27369">
        <ele>1623.2</ele>
        <time>2021-02-08T11:01:29Z</time>
      </trkpt>
      <trkpt lat="45.70246" lon="6.27363">
        <ele>1618.8</ele>
        <time>2021-02-08T11:01:31Z</time>
      </trkpt>
      <trkpt lat="45.7025" lon="6.27356">
        <ele>1617.2</ele>
        <time>2021-02-08T11:01:33Z</time>
      </trkpt>
      <trkpt lat="45.70254" lon="6.27354">
        <ele>1615.6</ele>
        <time>2021-02-08T11:01:34Z</time>
      </trkpt>
      <trkpt lat="45.70259" lon="6.27354">
        <ele>1613.5</ele>
        <time>2021-02-08T11:01:35Z</time>
      </trkpt>
      <trkpt lat="45.70268" lon="6.27356">
        <ele>1609.5</ele>
        <time>2021-02-08T11:01:36Z</time>
      </trkpt>
      <trkpt lat="45.70268" lon="6.2736">
        <ele>1609.3</ele>
        <time>2021-02-08T11:01:37Z</time>
      </trkpt>
      <trkpt lat="45.70267" lon="6.27363">
        <ele>1609.7</ele>
        <time>2021-02-08T11:01:38Z</time>
      </trkpt>
      <trkpt lat="45.70267" lon="6.27367">
        <ele>1609.9</ele>
        <time>2021-02-08T11:01:39Z</time>
      </trkpt>
      <trkpt lat="45.70269" lon="6.2737">
        <ele>1609</ele>
        <time>2021-02-08T11:01:40Z</time>
      </trkpt>
      <trkpt lat="45.7027" lon="6.27371">
        <ele>1608.4</ele>
        <time>2021-02-08T11:01:41Z</time>
      </trkpt>
      <trkpt lat="45.70272" lon="6.27371">
        <ele>1607.4</ele>
        <time>2021-02-08T11:01:42Z</time>
      </trkpt>
      <trkpt lat="45.70273" lon="6.27369">
        <ele>1606.9</ele>
        <time>2021-02-08T11:01:44Z</time>
      </trkpt>
      <trkpt lat="45.70273" lon="6.27369">
        <ele>1606.9</ele>
        <time>2021-02-08T11:01:46Z</time>
      </trkpt>
      <trkpt lat="45.70272" lon="6.27369">
        <ele>1607.4</ele>
        <time>2021-02-08T11:01:48Z</time>
      </trkpt>
      <trkpt lat="45.70272" lon="6.27369">
        <ele>1607.4</ele>
        <time>2021-02-08T11:01:49Z</time>
      </trkpt>
      <trkpt lat="45.70273" lon="6.27369">
        <ele>1606.9</ele>
        <time>2021-02-08T11:01:54Z</time>
      </trkpt>
      <trkpt lat="45.70273" lon="6.27369">
        <ele>1606.9</ele>
        <time>2021-02-08T11:01:55Z</time>
      </trkpt>
      <trkpt lat="45.7028" lon="6.27374">
        <ele>1602.8</ele>
        <time>2021-02-08T11:02:00Z</time>
      </trkpt>
      <trkpt lat="45.70283" lon="6.27379">
        <ele>1600.8</ele>
        <time>2021-02-08T11:02:02Z</time>
      </trkpt>
      <trkpt lat="45.70288" lon="6.27378">
        <ele>1598.1</ele>
        <time>2021-02-08T11:02:04Z</time>
      </trkpt>
      <trkpt lat="45.7029" lon="6.27377">
        <ele>1596.9</ele>
        <time>2021-02-08T11:02:05Z</time>
      </trkpt>
      <trkpt lat="45.70294" lon="6.27374">
        <ele>1594.6</ele>
        <time>2021-02-08T11:02:07Z</time>
      </trkpt>
      <trkpt lat="45.70297" lon="6.27375">
        <ele>1592.9</ele>
        <time>2021-02-08T11:02:08Z</time>
      </trkpt>
      <trkpt lat="45.703" lon="6.27379">
        <ele>1591.4</ele>
        <time>2021-02-08T11:02:09Z</time>
      </trkpt>
      <trkpt lat="45.70302" lon="6.27385">
        <ele>1590.6</ele>
        <time>2021-02-08T11:02:11Z</time>
      </trkpt>
      <trkpt lat="45.70304" lon="6.27388">
        <ele>1589.7</ele>
        <time>2021-02-08T11:02:12Z</time>
      </trkpt>
      <trkpt lat="45.70305" lon="6.27389">
        <ele>1589.3</ele>
        <time>2021-02-08T11:02:13Z</time>
      </trkpt>
      <trkpt lat="45.70307" lon="6.27389">
        <ele>1588</ele>
        <time>2021-02-08T11:02:14Z</time>
      </trkpt>
      <trkpt lat="45.70308" lon="6.27386">
        <ele>1587.1</ele>
        <time>2021-02-08T11:02:15Z</time>
      </trkpt>
      <trkpt lat="45.70309" lon="6.27379">
        <ele>1586.1</ele>
        <time>2021-02-08T11:02:17Z</time>
      </trkpt>
      <trkpt lat="45.7031" lon="6.27377">
        <ele>1585.3</ele>
        <time>2021-02-08T11:02:18Z</time>
      </trkpt>
      <trkpt lat="45.70312" lon="6.27376">
        <ele>1584</ele>
        <time>2021-02-08T11:02:19Z</time>
      </trkpt>
      <trkpt lat="45.70322" lon="6.27384">
        <ele>1577.7</ele>
        <time>2021-02-08T11:02:22Z</time>
      </trkpt>
      <trkpt lat="45.70323" lon="6.27387">
        <ele>1577.1</ele>
        <time>2021-02-08T11:02:23Z</time>
      </trkpt>
      <trkpt lat="45.70325" lon="6.2739">
        <ele>1575.9</ele>
        <time>2021-02-08T11:02:24Z</time>
      </trkpt>
      <trkpt lat="45.70327" lon="6.27391">
        <ele>1574.7</ele>
        <time>2021-02-08T11:02:25Z</time>
      </trkpt>
      <trkpt lat="45.7033" lon="6.2739">
        <ele>1572.5</ele>
        <time>2021-02-08T11:02:26Z</time>
      </trkpt>
      <trkpt lat="45.70332" lon="6.27387">
        <ele>1571</ele>
        <time>2021-02-08T11:02:27Z</time>
      </trkpt>
      <trkpt lat="45.70333" lon="6.27384">
        <ele>1570.4</ele>
        <time>2021-02-08T11:02:28Z</time>
      </trkpt>
      <trkpt lat="45.70333" lon="6.27381">
        <ele>1570.5</ele>
        <time>2021-02-08T11:02:29Z</time>
      </trkpt>
      <trkpt lat="45.70333" lon="6.27375">
        <ele>1570.7</ele>
        <time>2021-02-08T11:02:31Z</time>
      </trkpt>
      <trkpt lat="45.70334" lon="6.27369">
        <ele>1570.4</ele>
        <time>2021-02-08T11:02:33Z</time>
      </trkpt>
      <trkpt lat="45.70335" lon="6.27363">
        <ele>1569.9</ele>
        <time>2021-02-08T11:02:35Z</time>
      </trkpt>
      <trkpt lat="45.70337" lon="6.27362">
        <ele>1568.8</ele>
        <time>2021-02-08T11:02:36Z</time>
      </trkpt>
      <trkpt lat="45.70339" lon="6.27363">
        <ele>1567.6</ele>
        <time>2021-02-08T11:02:37Z</time>
      </trkpt>
      <trkpt lat="45.70342" lon="6.27367">
        <ele>1566</ele>
        <time>2021-02-08T11:02:39Z</time>
      </trkpt>
      <trkpt lat="45.70344" lon="6.27369">
        <ele>1565.1</ele>
        <time>2021-02-08T11:02:40Z</time>
      </trkpt>
      <trkpt lat="45.70346" lon="6.27369">
        <ele>1564</ele>
        <time>2021-02-08T11:02:41Z</time>
      </trkpt>
      <trkpt lat="45.70349" lon="6.27367">
        <ele>1562.2</ele>
        <time>2021-02-08T11:02:43Z</time>
      </trkpt>
      <trkpt lat="45.70351" lon="6.27367">
        <ele>1561.1</ele>
        <time>2021-02-08T11:02:44Z</time>
      </trkpt>
      <trkpt lat="45.70354" lon="6.27371">
        <ele>1560.1</ele>
        <time>2021-02-08T11:02:45Z</time>
      </trkpt>
      <trkpt lat="45.70356" lon="6.27376">
        <ele>1560.1</ele>
        <time>2021-02-08T11:02:46Z</time>
      </trkpt>
      <trkpt lat="45.70357" lon="6.27382">
        <ele>1560.9</ele>
        <time>2021-02-08T11:02:47Z</time>
      </trkpt>
      <trkpt lat="45.7036" lon="6.27387">
        <ele>1560.9</ele>
        <time>2021-02-08T11:02:48Z</time>
      </trkpt>
      <trkpt lat="45.70361" lon="6.27391">
        <ele>1561</ele>
        <time>2021-02-08T11:02:49Z</time>
      </trkpt>
      <trkpt lat="45.70362" lon="6.27395">
        <ele>1560.6</ele>
        <time>2021-02-08T11:02:50Z</time>
      </trkpt>
      <trkpt lat="45.70363" lon="6.27397">
        <ele>1560.2</ele>
        <time>2021-02-08T11:02:51Z</time>
      </trkpt>
      <trkpt lat="45.70366" lon="6.27397">
        <ele>1558.9</ele>
        <time>2021-02-08T11:02:52Z</time>
      </trkpt>
      <trkpt lat="45.70367" lon="6.27398">
        <ele>1558.5</ele>
        <time>2021-02-08T11:02:53Z</time>
      </trkpt>
      <trkpt lat="45.70368" lon="6.27401">
        <ele>1558.2</ele>
        <time>2021-02-08T11:02:54Z</time>
      </trkpt>
      <trkpt lat="45.7037" lon="6.27405">
        <ele>1557.6</ele>
        <time>2021-02-08T11:02:55Z</time>
      </trkpt>
      <trkpt lat="45.70372" lon="6.27408">
        <ele>1557</ele>
        <time>2021-02-08T11:02:56Z</time>
      </trkpt>
      <trkpt lat="45.70374" lon="6.27408">
        <ele>1556.2</ele>
        <time>2021-02-08T11:02:57Z</time>
      </trkpt>
      <trkpt lat="45.70376" lon="6.27407">
        <ele>1555.4</ele>
        <time>2021-02-08T11:02:58Z</time>
      </trkpt>
      <trkpt lat="45.70379" lon="6.27406">
        <ele>1554.2</ele>
        <time>2021-02-08T11:02:59Z</time>
      </trkpt>
      <trkpt lat="45.70381" lon="6.27407">
        <ele>1553.6</ele>
        <time>2021-02-08T11:03:00Z</time>
      </trkpt>
      <trkpt lat="45.70384" lon="6.27409">
        <ele>1552.7</ele>
        <time>2021-02-08T11:03:01Z</time>
      </trkpt>
      <trkpt lat="45.70387" lon="6.2741">
        <ele>1551.7</ele>
        <time>2021-02-08T11:03:02Z</time>
      </trkpt>
      <trkpt lat="45.70391" lon="6.27407">
        <ele>1550</ele>
        <time>2021-02-08T11:03:04Z</time>
      </trkpt>
      <trkpt lat="45.70397" lon="6.27402">
        <ele>1547.7</ele>
        <time>2021-02-08T11:03:06Z</time>
      </trkpt>
      <trkpt lat="45.70401" lon="6.27403">
        <ele>1546.8</ele>
        <time>2021-02-08T11:03:07Z</time>
      </trkpt>
      <trkpt lat="45.70405" lon="6.27404">
        <ele>1545.7</ele>
        <time>2021-02-08T11:03:08Z</time>
      </trkpt>
      <trkpt lat="45.70409" lon="6.27402">
        <ele>1544.5</ele>
        <time>2021-02-08T11:03:09Z</time>
      </trkpt>
      <trkpt lat="45.70413" lon="6.27401">
        <ele>1543.4</ele>
        <time>2021-02-08T11:03:10Z</time>
      </trkpt>
      <trkpt lat="45.70417" lon="6.27401">
        <ele>1542.4</ele>
        <time>2021-02-08T11:03:11Z</time>
      </trkpt>
      <trkpt lat="45.7042" lon="6.27402">
        <ele>1541.9</ele>
        <time>2021-02-08T11:03:12Z</time>
      </trkpt>
      <trkpt lat="45.70423" lon="6.27403">
        <ele>1541.4</ele>
        <time>2021-02-08T11:03:13Z</time>
      </trkpt>
      <trkpt lat="45.70426" lon="6.27402">
        <ele>1540.8</ele>
        <time>2021-02-08T11:03:14Z</time>
      </trkpt>
      <trkpt lat="45.70428" lon="6.274">
        <ele>1540.5</ele>
        <time>2021-02-08T11:03:16Z</time>
      </trkpt>
      <trkpt lat="45.70428" lon="6.274">
        <ele>1540.5</ele>
        <time>2021-02-08T11:03:17Z</time>
      </trkpt>
      <trkpt lat="45.70427" lon="6.274">
        <ele>1540.7</ele>
        <time>2021-02-08T11:03:18Z</time>
      </trkpt>
      <trkpt lat="45.70424" lon="6.27398">
        <ele>1541.2</ele>
        <time>2021-02-08T11:03:24Z</time>
      </trkpt>
      <trkpt lat="45.70423" lon="6.27398">
        <ele>1541.3</ele>
        <time>2021-02-08T11:03:28Z</time>
      </trkpt>
      <trkpt lat="45.70422" lon="6.27398">
        <ele>1541.5</ele>
        <time>2021-02-08T11:03:33Z</time>
      </trkpt>
      <trkpt lat="45.70419" lon="6.27398">
        <ele>1542</ele>
        <time>2021-02-08T11:03:38Z</time>
      </trkpt>
      <trkpt lat="45.7042" lon="6.27399">
        <ele>1541.8</ele>
        <time>2021-02-08T11:03:41Z</time>
      </trkpt>
      <trkpt lat="45.70422" lon="6.27401">
        <ele>1541.5</ele>
        <time>2021-02-08T11:03:43Z</time>
      </trkpt>
      <trkpt lat="45.70427" lon="6.27405">
        <ele>1540.6</ele>
        <time>2021-02-08T11:03:45Z</time>
      </trkpt>
      <trkpt lat="45.70438" lon="6.27418">
        <ele>1537.7</ele>
        <time>2021-02-08T11:03:49Z</time>
      </trkpt>
      <trkpt lat="45.70445" lon="6.27426">
        <ele>1536.1</ele>
        <time>2021-02-08T11:03:51Z</time>
      </trkpt>
      <trkpt lat="45.70448" lon="6.2743">
        <ele>1535.1</ele>
        <time>2021-02-08T11:03:52Z</time>
      </trkpt>
      <trkpt lat="45.70452" lon="6.27433">
        <ele>1533.5</ele>
        <time>2021-02-08T11:03:53Z</time>
      </trkpt>
      <trkpt lat="45.70456" lon="6.27436">
        <ele>1532</ele>
        <time>2021-02-08T11:03:54Z</time>
      </trkpt>
      <trkpt lat="45.70458" lon="6.27441">
        <ele>1531.1</ele>
        <time>2021-02-08T11:03:55Z</time>
      </trkpt>
      <trkpt lat="45.70464" lon="6.27449">
        <ele>1529.5</ele>
        <time>2021-02-08T11:03:57Z</time>
      </trkpt>
      <trkpt lat="45.70468" lon="6.27452">
        <ele>1528.1</ele>
        <time>2021-02-08T11:03:58Z</time>
      </trkpt>
      <trkpt lat="45.70471" lon="6.27457">
        <ele>1527.4</ele>
        <time>2021-02-08T11:03:59Z</time>
      </trkpt>
      <trkpt lat="45.70474" lon="6.27462">
        <ele>1526.7</ele>
        <time>2021-02-08T11:04:00Z</time>
      </trkpt>
      <trkpt lat="45.70477" lon="6.27465">
        <ele>1525.7</ele>
        <time>2021-02-08T11:04:01Z</time>
      </trkpt>
      <trkpt lat="45.70481" lon="6.27469">
        <ele>1524.4</ele>
        <time>2021-02-08T11:04:02Z</time>
      </trkpt>
      <trkpt lat="45.70484" lon="6.27474">
        <ele>1523.9</ele>
        <time>2021-02-08T11:04:03Z</time>
      </trkpt>
      <trkpt lat="45.70486" lon="6.27477">
        <ele>1523.6</ele>
        <time>2021-02-08T11:04:04Z</time>
      </trkpt>
      <trkpt lat="45.7049" lon="6.2748">
        <ele>1522.2</ele>
        <time>2021-02-08T11:04:05Z</time>
      </trkpt>
      <trkpt lat="45.70493" lon="6.27483">
        <ele>1521.2</ele>
        <time>2021-02-08T11:04:06Z</time>
      </trkpt>
      <trkpt lat="45.70495" lon="6.27487">
        <ele>1520.9</ele>
        <time>2021-02-08T11:04:07Z</time>
      </trkpt>
      <trkpt lat="45.70498" lon="6.2749">
        <ele>1519.7</ele>
        <time>2021-02-08T11:04:08Z</time>
      </trkpt>
      <trkpt lat="45.70502" lon="6.27492">
        <ele>1518</ele>
        <time>2021-02-08T11:04:09Z</time>
      </trkpt>
      <trkpt lat="45.70504" lon="6.27496">
        <ele>1517.8</ele>
        <time>2021-02-08T11:04:10Z</time>
      </trkpt>
      <trkpt lat="45.70507" lon="6.275">
        <ele>1517.2</ele>
        <time>2021-02-08T11:04:11Z</time>
      </trkpt>
      <trkpt lat="45.70511" lon="6.27502">
        <ele>1516.2</ele>
        <time>2021-02-08T11:04:12Z</time>
      </trkpt>
      <trkpt lat="45.70514" lon="6.27505">
        <ele>1515.8</ele>
        <time>2021-02-08T11:04:13Z</time>
      </trkpt>
      <trkpt lat="45.70516" lon="6.27508">
        <ele>1515.8</ele>
        <time>2021-02-08T11:04:14Z</time>
      </trkpt>
      <trkpt lat="45.70518" lon="6.2751">
        <ele>1515.4</ele>
        <time>2021-02-08T11:04:15Z</time>
      </trkpt>
      <trkpt lat="45.70522" lon="6.27512">
        <ele>1514.1</ele>
        <time>2021-02-08T11:04:16Z</time>
      </trkpt>
      <trkpt lat="45.70527" lon="6.27515">
        <ele>1512.6</ele>
        <time>2021-02-08T11:04:17Z</time>
      </trkpt>
      <trkpt lat="45.70531" lon="6.27518">
        <ele>1511.3</ele>
        <time>2021-02-08T11:04:18Z</time>
      </trkpt>
      <trkpt lat="45.70535" lon="6.2752">
        <ele>1509.8</ele>
        <time>2021-02-08T11:04:19Z</time>
      </trkpt>
      <trkpt lat="45.70541" lon="6.27522">
        <ele>1507.3</ele>
        <time>2021-02-08T11:04:20Z</time>
      </trkpt>
      <trkpt lat="45.70546" lon="6.27526">
        <ele>1505.5</ele>
        <time>2021-02-08T11:04:21Z</time>
      </trkpt>
      <trkpt lat="45.7055" lon="6.27531">
        <ele>1504.6</ele>
        <time>2021-02-08T11:04:22Z</time>
      </trkpt>
      <trkpt lat="45.70555" lon="6.27533">
        <ele>1502.4</ele>
        <time>2021-02-08T11:04:23Z</time>
      </trkpt>
      <trkpt lat="45.70559" lon="6.27535">
        <ele>1500.9</ele>
        <time>2021-02-08T11:04:24Z</time>
      </trkpt>
      <trkpt lat="45.70564" lon="6.27537">
        <ele>1498.8</ele>
        <time>2021-02-08T11:04:25Z</time>
      </trkpt>
      <trkpt lat="45.70567" lon="6.27536">
        <ele>1497.2</ele>
        <time>2021-02-08T11:04:26Z</time>
      </trkpt>
      <trkpt lat="45.70569" lon="6.27534">
        <ele>1495.8</ele>
        <time>2021-02-08T11:04:27Z</time>
      </trkpt>
      <trkpt lat="45.7057" lon="6.27529">
        <ele>1494.5</ele>
        <time>2021-02-08T11:04:28Z</time>
      </trkpt>
      <trkpt lat="45.70571" lon="6.27525">
        <ele>1493.4</ele>
        <time>2021-02-08T11:04:29Z</time>
      </trkpt>
      <trkpt lat="45.70572" lon="6.27519">
        <ele>1492.2</ele>
        <time>2021-02-08T11:04:30Z</time>
      </trkpt>
      <trkpt lat="45.70571" lon="6.27513">
        <ele>1491.9</ele>
        <time>2021-02-08T11:04:31Z</time>
      </trkpt>
      <trkpt lat="45.70573" lon="6.27502">
        <ele>1489.7</ele>
        <time>2021-02-08T11:04:33Z</time>
      </trkpt>
      <trkpt lat="45.70573" lon="6.27497">
        <ele>1489.1</ele>
        <time>2021-02-08T11:04:34Z</time>
      </trkpt>
      <trkpt lat="45.70574" lon="6.27491">
        <ele>1488</ele>
        <time>2021-02-08T11:04:35Z</time>
      </trkpt>
      <trkpt lat="45.70575" lon="6.2748">
        <ele>1486.2</ele>
        <time>2021-02-08T11:04:37Z</time>
      </trkpt>
      <trkpt lat="45.70575" lon="6.27475">
        <ele>1485.6</ele>
        <time>2021-02-08T11:04:38Z</time>
      </trkpt>
      <trkpt lat="45.70575" lon="6.2747">
        <ele>1485</ele>
        <time>2021-02-08T11:04:39Z</time>
      </trkpt>
      <trkpt lat="45.70577" lon="6.27464">
        <ele>1483.6</ele>
        <time>2021-02-08T11:04:40Z</time>
      </trkpt>
      <trkpt lat="45.70579" lon="6.27459">
        <ele>1482.2</ele>
        <time>2021-02-08T11:04:41Z</time>
      </trkpt>
      <trkpt lat="45.7058" lon="6.27452">
        <ele>1481</ele>
        <time>2021-02-08T11:04:42Z</time>
      </trkpt>
      <trkpt lat="45.70585" lon="6.27441">
        <ele>1478</ele>
        <time>2021-02-08T11:04:44Z</time>
      </trkpt>
      <trkpt lat="45.70589" lon="6.2744">
        <ele>1476.4</ele>
        <time>2021-02-08T11:04:45Z</time>
      </trkpt>
      <trkpt lat="45.70592" lon="6.27441">
        <ele>1475.5</ele>
        <time>2021-02-08T11:04:46Z</time>
      </trkpt>
      <trkpt lat="45.70596" lon="6.27442">
        <ele>1474.1</ele>
        <time>2021-02-08T11:04:47Z</time>
      </trkpt>
      <trkpt lat="45.706" lon="6.27442">
        <ele>1472.7</ele>
        <time>2021-02-08T11:04:48Z</time>
      </trkpt>
      <trkpt lat="45.70605" lon="6.27442">
        <ele>1470.9</ele>
        <time>2021-02-08T11:04:49Z</time>
      </trkpt>
      <trkpt lat="45.7061" lon="6.27443">
        <ele>1469.2</ele>
        <time>2021-02-08T11:04:50Z</time>
      </trkpt>
      <trkpt lat="45.70613" lon="6.27446">
        <ele>1468.3</ele>
        <time>2021-02-08T11:04:51Z</time>
      </trkpt>
      <trkpt lat="45.70617" lon="6.27447">
        <ele>1466.8</ele>
        <time>2021-02-08T11:04:52Z</time>
      </trkpt>
      <trkpt lat="45.70621" lon="6.27448">
        <ele>1465.2</ele>
        <time>2021-02-08T11:04:53Z</time>
      </trkpt>
      <trkpt lat="45.70626" lon="6.27451">
        <ele>1463.3</ele>
        <time>2021-02-08T11:04:54Z</time>
      </trkpt>
      <trkpt lat="45.70629" lon="6.27455">
        <ele>1462.3</ele>
        <time>2021-02-08T11:04:55Z</time>
      </trkpt>
      <trkpt lat="45.7063" lon="6.27459">
        <ele>1462</ele>
        <time>2021-02-08T11:04:56Z</time>
      </trkpt>
      <trkpt lat="45.70632" lon="6.27463">
        <ele>1461.4</ele>
        <time>2021-02-08T11:04:57Z</time>
      </trkpt>
      <trkpt lat="45.70634" lon="6.27467">
        <ele>1460.7</ele>
        <time>2021-02-08T11:04:58Z</time>
      </trkpt>
      <trkpt lat="45.70638" lon="6.27474">
        <ele>1459.4</ele>
        <time>2021-02-08T11:05:00Z</time>
      </trkpt>
      <trkpt lat="45.70637" lon="6.27476">
        <ele>1459.8</ele>
        <time>2021-02-08T11:05:02Z</time>
      </trkpt>
      <trkpt lat="45.70636" lon="6.27477">
        <ele>1460.2</ele>
        <time>2021-02-08T11:05:04Z</time>
      </trkpt>
      <trkpt lat="45.70635" lon="6.27477">
        <ele>1460.6</ele>
        <time>2021-02-08T11:05:05Z</time>
      </trkpt>
      <trkpt lat="45.70634" lon="6.27477">
        <ele>1461</ele>
        <time>2021-02-08T11:05:15Z</time>
      </trkpt>
      <trkpt lat="45.70634" lon="6.27478">
        <ele>1461</ele>
        <time>2021-02-08T11:05:23Z</time>
      </trkpt>
      <trkpt lat="45.70633" lon="6.27478">
        <ele>1461.4</ele>
        <time>2021-02-08T11:05:25Z</time>
      </trkpt>
      <trkpt lat="45.70633" lon="6.27478">
        <ele>1461.4</ele>
        <time>2021-02-08T11:05:27Z</time>
      </trkpt>
      <trkpt lat="45.70635" lon="6.27482">
        <ele>1460.6</ele>
        <time>2021-02-08T11:05:37Z</time>
      </trkpt>
      <trkpt lat="45.70636" lon="6.27484">
        <ele>1460.2</ele>
        <time>2021-02-08T11:05:38Z</time>
      </trkpt>
      <trkpt lat="45.70637" lon="6.27487">
        <ele>1459.8</ele>
        <time>2021-02-08T11:05:39Z</time>
      </trkpt>
      <trkpt lat="45.7064" lon="6.27493">
        <ele>1458.6</ele>
        <time>2021-02-08T11:05:41Z</time>
      </trkpt>
      <trkpt lat="45.70646" lon="6.27505">
        <ele>1456.7</ele>
        <time>2021-02-08T11:05:44Z</time>
      </trkpt>
      <trkpt lat="45.70648" lon="6.27509">
        <ele>1456.2</ele>
        <time>2021-02-08T11:05:45Z</time>
      </trkpt>
      <trkpt lat="45.70654" lon="6.27522">
        <ele>1454.3</ele>
        <time>2021-02-08T11:05:48Z</time>
      </trkpt>
      <trkpt lat="45.70656" lon="6.27528">
        <ele>1453.6</ele>
        <time>2021-02-08T11:05:49Z</time>
      </trkpt>
      <trkpt lat="45.70659" lon="6.27539">
        <ele>1452.4</ele>
        <time>2021-02-08T11:05:51Z</time>
      </trkpt>
      <trkpt lat="45.70661" lon="6.27551">
        <ele>1451.6</ele>
        <time>2021-02-08T11:05:53Z</time>
      </trkpt>
      <trkpt lat="45.70662" lon="6.27562">
        <ele>1450.4</ele>
        <time>2021-02-08T11:05:55Z</time>
      </trkpt>
      <trkpt lat="45.70663" lon="6.27569">
        <ele>1449</ele>
        <time>2021-02-08T11:05:56Z</time>
      </trkpt>
      <trkpt lat="45.70663" lon="6.27575">
        <ele>1448.2</ele>
        <time>2021-02-08T11:05:57Z</time>
      </trkpt>
      <trkpt lat="45.70664" lon="6.27588">
        <ele>1446.2</ele>
        <time>2021-02-08T11:05:59Z</time>
      </trkpt>
      <trkpt lat="45.70664" lon="6.27594">
        <ele>1445.8</ele>
        <time>2021-02-08T11:06:00Z</time>
      </trkpt>
      <trkpt lat="45.70665" lon="6.27607">
        <ele>1444.3</ele>
        <time>2021-02-08T11:06:02Z</time>
      </trkpt>
      <trkpt lat="45.70665" lon="6.27607">
        <ele>1444.3</ele>
        <time>2021-02-08T11:06:03Z</time>
      </trkpt>
      <trkpt lat="45.70666" lon="6.27621">
        <ele>1443.1</ele>
        <time>2021-02-08T11:06:04Z</time>
      </trkpt>
      <trkpt lat="45.70669" lon="6.27635">
        <ele>1440.6</ele>
        <time>2021-02-08T11:06:06Z</time>
      </trkpt>
      <trkpt lat="45.70669" lon="6.27642">
        <ele>1440.3</ele>
        <time>2021-02-08T11:06:07Z</time>
      </trkpt>
      <trkpt lat="45.7067" lon="6.27649">
        <ele>1439.3</ele>
        <time>2021-02-08T11:06:08Z</time>
      </trkpt>
      <trkpt lat="45.70671" lon="6.27655">
        <ele>1438.4</ele>
        <time>2021-02-08T11:06:09Z</time>
      </trkpt>
      <trkpt lat="45.70671" lon="6.27662">
        <ele>1438.1</ele>
        <time>2021-02-08T11:06:10Z</time>
      </trkpt>
      <trkpt lat="45.70671" lon="6.27669">
        <ele>1437.9</ele>
        <time>2021-02-08T11:06:11Z</time>
      </trkpt>
      <trkpt lat="45.70672" lon="6.27675">
        <ele>1437.2</ele>
        <time>2021-02-08T11:06:12Z</time>
      </trkpt>
      <trkpt lat="45.70673" lon="6.27681">
        <ele>1436.4</ele>
        <time>2021-02-08T11:06:13Z</time>
      </trkpt>
      <trkpt lat="45.70674" lon="6.27688">
        <ele>1435.7</ele>
        <time>2021-02-08T11:06:14Z</time>
      </trkpt>
      <trkpt lat="45.70674" lon="6.27695">
        <ele>1435.7</ele>
        <time>2021-02-08T11:06:15Z</time>
      </trkpt>
      <trkpt lat="45.70674" lon="6.27702">
        <ele>1435.4</ele>
        <time>2021-02-08T11:06:16Z</time>
      </trkpt>
      <trkpt lat="45.70675" lon="6.27708">
        <ele>1434.5</ele>
        <time>2021-02-08T11:06:17Z</time>
      </trkpt>
      <trkpt lat="45.70675" lon="6.27715">
        <ele>1434.2</ele>
        <time>2021-02-08T11:06:18Z</time>
      </trkpt>
      <trkpt lat="45.70675" lon="6.27722">
        <ele>1433.9</ele>
        <time>2021-02-08T11:06:19Z</time>
      </trkpt>
      <trkpt lat="45.70675" lon="6.27729">
        <ele>1433.1</ele>
        <time>2021-02-08T11:06:20Z</time>
      </trkpt>
      <trkpt lat="45.70675" lon="6.27743">
        <ele>1431.4</ele>
        <time>2021-02-08T11:06:22Z</time>
      </trkpt>
      <trkpt lat="45.70676" lon="6.2775">
        <ele>1430</ele>
        <time>2021-02-08T11:06:23Z</time>
      </trkpt>
      <trkpt lat="45.70675" lon="6.27757">
        <ele>1429.8</ele>
        <time>2021-02-08T11:06:24Z</time>
      </trkpt>
      <trkpt lat="45.70675" lon="6.27764">
        <ele>1429.1</ele>
        <time>2021-02-08T11:06:25Z</time>
      </trkpt>
      <trkpt lat="45.70674" lon="6.27778">
        <ele>1428.3</ele>
        <time>2021-02-08T11:06:27Z</time>
      </trkpt>
      <trkpt lat="45.70673" lon="6.27786">
        <ele>1427.9</ele>
        <time>2021-02-08T11:06:28Z</time>
      </trkpt>
      <trkpt lat="45.70672" lon="6.27793">
        <ele>1427.7</ele>
        <time>2021-02-08T11:06:29Z</time>
      </trkpt>
      <trkpt lat="45.70672" lon="6.278">
        <ele>1426.9</ele>
        <time>2021-02-08T11:06:30Z</time>
      </trkpt>
      <trkpt lat="45.7067" lon="6.27807">
        <ele>1427.1</ele>
        <time>2021-02-08T11:06:31Z</time>
      </trkpt>
      <trkpt lat="45.70669" lon="6.27821">
        <ele>1425.2</ele>
        <time>2021-02-08T11:06:33Z</time>
      </trkpt>
      <trkpt lat="45.70668" lon="6.27828">
        <ele>1424.4</ele>
        <time>2021-02-08T11:06:34Z</time>
      </trkpt>
      <trkpt lat="45.70667" lon="6.27835">
        <ele>1423.6</ele>
        <time>2021-02-08T11:06:35Z</time>
      </trkpt>
      <trkpt lat="45.70666" lon="6.27841">
        <ele>1423.2</ele>
        <time>2021-02-08T11:06:36Z</time>
      </trkpt>
      <trkpt lat="45.70664" lon="6.27847">
        <ele>1423.2</ele>
        <time>2021-02-08T11:06:37Z</time>
      </trkpt>
      <trkpt lat="45.70662" lon="6.27853">
        <ele>1423</ele>
        <time>2021-02-08T11:06:38Z</time>
      </trkpt>
      <trkpt lat="45.7066" lon="6.27858">
        <ele>1422.6</ele>
        <time>2021-02-08T11:06:39Z</time>
      </trkpt>
      <trkpt lat="45.70654" lon="6.27866">
        <ele>1421.4</ele>
        <time>2021-02-08T11:06:41Z</time>
      </trkpt>
      <trkpt lat="45.7065" lon="6.2787">
        <ele>1420.6</ele>
        <time>2021-02-08T11:06:42Z</time>
      </trkpt>
      <trkpt lat="45.70646" lon="6.27872">
        <ele>1420.9</ele>
        <time>2021-02-08T11:06:43Z</time>
      </trkpt>
      <trkpt lat="45.70643" lon="6.27875">
        <ele>1420.3</ele>
        <time>2021-02-08T11:06:44Z</time>
      </trkpt>
      <trkpt lat="45.70639" lon="6.27879">
        <ele>1419.6</ele>
        <time>2021-02-08T11:06:45Z</time>
      </trkpt>
      <trkpt lat="45.70634" lon="6.27882">
        <ele>1419</ele>
        <time>2021-02-08T11:06:46Z</time>
      </trkpt>
      <trkpt lat="45.7063" lon="6.27885">
        <ele>1418.2</ele>
        <time>2021-02-08T11:06:47Z</time>
      </trkpt>
      <trkpt lat="45.70626" lon="6.27889">
        <ele>1416.8</ele>
        <time>2021-02-08T11:06:48Z</time>
      </trkpt>
      <trkpt lat="45.70621" lon="6.27893">
        <ele>1416.5</ele>
        <time>2021-02-08T11:06:49Z</time>
      </trkpt>
      <trkpt lat="45.70616" lon="6.27897">
        <ele>1416.3</ele>
        <time>2021-02-08T11:06:50Z</time>
      </trkpt>
      <trkpt lat="45.70612" lon="6.27901">
        <ele>1416.2</ele>
        <time>2021-02-08T11:06:51Z</time>
      </trkpt>
      <trkpt lat="45.7061" lon="6.27905">
        <ele>1415.9</ele>
        <time>2021-02-08T11:06:52Z</time>
      </trkpt>
      <trkpt lat="45.70609" lon="6.27912">
        <ele>1414.8</ele>
        <time>2021-02-08T11:06:53Z</time>
      </trkpt>
      <trkpt lat="45.7061" lon="6.27924">
        <ele>1413.2</ele>
        <time>2021-02-08T11:06:55Z</time>
      </trkpt>
      <trkpt lat="45.70611" lon="6.27927">
        <ele>1412.7</ele>
        <time>2021-02-08T11:06:56Z</time>
      </trkpt>
      <trkpt lat="45.70615" lon="6.27925">
        <ele>1411.4</ele>
        <time>2021-02-08T11:06:57Z</time>
      </trkpt>
      <trkpt lat="45.70619" lon="6.27922">
        <ele>1410.3</ele>
        <time>2021-02-08T11:06:58Z</time>
      </trkpt>
      <trkpt lat="45.70623" lon="6.2792">
        <ele>1409.3</ele>
        <time>2021-02-08T11:06:59Z</time>
      </trkpt>
      <trkpt lat="45.70632" lon="6.27922">
        <ele>1406.2</ele>
        <time>2021-02-08T11:07:01Z</time>
      </trkpt>
      <trkpt lat="45.70636" lon="6.2793">
        <ele>1403.6</ele>
        <time>2021-02-08T11:07:03Z</time>
      </trkpt>
      <trkpt lat="45.70639" lon="6.27934">
        <ele>1401.9</ele>
        <time>2021-02-08T11:07:04Z</time>
      </trkpt>
      <trkpt lat="45.70646" lon="6.27946">
        <ele>1398.3</ele>
        <time>2021-02-08T11:07:06Z</time>
      </trkpt>
      <trkpt lat="45.70647" lon="6.27954">
        <ele>1396</ele>
        <time>2021-02-08T11:07:07Z</time>
      </trkpt>
      <trkpt lat="45.70647" lon="6.27963">
        <ele>1393.6</ele>
        <time>2021-02-08T11:07:08Z</time>
      </trkpt>
      <trkpt lat="45.70647" lon="6.27973">
        <ele>1391.1</ele>
        <time>2021-02-08T11:07:09Z</time>
      </trkpt>
      <trkpt lat="45.70647" lon="6.27982">
        <ele>1389.5</ele>
        <time>2021-02-08T11:07:10Z</time>
      </trkpt>
      <trkpt lat="45.70646" lon="6.27991">
        <ele>1388.3</ele>
        <time>2021-02-08T11:07:11Z</time>
      </trkpt>
      <trkpt lat="45.70645" lon="6.27999">
        <ele>1387.2</ele>
        <time>2021-02-08T11:07:12Z</time>
      </trkpt>
      <trkpt lat="45.70643" lon="6.28007">
        <ele>1386.4</ele>
        <time>2021-02-08T11:07:13Z</time>
      </trkpt>
      <trkpt lat="45.70639" lon="6.28022">
        <ele>1385.8</ele>
        <time>2021-02-08T11:07:15Z</time>
      </trkpt>
      <trkpt lat="45.70638" lon="6.28031">
        <ele>1384.9</ele>
        <time>2021-02-08T11:07:16Z</time>
      </trkpt>
      <trkpt lat="45.70636" lon="6.28039">
        <ele>1384.4</ele>
        <time>2021-02-08T11:07:17Z</time>
      </trkpt>
      <trkpt lat="45.70635" lon="6.28047">
        <ele>1383.5</ele>
        <time>2021-02-08T11:07:18Z</time>
      </trkpt>
      <trkpt lat="45.70634" lon="6.28057">
        <ele>1382.1</ele>
        <time>2021-02-08T11:07:19Z</time>
      </trkpt>
      <trkpt lat="45.70631" lon="6.28075">
        <ele>1379</ele>
        <time>2021-02-08T11:07:21Z</time>
      </trkpt>
      <trkpt lat="45.7063" lon="6.28085">
        <ele>1377.1</ele>
        <time>2021-02-08T11:07:22Z</time>
      </trkpt>
      <trkpt lat="45.7063" lon="6.28094">
        <ele>1376.4</ele>
        <time>2021-02-08T11:07:23Z</time>
      </trkpt>
      <trkpt lat="45.70629" lon="6.28102">
        <ele>1376.2</ele>
        <time>2021-02-08T11:07:24Z</time>
      </trkpt>
      <trkpt lat="45.70629" lon="6.28115">
        <ele>1375.5</ele>
        <time>2021-02-08T11:07:26Z</time>
      </trkpt>
      <trkpt lat="45.70632" lon="6.28125">
        <ele>1374.5</ele>
        <time>2021-02-08T11:07:28Z</time>
      </trkpt>
      <trkpt lat="45.70631" lon="6.28129">
        <ele>1374.7</ele>
        <time>2021-02-08T11:07:30Z</time>
      </trkpt>
      <trkpt lat="45.70631" lon="6.2813">
        <ele>1374.7</ele>
        <time>2021-02-08T11:07:31Z</time>
      </trkpt>
      <trkpt lat="45.7063" lon="6.2813">
        <ele>1375</ele>
        <time>2021-02-08T11:07:33Z</time>
      </trkpt>
      <trkpt lat="45.7063" lon="6.28129">
        <ele>1375</ele>
        <time>2021-02-08T11:07:36Z</time>
      </trkpt>
      <trkpt lat="45.7063" lon="6.28128">
        <ele>1375</ele>
        <time>2021-02-08T11:07:38Z</time>
      </trkpt>
      <trkpt lat="45.7063" lon="6.28128">
        <ele>1375</ele>
        <time>2021-02-08T11:07:40Z</time>
      </trkpt>
      <trkpt lat="45.70629" lon="6.28127">
        <ele>1375.3</ele>
        <time>2021-02-08T11:07:51Z</time>
      </trkpt>
      <trkpt lat="45.7063" lon="6.28129">
        <ele>1375</ele>
        <time>2021-02-08T11:07:53Z</time>
      </trkpt>
      <trkpt lat="45.70635" lon="6.28137">
        <ele>1373.3</ele>
        <time>2021-02-08T11:07:56Z</time>
      </trkpt>
      <trkpt lat="45.70639" lon="6.28142">
        <ele>1372.2</ele>
        <time>2021-02-08T11:07:58Z</time>
      </trkpt>
      <trkpt lat="45.70641" lon="6.28146">
        <ele>1371.8</ele>
        <time>2021-02-08T11:07:59Z</time>
      </trkpt>
      <trkpt lat="45.70646" lon="6.28153">
        <ele>1370.5</ele>
        <time>2021-02-08T11:08:01Z</time>
      </trkpt>
      <trkpt lat="45.70648" lon="6.28152">
        <ele>1369.7</ele>
        <time>2021-02-08T11:08:02Z</time>
      </trkpt>
      <trkpt lat="45.70651" lon="6.28148">
        <ele>1368.4</ele>
        <time>2021-02-08T11:08:04Z</time>
      </trkpt>
      <trkpt lat="45.70654" lon="6.28146">
        <ele>1367.3</ele>
        <time>2021-02-08T11:08:05Z</time>
      </trkpt>
      <trkpt lat="45.70658" lon="6.28145">
        <ele>1365.9</ele>
        <time>2021-02-08T11:08:06Z</time>
      </trkpt>
      <trkpt lat="45.70663" lon="6.28139">
        <ele>1364.2</ele>
        <time>2021-02-08T11:08:08Z</time>
      </trkpt>
      <trkpt lat="45.70668" lon="6.28131">
        <ele>1361.2</ele>
        <time>2021-02-08T11:08:10Z</time>
      </trkpt>
      <trkpt lat="45.7067" lon="6.28124">
        <ele>1359.6</ele>
        <time>2021-02-08T11:08:11Z</time>
      </trkpt>
      <trkpt lat="45.70672" lon="6.28118">
        <ele>1358.2</ele>
        <time>2021-02-08T11:08:12Z</time>
      </trkpt>
      <trkpt lat="45.70675" lon="6.28111">
        <ele>1356.8</ele>
        <time>2021-02-08T11:08:13Z</time>
      </trkpt>
      <trkpt lat="45.70678" lon="6.28105">
        <ele>1355.9</ele>
        <time>2021-02-08T11:08:14Z</time>
      </trkpt>
      <trkpt lat="45.7068" lon="6.28097">
        <ele>1354.8</ele>
        <time>2021-02-08T11:08:15Z</time>
      </trkpt>
      <trkpt lat="45.70683" lon="6.28092">
        <ele>1353.7</ele>
        <time>2021-02-08T11:08:16Z</time>
      </trkpt>
      <trkpt lat="45.70687" lon="6.28088">
        <ele>1352.4</ele>
        <time>2021-02-08T11:08:17Z</time>
      </trkpt>
      <trkpt lat="45.7069" lon="6.28084">
        <ele>1351.2</ele>
        <time>2021-02-08T11:08:18Z</time>
      </trkpt>
      <trkpt lat="45.70695" lon="6.28076">
        <ele>1349.2</ele>
        <time>2021-02-08T11:08:20Z</time>
      </trkpt>
      <trkpt lat="45.70701" lon="6.28073">
        <ele>1346.7</ele>
        <time>2021-02-08T11:08:22Z</time>
      </trkpt>
      <trkpt lat="45.70704" lon="6.2807">
        <ele>1345.4</ele>
        <time>2021-02-08T11:08:23Z</time>
      </trkpt>
      <trkpt lat="45.7071" lon="6.28066">
        <ele>1343.1</ele>
        <time>2021-02-08T11:08:25Z</time>
      </trkpt>
      <trkpt lat="45.70713" lon="6.28066">
        <ele>1342</ele>
        <time>2021-02-08T11:08:26Z</time>
      </trkpt>
      <trkpt lat="45.70715" lon="6.28065">
        <ele>1341.3</ele>
        <time>2021-02-08T11:08:27Z</time>
      </trkpt>
      <trkpt lat="45.70718" lon="6.28065">
        <ele>1340.2</ele>
        <time>2021-02-08T11:08:28Z</time>
      </trkpt>
      <trkpt lat="45.70726" lon="6.28069">
        <ele>1337.4</ele>
        <time>2021-02-08T11:08:30Z</time>
      </trkpt>
      <trkpt lat="45.70729" lon="6.28071">
        <ele>1336.3</ele>
        <time>2021-02-08T11:08:31Z</time>
      </trkpt>
      <trkpt lat="45.70731" lon="6.28071">
        <ele>1335.6</ele>
        <time>2021-02-08T11:08:32Z</time>
      </trkpt>
      <trkpt lat="45.70735" lon="6.28071">
        <ele>1334.4</ele>
        <time>2021-02-08T11:08:33Z</time>
      </trkpt>
      <trkpt lat="45.70739" lon="6.28074">
        <ele>1332.5</ele>
        <time>2021-02-08T11:08:34Z</time>
      </trkpt>
      <trkpt lat="45.70742" lon="6.28076">
        <ele>1331</ele>
        <time>2021-02-08T11:08:35Z</time>
      </trkpt>
      <trkpt lat="45.70746" lon="6.28078">
        <ele>1329.1</ele>
        <time>2021-02-08T11:08:36Z</time>
      </trkpt>
      <trkpt lat="45.7075" lon="6.2808">
        <ele>1327</ele>
        <time>2021-02-08T11:08:37Z</time>
      </trkpt>
      <trkpt lat="45.70754" lon="6.28083">
        <ele>1324.8</ele>
        <time>2021-02-08T11:08:38Z</time>
      </trkpt>
      <trkpt lat="45.70759" lon="6.28086">
        <ele>1322.9</ele>
        <time>2021-02-08T11:08:39Z</time>
      </trkpt>
      <trkpt lat="45.70764" lon="6.28087">
        <ele>1321.2</ele>
        <time>2021-02-08T11:08:40Z</time>
      </trkpt>
      <trkpt lat="45.70769" lon="6.28088">
        <ele>1319.6</ele>
        <time>2021-02-08T11:08:41Z</time>
      </trkpt>
      <trkpt lat="45.70775" lon="6.28089">
        <ele>1317.7</ele>
        <time>2021-02-08T11:08:42Z</time>
      </trkpt>
      <trkpt lat="45.7078" lon="6.28089">
        <ele>1316.3</ele>
        <time>2021-02-08T11:08:43Z</time>
      </trkpt>
      <trkpt lat="45.70786" lon="6.28086">
        <ele>1315.2</ele>
        <time>2021-02-08T11:08:44Z</time>
      </trkpt>
      <trkpt lat="45.70792" lon="6.28082">
        <ele>1314.2</ele>
        <time>2021-02-08T11:08:45Z</time>
      </trkpt>
      <trkpt lat="45.70797" lon="6.28077">
        <ele>1313.8</ele>
        <time>2021-02-08T11:08:46Z</time>
      </trkpt>
      <trkpt lat="45.70802" lon="6.28071">
        <ele>1313.1</ele>
        <time>2021-02-08T11:08:47Z</time>
      </trkpt>
      <trkpt lat="45.70807" lon="6.28066">
        <ele>1311.8</ele>
        <time>2021-02-08T11:08:48Z</time>
      </trkpt>
      <trkpt lat="45.70817" lon="6.28054">
        <ele>1309.5</ele>
        <time>2021-02-08T11:08:50Z</time>
      </trkpt>
      <trkpt lat="45.70826" lon="6.28042">
        <ele>1308.1</ele>
        <time>2021-02-08T11:08:52Z</time>
      </trkpt>
      <trkpt lat="45.70831" lon="6.28038">
        <ele>1307.2</ele>
        <time>2021-02-08T11:08:53Z</time>
      </trkpt>
      <trkpt lat="45.7084" lon="6.28028">
        <ele>1307.2</ele>
        <time>2021-02-08T11:08:55Z</time>
      </trkpt>
      <trkpt lat="45.70848" lon="6.28018">
        <ele>1307.6</ele>
        <time>2021-02-08T11:08:57Z</time>
      </trkpt>
      <trkpt lat="45.70851" lon="6.28014">
        <ele>1307.5</ele>
        <time>2021-02-08T11:08:58Z</time>
      </trkpt>
      <trkpt lat="45.70856" lon="6.28011">
        <ele>1306.7</ele>
        <time>2021-02-08T11:08:59Z</time>
      </trkpt>
      <trkpt lat="45.7086" lon="6.28009">
        <ele>1305.9</ele>
        <time>2021-02-08T11:09:00Z</time>
      </trkpt>
      <trkpt lat="45.70866" lon="6.28007">
        <ele>1305.2</ele>
        <time>2021-02-08T11:09:02Z</time>
      </trkpt>
      <trkpt lat="45.7087" lon="6.28005">
        <ele>1304.8</ele>
        <time>2021-02-08T11:09:03Z</time>
      </trkpt>
      <trkpt lat="45.70871" lon="6.28002">
        <ele>1304.6</ele>
        <time>2021-02-08T11:09:04Z</time>
      </trkpt>
      <trkpt lat="45.70873" lon="6.27992">
        <ele>1304</ele>
        <time>2021-02-08T11:09:06Z</time>
      </trkpt>
      <trkpt lat="45.70876" lon="6.2798">
        <ele>1302.6</ele>
        <time>2021-02-08T11:09:08Z</time>
      </trkpt>
      <trkpt lat="45.70879" lon="6.27975">
        <ele>1301.4</ele>
        <time>2021-02-08T11:09:09Z</time>
      </trkpt>
      <trkpt lat="45.70883" lon="6.27968">
        <ele>1299.7</ele>
        <time>2021-02-08T11:09:10Z</time>
      </trkpt>
      <trkpt lat="45.70887" lon="6.27961">
        <ele>1297.6</ele>
        <time>2021-02-08T11:09:11Z</time>
      </trkpt>
      <trkpt lat="45.70891" lon="6.27954">
        <ele>1295.8</ele>
        <time>2021-02-08T11:09:12Z</time>
      </trkpt>
      <trkpt lat="45.70895" lon="6.27949">
        <ele>1294.8</ele>
        <time>2021-02-08T11:09:13Z</time>
      </trkpt>
      <trkpt lat="45.70899" lon="6.27943">
        <ele>1293.9</ele>
        <time>2021-02-08T11:09:14Z</time>
      </trkpt>
      <trkpt lat="45.70902" lon="6.27936">
        <ele>1293.2</ele>
        <time>2021-02-08T11:09:15Z</time>
      </trkpt>
      <trkpt lat="45.70905" lon="6.2793">
        <ele>1292.3</ele>
        <time>2021-02-08T11:09:16Z</time>
      </trkpt>
      <trkpt lat="45.70909" lon="6.27926">
        <ele>1291.1</ele>
        <time>2021-02-08T11:09:17Z</time>
      </trkpt>
      <trkpt lat="45.70913" lon="6.27921">
        <ele>1289.6</ele>
        <time>2021-02-08T11:09:18Z</time>
      </trkpt>
      <trkpt lat="45.70915" lon="6.27916">
        <ele>1288.4</ele>
        <time>2021-02-08T11:09:19Z</time>
      </trkpt>
      <trkpt lat="45.70922" lon="6.27906">
        <ele>1286.2</ele>
        <time>2021-02-08T11:09:21Z</time>
      </trkpt>
      <trkpt lat="45.70926" lon="6.27903">
        <ele>1285.4</ele>
        <time>2021-02-08T11:09:22Z</time>
      </trkpt>
      <trkpt lat="45.7093" lon="6.27899">
        <ele>1284.2</ele>
        <time>2021-02-08T11:09:23Z</time>
      </trkpt>
      <trkpt lat="45.70932" lon="6.27893">
        <ele>1282.9</ele>
        <time>2021-02-08T11:09:24Z</time>
      </trkpt>
      <trkpt lat="45.70936" lon="6.27887">
        <ele>1281.3</ele>
        <time>2021-02-08T11:09:25Z</time>
      </trkpt>
      <trkpt lat="45.7094" lon="6.27883">
        <ele>1280.2</ele>
        <time>2021-02-08T11:09:26Z</time>
      </trkpt>
      <trkpt lat="45.70945" lon="6.2788">
        <ele>1279</ele>
        <time>2021-02-08T11:09:27Z</time>
      </trkpt>
      <trkpt lat="45.70949" lon="6.27876">
        <ele>1278</ele>
        <time>2021-02-08T11:09:28Z</time>
      </trkpt>
      <trkpt lat="45.70954" lon="6.2787">
        <ele>1276.7</ele>
        <time>2021-02-08T11:09:29Z</time>
      </trkpt>
      <trkpt lat="45.70959" lon="6.27866">
        <ele>1275.5</ele>
        <time>2021-02-08T11:09:30Z</time>
      </trkpt>
      <trkpt lat="45.70964" lon="6.27863">
        <ele>1274.4</ele>
        <time>2021-02-08T11:09:31Z</time>
      </trkpt>
      <trkpt lat="45.70968" lon="6.27861">
        <ele>1273.6</ele>
        <time>2021-02-08T11:09:32Z</time>
      </trkpt>
      <trkpt lat="45.70974" lon="6.27858">
        <ele>1272.6</ele>
        <time>2021-02-08T11:09:33Z</time>
      </trkpt>
      <trkpt lat="45.70978" lon="6.27856">
        <ele>1271.9</ele>
        <time>2021-02-08T11:09:34Z</time>
      </trkpt>
      <trkpt lat="45.70988" lon="6.27851">
        <ele>1270.2</ele>
        <time>2021-02-08T11:09:36Z</time>
      </trkpt>
      <trkpt lat="45.70992" lon="6.27846">
        <ele>1269.2</ele>
        <time>2021-02-08T11:09:37Z</time>
      </trkpt>
      <trkpt lat="45.70999" lon="6.27839">
        <ele>1267.6</ele>
        <time>2021-02-08T11:09:39Z</time>
      </trkpt>
      <trkpt lat="45.71004" lon="6.27837">
        <ele>1266.4</ele>
        <time>2021-02-08T11:09:40Z</time>
      </trkpt>
      <trkpt lat="45.71007" lon="6.27833">
        <ele>1265.5</ele>
        <time>2021-02-08T11:09:41Z</time>
      </trkpt>
      <trkpt lat="45.71014" lon="6.27827">
        <ele>1264.1</ele>
        <time>2021-02-08T11:09:43Z</time>
      </trkpt>
      <trkpt lat="45.71018" lon="6.27827">
        <ele>1263.3</ele>
        <time>2021-02-08T11:09:44Z</time>
      </trkpt>
      <trkpt lat="45.71021" lon="6.27826">
        <ele>1262.7</ele>
        <time>2021-02-08T11:09:45Z</time>
      </trkpt>
      <trkpt lat="45.71022" lon="6.27824">
        <ele>1262.5</ele>
        <time>2021-02-08T11:09:46Z</time>
      </trkpt>
      <trkpt lat="45.71026" lon="6.27823">
        <ele>1261.7</ele>
        <time>2021-02-08T11:09:47Z</time>
      </trkpt>
      <trkpt lat="45.71031" lon="6.27823">
        <ele>1260.6</ele>
        <time>2021-02-08T11:09:48Z</time>
      </trkpt>
      <trkpt lat="45.71036" lon="6.27826">
        <ele>1259.3</ele>
        <time>2021-02-08T11:09:49Z</time>
      </trkpt>
      <trkpt lat="45.71041" lon="6.27829">
        <ele>1257.9</ele>
        <time>2021-02-08T11:09:50Z</time>
      </trkpt>
      <trkpt lat="45.71053" lon="6.27835">
        <ele>1254.7</ele>
        <time>2021-02-08T11:09:52Z</time>
      </trkpt>
      <trkpt lat="45.71058" lon="6.27838">
        <ele>1253.6</ele>
        <time>2021-02-08T11:09:53Z</time>
      </trkpt>
      <trkpt lat="45.71068" lon="6.27847">
        <ele>1251.4</ele>
        <time>2021-02-08T11:09:55Z</time>
      </trkpt>
      <trkpt lat="45.71074" lon="6.27852">
        <ele>1250</ele>
        <time>2021-02-08T11:09:56Z</time>
      </trkpt>
      <trkpt lat="45.71081" lon="6.27857">
        <ele>1248.4</ele>
        <time>2021-02-08T11:09:57Z</time>
      </trkpt>
      <trkpt lat="45.71086" lon="6.27863">
        <ele>1247.6</ele>
        <time>2021-02-08T11:09:58Z</time>
      </trkpt>
      <trkpt lat="45.71091" lon="6.27869">
        <ele>1247.1</ele>
        <time>2021-02-08T11:09:59Z</time>
      </trkpt>
      <trkpt lat="45.71096" lon="6.27874">
        <ele>1246.4</ele>
        <time>2021-02-08T11:10:00Z</time>
      </trkpt>
      <trkpt lat="45.71101" lon="6.27878">
        <ele>1245.6</ele>
        <time>2021-02-08T11:10:01Z</time>
      </trkpt>
      <trkpt lat="45.71113" lon="6.27888">
        <ele>1243.7</ele>
        <time>2021-02-08T11:10:03Z</time>
      </trkpt>
      <trkpt lat="45.71122" lon="6.27897">
        <ele>1243.1</ele>
        <time>2021-02-08T11:10:05Z</time>
      </trkpt>
      <trkpt lat="45.71127" lon="6.27899">
        <ele>1242.4</ele>
        <time>2021-02-08T11:10:06Z</time>
      </trkpt>
      <trkpt lat="45.71138" lon="6.27903">
        <ele>1240.7</ele>
        <time>2021-02-08T11:10:08Z</time>
      </trkpt>
      <trkpt lat="45.71143" lon="6.27905">
        <ele>1239.8</ele>
        <time>2021-02-08T11:10:09Z</time>
      </trkpt>
      <trkpt lat="45.71149" lon="6.27905">
        <ele>1238.7</ele>
        <time>2021-02-08T11:10:10Z</time>
      </trkpt>
      <trkpt lat="45.71153" lon="6.27902">
        <ele>1237.6</ele>
        <time>2021-02-08T11:10:11Z</time>
      </trkpt>
      <trkpt lat="45.71156" lon="6.27896">
        <ele>1236.4</ele>
        <time>2021-02-08T11:10:12Z</time>
      </trkpt>
      <trkpt lat="45.71159" lon="6.27891">
        <ele>1235.2</ele>
        <time>2021-02-08T11:10:13Z</time>
      </trkpt>
      <trkpt lat="45.71163" lon="6.27886">
        <ele>1233.6</ele>
        <time>2021-02-08T11:10:14Z</time>
      </trkpt>
      <trkpt lat="45.71169" lon="6.2788">
        <ele>1231.6</ele>
        <time>2021-02-08T11:10:15Z</time>
      </trkpt>
      <trkpt lat="45.71172" lon="6.27873">
        <ele>1230.2</ele>
        <time>2021-02-08T11:10:16Z</time>
      </trkpt>
      <trkpt lat="45.71173" lon="6.27866">
        <ele>1229.1</ele>
        <time>2021-02-08T11:10:17Z</time>
      </trkpt>
      <trkpt lat="45.71173" lon="6.27858">
        <ele>1227.9</ele>
        <time>2021-02-08T11:10:18Z</time>
      </trkpt>
      <trkpt lat="45.71175" lon="6.27844">
        <ele>1225.1</ele>
        <time>2021-02-08T11:10:20Z</time>
      </trkpt>
      <trkpt lat="45.71175" lon="6.27837">
        <ele>1223.9</ele>
        <time>2021-02-08T11:10:21Z</time>
      </trkpt>
      <trkpt lat="45.71175" lon="6.2783">
        <ele>1222.8</ele>
        <time>2021-02-08T11:10:22Z</time>
      </trkpt>
      <trkpt lat="45.71176" lon="6.27824">
        <ele>1221.6</ele>
        <time>2021-02-08T11:10:23Z</time>
      </trkpt>
      <trkpt lat="45.71177" lon="6.27817">
        <ele>1220.3</ele>
        <time>2021-02-08T11:10:24Z</time>
      </trkpt>
      <trkpt lat="45.71178" lon="6.2781">
        <ele>1219</ele>
        <time>2021-02-08T11:10:25Z</time>
      </trkpt>
      <trkpt lat="45.71177" lon="6.27804">
        <ele>1218.4</ele>
        <time>2021-02-08T11:10:26Z</time>
      </trkpt>
      <trkpt lat="45.71176" lon="6.27797">
        <ele>1217.7</ele>
        <time>2021-02-08T11:10:27Z</time>
      </trkpt>
      <trkpt lat="45.71176" lon="6.27791">
        <ele>1216.9</ele>
        <time>2021-02-08T11:10:28Z</time>
      </trkpt>
      <trkpt lat="45.71179" lon="6.27785">
        <ele>1215</ele>
        <time>2021-02-08T11:10:29Z</time>
      </trkpt>
      <trkpt lat="45.7118" lon="6.27782">
        <ele>1214.3</ele>
        <time>2021-02-08T11:10:30Z</time>
      </trkpt>
      <trkpt lat="45.71183" lon="6.27781">
        <ele>1213.2</ele>
        <time>2021-02-08T11:10:31Z</time>
      </trkpt>
      <trkpt lat="45.71186" lon="6.27779">
        <ele>1211.9</ele>
        <time>2021-02-08T11:10:32Z</time>
      </trkpt>
      <trkpt lat="45.71186" lon="6.27774">
        <ele>1211.5</ele>
        <time>2021-02-08T11:10:33Z</time>
      </trkpt>
      <trkpt lat="45.71185" lon="6.27769">
        <ele>1211.6</ele>
        <time>2021-02-08T11:10:34Z</time>
      </trkpt>
      <trkpt lat="45.71184" lon="6.27766">
        <ele>1211.9</ele>
        <time>2021-02-08T11:10:35Z</time>
      </trkpt>
      <trkpt lat="45.71183" lon="6.27763">
        <ele>1212.1</ele>
        <time>2021-02-08T11:10:37Z</time>
      </trkpt>
      <trkpt lat="45.71182" lon="6.27763">
        <ele>1212.4</ele>
        <time>2021-02-08T11:10:40Z</time>
      </trkpt>
      <trkpt lat="45.71181" lon="6.27763">
        <ele>1212.8</ele>
        <time>2021-02-08T11:10:42Z</time>
      </trkpt>
      <trkpt lat="45.71181" lon="6.27763">
        <ele>1212.8</ele>
        <time>2021-02-08T11:10:43Z</time>
      </trkpt>
      <trkpt lat="45.71179" lon="6.27762">
        <ele>1213.5</ele>
        <time>2021-02-08T11:10:54Z</time>
      </trkpt>
      <trkpt lat="45.71179" lon="6.27762">
        <ele>1213.5</ele>
        <time>2021-02-08T11:10:57Z</time>
      </trkpt>
      <trkpt lat="45.71179" lon="6.27762">
        <ele>1213.5</ele>
        <time>2021-02-08T11:11:09Z</time>
      </trkpt>
      <trkpt lat="45.71186" lon="6.27765">
        <ele>1211.1</ele>
        <time>2021-02-08T11:11:15Z</time>
      </trkpt>
      <trkpt lat="45.71189" lon="6.27768">
        <ele>1210.2</ele>
        <time>2021-02-08T11:11:16Z</time>
      </trkpt>
      <trkpt lat="45.71191" lon="6.27771">
        <ele>1209.7</ele>
        <time>2021-02-08T11:11:17Z</time>
      </trkpt>
      <trkpt lat="45.71193" lon="6.27772">
        <ele>1209.1</ele>
        <time>2021-02-08T11:11:18Z</time>
      </trkpt>
      <trkpt lat="45.71197" lon="6.27772">
        <ele>1207.9</ele>
        <time>2021-02-08T11:11:19Z</time>
      </trkpt>
      <trkpt lat="45.71206" lon="6.27771">
        <ele>1205.3</ele>
        <time>2021-02-08T11:11:21Z</time>
      </trkpt>
      <trkpt lat="45.71209" lon="6.27772">
        <ele>1204.6</ele>
        <time>2021-02-08T11:11:22Z</time>
      </trkpt>
      <trkpt lat="45.71213" lon="6.27773">
        <ele>1203.6</ele>
        <time>2021-02-08T11:11:23Z</time>
      </trkpt>
      <trkpt lat="45.7122" lon="6.27769">
        <ele>1201.1</ele>
        <time>2021-02-08T11:11:25Z</time>
      </trkpt>
      <trkpt lat="45.71223" lon="6.27767">
        <ele>1199.9</ele>
        <time>2021-02-08T11:11:26Z</time>
      </trkpt>
      <trkpt lat="45.71228" lon="6.27765">
        <ele>1198.2</ele>
        <time>2021-02-08T11:11:27Z</time>
      </trkpt>
      <trkpt lat="45.71233" lon="6.27765">
        <ele>1197</ele>
        <time>2021-02-08T11:11:28Z</time>
      </trkpt>
      <trkpt lat="45.71237" lon="6.27766">
        <ele>1196.1</ele>
        <time>2021-02-08T11:11:29Z</time>
      </trkpt>
      <trkpt lat="45.7124" lon="6.27767">
        <ele>1195.4</ele>
        <time>2021-02-08T11:11:30Z</time>
      </trkpt>
      <trkpt lat="45.71243" lon="6.27768">
        <ele>1194.8</ele>
        <time>2021-02-08T11:11:31Z</time>
      </trkpt>
      <trkpt lat="45.7125" lon="6.27765">
        <ele>1192.6</ele>
        <time>2021-02-08T11:11:33Z</time>
      </trkpt>
      <trkpt lat="45.71252" lon="6.27761">
        <ele>1191.6</ele>
        <time>2021-02-08T11:11:34Z</time>
      </trkpt>
      <trkpt lat="45.71252" lon="6.27757">
        <ele>1191.2</ele>
        <time>2021-02-08T11:11:35Z</time>
      </trkpt>
      <trkpt lat="45.71252" lon="6.2775">
        <ele>1190.4</ele>
        <time>2021-02-08T11:11:37Z</time>
      </trkpt>
      <trkpt lat="45.71252" lon="6.27748">
        <ele>1190.2</ele>
        <time>2021-02-08T11:11:38Z</time>
      </trkpt>
      <trkpt lat="45.71251" lon="6.27747">
        <ele>1190.4</ele>
        <time>2021-02-08T11:11:39Z</time>
      </trkpt>
      <trkpt lat="45.71251" lon="6.27747">
        <ele>1190.4</ele>
        <time>2021-02-08T11:11:40Z</time>
      </trkpt>
      <trkpt lat="45.71249" lon="6.27747">
        <ele>1190.9</ele>
        <time>2021-02-08T11:11:42Z</time>
      </trkpt>
      <trkpt lat="45.71248" lon="6.27747">
        <ele>1191.1</ele>
        <time>2021-02-08T11:11:44Z</time>
      </trkpt>
      <trkpt lat="45.71247" lon="6.27747">
        <ele>1191.3</ele>
        <time>2021-02-08T11:11:53Z</time>
      </trkpt>
      <trkpt lat="45.71246" lon="6.27747">
        <ele>1191.6</ele>
        <time>2021-02-08T11:11:59Z</time>
      </trkpt>
      <trkpt lat="45.71246" lon="6.27747">
        <ele>1191.6</ele>
        <time>2021-02-08T11:12:04Z</time>
      </trkpt>
      <trkpt lat="45.71246" lon="6.27747">
        <ele>1191.6</ele>
        <time>2021-02-08T11:12:14Z</time>
      </trkpt>
      <trkpt lat="45.71252" lon="6.27753">
        <ele>1190.8</ele>
        <time>2021-02-08T11:12:21Z</time>
      </trkpt>
      <trkpt lat="45.71254" lon="6.27755">
        <ele>1190.4</ele>
        <time>2021-02-08T11:12:22Z</time>
      </trkpt>
      <trkpt lat="45.71258" lon="6.27761">
        <ele>1190</ele>
        <time>2021-02-08T11:12:24Z</time>
      </trkpt>
      <trkpt lat="45.71262" lon="6.27769">
        <ele>1189.9</ele>
        <time>2021-02-08T11:12:27Z</time>
      </trkpt>
      <trkpt lat="45.71263" lon="6.2777">
        <ele>1189.8</ele>
        <time>2021-02-08T11:12:28Z</time>
      </trkpt>
      <trkpt lat="45.7127" lon="6.27774">
        <ele>1188.5</ele>
        <time>2021-02-08T11:12:31Z</time>
      </trkpt>
      <trkpt lat="45.71273" lon="6.27778">
        <ele>1188.2</ele>
        <time>2021-02-08T11:12:33Z</time>
      </trkpt>
      <trkpt lat="45.71276" lon="6.2778">
        <ele>1187.8</ele>
        <time>2021-02-08T11:12:34Z</time>
      </trkpt>
      <trkpt lat="45.71282" lon="6.27783">
        <ele>1186.1</ele>
        <time>2021-02-08T11:12:36Z</time>
      </trkpt>
      <trkpt lat="45.71285" lon="6.27786">
        <ele>1185.4</ele>
        <time>2021-02-08T11:12:37Z</time>
      </trkpt>
      <trkpt lat="45.71288" lon="6.27789">
        <ele>1184.7</ele>
        <time>2021-02-08T11:12:38Z</time>
      </trkpt>
      <trkpt lat="45.71295" lon="6.27795">
        <ele>1183</ele>
        <time>2021-02-08T11:12:40Z</time>
      </trkpt>
      <trkpt lat="45.71302" lon="6.27802">
        <ele>1181.7</ele>
        <time>2021-02-08T11:12:42Z</time>
      </trkpt>
      <trkpt lat="45.7131" lon="6.27807">
        <ele>1179.8</ele>
        <time>2021-02-08T11:12:44Z</time>
      </trkpt>
      <trkpt lat="45.71313" lon="6.27811">
        <ele>1179.5</ele>
        <time>2021-02-08T11:12:45Z</time>
      </trkpt>
      <trkpt lat="45.71315" lon="6.27815">
        <ele>1179.4</ele>
        <time>2021-02-08T11:12:46Z</time>
      </trkpt>
      <trkpt lat="45.71318" lon="6.27819">
        <ele>1179</ele>
        <time>2021-02-08T11:12:47Z</time>
      </trkpt>
      <trkpt lat="45.71321" lon="6.27823">
        <ele>1178.4</ele>
        <time>2021-02-08T11:12:48Z</time>
      </trkpt>
      <trkpt lat="45.71324" lon="6.27827">
        <ele>1177.9</ele>
        <time>2021-02-08T11:12:49Z</time>
      </trkpt>
      <trkpt lat="45.71327" lon="6.27831">
        <ele>1177.2</ele>
        <time>2021-02-08T11:12:50Z</time>
      </trkpt>
      <trkpt lat="45.71331" lon="6.27836">
        <ele>1176.2</ele>
        <time>2021-02-08T11:12:51Z</time>
      </trkpt>
      <trkpt lat="45.71334" lon="6.27841">
        <ele>1175.7</ele>
        <time>2021-02-08T11:12:52Z</time>
      </trkpt>
      <trkpt lat="45.71337" lon="6.27846">
        <ele>1175.4</ele>
        <time>2021-02-08T11:12:53Z</time>
      </trkpt>
      <trkpt lat="45.7134" lon="6.2785">
        <ele>1175.1</ele>
        <time>2021-02-08T11:12:54Z</time>
      </trkpt>
      <trkpt lat="45.71343" lon="6.27855">
        <ele>1174.9</ele>
        <time>2021-02-08T11:12:55Z</time>
      </trkpt>
      <trkpt lat="45.71347" lon="6.27859">
        <ele>1174.3</ele>
        <time>2021-02-08T11:12:56Z</time>
      </trkpt>
      <trkpt lat="45.71357" lon="6.27859">
        <ele>1171.8</ele>
        <time>2021-02-08T11:12:58Z</time>
      </trkpt>
      <trkpt lat="45.7136" lon="6.27855">
        <ele>1170.6</ele>
        <time>2021-02-08T11:12:59Z</time>
      </trkpt>
      <trkpt lat="45.71362" lon="6.27849">
        <ele>1169.3</ele>
        <time>2021-02-08T11:13:00Z</time>
      </trkpt>
      <trkpt lat="45.71363" lon="6.27842">
        <ele>1168.1</ele>
        <time>2021-02-08T11:13:01Z</time>
      </trkpt>
      <trkpt lat="45.71364" lon="6.27834">
        <ele>1166.8</ele>
        <time>2021-02-08T11:13:02Z</time>
      </trkpt>
      <trkpt lat="45.71364" lon="6.27825">
        <ele>1165.9</ele>
        <time>2021-02-08T11:13:03Z</time>
      </trkpt>
      <trkpt lat="45.71364" lon="6.27817">
        <ele>1165</ele>
        <time>2021-02-08T11:13:04Z</time>
      </trkpt>
      <trkpt lat="45.71362" lon="6.27809">
        <ele>1165</ele>
        <time>2021-02-08T11:13:05Z</time>
      </trkpt>
      <trkpt lat="45.71362" lon="6.27801">
        <ele>1164</ele>
        <time>2021-02-08T11:13:06Z</time>
      </trkpt>
      <trkpt lat="45.71361" lon="6.27794">
        <ele>1163.4</ele>
        <time>2021-02-08T11:13:07Z</time>
      </trkpt>
      <trkpt lat="45.71359" lon="6.27778">
        <ele>1161.5</ele>
        <time>2021-02-08T11:13:09Z</time>
      </trkpt>
      <trkpt lat="45.71358" lon="6.27764">
        <ele>1160.5</ele>
        <time>2021-02-08T11:13:11Z</time>
      </trkpt>
      <trkpt lat="45.71355" lon="6.2775">
        <ele>1159.4</ele>
        <time>2021-02-08T11:13:13Z</time>
      </trkpt>
      <trkpt lat="45.71354" lon="6.27742">
        <ele>1158.5</ele>
        <time>2021-02-08T11:13:14Z</time>
      </trkpt>
      <trkpt lat="45.71353" lon="6.27735">
        <ele>1157.6</ele>
        <time>2021-02-08T11:13:15Z</time>
      </trkpt>
      <trkpt lat="45.71352" lon="6.27728">
        <ele>1156.8</ele>
        <time>2021-02-08T11:13:16Z</time>
      </trkpt>
      <trkpt lat="45.71351" lon="6.27722">
        <ele>1156</ele>
        <time>2021-02-08T11:13:17Z</time>
      </trkpt>
      <trkpt lat="45.71351" lon="6.27714">
        <ele>1155.4</ele>
        <time>2021-02-08T11:13:18Z</time>
      </trkpt>
      <trkpt lat="45.7135" lon="6.27707">
        <ele>1154.9</ele>
        <time>2021-02-08T11:13:19Z</time>
      </trkpt>
      <trkpt lat="45.71348" lon="6.27693">
        <ele>1153.9</ele>
        <time>2021-02-08T11:13:21Z</time>
      </trkpt>
      <trkpt lat="45.71345" lon="6.2768">
        <ele>1153.3</ele>
        <time>2021-02-08T11:13:23Z</time>
      </trkpt>
      <trkpt lat="45.71343" lon="6.27675">
        <ele>1153.3</ele>
        <time>2021-02-08T11:13:24Z</time>
      </trkpt>
      <trkpt lat="45.71339" lon="6.27664">
        <ele>1153.3</ele>
        <time>2021-02-08T11:13:28Z</time>
      </trkpt>
      <trkpt lat="45.71339" lon="6.27663">
        <ele>1153.2</ele>
        <time>2021-02-08T11:13:34Z</time>
      </trkpt>
      <trkpt lat="45.71338" lon="6.2766">
        <ele>1153.3</ele>
        <time>2021-02-08T11:13:41Z</time>
      </trkpt>
      <trkpt lat="45.71339" lon="6.27657">
        <ele>1153</ele>
        <time>2021-02-08T11:13:43Z</time>
      </trkpt>
      <trkpt lat="45.71339" lon="6.27656">
        <ele>1152.9</ele>
        <time>2021-02-08T11:13:44Z</time>
      </trkpt>
      <trkpt lat="45.71337" lon="6.27645">
        <ele>1153</ele>
        <time>2021-02-08T11:13:50Z</time>
      </trkpt>
      <trkpt lat="45.71337" lon="6.27643">
        <ele>1152.9</ele>
        <time>2021-02-08T11:13:51Z</time>
      </trkpt>
      <trkpt lat="45.71334" lon="6.27622">
        <ele>1152.6</ele>
        <time>2021-02-08T11:13:57Z</time>
      </trkpt>
      <trkpt lat="45.71331" lon="6.27608">
        <ele>1152.2</ele>
        <time>2021-02-08T11:14:02Z</time>
      </trkpt>
      <trkpt lat="45.7133" lon="6.27603">
        <ele>1152.1</ele>
        <time>2021-02-08T11:14:06Z</time>
      </trkpt>
      <trkpt lat="45.71329" lon="6.27598">
        <ele>1151.9</ele>
        <time>2021-02-08T11:14:09Z</time>
      </trkpt>
      <trkpt lat="45.71329" lon="6.27593">
        <ele>1151.6</ele>
        <time>2021-02-08T11:14:12Z</time>
      </trkpt>
      <trkpt lat="45.71329" lon="6.27589">
        <ele>1151.3</ele>
        <time>2021-02-08T11:14:15Z</time>
      </trkpt>
      <trkpt lat="45.71329" lon="6.27588">
        <ele>1151.2</ele>
        <time>2021-02-08T11:14:17Z</time>
      </trkpt>
      <trkpt lat="45.71329" lon="6.27587">
        <ele>1151.2</ele>
        <time>2021-02-08T11:14:18Z</time>
      </trkpt>
      <trkpt lat="45.71329" lon="6.27584">
        <ele>1151</ele>
        <time>2021-02-08T11:14:26Z</time>
      </trkpt>
      <trkpt lat="45.71329" lon="6.27584">
        <ele>1151</ele>
        <time>2021-02-08T11:14:28Z</time>
      </trkpt>
      <trkpt lat="45.71329" lon="6.27585">
        <ele>1151</ele>
        <time>2021-02-08T11:14:33Z</time>
      </trkpt>
      <trkpt lat="45.71329" lon="6.27585">
        <ele>1151</ele>
        <time>2021-02-08T11:14:35Z</time>
      </trkpt>
      <trkpt lat="45.71329" lon="6.27584">
        <ele>1151</ele>
        <time>2021-02-08T11:14:39Z</time>
      </trkpt>
      <trkpt lat="45.71329" lon="6.27584">
        <ele>1151</ele>
        <time>2021-02-08T11:14:40Z</time>
      </trkpt>
      <trkpt lat="45.71329" lon="6.27584">
        <ele>1151</ele>
        <time>2021-02-08T11:14:42Z</time>
      </trkpt>
      <trkpt lat="45.71329" lon="6.27585">
        <ele>1151</ele>
        <time>2021-02-08T11:14:50Z</time>
      </trkpt>
      <trkpt lat="45.71328" lon="6.27585">
        <ele>1151.3</ele>
        <time>2021-02-08T11:14:55Z</time>
      </trkpt>
      <trkpt lat="45.71328" lon="6.27585">
        <ele>1151.3</ele>
        <time>2021-02-08T11:15:02Z</time>
      </trkpt>
      <trkpt lat="45.71328" lon="6.27586">
        <ele>1151.3</ele>
        <time>2021-02-08T11:15:05Z</time>
      </trkpt>
      <trkpt lat="45.71328" lon="6.27586">
        <ele>1151.3</ele>
        <time>2021-02-08T11:15:07Z</time>
      </trkpt>
      <trkpt lat="45.7133" lon="6.27587">
        <ele>1151</ele>
        <time>2021-02-08T11:15:15Z</time>
      </trkpt>
      <trkpt lat="45.7133" lon="6.27588">
        <ele>1151</ele>
        <time>2021-02-08T11:15:26Z</time>
      </trkpt>
      <trkpt lat="45.71331" lon="6.27588">
        <ele>1150.8</ele>
        <time>2021-02-08T11:15:29Z</time>
      </trkpt>
      <trkpt lat="45.71332" lon="6.27586">
        <ele>1150.5</ele>
        <time>2021-02-08T11:15:40Z</time>
      </trkpt>
      <trkpt lat="45.71334" lon="6.27586">
        <ele>1150</ele>
        <time>2021-02-08T11:15:45Z</time>
      </trkpt>
      <trkpt lat="45.71335" lon="6.27586">
        <ele>1149.8</ele>
        <time>2021-02-08T11:15:54Z</time>
      </trkpt>
      <trkpt lat="45.71335" lon="6.27586">
        <ele>1149.8</ele>
        <time>2021-02-08T11:15:57Z</time>
      </trkpt>
      <trkpt lat="45.71335" lon="6.27586">
        <ele>1149.8</ele>
        <time>2021-02-08T11:16:02Z</time>
      </trkpt>
      <trkpt lat="45.71335" lon="6.27586">
        <ele>1149.8</ele>
        <time>2021-02-08T11:16:04Z</time>
      </trkpt>
      <trkpt lat="45.71335" lon="6.27586">
        <ele>1149.8</ele>
        <time>2021-02-08T11:16:05Z</time>
      </trkpt>
      <trkpt lat="45.71335" lon="6.27586">
        <ele>1149.8</ele>
        <time>2021-02-08T11:16:06Z</time>
      </trkpt>
      <trkpt lat="45.71334" lon="6.27586">
        <ele>1150</ele>
        <time>2021-02-08T11:16:11Z</time>
      </trkpt>
      <trkpt lat="45.71335" lon="6.27586">
        <ele>1149.8</ele>
        <time>2021-02-08T11:16:16Z</time>
      </trkpt>
      <trkpt lat="45.71335" lon="6.27587">
        <ele>1149.9</ele>
        <time>2021-02-08T11:16:17Z</time>
      </trkpt>
      <trkpt lat="45.71336" lon="6.27587">
        <ele>1149.6</ele>
        <time>2021-02-08T11:16:19Z</time>
      </trkpt>
      <trkpt lat="45.71336" lon="6.27588">
        <ele>1149.7</ele>
        <time>2021-02-08T11:16:21Z</time>
      </trkpt>
      <trkpt lat="45.71336" lon="6.27587">
        <ele>1149.6</ele>
        <time>2021-02-08T11:16:27Z</time>
      </trkpt>
      <trkpt lat="45.71335" lon="6.27587">
        <ele>1149.9</ele>
        <time>2021-02-08T11:16:29Z</time>
      </trkpt>
      <trkpt lat="45.71335" lon="6.27587">
        <ele>1149.9</ele>
        <time>2021-02-08T11:16:33Z</time>
      </trkpt>
      <trkpt lat="45.71336" lon="6.27588">
        <ele>1149.7</ele>
        <time>2021-02-08T11:16:36Z</time>
      </trkpt>
      <trkpt lat="45.71335" lon="6.27587">
        <ele>1149.9</ele>
        <time>2021-02-08T11:16:40Z</time>
      </trkpt>
      <trkpt lat="45.71333" lon="6.27586">
        <ele>1150.3</ele>
        <time>2021-02-08T11:16:49Z</time>
      </trkpt>
      <trkpt lat="45.71333" lon="6.27585">
        <ele>1150.2</ele>
        <time>2021-02-08T11:16:58Z</time>
      </trkpt>
      <trkpt lat="45.71332" lon="6.27585">
        <ele>1150.4</ele>
        <time>2021-02-08T11:17:06Z</time>
      </trkpt>
      <trkpt lat="45.71332" lon="6.27585">
        <ele>1150.4</ele>
        <time>2021-02-08T11:17:07Z</time>
      </trkpt>
      <trkpt lat="45.71332" lon="6.27585">
        <ele>1150.4</ele>
        <time>2021-02-08T11:17:09Z</time>
      </trkpt>
      <trkpt lat="45.71333" lon="6.27586">
        <ele>1150.3</ele>
        <time>2021-02-08T11:17:12Z</time>
      </trkpt>
      <trkpt lat="45.71332" lon="6.27585">
        <ele>1150.4</ele>
        <time>2021-02-08T11:17:21Z</time>
      </trkpt>
      <trkpt lat="45.71331" lon="6.27584">
        <ele>1150.5</ele>
        <time>2021-02-08T11:17:31Z</time>
      </trkpt>
      <trkpt lat="45.71331" lon="6.27584">
        <ele>1150.5</ele>
        <time>2021-02-08T11:17:34Z</time>
      </trkpt>
      <trkpt lat="45.71332" lon="6.27585">
        <ele>1150.4</ele>
        <time>2021-02-08T11:17:38Z</time>
      </trkpt>
      <trkpt lat="45.71331" lon="6.27584">
        <ele>1150.5</ele>
        <time>2021-02-08T11:17:49Z</time>
      </trkpt>
      <trkpt lat="45.71331" lon="6.27584">
        <ele>1150.5</ele>
        <time>2021-02-08T11:17:51Z</time>
      </trkpt>
      <trkpt lat="45.71331" lon="6.27584">
        <ele>1150.5</ele>
        <time>2021-02-08T11:17:52Z</time>
      </trkpt>
      <trkpt lat="45.71331" lon="6.27584">
        <ele>1150.5</ele>
        <time>2021-02-08T11:17:53Z</time>
      </trkpt>
      <trkpt lat="45.71332" lon="6.27583">
        <ele>1150.3</ele>
        <time>2021-02-08T11:17:57Z</time>
      </trkpt>
      <trkpt lat="45.71332" lon="6.27583">
        <ele>1150.3</ele>
        <time>2021-02-08T11:17:58Z</time>
      </trkpt>
      <trkpt lat="45.71332" lon="6.27582">
        <ele>1150.2</ele>
        <time>2021-02-08T11:18:07Z</time>
      </trkpt>
      <trkpt lat="45.71331" lon="6.27582">
        <ele>1150.5</ele>
        <time>2021-02-08T11:18:09Z</time>
      </trkpt>
      <trkpt lat="45.71331" lon="6.27582">
        <ele>1150.5</ele>
        <time>2021-02-08T11:18:11Z</time>
      </trkpt>
      <trkpt lat="45.71331" lon="6.27582">
        <ele>1150.5</ele>
        <time>2021-02-08T11:18:13Z</time>
      </trkpt>
      <trkpt lat="45.7133" lon="6.27582">
        <ele>1150.7</ele>
        <time>2021-02-08T11:18:19Z</time>
      </trkpt>
      <trkpt lat="45.71328" lon="6.27582">
        <ele>1151.1</ele>
        <time>2021-02-08T11:18:27Z</time>
      </trkpt>
      <trkpt lat="45.71328" lon="6.27582">
        <ele>1151.1</ele>
        <time>2021-02-08T11:18:30Z</time>
      </trkpt>
      <trkpt lat="45.71328" lon="6.27582">
        <ele>1151.1</ele>
        <time>2021-02-08T11:18:32Z</time>
      </trkpt>
      <trkpt lat="45.71328" lon="6.27581">
        <ele>1151.1</ele>
        <time>2021-02-08T11:18:37Z</time>
      </trkpt>
      <trkpt lat="45.71329" lon="6.27581">
        <ele>1150.9</ele>
        <time>2021-02-08T11:18:40Z</time>
      </trkpt>
      <trkpt lat="45.71329" lon="6.27581">
        <ele>1150.9</ele>
        <time>2021-02-08T11:18:46Z</time>
      </trkpt>
      <trkpt lat="45.71329" lon="6.27581">
        <ele>1150.9</ele>
        <time>2021-02-08T11:18:47Z</time>
      </trkpt>
      <trkpt lat="45.71329" lon="6.27581">
        <ele>1150.9</ele>
        <time>2021-02-08T11:18:51Z</time>
      </trkpt>
      <trkpt lat="45.71329" lon="6.27581">
        <ele>1150.9</ele>
        <time>2021-02-08T11:18:58Z</time>
      </trkpt>
      <trkpt lat="45.71329" lon="6.2758">
        <ele>1150.8</ele>
        <time>2021-02-08T11:19:12Z</time>
      </trkpt>
      <trkpt lat="45.71328" lon="6.2758">
        <ele>1151</ele>
        <time>2021-02-08T11:19:17Z</time>
      </trkpt>
      <trkpt lat="45.71328" lon="6.2758">
        <ele>1151</ele>
        <time>2021-02-08T11:19:19Z</time>
      </trkpt>
      <trkpt lat="45.71329" lon="6.2758">
        <ele>1150.8</ele>
        <time>2021-02-08T11:19:24Z</time>
      </trkpt>
      <trkpt lat="45.71329" lon="6.2758">
        <ele>1150.8</ele>
        <time>2021-02-08T11:19:29Z</time>
      </trkpt>
      <trkpt lat="45.7133" lon="6.27581">
        <ele>1150.6</ele>
        <time>2021-02-08T11:19:30Z</time>
      </trkpt>
      <trkpt lat="45.7133" lon="6.27581">
        <ele>1150.6</ele>
        <time>2021-02-08T11:19:36Z</time>
      </trkpt>
      <trkpt lat="45.7133" lon="6.27581">
        <ele>1150.6</ele>
        <time>2021-02-08T11:19:39Z</time>
      </trkpt>
      <trkpt lat="45.71331" lon="6.27582">
        <ele>1150.5</ele>
        <time>2021-02-08T11:19:44Z</time>
      </trkpt>
      <trkpt lat="45.71332" lon="6.27583">
        <ele>1150.3</ele>
        <time>2021-02-08T11:19:46Z</time>
      </trkpt>
      <trkpt lat="45.71332" lon="6.27583">
        <ele>1150.3</ele>
        <time>2021-02-08T11:19:51Z</time>
      </trkpt>
      <trkpt lat="45.71332" lon="6.27583">
        <ele>1150.3</ele>
        <time>2021-02-08T11:19:54Z</time>
      </trkpt>
      <trkpt lat="45.71332" lon="6.27582">
        <ele>1150.2</ele>
        <time>2021-02-08T11:19:56Z</time>
      </trkpt>
      <trkpt lat="45.71332" lon="6.27582">
        <ele>1150.2</ele>
        <time>2021-02-08T11:19:59Z</time>
      </trkpt>
      <trkpt lat="45.71331" lon="6.27583">
        <ele>1150.5</ele>
        <time>2021-02-08T11:20:01Z</time>
      </trkpt>
      <trkpt lat="45.7133" lon="6.27583">
        <ele>1150.7</ele>
        <time>2021-02-08T11:20:08Z</time>
      </trkpt>
      <trkpt lat="45.7133" lon="6.27583">
        <ele>1150.7</ele>
        <time>2021-02-08T11:20:14Z</time>
      </trkpt>
      <trkpt lat="45.7133" lon="6.27583">
        <ele>1150.7</ele>
        <time>2021-02-08T11:20:20Z</time>
      </trkpt>
      <trkpt lat="45.7133" lon="6.27584">
        <ele>1150.8</ele>
        <time>2021-02-08T11:20:23Z</time>
      </trkpt>
      <trkpt lat="45.7133" lon="6.27585">
        <ele>1150.8</ele>
        <time>2021-02-08T11:20:32Z</time>
      </trkpt>
      <trkpt lat="45.7133" lon="6.27585">
        <ele>1150.8</ele>
        <time>2021-02-08T11:20:36Z</time>
      </trkpt>
      <trkpt lat="45.7133" lon="6.27585">
        <ele>1150.8</ele>
        <time>2021-02-08T11:20:42Z</time>
      </trkpt>
      <trkpt lat="45.7133" lon="6.27585">
        <ele>1150.8</ele>
        <time>2021-02-08T11:20:43Z</time>
      </trkpt>
      <trkpt lat="45.7133" lon="6.27583">
        <ele>1150.7</ele>
        <time>2021-02-08T11:20:49Z</time>
      </trkpt>
      <trkpt lat="45.7133" lon="6.27583">
        <ele>1150.7</ele>
        <time>2021-02-08T11:20:54Z</time>
      </trkpt>
      <trkpt lat="45.7133" lon="6.27582">
        <ele>1150.7</ele>
        <time>2021-02-08T11:21:08Z</time>
      </trkpt>
      <trkpt lat="45.7133" lon="6.27582">
        <ele>1150.7</ele>
        <time>2021-02-08T11:21:12Z</time>
      </trkpt>
      <trkpt lat="45.7133" lon="6.27582">
        <ele>1150.7</ele>
        <time>2021-02-08T11:21:15Z</time>
      </trkpt>
      <trkpt lat="45.7133" lon="6.27582">
        <ele>1150.7</ele>
        <time>2021-02-08T11:21:16Z</time>
      </trkpt>
      <trkpt lat="45.71329" lon="6.27582">
        <ele>1150.9</ele>
        <time>2021-02-08T11:21:18Z</time>
      </trkpt>
      <trkpt lat="45.71329" lon="6.27582">
        <ele>1150.9</ele>
        <time>2021-02-08T11:21:21Z</time>
      </trkpt>
      <trkpt lat="45.71331" lon="6.27583">
        <ele>1150.5</ele>
        <time>2021-02-08T11:21:37Z</time>
      </trkpt>
      <trkpt lat="45.71331" lon="6.27583">
        <ele>1150.5</ele>
        <time>2021-02-08T11:21:38Z</time>
      </trkpt>
      <trkpt lat="45.71331" lon="6.27583">
        <ele>1150.5</ele>
        <time>2021-02-08T11:21:40Z</time>
      </trkpt>
      <trkpt lat="45.71332" lon="6.27584">
        <ele>1150.3</ele>
        <time>2021-02-08T11:21:49Z</time>
      </trkpt>
      <trkpt lat="45.71332" lon="6.27584">
        <ele>1150.3</ele>
        <time>2021-02-08T11:21:51Z</time>
      </trkpt>
      <trkpt lat="45.71333" lon="6.27584">
        <ele>1150.1</ele>
        <time>2021-02-08T11:21:52Z</time>
      </trkpt>
      <trkpt lat="45.71333" lon="6.27584">
        <ele>1150.1</ele>
        <time>2021-02-08T11:21:56Z</time>
      </trkpt>
      <trkpt lat="45.71333" lon="6.27584">
        <ele>1150.1</ele>
        <time>2021-02-08T11:21:57Z</time>
      </trkpt>
      <trkpt lat="45.71334" lon="6.27583">
        <ele>1149.8</ele>
        <time>2021-02-08T11:22:04Z</time>
      </trkpt>
      <trkpt lat="45.71334" lon="6.27583">
        <ele>1149.8</ele>
        <time>2021-02-08T11:22:06Z</time>
      </trkpt>
      <trkpt lat="45.71334" lon="6.27583">
        <ele>1149.8</ele>
        <time>2021-02-08T11:22:08Z</time>
      </trkpt>
      <trkpt lat="45.71334" lon="6.27583">
        <ele>1149.8</ele>
        <time>2021-02-08T11:22:13Z</time>
      </trkpt>
      <trkpt lat="45.71334" lon="6.27583">
        <ele>1149.8</ele>
        <time>2021-02-08T11:22:14Z</time>
      </trkpt>
      <trkpt lat="45.71334" lon="6.27583">
        <ele>1149.8</ele>
        <time>2021-02-08T11:22:15Z</time>
      </trkpt>
      <trkpt lat="45.71334" lon="6.27583">
        <ele>1149.8</ele>
        <time>2021-02-08T11:22:19Z</time>
      </trkpt>
      <trkpt lat="45.71334" lon="6.27583">
        <ele>1149.8</ele>
        <time>2021-02-08T11:22:20Z</time>
      </trkpt>
      <trkpt lat="45.71333" lon="6.27582">
        <ele>1150</ele>
        <time>2021-02-08T11:22:28Z</time>
      </trkpt>
      <trkpt lat="45.71332" lon="6.27581">
        <ele>1150.2</ele>
        <time>2021-02-08T11:22:40Z</time>
      </trkpt>
      <trkpt lat="45.71332" lon="6.27581">
        <ele>1150.2</ele>
        <time>2021-02-08T11:22:41Z</time>
      </trkpt>
      <trkpt lat="45.71331" lon="6.27581">
        <ele>1150.4</ele>
        <time>2021-02-08T11:22:44Z</time>
      </trkpt>
      <trkpt lat="45.71331" lon="6.27581">
        <ele>1150.4</ele>
        <time>2021-02-08T11:22:45Z</time>
      </trkpt>
      <trkpt lat="45.71331" lon="6.27581">
        <ele>1150.4</ele>
        <time>2021-02-08T11:22:46Z</time>
      </trkpt>
      <trkpt lat="45.71331" lon="6.27581">
        <ele>1150.4</ele>
        <time>2021-02-08T11:22:52Z</time>
      </trkpt>
      <trkpt lat="45.71331" lon="6.27581">
        <ele>1150.4</ele>
        <time>2021-02-08T11:22:54Z</time>
      </trkpt>
      <trkpt lat="45.71331" lon="6.27581">
        <ele>1150.4</ele>
        <time>2021-02-08T11:22:57Z</time>
      </trkpt>
      <trkpt lat="45.71331" lon="6.27581">
        <ele>1150.4</ele>
        <time>2021-02-08T11:22:58Z</time>
      </trkpt>
      <trkpt lat="45.71331" lon="6.2758">
        <ele>1150.4</ele>
        <time>2021-02-08T11:23:03Z</time>
      </trkpt>
      <trkpt lat="45.71331" lon="6.2758">
        <ele>1150.4</ele>
        <time>2021-02-08T11:23:10Z</time>
      </trkpt>
      <trkpt lat="45.7133" lon="6.2758">
        <ele>1150.6</ele>
        <time>2021-02-08T11:23:11Z</time>
      </trkpt>
      <trkpt lat="45.7133" lon="6.27579">
        <ele>1150.6</ele>
        <time>2021-02-08T11:23:13Z</time>
      </trkpt>
      <trkpt lat="45.7133" lon="6.27579">
        <ele>1150.6</ele>
        <time>2021-02-08T11:23:20Z</time>
      </trkpt>
      <trkpt lat="45.7133" lon="6.27579">
        <ele>1150.6</ele>
        <time>2021-02-08T11:23:21Z</time>
      </trkpt>
      <trkpt lat="45.71329" lon="6.27579">
        <ele>1150.8</ele>
        <time>2021-02-08T11:23:35Z</time>
      </trkpt>
      <trkpt lat="45.71329" lon="6.27579">
        <ele>1150.8</ele>
        <time>2021-02-08T11:23:36Z</time>
      </trkpt>
      <trkpt lat="45.71329" lon="6.27579">
        <ele>1150.8</ele>
        <time>2021-02-08T11:23:40Z</time>
      </trkpt>
      <trkpt lat="45.71329" lon="6.27579">
        <ele>1150.8</ele>
        <time>2021-02-08T11:23:42Z</time>
      </trkpt>
      <trkpt lat="45.7133" lon="6.2758">
        <ele>1150.6</ele>
        <time>2021-02-08T11:23:53Z</time>
      </trkpt>
      <trkpt lat="45.7133" lon="6.2758">
        <ele>1150.6</ele>
        <time>2021-02-08T11:23:58Z</time>
      </trkpt>
      <trkpt lat="45.7133" lon="6.2758">
        <ele>1150.6</ele>
        <time>2021-02-08T11:24:01Z</time>
      </trkpt>
      <trkpt lat="45.7133" lon="6.2758">
        <ele>1150.6</ele>
        <time>2021-02-08T11:24:03Z</time>
      </trkpt>
      <trkpt lat="45.7133" lon="6.2758">
        <ele>1150.6</ele>
        <time>2021-02-08T11:24:08Z</time>
      </trkpt>
      <trkpt lat="45.71331" lon="6.2758">
        <ele>1150.4</ele>
        <time>2021-02-08T11:24:28Z</time>
      </trkpt>
      <trkpt lat="45.71331" lon="6.2758">
        <ele>1150.4</ele>
        <time>2021-02-08T11:24:34Z</time>
      </trkpt>
      <trkpt lat="45.71331" lon="6.2758">
        <ele>1150.4</ele>
        <time>2021-02-08T11:24:36Z</time>
      </trkpt>
      <trkpt lat="45.71331" lon="6.27581">
        <ele>1150.4</ele>
        <time>2021-02-08T11:24:43Z</time>
      </trkpt>
      <trkpt lat="45.7133" lon="6.27581">
        <ele>1150.6</ele>
        <time>2021-02-08T11:24:53Z</time>
      </trkpt>
      <trkpt lat="45.7133" lon="6.27581">
        <ele>1150.6</ele>
        <time>2021-02-08T11:24:56Z</time>
      </trkpt>
      <trkpt lat="45.7133" lon="6.27581">
        <ele>1150.6</ele>
        <time>2021-02-08T11:24:57Z</time>
      </trkpt>
      <trkpt lat="45.7133" lon="6.27581">
        <ele>1150.6</ele>
        <time>2021-02-08T11:25:00Z</time>
      </trkpt>
      <trkpt lat="45.7133" lon="6.27581">
        <ele>1150.6</ele>
        <time>2021-02-08T11:25:08Z</time>
      </trkpt>
      <trkpt lat="45.71331" lon="6.27581">
        <ele>1150.4</ele>
        <time>2021-02-08T11:25:23Z</time>
      </trkpt>
      <trkpt lat="45.71331" lon="6.27581">
        <ele>1150.4</ele>
        <time>2021-02-08T11:25:37Z</time>
      </trkpt>
      <trkpt lat="45.71331" lon="6.27581">
        <ele>1150.4</ele>
        <time>2021-02-08T11:25:39Z</time>
      </trkpt>
      <trkpt lat="45.71331" lon="6.27581">
        <ele>1150.4</ele>
        <time>2021-02-08T11:25:43Z</time>
      </trkpt>
      <trkpt lat="45.71331" lon="6.27581">
        <ele>1150.4</ele>
        <time>2021-02-08T11:25:56Z</time>
      </trkpt>
      <trkpt lat="45.71332" lon="6.27582">
        <ele>1150.2</ele>
        <time>2021-02-08T11:26:05Z</time>
      </trkpt>
      <trkpt lat="45.71332" lon="6.27582">
        <ele>1150.2</ele>
        <time>2021-02-08T11:26:07Z</time>
      </trkpt>
      <trkpt lat="45.71333" lon="6.27581">
        <ele>1150</ele>
        <time>2021-02-08T11:26:17Z</time>
      </trkpt>
      <trkpt lat="45.71333" lon="6.27581">
        <ele>1150</ele>
        <time>2021-02-08T11:26:26Z</time>
      </trkpt>
      <trkpt lat="45.71333" lon="6.27581">
        <ele>1150</ele>
        <time>2021-02-08T11:26:30Z</time>
      </trkpt>
      <trkpt lat="45.71333" lon="6.27581">
        <ele>1150</ele>
        <time>2021-02-08T11:26:33Z</time>
      </trkpt>
      <trkpt lat="45.71334" lon="6.27583">
        <ele>1149.8</ele>
        <time>2021-02-08T11:26:36Z</time>
      </trkpt>
      <trkpt lat="45.71333" lon="6.27582">
        <ele>1150</ele>
        <time>2021-02-08T11:26:44Z</time>
      </trkpt>
      <trkpt lat="45.71333" lon="6.27581">
        <ele>1150</ele>
        <time>2021-02-08T11:26:49Z</time>
      </trkpt>
      <trkpt lat="45.71333" lon="6.27581">
        <ele>1150</ele>
        <time>2021-02-08T11:26:50Z</time>
      </trkpt>
      <trkpt lat="45.71333" lon="6.27581">
        <ele>1150</ele>
        <time>2021-02-08T11:26:51Z</time>
      </trkpt>
      <trkpt lat="45.71333" lon="6.27581">
        <ele>1150</ele>
        <time>2021-02-08T11:26:52Z</time>
      </trkpt>
      <trkpt lat="45.71333" lon="6.27582">
        <ele>1150</ele>
        <time>2021-02-08T11:26:55Z</time>
      </trkpt>
      <trkpt lat="45.71333" lon="6.27582">
        <ele>1150</ele>
        <time>2021-02-08T11:26:56Z</time>
      </trkpt>
      <trkpt lat="45.71332" lon="6.27582">
        <ele>1150.2</ele>
        <time>2021-02-08T11:27:01Z</time>
      </trkpt>
      <trkpt lat="45.71332" lon="6.27582">
        <ele>1150.2</ele>
        <time>2021-02-08T11:27:04Z</time>
      </trkpt>
      <trkpt lat="45.71332" lon="6.27582">
        <ele>1150.2</ele>
        <time>2021-02-08T11:27:06Z</time>
      </trkpt>
      <trkpt lat="45.71332" lon="6.27582">
        <ele>1150.2</ele>
        <time>2021-02-08T11:27:07Z</time>
      </trkpt>
      <trkpt lat="45.71332" lon="6.27582">
        <ele>1150.2</ele>
        <time>2021-02-08T11:27:14Z</time>
      </trkpt>
      <trkpt lat="45.71332" lon="6.27582">
        <ele>1150.2</ele>
        <time>2021-02-08T11:27:17Z</time>
      </trkpt>
      <trkpt lat="45.71332" lon="6.27582">
        <ele>1150.2</ele>
        <time>2021-02-08T11:27:25Z</time>
      </trkpt>
      <trkpt lat="45.71332" lon="6.27582">
        <ele>1150.2</ele>
        <time>2021-02-08T11:27:26Z</time>
      </trkpt>
      <trkpt lat="45.71332" lon="6.27582">
        <ele>1150.2</ele>
        <time>2021-02-08T11:27:30Z</time>
      </trkpt>
      <trkpt lat="45.71332" lon="6.27582">
        <ele>1150.2</ele>
        <time>2021-02-08T11:27:46Z</time>
      </trkpt>
      <trkpt lat="45.71332" lon="6.27582">
        <ele>1150.2</ele>
        <time>2021-02-08T11:27:59Z</time>
      </trkpt>
      <trkpt lat="45.71332" lon="6.27582">
        <ele>1150.2</ele>
        <time>2021-02-08T11:28:04Z</time>
      </trkpt>
      <trkpt lat="45.71332" lon="6.27582">
        <ele>1150.2</ele>
        <time>2021-02-08T11:28:07Z</time>
      </trkpt>
      <trkpt lat="45.71332" lon="6.27582">
        <ele>1150.2</ele>
        <time>2021-02-08T11:28:25Z</time>
      </trkpt>
      <trkpt lat="45.71332" lon="6.27582">
        <ele>1150.2</ele>
        <time>2021-02-08T11:28:28Z</time>
      </trkpt>
      <trkpt lat="45.71332" lon="6.27582">
        <ele>1150.2</ele>
        <time>2021-02-08T11:28:45Z</time>
      </trkpt>
      <trkpt lat="45.71332" lon="6.27582">
        <ele>1150.2</ele>
        <time>2021-02-08T11:28:46Z</time>
      </trkpt>
      <trkpt lat="45.71332" lon="6.27582">
        <ele>1150.2</ele>
        <time>2021-02-08T11:29:00Z</time>
      </trkpt>
      <trkpt lat="45.71332" lon="6.27582">
        <ele>1150.2</ele>
        <time>2021-02-08T11:29:11Z</time>
      </trkpt>
      <trkpt lat="45.71332" lon="6.27582">
        <ele>1150.2</ele>
        <time>2021-02-08T11:29:18Z</time>
      </trkpt>
      <trkpt lat="45.71332" lon="6.27582">
        <ele>1150.2</ele>
        <time>2021-02-08T11:29:24Z</time>
      </trkpt>
      <trkpt lat="45.71332" lon="6.27582">
        <ele>1150.2</ele>
        <time>2021-02-08T11:29:25Z</time>
      </trkpt>
      <trkpt lat="45.71332" lon="6.27582">
        <ele>1150.2</ele>
        <time>2021-02-08T11:29:26Z</time>
      </trkpt>
      <trkpt lat="45.71332" lon="6.27582">
        <ele>1150.2</ele>
        <time>2021-02-08T11:29:32Z</time>
      </trkpt>
      <trkpt lat="45.71332" lon="6.27582">
        <ele>1150.2</ele>
        <time>2021-02-08T11:29:37Z</time>
      </trkpt>
      <trkpt lat="45.71331" lon="6.27581">
        <ele>1150.4</ele>
        <time>2021-02-08T11:29:52Z</time>
      </trkpt>
      <trkpt lat="45.71331" lon="6.27581">
        <ele>1150.4</ele>
        <time>2021-02-08T11:30:02Z</time>
      </trkpt>
      <trkpt lat="45.71331" lon="6.27581">
        <ele>1150.4</ele>
        <time>2021-02-08T11:30:03Z</time>
      </trkpt>
      <trkpt lat="45.71331" lon="6.27581">
        <ele>1150.4</ele>
        <time>2021-02-08T11:30:06Z</time>
      </trkpt>
      <trkpt lat="45.71331" lon="6.2758">
        <ele>1150.4</ele>
        <time>2021-02-08T11:30:11Z</time>
      </trkpt>
      <trkpt lat="45.71331" lon="6.2758">
        <ele>1150.4</ele>
        <time>2021-02-08T11:30:15Z</time>
      </trkpt>
      <trkpt lat="45.71331" lon="6.2758">
        <ele>1150.4</ele>
        <time>2021-02-08T11:30:23Z</time>
      </trkpt>
      <trkpt lat="45.71331" lon="6.27581">
        <ele>1150.4</ele>
        <time>2021-02-08T11:30:26Z</time>
      </trkpt>
      <trkpt lat="45.71331" lon="6.27581">
        <ele>1150.4</ele>
        <time>2021-02-08T11:30:33Z</time>
      </trkpt>
      <trkpt lat="45.7133" lon="6.27581">
        <ele>1150.6</ele>
        <time>2021-02-08T11:30:37Z</time>
      </trkpt>
      <trkpt lat="45.71331" lon="6.27581">
        <ele>1150.4</ele>
        <time>2021-02-08T11:30:47Z</time>
      </trkpt>
      <trkpt lat="45.71331" lon="6.27582">
        <ele>1150.5</ele>
        <time>2021-02-08T11:30:50Z</time>
      </trkpt>
      <trkpt lat="45.71332" lon="6.27582">
        <ele>1150.2</ele>
        <time>2021-02-08T11:31:00Z</time>
      </trkpt>
      <trkpt lat="45.71332" lon="6.27582">
        <ele>1150.2</ele>
        <time>2021-02-08T11:31:04Z</time>
      </trkpt>
      <trkpt lat="45.71332" lon="6.27581">
        <ele>1150.2</ele>
        <time>2021-02-08T11:31:07Z</time>
      </trkpt>
      <trkpt lat="45.71332" lon="6.27581">
        <ele>1150.2</ele>
        <time>2021-02-08T11:31:09Z</time>
      </trkpt>
      <trkpt lat="45.71332" lon="6.27581">
        <ele>1150.2</ele>
        <time>2021-02-08T11:31:14Z</time>
      </trkpt>
      <trkpt lat="45.71332" lon="6.27581">
        <ele>1150.2</ele>
        <time>2021-02-08T11:31:19Z</time>
      </trkpt>
      <trkpt lat="45.71332" lon="6.27581">
        <ele>1150.2</ele>
        <time>2021-02-08T11:31:27Z</time>
      </trkpt>
      <trkpt lat="45.71332" lon="6.27581">
        <ele>1150.2</ele>
        <time>2021-02-08T11:31:29Z</time>
      </trkpt>
      <trkpt lat="45.71332" lon="6.27581">
        <ele>1150.2</ele>
        <time>2021-02-08T11:31:30Z</time>
      </trkpt>
      <trkpt lat="45.71332" lon="6.27581">
        <ele>1150.2</ele>
        <time>2021-02-08T11:31:35Z</time>
      </trkpt>
      <trkpt lat="45.71332" lon="6.27581">
        <ele>1150.2</ele>
        <time>2021-02-08T11:31:41Z</time>
      </trkpt>
      <trkpt lat="45.71331" lon="6.27581">
        <ele>1150.4</ele>
        <time>2021-02-08T11:31:56Z</time>
      </trkpt>
      <trkpt lat="45.71331" lon="6.27581">
        <ele>1150.4</ele>
        <time>2021-02-08T11:32:07Z</time>
      </trkpt>
      <trkpt lat="45.71331" lon="6.27581">
        <ele>1150.4</ele>
        <time>2021-02-08T11:32:09Z</time>
      </trkpt>
      <trkpt lat="45.71331" lon="6.27581">
        <ele>1150.4</ele>
        <time>2021-02-08T11:32:18Z</time>
      </trkpt>
      <trkpt lat="45.71331" lon="6.27581">
        <ele>1150.4</ele>
        <time>2021-02-08T11:32:31Z</time>
      </trkpt>
      <trkpt lat="45.71331" lon="6.27581">
        <ele>1150.4</ele>
        <time>2021-02-08T11:32:43Z</time>
      </trkpt>
      <trkpt lat="45.71331" lon="6.27581">
        <ele>1150.4</ele>
        <time>2021-02-08T11:32:45Z</time>
      </trkpt>
      <trkpt lat="45.71331" lon="6.27581">
        <ele>1150.4</ele>
        <time>2021-02-08T11:32:46Z</time>
      </trkpt>
      <trkpt lat="45.7133" lon="6.27581">
        <ele>1150.6</ele>
        <time>2021-02-08T11:32:49Z</time>
      </trkpt>
      <trkpt lat="45.7133" lon="6.2758">
        <ele>1150.6</ele>
        <time>2021-02-08T11:32:52Z</time>
      </trkpt>
      <trkpt lat="45.7133" lon="6.2758">
        <ele>1150.6</ele>
        <time>2021-02-08T11:32:56Z</time>
      </trkpt>
      <trkpt lat="45.7133" lon="6.2758">
        <ele>1150.6</ele>
        <time>2021-02-08T11:32:57Z</time>
      </trkpt>
      <trkpt lat="45.7133" lon="6.2758">
        <ele>1150.6</ele>
        <time>2021-02-08T11:33:00Z</time>
      </trkpt>
      <trkpt lat="45.7133" lon="6.2758">
        <ele>1150.6</ele>
        <time>2021-02-08T11:33:01Z</time>
      </trkpt>
      <trkpt lat="45.7133" lon="6.2758">
        <ele>1150.6</ele>
        <time>2021-02-08T11:33:02Z</time>
      </trkpt>
      <trkpt lat="45.71331" lon="6.27581">
        <ele>1150.4</ele>
        <time>2021-02-08T11:33:08Z</time>
      </trkpt>
      <trkpt lat="45.71331" lon="6.27581">
        <ele>1150.4</ele>
        <time>2021-02-08T11:33:10Z</time>
      </trkpt>
      <trkpt lat="45.71331" lon="6.27581">
        <ele>1150.4</ele>
        <time>2021-02-08T11:33:15Z</time>
      </trkpt>
      <trkpt lat="45.71331" lon="6.27581">
        <ele>1150.4</ele>
        <time>2021-02-08T11:33:20Z</time>
      </trkpt>
      <trkpt lat="45.71331" lon="6.27581">
        <ele>1150.4</ele>
        <time>2021-02-08T11:33:24Z</time>
      </trkpt>
      <trkpt lat="45.71331" lon="6.27581">
        <ele>1150.4</ele>
        <time>2021-02-08T11:33:27Z</time>
      </trkpt>
      <trkpt lat="45.71331" lon="6.27581">
        <ele>1150.4</ele>
        <time>2021-02-08T11:33:28Z</time>
      </trkpt>
      <trkpt lat="45.71331" lon="6.27581">
        <ele>1150.4</ele>
        <time>2021-02-08T11:33:31Z</time>
      </trkpt>
      <trkpt lat="45.71331" lon="6.27581">
        <ele>1150.4</ele>
        <time>2021-02-08T11:33:36Z</time>
      </trkpt>
      <trkpt lat="45.71331" lon="6.2758">
        <ele>1150.4</ele>
        <time>2021-02-08T11:33:51Z</time>
      </trkpt>
      <trkpt lat="45.7133" lon="6.2758">
        <ele>1150.6</ele>
        <time>2021-02-08T11:33:59Z</time>
      </trkpt>
      <trkpt lat="45.7133" lon="6.2758">
        <ele>1150.6</ele>
        <time>2021-02-08T11:34:01Z</time>
      </trkpt>
    </trkseg>
  </trk>
</gpx>